GFSNW_sfc_wetblb_000.txt.gz
Wetbulb
54.39 53.86 53.66 53.38 52.77 52.11 54.26 63.16 54.61 62.20 63.61 54.53 54.24 49.28 48.69 44.58 48.83 50.59 49.32 49.43 47.89 46.12 46.39 45.06 44.81 43.89 46.67 49.59 48.85 45.27 47.88 43.59 38.08 41.51 47.90 48.76 46.44 44.50 44.38 36.23 35.47 37.86 36.36 36.10
54.57 53.97 53.70 53.26 52.68 52.28 57.25 56.30 55.88 63.17 61.93 50.12 49.20 49.70 48.33 49.73 48.61 48.70 48.59 47.48 48.70 48.92 46.31 43.33 45.78 46.34 49.40 49.74 47.94 45.61 46.55 42.83 35.77 39.35 44.79 46.75 44.34 45.30 45.43 44.13 38.97 35.19 31.95 35.29
54.75 54.39 53.91 53.42 52.96 52.64 57.33 56.46 50.22 56.91 57.77 55.82 51.09 48.54 47.95 46.59 50.49 48.88 49.62 48.44 49.39 47.92 46.22 48.00 45.00 45.74 48.85 49.82 49.13 46.88 47.19 42.73 39.54 34.83 39.00 43.27 39.94 42.72 44.17 42.54 35.94 36.67 37.26 39.82
54.49 54.49 53.93 53.32 52.71 52.38 58.16 56.12 52.18 53.01 50.54 52.51 51.46 50.80 48.97 47.09 46.63 49.86 49.97 48.02 47.50 46.26 41.02 43.15 43.20 46.55 47.50 49.63 47.56 48.78 46.66 39.62 41.58 42.37 42.91 42.46 40.92 40.72 41.93 40.74 40.97 35.91 38.74 40.82
53.91 54.35 53.75 53.01 52.53 51.78 59.54 54.21 53.26 53.80 50.88 50.52 49.97 46.60 47.52 46.75 47.62 47.43 46.83 45.89 47.81 47.75 44.99 44.69 43.07 45.79 45.95 44.97 48.37 47.43 47.63 38.05 38.47 36.47 41.31 41.61 38.35 40.52 41.58 41.37 41.65 41.63 42.21 41.65
53.51 54.93 53.53 52.78 52.12 53.15 58.13 57.68 56.67 55.28 48.17 49.92 49.28 49.14 47.51 47.10 48.50 49.43 49.16 48.75 47.82 43.60 47.63 50.31 50.23 50.08 49.20 48.49 46.33 44.77 43.89 39.37 34.34 32.82 38.37 36.44 32.21 37.04 40.45 42.02 43.49 42.70 37.25 42.38
52.99 51.70 51.17 52.97 52.05 52.12 60.30 58.76 57.05 47.42 48.06 51.27 48.08 48.40 48.73 48.05 48.63 47.40 49.78 50.40 45.27 50.57 54.25 53.05 50.84 49.22 48.06 47.55 46.89 48.14 41.29 36.58 34.54 32.55 32.94 27.63 40.11 45.65 44.20 42.17 43.87 44.81 43.94 44.43
52.59 50.88 52.10 53.70 52.83 52.54 59.63 59.78 56.93 50.39 36.77 50.08 48.77 48.91 48.50 49.54 49.93 48.75 49.07 50.35 52.42 54.59 50.88 44.60 36.59 39.80 37.32 39.16 45.77 46.19 47.31 39.17 35.32 31.88 32.76 35.87 38.92 42.30 41.67 39.77 39.44 45.05 43.87 45.11
51.70 51.38 52.27 52.84 52.01 52.62 57.39 60.54 60.69 55.75 38.93 46.50 50.37 48.94 49.69 47.98 48.37 49.24 49.89 53.37 54.56 52.18 48.15 39.86 32.74 33.65 36.80 36.95 39.70 46.30 43.40 40.56 39.84 36.41 30.54 27.28 38.31 43.63 47.01 46.13 34.68 45.07 44.82 44.00
51.20 50.85 50.76 51.23 51.56 52.13 56.41 60.36 62.36 56.82 49.19 51.92 51.92 48.92 49.35 51.18 49.97 47.51 49.67 49.40 46.34 50.73 40.94 35.14 34.36 35.26 40.62 34.60 33.27 33.96 37.57 36.84 33.86 34.06 31.86 34.93 43.23 46.03 47.50 33.70 35.94 44.04 45.08 44.70
50.95 50.53 50.26 50.52 50.49 51.08 54.70 59.82 62.30 58.10 50.94 52.35 53.98 53.89 51.04 50.85 50.58 47.81 49.15 47.56 49.80 44.50 36.59 35.69 37.44 35.14 39.09 38.57 39.70 37.78 35.90 34.45 33.30 32.97 31.46 30.20 47.27 46.22 36.80 42.50 46.72 45.98 45.40 44.91
50.32 50.23 49.97 50.22 50.31 50.58 51.73 55.04 61.40 60.29 54.87 52.91 57.15 57.10 57.80 55.76 54.27 51.11 51.25 47.62 47.91 47.75 42.93 39.38 38.77 34.96 36.05 34.96 32.19 41.91 34.51 38.99 37.15 37.95 37.65 45.53 47.77 46.28 48.35 47.74 46.05 46.04 45.94 46.19
50.05 49.96 50.03 50.15 50.36 50.48 52.17 55.70 58.60 55.74 41.13 50.12 51.52 51.36 56.41 58.28 57.27 58.88 49.12 52.16 51.30 49.67 52.09 47.09 36.59 33.87 41.06 33.68 35.65 36.62 41.35 44.27 38.68 38.41 41.95 44.07 45.93 47.87 48.19 48.61 46.43 46.65 46.87 45.75
49.11 49.26 49.36 49.33 49.95 50.35 51.20 53.95 57.86 54.66 43.45 33.87 43.61 54.45 53.15 57.11 57.10 56.76 55.99 53.91 54.07 52.99 51.38 40.58 35.32 33.69 41.50 35.66 38.61 38.11 41.36 42.11 38.80 38.26 42.45 44.42 45.86 47.33 47.53 47.29 47.53 45.94 46.33 45.26
48.86 49.00 49.18 49.49 49.77 50.06 51.50 53.61 56.06 56.44 49.62 37.86 40.48 47.59 52.97 54.60 55.44 54.07 54.51 53.20 51.28 49.42 43.46 36.23 35.51 42.83 39.84 41.84 38.90 37.25 42.10 39.97 37.70 36.30 43.65 43.65 44.44 47.67 48.43 45.73 45.12 45.84 44.26 42.23
48.55 48.84 49.53 49.36 49.31 49.44 49.53 44.34 51.43 52.68 52.79 39.68 34.06 45.47 45.76 51.22 52.61 51.88 51.61 51.93 51.09 49.91 45.78 38.39 43.24 45.56 39.43 33.69 35.71 42.19 45.28 45.97 46.81 43.50 47.13 46.80 47.75 47.12 46.85 45.25 44.70 44.48 42.75 42.82
47.96 48.43 48.70 49.02 48.75 50.22 45.93 42.85 47.67 50.67 52.36 35.14 35.32 39.87 43.64 46.83 48.44 49.53 49.47 51.27 49.31 47.98 44.51 39.46 39.10 39.31 41.68 33.68 34.65 42.13 44.98 46.22 46.54 47.49 46.78 42.70 44.61 43.70 45.66 44.83 43.99 43.75 43.25 42.67
47.98 48.21 48.30 48.90 48.72 47.98 44.36 47.18 48.52 49.82 44.03 38.19 34.42 34.06 36.77 44.78 42.60 40.65 44.86 42.55 41.60 41.37 40.28 38.65 37.48 40.98 37.48 34.34 41.00 43.77 45.42 45.84 46.14 45.26 46.24 45.11 44.08 43.62 42.62 43.15 42.67 41.30 40.21 39.75
47.63 47.56 47.52 47.42 44.95 40.71 43.05 47.40 47.58 47.29 42.44 34.60 32.24 32.61 32.97 43.50 40.18 38.69 37.96 39.33 32.79 40.10 35.32 38.13 39.20 38.34 34.77 39.49 41.83 43.31 44.61 43.93 43.12 44.03 42.95 42.16 40.65 40.43 41.04 41.08 40.78 39.46 38.94 37.96
46.80 47.20 42.31 35.85 40.94 46.87 46.71 43.25 37.98 36.55 36.23 35.79 32.24 38.92 36.05 42.13 37.86 35.32 35.87 35.69 32.97 32.24 36.53 41.55 37.06 36.45 42.50 43.96 44.49 44.83 43.48 42.57 42.20 39.38 37.67 38.15 38.40 39.40 39.75 39.60 40.41 39.91 36.98 36.36
46.39 41.95 37.50 43.78 45.69 44.59 41.12 35.49 33.69 34.01 32.42 33.83 36.15 37.35 37.99 42.61 34.94 33.69 35.87 33.15 34.42 30.92 35.06 36.50 35.23 33.90 38.90 43.39 43.58 43.29 42.77 42.19 41.73 41.46 41.12 40.65 40.36 39.53 38.84 37.80 38.32 36.73 35.60 34.70
44.60 44.95 45.76 45.14 41.42 39.20 33.96 33.12 35.37 33.50 33.19 37.22 35.63 37.06 38.85 38.47 41.92 37.03 37.66 33.18 35.37 28.13 37.86 32.29 29.48 36.39 40.68 41.39 41.04 41.47 41.74 41.07 40.35 40.83 39.85 40.00 40.01 39.98 37.61 37.65 37.15 35.10 34.53 31.37
46.58 42.38 37.30 37.75 36.09 30.75 28.92 27.92 31.66 32.86 36.41 35.03 35.60 34.25 37.41 38.03 37.55 34.60 33.29 29.72 28.72 35.89 31.37 29.33 34.00 39.47 41.19 41.30 40.29 39.88 40.11 38.56 36.35 38.09 38.88 39.63 39.42 37.88 34.17 33.64 34.45 33.30 32.18 32.28
38.65 33.91 28.98 31.53 29.60 30.70 32.79 33.62 33.15 33.69 34.60 35.69 36.73 34.96 36.09 35.66 31.93 32.79 27.97 32.61 34.02 27.98 26.43 28.74 36.06 37.92 38.85 39.52 39.23 37.94 37.19 33.74 33.94 35.86 36.84 35.73 34.90 33.46 33.31 33.33 31.25 30.67 30.36 31.18
34.65 35.09 27.83 30.04 35.06 35.17 33.50 35.69 36.18 36.00 37.54 38.04 35.99 36.33 34.65 33.31 30.24 32.13 31.04 27.12 24.95 27.70 28.75 35.57 37.41 38.73 38.90 37.98 38.88 37.69 34.56 32.58 33.19 35.92 35.28 33.98 33.30 32.88 32.80 33.36 32.28 31.84 31.35 30.36
34.93 32.36 30.85 34.61 33.54 32.06 32.06 32.42 33.51 37.68 38.13 37.33 36.55 32.01 28.38 27.11 29.40 26.93 25.36 25.17 24.08 30.52 37.56 37.30 37.95 37.25 37.29 36.36 36.23 36.27 36.27 35.08 35.67 36.37 36.14 35.43 34.24 33.33 34.22 33.69 32.39 32.06 31.68 30.95
30.13 31.97 36.38 34.24 34.06 32.61 33.87 33.84 35.09 39.67 34.75 31.43 32.50 25.84 25.40 31.81 26.68 25.36 29.81 28.26 32.58 35.71 36.02 37.17 37.48 36.36 36.23 36.04 36.33 34.18 34.72 35.62 35.63 36.51 35.66 35.71 35.33 34.03 32.62 31.51 32.03 31.96 31.86 31.39

GFSNW_sfc_wetblb_003.txt.gz
Wetbulb
54.14 53.95 53.87 53.19 52.69 52.51 55.13 55.91 48.88 56.09 58.50 48.80 47.69 40.94 46.01 45.19 47.89 49.63 48.22 47.29 46.10 43.99 44.47 42.50 42.63 42.63 44.76 47.37 46.14 42.79 43.77 38.41 30.17 38.36 44.83 46.13 43.16 42.04 41.93 32.83 32.42 30.95 28.58 33.09
54.32 53.85 53.63 53.08 52.55 52.26 49.67 51.83 50.72 57.55 56.47 37.04 37.20 45.37 47.23 47.88 47.56 47.38 47.46 46.13 46.79 46.66 43.64 37.44 43.57 44.62 47.75 47.14 46.09 42.11 42.84 34.37 28.10 33.37 39.36 42.70 40.75 42.49 41.63 38.28 32.25 31.13 28.50 31.95
54.26 54.03 53.61 53.31 52.59 52.44 51.95 51.47 39.18 50.72 52.66 50.52 45.56 44.03 45.19 44.90 48.72 47.79 48.64 47.29 47.69 45.59 43.15 45.17 40.81 43.26 47.19 47.93 47.02 46.17 44.74 39.23 33.25 28.90 34.15 39.54 36.59 39.49 40.46 37.83 24.79 31.12 32.28 35.84
53.94 53.86 53.61 53.09 52.47 52.17 53.86 50.85 43.84 47.35 39.34 43.03 45.58 46.06 46.94 45.09 44.46 48.41 48.22 46.19 46.24 44.00 36.61 38.57 39.45 44.48 46.30 47.11 45.83 45.49 43.63 33.35 37.70 38.99 40.56 41.05 40.19 38.88 39.00 37.08 36.41 31.81 35.16 36.36
53.24 53.54 53.24 52.34 52.06 51.74 54.46 47.47 45.85 49.14 44.61 47.37 45.44 42.24 44.25 44.83 45.75 45.69 45.54 43.64 46.06 45.25 39.84 42.80 38.84 42.85 42.15 40.97 44.42 42.32 44.01 32.86 34.66 35.10 39.52 40.00 35.97 36.86 38.14 37.71 37.50 37.46 37.75 36.99
52.84 53.18 50.85 51.11 51.96 52.47 53.84 51.81 50.65 49.47 43.78 42.66 38.16 39.69 45.17 45.69 46.82 46.66 47.83 46.05 43.87 38.03 44.89 45.90 45.82 45.66 45.62 44.85 42.55 38.37 37.94 32.31 30.87 33.14 36.35 34.36 27.53 33.82 36.25 37.79 39.09 37.98 31.87 36.39
52.59 51.35 50.83 52.42 51.74 51.80 53.86 53.72 52.01 39.89 36.02 36.70 42.01 46.95 47.22 45.82 46.30 44.15 47.73 46.82 39.47 47.50 50.88 47.93 44.37 42.48 43.59 43.15 43.55 43.56 33.14 30.22 29.34 30.92 29.24 26.49 35.86 42.24 41.33 38.62 39.83 40.36 40.50 41.25
52.47 50.62 50.52 52.31 51.81 51.80 53.54 55.15 51.92 41.43 33.73 41.18 44.02 45.80 45.53 46.19 46.21 44.43 46.23 48.07 49.61 49.68 45.19 35.99 33.01 30.99 31.16 34.39 42.26 41.81 41.73 32.59 31.70 31.18 29.12 32.11 35.77 39.23 36.33 35.04 35.73 41.93 40.80 42.39
51.84 51.88 51.56 52.11 51.80 51.88 53.80 56.15 55.17 46.06 36.32 38.08 48.85 44.27 45.28 37.89 37.07 39.13 44.46 50.00 49.83 48.12 34.95 34.65 29.86 22.45 29.90 30.94 36.45 42.73 39.65 36.01 31.87 27.92 24.66 24.60 31.78 40.08 44.13 42.88 31.94 42.02 43.39 42.69
51.10 51.28 50.92 51.23 51.35 51.72 52.93 54.40 57.90 52.29 42.05 46.89 47.55 42.11 41.26 46.62 41.60 38.10 40.79 43.32 39.96 45.36 34.97 32.72 32.36 28.57 36.03 27.89 26.58 26.84 29.18 26.82 25.25 19.43 27.27 30.05 38.25 42.49 44.91 29.48 33.83 41.03 43.34 43.95
50.58 50.60 50.69 50.65 50.63 51.20 52.98 54.38 57.95 53.14 43.37 47.39 50.25 51.16 46.88 46.53 43.18 35.33 42.13 40.74 38.55 35.69 33.08 33.34 31.69 32.68 30.94 29.98 34.65 29.57 28.16 25.81 28.92 28.22 30.19 25.42 42.97 41.26 32.33 37.89 41.04 43.67 41.84 41.88
50.36 50.36 50.14 50.21 50.48 50.82 51.46 51.36 57.14 56.74 48.76 48.37 54.03 54.14 54.07 52.47 50.89 46.98 44.05 41.65 42.84 40.79 33.59 33.11 33.65 32.99 33.52 32.64 31.38 38.09 31.41 33.84 29.16 32.18 30.80 39.56 43.02 41.85 43.56 44.69 43.36 42.73 42.33 43.44
49.84 49.76 49.99 49.90 50.31 50.75 51.91 52.28 54.31 51.31 39.55 46.57 46.98 47.24 52.52 55.76 54.22 54.47 41.64 40.59 47.33 44.96 45.83 38.91 35.38 33.91 35.32 32.63 33.29 33.43 39.21 41.83 35.02 33.87 38.74 41.08 42.58 44.45 45.17 45.10 43.44 45.25 45.45 44.64
49.37 49.51 49.55 49.45 50.01 50.50 51.28 51.41 54.71 51.88 42.58 34.11 42.11 50.80 49.65 55.02 54.39 53.18 52.65 50.27 50.70 49.01 45.60 36.28 34.09 33.55 41.03 34.39 37.26 36.28 38.94 38.44 36.13 36.07 39.86 41.44 42.33 42.71 44.17 44.88 46.04 45.90 44.55 43.07
48.97 49.11 49.22 49.33 49.90 50.21 50.48 51.63 53.48 54.57 49.00 36.45 37.61 45.55 50.04 52.26 52.24 51.79 51.76 50.56 48.82 42.51 38.26 34.27 34.44 36.95 37.13 36.24 35.32 34.84 41.18 38.48 35.61 34.46 41.05 40.56 41.81 43.53 45.37 44.71 44.03 44.59 42.82 40.40
48.77 49.07 49.25 49.42 49.25 49.74 49.55 44.19 49.89 53.13 53.15 39.91 34.65 44.43 43.90 47.68 49.41 48.44 49.17 48.89 48.01 46.79 41.55 35.53 39.42 43.74 39.08 33.20 34.98 40.00 42.83 43.99 44.49 41.41 44.02 43.83 43.75 44.37 44.46 43.53 43.63 42.00 40.77 40.17
48.10 48.57 48.88 49.13 48.88 50.54 46.33 42.86 46.91 50.63 51.42 35.92 35.00 35.69 40.98 43.17 44.59 45.76 45.99 47.25 46.00 45.22 41.55 37.70 38.21 38.91 41.51 33.17 35.23 40.94 43.04 43.25 43.89 45.10 44.84 42.89 43.41 40.55 42.59 41.87 41.86 41.99 41.14 40.96
47.94 48.26 48.46 48.93 49.31 48.19 44.45 46.67 48.44 50.40 44.77 38.25 34.64 34.24 35.07 42.56 36.76 35.10 39.73 36.21 38.28 40.70 39.98 37.11 35.89 38.30 35.72 33.14 39.55 41.92 42.88 43.63 43.69 44.48 45.03 42.75 41.32 39.94 40.05 41.01 40.45 39.19 38.47 38.35
48.13 48.19 48.01 46.51 44.26 40.78 42.74 47.31 46.70 46.19 42.57 35.71 32.64 32.28 32.43 41.42 38.07 36.17 35.66 37.43 32.63 37.73 33.53 35.48 37.59 34.21 33.77 37.41 39.33 40.75 41.95 40.74 40.46 41.39 40.80 39.87 38.54 38.51 38.31 38.10 38.26 37.71 37.80 36.66
47.11 45.70 40.88 34.80 39.35 46.87 46.30 42.56 36.88 35.99 34.80 34.73 32.28 35.84 33.72 39.89 34.08 32.82 33.35 32.99 32.04 30.74 33.22 36.67 32.99 32.44 39.15 40.73 41.91 42.57 40.57 40.51 40.62 35.57 34.68 35.37 34.93 36.29 36.65 36.35 36.94 36.87 34.74 34.57
44.14 37.98 35.18 42.20 46.62 43.33 38.20 32.21 31.98 32.57 30.91 31.81 33.55 34.89 34.21 38.51 33.07 32.25 33.35 31.69 31.87 27.93 26.25 26.93 22.86 27.21 34.84 39.28 39.99 40.75 41.23 41.25 39.86 38.44 38.34 38.16 36.97 36.39 35.54 32.78 32.45 30.54 30.27 31.34
42.89 42.22 43.95 42.69 40.07 34.97 32.64 31.42 32.40 30.99 28.44 32.86 32.68 34.27 36.76 35.15 39.70 33.13 32.78 29.21 29.31 22.97 28.71 25.52 24.39 28.72 36.83 37.94 38.39 38.84 37.51 37.07 36.39 36.11 35.20 35.36 36.32 35.34 32.82 31.52 30.78 28.94 30.19 28.90
44.20 38.63 34.05 36.46 33.38 29.63 25.53 23.49 29.32 27.53 33.17 34.06 33.29 32.79 33.70 34.73 34.62 32.04 30.99 27.25 26.15 27.14 26.60 23.49 25.24 33.64 37.08 36.70 36.63 36.28 35.91 32.35 31.59 34.07 34.91 35.16 34.59 34.24 29.26 29.19 26.64 32.32 31.08 28.04
32.28 30.28 22.24 24.59 24.44 23.35 28.47 29.20 31.80 32.61 33.17 33.35 33.13 32.63 30.62 31.32 29.39 29.77 25.51 24.80 25.73 19.53 16.15 18.37 25.88 32.24 35.78 36.01 35.73 35.80 35.50 29.83 29.41 31.23 31.66 29.99 28.35 28.75 26.85 23.48 31.22 30.91 27.49 28.66
29.86 28.30 20.12 21.62 28.48 31.20 31.86 32.81 33.17 32.99 34.18 34.05 32.55 31.92 30.51 24.07 22.56 22.53 20.75 17.22 21.67 18.75 17.77 21.75 27.45 32.27 32.98 33.64 35.39 34.79 28.90 25.39 26.40 31.29 28.86 28.21 27.28 32.29 32.98 33.19 32.09 30.09 29.26 28.86
29.58 27.36 22.66 26.36 25.26 29.87 30.47 31.86 32.46 34.44 33.02 31.82 29.37 24.98 19.63 18.26 20.36 16.78 17.00 15.72 16.04 18.93 22.71 26.19 28.21 31.37 32.30 32.54 31.21 31.29 31.89 31.63 32.13 31.88 31.02 30.89 26.63 31.47 33.20 33.44 32.63 32.10 30.25 27.67
25.21 22.61 29.15 31.66 29.39 31.33 30.72 32.08 31.43 35.39 28.21 21.42 22.02 16.81 18.97 22.98 16.00 16.01 23.42 18.40 20.21 22.90 25.18 27.22 30.05 30.86 31.35 31.99 31.28 29.39 30.55 31.82 30.95 31.29 30.63 30.67 28.43 28.64 30.99 31.22 31.22 30.17 27.90 28.21

GFSNW_sfc_wetblb_006.txt.gz
Wetbulb
53.29 53.26 53.14 52.82 52.33 52.17 52.30 52.69 41.90 51.24 54.65 45.00 42.61 38.41 43.93 44.56 45.97 48.29 46.61 45.72 44.12 42.12 42.25 40.80 40.98 40.93 43.00 45.66 44.83 40.87 42.23 35.66 29.70 36.34 42.18 43.77 40.87 38.72 37.97 27.40 30.61 29.36 28.19 32.05
53.07 53.04 52.81 52.62 52.03 51.76 49.78 48.23 47.74 54.12 53.53 34.70 33.95 43.23 45.55 46.28 46.14 45.49 45.80 44.15 45.10 45.11 41.92 36.51 41.70 42.68 46.19 45.37 44.54 40.62 40.96 32.61 27.08 31.67 36.64 40.55 38.67 40.32 39.17 36.27 30.16 28.45 22.60 28.45
53.01 52.88 52.80 52.56 52.08 51.88 51.65 46.47 39.28 45.96 48.07 46.44 42.75 41.83 42.97 43.05 47.09 46.12 46.71 45.36 46.08 43.47 41.43 42.98 38.78 41.78 45.87 46.23 45.30 45.50 43.47 37.23 31.95 27.30 31.76 36.88 35.49 38.54 39.27 35.11 23.43 30.81 32.26 33.95
52.69 52.81 52.54 51.81 51.90 51.71 52.50 46.76 41.27 45.29 36.74 40.85 42.40 44.07 44.97 43.32 42.51 46.35 46.18 44.28 44.15 41.97 35.34 36.93 38.14 42.45 43.23 45.14 45.13 43.55 40.84 32.42 35.28 36.82 38.28 38.67 38.69 38.04 38.40 36.00 35.06 29.30 32.77 33.77
52.35 52.15 49.66 50.22 51.52 51.91 49.57 45.04 44.58 45.49 43.06 45.87 42.89 39.78 42.04 43.11 43.89 44.62 43.20 42.24 44.01 43.58 38.93 39.65 36.61 40.98 39.94 39.84 42.38 39.91 41.42 31.70 32.93 34.38 38.14 38.07 35.71 37.98 37.26 36.61 36.77 35.19 35.24 34.46
52.31 50.38 49.69 51.55 51.29 52.93 49.71 49.76 48.68 45.67 39.73 39.15 35.92 37.03 42.83 43.80 45.46 45.00 46.14 44.48 41.84 36.40 42.80 44.71 44.84 44.91 44.36 43.53 40.91 35.97 36.09 30.59 27.40 30.03 33.81 32.77 30.68 33.43 34.73 35.96 37.18 35.31 30.28 34.92
52.13 49.88 49.57 50.97 50.78 51.32 52.56 50.92 47.02 38.47 33.71 32.76 38.28 44.80 45.07 44.07 44.17 42.70 45.48 44.72 38.85 45.43 48.36 45.51 42.94 40.24 40.01 40.55 40.49 42.16 31.55 29.05 28.63 26.52 30.27 25.25 35.61 39.66 39.50 36.43 37.69 38.33 39.29 39.76
51.96 49.13 50.47 51.01 50.69 51.40 52.24 52.22 48.81 39.89 33.04 37.37 41.20 43.17 43.39 43.49 43.23 42.52 44.01 46.29 47.26 47.31 41.22 33.12 29.04 29.03 29.91 31.47 40.92 40.32 39.71 33.12 30.17 26.94 28.60 31.38 35.12 37.89 34.65 32.46 34.56 39.82 39.43 41.17
51.43 51.30 51.49 51.46 50.98 51.37 52.95 53.76 51.14 43.78 35.75 36.91 46.43 42.64 43.00 36.09 34.62 37.75 42.19 47.82 47.91 43.73 34.39 28.71 21.20 20.82 27.84 30.29 34.52 40.83 37.34 31.93 26.90 28.66 26.13 24.19 31.04 37.53 41.96 40.80 30.26 41.12 41.13 40.70
50.78 50.88 51.00 51.44 51.09 51.59 52.34 52.18 54.47 48.45 39.15 44.71 46.34 40.86 39.84 44.01 38.57 36.61 37.41 42.40 38.55 41.90 34.42 28.53 27.68 25.61 33.87 27.58 24.01 24.26 26.76 30.55 23.91 18.85 25.07 26.35 35.85 39.71 42.10 25.46 30.04 38.06 40.88 41.63
50.34 50.64 50.75 50.58 50.86 51.05 52.41 52.63 55.14 50.72 42.42 45.88 49.00 49.64 45.34 44.99 41.19 34.57 40.37 39.71 36.82 35.10 32.75 30.86 28.66 31.28 29.40 28.70 33.01 29.82 28.12 24.89 27.76 27.01 25.84 25.52 40.38 40.70 33.47 36.83 38.25 41.41 41.60 41.26
49.96 50.11 50.29 50.50 50.56 50.63 51.77 49.42 54.80 54.08 47.24 45.96 51.64 52.39 53.15 51.24 48.17 44.98 41.58 40.60 39.41 37.92 33.52 33.31 28.48 32.02 32.75 27.44 30.26 36.07 31.84 32.98 28.81 30.01 29.69 37.49 40.32 41.27 41.42 43.25 41.88 41.18 42.31 43.86
49.63 49.73 50.04 50.12 50.24 50.77 51.32 50.43 52.31 49.03 39.88 44.62 45.41 46.43 51.15 54.03 52.46 51.76 40.94 36.92 45.66 42.75 41.97 35.59 34.44 32.96 34.53 32.76 33.11 33.31 37.44 39.77 33.01 33.62 37.47 39.20 40.73 43.61 44.22 42.83 41.07 44.70 44.79 42.96
49.35 49.37 49.32 49.53 49.91 50.53 50.78 49.29 51.42 48.84 41.80 34.26 42.09 48.93 48.70 52.53 52.29 51.49 50.04 48.92 48.55 47.92 44.68 35.51 34.26 33.35 40.32 34.56 38.03 36.16 39.04 39.94 36.62 36.87 39.81 40.80 41.61 41.88 42.85 44.57 45.18 42.98 43.05 42.25
48.90 49.05 49.30 49.44 49.91 50.53 50.81 50.59 51.90 52.39 47.62 36.61 38.48 45.25 48.81 50.98 51.55 50.34 50.52 49.46 46.83 39.28 37.16 33.52 34.77 36.19 36.41 34.95 34.57 34.66 40.28 38.73 35.61 34.93 40.92 40.05 40.95 43.78 43.66 41.98 40.80 40.19 39.22 38.65
48.54 48.87 49.19 49.57 49.50 50.17 49.86 45.01 48.59 51.26 53.27 40.24 35.16 44.47 42.83 46.32 47.72 47.53 46.92 47.61 46.25 44.97 39.50 34.95 37.92 42.59 39.16 33.35 33.74 39.97 42.06 44.10 44.54 41.49 44.18 43.24 43.84 43.22 43.02 40.95 41.18 41.43 40.96 40.10
48.29 48.75 48.94 49.01 48.68 50.45 46.82 43.63 46.95 50.91 51.37 36.43 35.53 35.65 38.98 41.46 43.35 43.32 43.29 44.89 44.49 44.52 41.70 36.96 38.18 38.81 41.74 33.16 35.95 41.21 42.80 42.85 44.30 44.97 43.46 40.47 41.14 39.16 41.08 40.41 40.41 40.43 39.40 40.43
48.03 48.43 48.90 49.12 49.10 48.36 44.91 46.98 48.41 50.60 45.30 38.58 34.62 34.57 35.58 42.16 35.63 33.91 38.37 35.31 37.53 40.61 40.14 36.55 35.87 37.23 35.15 33.29 41.02 41.60 42.14 43.07 43.09 43.14 41.77 40.79 40.89 40.00 38.32 39.04 39.24 37.86 36.64 37.51
48.05 48.16 48.41 46.72 44.57 40.93 42.84 46.63 46.66 45.52 43.55 36.24 32.81 32.79 32.79 41.35 37.69 35.63 34.33 35.22 33.16 36.61 32.97 34.74 36.89 32.78 33.53 37.06 38.76 39.88 40.54 38.78 39.31 39.43 38.82 38.84 37.56 36.86 38.11 38.05 36.50 36.11 35.62 35.77
47.49 45.23 41.13 35.13 39.30 46.88 46.18 42.47 37.59 36.34 35.15 35.40 32.61 35.29 33.87 39.97 33.68 32.61 32.96 32.78 31.87 30.17 32.76 36.81 32.78 34.38 39.77 40.72 41.80 41.87 38.96 39.14 38.79 34.71 33.49 34.77 33.11 33.40 33.65 34.38 35.09 33.24 32.34 33.45
43.28 37.20 35.15 41.80 46.79 42.73 37.19 32.57 33.09 33.06 31.28 32.17 33.22 33.97 34.02 37.98 33.25 32.40 32.94 31.66 31.45 26.80 25.28 31.02 23.69 28.00 32.79 36.88 37.12 37.90 38.21 38.34 38.02 36.61 35.72 34.20 34.05 32.85 32.66 31.53 31.56 29.32 28.93 29.54
42.60 41.66 43.77 42.09 39.81 34.38 32.48 30.89 31.09 31.06 27.94 32.16 32.04 33.61 36.11 34.59 38.83 32.51 31.63 28.38 29.26 24.29 27.06 25.56 25.51 26.28 33.73 34.67 34.55 35.14 34.40 36.00 36.02 34.93 34.72 34.27 33.91 33.23 31.66 30.90 30.17 28.17 27.19 27.58
43.12 37.33 34.38 35.45 32.88 29.81 26.53 25.02 28.14 27.59 31.60 33.46 33.16 32.43 33.50 34.02 33.91 31.45 27.72 26.08 24.53 23.20 25.43 24.35 23.03 31.22 34.29 34.91 35.37 35.97 36.07 33.47 32.09 35.24 35.45 34.56 33.04 31.53 28.45 29.50 28.04 24.46 27.08 30.42
31.56 29.21 26.49 27.63 22.77 24.77 25.82 27.63 29.46 32.37 32.60 32.78 33.13 32.02 30.18 30.47 22.88 28.41 25.01 23.50 22.16 21.19 21.33 17.28 24.30 29.75 32.65 33.76 34.36 34.12 33.64 29.86 28.96 31.59 32.08 29.66 27.83 27.67 28.23 32.88 32.18 30.91 31.35 31.37
28.30 27.11 20.67 22.60 28.24 29.42 31.42 32.40 32.58 32.75 33.64 33.14 32.01 30.17 29.81 23.19 19.26 18.32 20.47 16.59 20.91 22.93 16.79 20.11 25.26 29.47 30.90 31.43 32.70 32.40 28.39 27.85 27.91 31.32 28.54 27.37 26.63 25.67 27.33 30.00 32.18 28.60 29.78 31.22
27.09 25.82 20.28 25.15 28.40 28.14 30.16 31.53 31.89 33.52 31.48 27.83 27.61 22.68 18.65 18.58 17.49 14.88 13.66 14.20 14.28 17.02 17.84 23.21 26.41 29.85 30.01 30.19 29.90 30.25 30.12 29.69 30.83 31.47 30.70 30.04 27.51 28.58 28.84 30.91 32.55 29.17 32.13 31.47
21.37 18.81 28.49 27.70 26.58 22.40 30.48 27.86 32.01 34.27 30.89 19.61 19.70 16.53 18.97 20.27 11.66 12.23 21.03 15.87 18.24 20.73 23.79 26.70 28.53 29.41 29.76 30.01 29.70 28.07 29.32 30.45 30.33 30.66 29.94 29.45 29.51 26.56 29.40 29.21 29.44 26.77 29.95 30.83

GFSNW_sfc_wetblb_009.txt.gz
Wetbulb
52.75 52.68 52.89 52.45 52.21 51.85 53.84 48.87 40.97 50.17 52.19 44.66 39.48 36.98 41.91 43.87 44.94 47.03 45.26 44.33 42.63 40.68 40.46 39.35 39.18 39.22 41.43 44.05 43.34 39.02 40.30 34.46 28.90 34.58 40.31 41.94 39.84 37.17 36.11 30.16 28.74 28.02 24.55 29.76
52.41 52.38 52.53 52.15 51.86 51.85 50.84 47.11 46.04 51.79 49.99 35.32 31.89 41.56 43.94 44.79 44.33 44.05 43.77 42.35 43.59 43.86 39.82 35.66 40.03 40.87 44.52 44.19 42.79 39.10 39.66 31.95 26.10 30.35 34.93 38.02 36.84 37.78 37.41 33.20 29.29 28.40 24.02 27.66
52.63 52.43 51.84 50.63 51.63 51.69 51.69 44.49 38.06 44.94 45.52 43.40 41.10 40.28 40.86 41.48 45.47 44.56 45.05 43.59 44.53 41.90 39.72 41.23 37.49 40.56 44.38 45.38 43.82 44.41 42.55 35.30 30.97 26.85 30.58 34.94 34.19 36.57 37.22 34.53 26.88 28.57 31.08 33.46
52.31 51.39 49.40 50.79 51.34 51.44 51.48 44.41 39.54 44.00 35.86 39.53 41.43 42.29 43.04 41.36 40.65 44.36 44.82 42.86 42.48 40.14 34.15 35.68 36.54 40.80 41.88 43.47 44.15 42.25 39.49 32.26 33.92 35.04 36.39 36.57 36.91 36.27 37.48 35.18 34.41 31.15 33.01 33.08
51.85 49.00 49.92 51.36 51.32 51.82 48.07 44.87 43.36 43.18 42.25 44.23 40.68 38.52 40.03 41.84 42.26 42.84 41.39 41.12 42.23 42.06 37.75 38.51 35.80 39.70 38.65 38.95 41.07 38.76 39.67 30.24 32.04 31.47 36.01 36.53 34.64 36.75 36.40 36.52 36.06 34.64 34.15 32.93
50.41 48.66 48.89 50.88 51.18 52.12 48.27 47.61 46.41 43.73 37.33 36.34 35.09 35.61 40.92 42.31 43.81 43.86 44.58 43.39 40.27 34.91 42.02 43.77 43.46 43.83 43.03 41.69 39.31 35.64 35.32 30.09 27.83 25.03 32.63 30.99 26.20 31.24 33.96 34.90 35.71 34.50 29.57 33.86
49.38 48.49 48.77 50.52 50.80 51.68 50.89 48.63 44.10 38.37 32.92 30.90 36.86 42.62 43.10 42.27 42.38 41.78 43.53 43.14 38.02 42.95 46.13 43.50 41.09 38.56 37.73 37.48 38.38 40.56 31.07 28.99 27.47 22.29 30.96 21.82 34.02 37.71 37.91 35.42 36.58 36.65 36.42 38.50
50.25 48.35 49.56 50.32 50.51 51.34 52.53 50.24 45.78 39.14 32.52 35.71 39.00 42.21 42.25 41.97 42.22 40.93 42.61 44.73 44.84 44.76 39.72 32.48 28.33 28.42 28.84 29.28 39.72 37.60 36.45 32.20 28.62 27.18 26.74 28.87 34.16 36.36 33.65 31.83 32.96 38.17 38.33 39.21
51.39 51.29 51.09 50.63 50.69 51.18 52.93 51.33 46.69 42.65 35.57 36.30 44.27 41.70 41.64 34.88 33.41 35.42 40.61 46.16 45.55 41.82 30.65 28.38 21.70 21.23 26.98 29.67 32.40 37.95 35.14 29.43 26.63 28.19 25.78 23.48 30.85 35.67 39.18 38.94 29.58 38.77 39.91 39.32
51.17 51.12 51.36 51.13 50.80 51.22 51.93 51.95 50.63 46.76 36.88 42.50 44.98 39.21 38.51 41.66 37.00 35.43 35.25 40.05 37.85 40.36 33.07 28.46 22.33 24.53 32.16 26.80 23.33 24.31 26.19 29.94 25.76 25.42 24.95 26.94 34.48 37.83 39.25 28.18 30.37 37.09 40.24 41.11
50.29 50.74 51.07 51.01 50.90 50.76 51.98 50.60 52.59 48.87 40.36 44.02 47.55 47.94 44.09 43.01 39.72 34.60 39.67 38.40 35.67 35.16 32.21 26.22 27.48 20.05 28.22 27.97 31.29 28.53 27.90 26.13 23.55 26.47 25.56 22.16 38.41 39.40 33.07 37.29 37.74 39.65 39.79 38.85
49.74 50.13 50.51 50.60 50.83 51.10 51.77 49.35 52.98 52.16 46.98 45.77 50.33 51.55 50.86 48.89 46.83 42.99 39.91 39.83 38.08 37.16 34.09 32.54 25.60 28.69 30.53 30.28 30.19 34.70 31.06 32.53 28.69 29.63 30.18 36.77 38.36 40.27 40.66 41.29 39.39 38.60 38.82 43.18
49.40 49.71 50.17 50.32 50.24 50.99 51.47 49.88 50.43 48.30 39.49 44.14 45.07 46.41 48.96 52.95 51.05 50.33 40.66 35.30 43.06 39.83 40.38 34.26 33.66 33.31 33.87 31.76 33.01 34.13 37.36 39.32 32.01 33.27 37.29 38.60 40.67 43.01 44.38 42.73 40.33 43.90 42.48 41.14
49.19 49.20 49.31 49.42 49.88 50.52 50.66 48.92 49.43 47.39 41.23 33.67 40.68 47.25 47.67 51.05 51.89 50.79 48.92 47.46 46.43 44.45 39.49 34.22 33.69 33.31 39.33 34.17 37.50 35.47 39.05 39.62 35.92 36.62 40.03 40.84 41.82 42.48 42.17 44.03 42.64 39.83 39.70 39.34
49.02 49.16 49.22 49.39 50.12 50.50 50.19 50.68 52.56 52.45 47.36 36.59 38.86 44.09 47.69 49.12 49.58 48.69 48.53 47.66 45.14 39.28 36.41 33.67 34.56 34.56 36.22 34.58 34.35 34.37 40.62 37.60 35.41 35.65 41.05 40.27 41.55 42.97 42.36 40.49 39.40 40.07 39.35 38.67
48.33 48.48 48.96 49.20 49.67 50.56 50.54 45.71 50.49 52.00 52.75 39.67 35.14 43.81 41.89 44.75 45.90 46.44 45.67 46.23 46.39 42.80 39.93 35.12 37.89 42.10 38.72 33.14 33.75 39.80 42.19 43.93 44.38 40.97 43.89 43.89 44.12 40.68 40.52 39.64 39.91 40.90 40.83 40.08
48.33 48.50 48.70 49.04 49.02 50.79 47.68 44.89 46.01 49.85 51.61 37.31 35.30 35.62 37.48 40.09 41.67 41.65 42.21 43.01 42.35 43.30 40.13 36.75 38.45 40.00 41.11 32.93 35.39 40.61 42.50 43.30 43.16 44.37 43.99 41.33 39.72 37.60 39.91 39.58 38.81 39.12 38.22 38.27
48.15 48.50 48.51 48.35 48.62 48.38 45.30 47.03 48.60 49.74 46.04 39.28 34.96 34.37 35.89 40.67 35.21 33.97 38.54 35.29 36.99 39.14 40.15 36.16 35.12 36.15 35.50 34.00 39.22 40.29 40.73 41.15 41.31 40.91 40.91 39.95 39.01 38.88 37.80 37.55 37.52 36.90 35.76 35.95
48.13 48.17 48.08 46.67 45.12 41.47 43.29 47.14 47.00 46.00 44.19 35.49 32.96 32.95 32.95 40.14 36.63 34.91 33.37 35.10 32.95 35.61 32.95 34.35 36.28 33.30 33.57 37.41 38.30 38.47 39.21 38.36 37.66 37.45 38.53 38.86 35.57 36.69 35.82 35.11 33.92 33.69 33.03 32.12
47.32 45.15 41.70 35.47 39.11 46.96 46.31 43.01 39.28 37.79 35.82 35.89 32.96 35.33 33.66 40.16 33.30 32.78 33.66 32.75 32.19 30.49 32.92 36.54 32.39 32.96 37.54 36.63 36.47 37.28 36.89 37.41 36.25 32.35 33.40 32.51 31.16 30.29 30.49 31.11 32.26 31.73 30.53 29.80
42.20 36.84 34.94 42.09 46.39 42.44 36.42 32.74 33.61 33.78 32.37 32.69 33.60 33.61 33.82 37.63 33.73 32.75 33.11 31.80 31.45 26.83 24.23 30.21 26.97 27.21 31.04 33.83 33.43 34.47 34.91 34.45 33.47 33.75 33.33 32.87 33.12 31.72 30.70 30.14 30.88 29.86 28.87 29.23
41.95 41.12 43.77 41.44 39.36 34.49 33.34 31.76 31.20 31.20 30.20 32.30 32.07 33.48 35.90 34.20 38.33 32.68 31.42 28.64 28.86 22.95 27.29 27.22 22.45 26.79 32.30 33.93 33.97 34.71 34.99 35.87 35.79 35.65 35.10 35.55 34.51 33.81 31.59 30.39 30.11 28.23 27.22 27.46
41.50 37.64 34.50 35.66 32.69 30.16 29.24 26.32 28.29 27.93 30.82 33.05 32.77 32.22 32.92 33.97 34.44 31.08 28.17 24.84 22.44 24.95 23.69 21.15 23.52 30.38 34.07 33.65 34.06 34.32 35.83 32.98 30.80 32.99 34.30 34.56 33.57 32.38 28.49 28.57 30.20 30.79 30.31 31.27
29.24 27.48 28.53 28.92 26.55 28.73 27.10 26.73 27.44 31.03 32.57 32.57 32.93 31.79 30.28 30.83 24.06 27.84 24.48 22.26 22.41 22.78 20.92 17.06 23.02 29.13 30.77 31.20 31.71 31.50 31.81 28.92 27.77 29.49 29.84 28.66 28.05 28.20 26.99 23.31 28.69 28.84 28.87 29.81
28.70 23.87 18.87 24.49 26.35 30.40 31.58 32.39 32.57 32.56 33.27 32.92 31.80 30.87 29.08 25.84 20.64 24.93 22.39 19.54 18.83 22.25 16.42 18.91 24.32 29.34 29.91 29.79 30.53 30.77 27.96 26.87 27.17 29.71 28.29 27.36 26.95 26.23 27.47 28.00 25.72 28.05 31.58 30.45
25.90 24.52 18.91 28.32 29.23 28.29 30.15 31.62 31.82 33.31 32.51 31.46 29.71 18.81 15.77 16.74 15.93 14.67 18.87 14.94 13.28 16.51 16.55 21.53 26.70 29.46 29.50 29.27 29.05 29.36 29.33 28.40 28.83 29.59 29.07 29.02 26.16 26.23 28.45 26.99 26.10 28.01 29.72 29.34
18.65 17.79 28.90 18.76 25.45 19.64 30.57 28.89 31.93 33.58 31.05 26.05 19.86 16.54 16.97 18.41 10.58 12.65 19.63 14.79 17.48 18.08 21.90 24.42 27.35 28.63 29.05 29.22 28.86 26.87 27.95 29.33 29.02 29.37 29.16 29.16 28.86 25.79 22.79 24.76 28.90 26.40 26.34 24.16

GFSNW_sfc_wetblb_012.txt.gz
Wetbulb
52.57 52.45 52.47 52.24 52.00 51.72 52.62 45.28 39.67 50.18 51.22 42.68 37.09 35.86 40.12 43.11 43.47 45.70 43.93 42.96 41.27 39.31 39.11 37.79 37.52 37.72 39.85 43.14 41.79 37.79 38.53 33.25 28.09 32.99 37.86 39.83 37.58 35.35 34.33 25.43 25.94 26.97 23.37 28.06
52.34 52.15 51.13 49.76 50.97 51.83 50.16 45.77 44.65 49.91 49.18 34.41 30.73 39.90 42.53 43.52 42.89 42.85 42.10 40.95 42.41 42.35 38.48 34.96 38.56 39.58 42.89 43.39 41.44 38.15 38.50 31.32 25.06 28.75 33.47 36.53 35.61 36.39 35.75 31.43 29.49 29.38 26.74 27.82
52.46 51.09 49.53 50.30 51.42 51.83 48.51 43.87 38.88 44.01 44.95 41.57 39.78 39.01 39.09 40.42 44.39 43.08 43.69 42.13 43.08 40.69 38.08 40.18 37.01 38.71 42.70 44.05 42.55 43.99 41.91 33.85 30.09 25.21 29.56 32.66 31.55 34.90 35.58 34.00 29.80 29.33 29.35 32.60
51.80 49.16 49.74 51.29 51.40 51.46 49.38 42.88 39.70 42.06 35.39 38.45 40.64 41.14 40.63 40.11 39.05 43.03 43.52 41.52 41.19 38.79 33.71 35.21 35.69 39.42 40.63 42.04 43.52 41.05 38.68 32.26 32.72 33.75 35.18 34.97 35.08 34.80 35.22 33.16 33.03 31.21 33.33 32.08
50.41 49.02 49.22 49.94 51.08 51.53 47.12 43.92 42.86 42.22 40.46 42.55 39.49 37.47 38.45 40.64 40.89 41.27 40.02 40.07 40.67 40.52 36.55 37.51 35.41 38.84 37.02 37.70 40.02 36.98 37.89 29.94 30.89 29.93 33.04 33.61 31.50 34.31 35.09 34.83 34.72 34.38 34.86 33.92
49.41 48.84 48.86 49.54 50.87 51.36 47.63 45.74 44.55 43.83 36.49 34.91 34.38 34.87 39.80 40.76 42.51 42.19 42.94 42.50 39.04 34.58 40.63 42.34 41.98 42.71 41.69 39.97 36.96 35.14 34.53 28.96 28.01 23.95 30.10 29.69 23.42 29.55 32.25 33.81 35.14 34.05 30.01 34.40
48.73 49.04 49.40 49.96 50.67 51.35 49.47 47.07 43.08 37.93 32.55 30.28 36.02 40.65 41.49 40.90 40.79 40.40 41.96 41.84 36.75 41.31 44.89 42.16 39.68 37.27 35.19 36.17 36.79 39.36 31.11 27.47 27.10 22.76 29.79 18.13 33.12 36.15 37.04 34.40 35.17 36.06 34.98 35.28
49.28 48.96 49.81 50.23 50.58 51.72 51.09 47.88 44.51 38.21 32.11 34.73 37.57 41.01 41.12 40.58 41.28 40.11 41.51 44.09 43.18 43.16 38.98 32.46 28.22 28.34 27.73 28.72 36.84 35.47 35.23 30.95 28.75 28.37 27.48 27.90 34.18 34.58 32.70 31.10 31.74 36.05 35.24 37.95
51.24 51.40 50.78 50.45 50.62 51.49 52.19 49.47 45.04 42.02 35.39 36.02 42.27 40.75 39.93 34.20 32.69 34.34 38.92 44.10 43.96 40.43 29.77 28.04 21.34 21.42 26.43 28.92 31.16 35.79 33.55 28.66 25.59 27.80 24.91 22.14 30.52 34.22 36.82 37.95 28.58 37.31 39.61 39.33
50.80 51.08 51.42 50.66 50.64 51.27 52.50 50.54 48.46 45.29 36.25 40.58 43.27 37.86 38.08 40.06 35.39 34.70 33.89 39.00 36.87 38.94 30.48 25.12 21.55 24.74 30.48 26.09 22.32 21.60 26.01 29.01 25.42 26.33 26.41 28.61 34.14 36.46 38.38 27.79 30.42 36.55 40.02 39.00
50.17 50.38 51.36 51.15 50.51 51.00 52.10 50.14 51.02 47.71 38.90 42.18 46.01 45.97 42.43 41.32 38.54 34.03 38.40 37.71 34.62 34.86 32.28 27.34 28.33 18.84 27.54 27.52 30.69 27.86 27.12 23.39 21.46 25.13 25.54 22.73 36.22 36.77 32.78 37.38 37.63 38.68 37.73 36.68
49.74 49.95 50.30 50.91 50.61 50.53 50.65 49.27 51.02 49.89 45.11 43.65 47.46 48.74 48.29 46.71 45.20 42.12 37.74 38.79 37.07 36.03 32.71 31.32 25.94 24.85 28.28 28.96 27.06 33.02 28.02 32.05 30.73 32.26 29.08 35.79 38.77 40.10 40.23 39.53 38.67 38.10 37.69 41.18
49.44 49.69 50.14 50.59 50.60 49.97 50.92 48.95 48.93 46.71 39.49 43.00 44.39 44.27 48.28 51.49 49.90 48.54 39.70 34.24 41.36 38.40 38.90 32.81 30.06 31.57 30.63 31.16 31.51 28.29 35.46 38.42 33.30 33.88 36.37 38.21 41.51 42.83 42.41 41.19 40.56 40.75 40.22 39.13
48.82 48.95 49.51 49.80 50.13 50.69 50.49 48.45 47.65 46.47 41.23 33.87 40.23 46.04 45.66 49.04 50.52 48.43 47.83 45.84 44.37 41.47 37.95 32.99 32.95 33.31 39.08 33.60 37.35 35.86 37.43 37.57 35.69 35.08 39.82 40.25 40.62 40.35 41.37 40.86 40.78 40.27 40.33 39.28
49.29 49.87 49.53 49.65 50.08 50.41 49.65 49.15 50.61 49.94 46.24 36.59 37.97 43.57 45.99 47.30 48.02 47.94 46.73 46.25 43.61 40.10 36.38 33.67 34.38 33.99 35.87 34.20 34.65 33.99 40.44 37.97 34.90 35.18 40.53 40.64 42.05 42.11 42.44 39.93 39.03 40.20 39.43 37.74
48.55 48.86 49.38 49.54 49.58 50.56 51.29 46.96 48.55 50.25 49.73 40.02 35.47 41.68 40.28 43.09 44.50 44.59 43.54 45.01 43.62 41.46 39.39 34.93 37.56 42.04 38.01 32.77 32.89 39.73 40.99 42.83 43.43 40.88 44.06 43.77 42.06 40.69 40.70 39.64 40.15 39.68 37.51 37.70
47.99 48.32 48.62 49.04 49.13 51.29 48.28 44.04 45.10 49.91 50.92 37.13 35.30 34.88 36.14 39.35 41.48 40.93 40.58 40.96 40.65 42.74 39.41 35.83 37.07 37.44 40.81 32.93 35.00 40.26 41.79 41.81 43.08 43.75 43.27 40.16 40.30 37.79 39.71 39.04 37.32 36.64 36.76 37.25
48.01 48.15 48.15 48.39 48.77 48.31 46.27 46.00 48.62 50.55 44.86 39.82 34.76 34.55 34.99 39.24 34.12 34.17 38.37 35.08 36.84 39.72 39.57 36.16 34.56 36.28 34.38 33.63 37.20 38.91 40.05 41.36 41.46 40.20 39.19 38.02 39.22 38.20 36.73 35.35 34.38 32.63 32.02 33.10
47.97 47.97 47.95 47.01 45.32 41.81 43.57 47.05 47.34 46.80 43.73 36.57 32.95 33.31 33.13 40.21 36.61 34.83 32.68 33.94 32.75 36.41 32.93 33.99 35.87 32.93 33.40 34.51 33.55 34.51 36.66 36.57 35.86 36.80 37.09 36.10 33.10 32.80 32.02 31.81 31.03 30.44 30.24 30.67
47.43 45.77 41.84 35.49 39.11 46.74 46.58 43.23 39.41 38.34 36.18 36.30 33.13 35.56 33.66 39.93 33.11 32.93 33.99 32.75 32.19 30.04 32.54 34.12 32.19 32.28 35.44 34.04 34.69 34.78 33.97 34.36 34.68 32.49 30.63 30.51 30.13 30.50 30.29 29.80 30.16 30.20 30.15 30.25
42.26 37.45 35.11 41.96 46.36 42.34 37.58 33.43 33.81 33.97 32.95 33.07 34.17 33.60 33.97 37.38 33.75 32.93 32.92 32.16 31.61 25.52 23.66 29.05 28.05 27.33 29.65 31.84 31.43 33.01 32.66 33.06 32.42 32.61 32.38 32.75 32.44 31.31 30.39 29.77 29.87 29.31 28.40 28.25
41.94 42.03 43.55 41.46 39.20 34.50 33.51 32.19 31.42 31.80 29.28 32.06 31.74 33.17 35.64 34.00 38.19 33.22 31.56 29.54 28.64 23.71 26.65 26.29 22.62 25.64 30.89 33.69 33.70 33.58 33.26 33.11 32.86 33.17 32.56 32.61 32.43 32.63 31.50 30.45 30.10 28.54 27.01 30.33
40.31 37.11 34.46 35.96 32.51 30.67 29.61 25.52 28.51 28.69 31.18 32.86 32.57 32.21 32.72 33.75 34.47 31.42 29.59 23.65 21.36 24.57 20.72 20.04 22.34 28.92 32.22 31.37 31.46 31.33 32.26 30.75 29.38 30.55 30.75 30.40 29.59 29.10 26.58 27.83 28.31 26.19 27.46 29.10
32.06 29.65 29.39 27.55 27.43 28.68 28.65 28.76 25.87 27.96 32.39 32.57 32.56 31.41 30.40 30.32 28.76 27.72 22.08 23.08 22.91 21.60 14.27 14.96 20.94 28.79 29.45 29.47 29.75 29.47 30.14 26.15 25.82 28.28 28.79 27.12 26.28 26.48 26.68 25.02 25.24 23.77 25.29 27.74
29.20 26.66 22.70 26.62 26.79 28.55 31.98 32.19 32.56 32.36 33.27 32.72 31.59 30.64 28.01 26.48 22.30 25.80 23.42 22.01 18.50 20.54 15.27 16.06 23.49 28.06 28.88 29.01 30.00 29.01 26.50 24.78 25.09 28.77 26.63 24.71 24.57 24.61 26.21 27.52 25.36 24.42 23.87 24.90
26.88 24.39 19.42 26.45 27.75 27.91 29.85 31.86 31.66 33.39 32.71 31.46 28.54 20.30 19.17 19.42 20.01 19.38 19.82 17.71 14.54 14.99 13.87 20.31 24.60 28.54 29.01 29.11 28.19 28.05 28.13 27.72 28.38 28.49 27.73 27.38 24.57 24.22 27.82 27.98 26.60 25.84 25.38 26.12
20.86 19.22 27.50 22.01 23.28 22.03 24.50 31.40 31.52 33.05 31.29 26.00 24.47 17.48 17.19 19.79 13.92 15.51 17.80 11.73 14.96 17.11 19.88 22.85 26.53 28.24 28.48 28.56 27.99 26.09 26.97 28.10 27.65 27.87 27.21 27.53 27.16 24.11 22.68 23.91 28.50 27.47 26.59 24.10

GFSNW_sfc_wetblb_018.txt.gz
Wetbulb
52.31 50.57 50.64 50.72 51.40 52.04 56.22 57.35 51.17 59.05 60.55 52.33 50.98 47.63 47.54 45.94 48.69 50.36 49.21 49.33 47.71 46.04 45.59 44.55 44.12 43.41 45.66 48.18 48.41 44.58 46.06 43.81 38.78 39.68 45.05 46.86 45.80 42.90 41.96 37.60 32.04 37.62 35.95 36.11
51.19 50.19 50.54 50.84 51.16 52.32 59.53 56.27 55.34 59.09 58.52 48.46 48.24 47.89 47.23 48.44 48.24 47.67 47.91 47.13 48.54 48.45 45.65 42.72 45.33 45.44 48.07 48.77 48.28 46.14 46.87 42.07 36.16 37.32 42.29 44.92 43.12 43.62 42.75 40.88 39.50 35.44 33.39 37.41
50.20 50.22 50.55 50.77 51.07 52.20 58.76 55.89 51.72 55.01 55.07 52.06 49.74 47.49 46.66 46.06 49.05 48.10 49.10 47.70 49.28 47.55 45.62 47.06 44.69 45.28 47.32 48.54 48.20 43.78 47.16 43.19 38.73 34.87 37.71 41.03 38.59 40.68 41.92 40.85 35.90 36.17 37.46 39.65
49.98 50.11 50.35 50.57 51.06 51.44 58.55 55.34 51.51 51.26 49.17 49.27 50.15 49.58 48.00 46.08 45.18 48.77 49.64 47.50 47.63 46.54 43.13 44.01 43.83 46.00 46.32 47.10 45.22 47.80 47.38 39.02 41.03 41.60 42.07 41.96 40.63 39.86 40.76 39.11 39.96 35.84 39.03 39.77
49.81 49.81 49.74 50.57 51.12 51.15 56.59 53.61 52.07 51.90 49.17 49.38 49.40 45.35 47.44 46.41 46.01 47.52 46.09 46.63 47.21 47.39 43.81 44.15 42.94 44.68 44.54 43.69 46.92 46.28 45.91 40.00 38.86 36.84 40.35 40.38 38.22 40.81 40.92 40.65 41.03 41.05 41.09 40.19
49.45 50.25 49.81 50.66 50.95 52.71 57.39 54.22 53.12 55.62 43.08 46.72 49.09 47.48 47.61 47.27 49.05 47.84 49.40 49.53 47.83 45.28 47.00 49.70 49.96 49.78 48.85 47.64 45.62 43.53 43.05 41.20 37.27 34.57 37.40 37.11 34.37 38.15 39.97 41.01 42.23 41.42 37.48 42.33
49.24 49.81 50.44 50.38 50.75 53.26 58.91 55.76 54.75 53.61 46.32 48.33 47.89 47.56 48.61 47.95 47.59 47.34 48.22 49.49 48.30 48.08 51.23 50.20 48.97 47.12 45.92 46.13 44.99 46.23 39.35 39.34 36.46 35.04 35.32 30.52 39.04 44.20 43.70 41.32 42.34 43.70 43.38 43.86
49.34 50.26 50.57 50.26 50.55 51.78 56.98 54.78 54.52 51.12 36.79 48.28 46.49 48.29 47.90 48.47 48.82 47.81 48.20 48.47 48.53 52.30 49.75 45.84 40.16 39.49 37.55 38.87 42.18 42.70 44.14 40.64 34.73 32.07 32.90 36.89 39.54 40.95 40.57 39.13 39.48 44.74 43.05 44.29
51.57 50.82 50.54 50.35 50.51 52.15 57.31 55.31 53.63 53.75 41.42 47.44 48.91 48.43 49.31 47.46 47.45 47.41 46.83 48.94 50.28 50.23 47.01 42.41 35.50 36.10 35.73 36.62 37.81 41.32 40.53 40.48 40.47 34.04 29.96 28.79 38.97 42.18 43.78 44.04 35.81 44.62 45.06 44.06
51.45 50.94 50.73 50.44 50.69 51.59 58.54 56.50 55.94 55.16 51.29 49.47 49.98 49.34 48.68 49.78 48.83 47.77 47.59 47.83 46.29 49.06 43.92 37.15 38.67 38.02 38.28 35.63 34.37 33.72 34.51 34.70 33.87 33.58 32.03 35.99 43.03 42.99 44.31 33.57 37.34 44.28 43.85 41.54
51.12 51.06 50.87 50.57 50.21 50.45 57.85 56.66 56.75 55.99 49.57 50.13 51.24 50.55 49.35 48.93 50.56 47.78 47.91 47.65 46.63 44.56 37.69 36.42 38.41 35.88 39.63 37.48 38.96 36.93 37.13 35.98 33.04 33.19 29.71 28.93 44.18 43.25 37.92 43.24 45.42 45.64 44.57 42.35
50.51 50.74 51.11 50.57 49.56 50.42 53.74 56.92 56.67 55.65 54.87 51.62 54.16 54.82 54.31 53.58 52.96 51.09 49.54 48.07 47.59 49.31 43.85 39.83 38.58 34.07 34.60 39.03 36.05 41.68 36.32 40.59 38.88 38.37 39.03 46.07 46.94 45.77 47.94 48.11 45.99 43.44 42.01 40.91
49.95 50.38 50.95 50.96 50.66 50.64 54.17 57.02 56.43 56.33 50.64 52.03 53.10 51.84 53.61 56.44 55.69 56.18 50.66 49.77 50.14 48.62 49.98 46.39 41.14 34.97 42.21 33.70 37.82 40.03 43.26 44.38 40.34 39.92 43.16 45.02 46.86 48.49 47.88 46.67 42.04 41.91 42.80 42.48
49.35 49.15 50.05 50.57 50.67 50.36 53.15 56.97 55.01 54.17 48.19 36.97 48.70 50.96 51.25 53.47 55.54 55.55 55.22 52.18 50.07 49.70 49.91 40.23 36.24 37.51 45.88 42.04 44.05 42.29 44.44 44.36 41.74 41.64 44.22 45.48 46.40 45.67 44.92 42.20 42.56 41.79 42.18 41.69
48.71 49.29 50.01 50.85 50.62 51.05 56.29 57.68 56.78 56.33 54.33 43.09 46.89 50.10 49.82 51.21 52.69 53.88 53.96 52.91 50.98 47.33 42.41 38.06 40.08 44.66 40.63 39.80 39.00 38.79 45.39 43.54 40.41 38.86 44.67 42.97 41.93 43.36 43.01 40.49 40.47 40.88 39.87 38.87
48.60 49.47 49.98 50.70 50.20 50.98 56.59 52.77 56.20 57.06 57.25 47.05 41.14 49.28 47.17 48.84 51.46 51.96 51.79 52.58 50.54 48.84 45.28 41.04 44.89 46.39 43.85 33.89 36.48 43.53 46.04 47.60 46.46 41.98 44.77 44.34 42.85 41.41 41.46 40.75 39.51 38.96 39.52 40.19
48.42 48.78 49.15 49.71 49.41 56.86 52.98 49.85 51.77 52.17 56.60 43.86 41.14 43.04 45.20 45.15 47.29 46.65 49.03 48.80 49.41 49.34 45.82 40.40 43.29 44.44 43.08 34.25 35.50 42.55 43.29 42.94 42.66 44.30 45.31 40.80 40.02 38.90 39.84 39.13 40.13 40.58 40.07 39.81
48.39 48.57 48.42 48.59 48.58 49.00 51.06 52.96 50.28 53.23 50.84 45.95 37.87 38.42 41.28 44.62 41.77 40.15 42.87 43.42 42.29 41.99 42.13 37.76 39.69 40.67 37.51 34.61 40.05 39.89 40.48 40.04 38.83 39.85 42.05 40.51 39.74 39.91 39.85 40.19 39.40 37.70 37.28 38.07
48.51 48.19 48.33 49.18 47.81 44.74 46.92 47.39 48.99 52.24 50.78 42.59 36.06 36.24 34.79 44.09 39.52 39.74 40.32 41.66 36.60 39.95 35.34 36.20 38.72 36.42 35.36 38.75 37.31 38.53 38.79 39.88 36.95 38.69 39.62 38.92 37.24 37.32 37.19 36.89 36.56 35.80 35.94 36.82
47.92 47.46 43.83 36.23 40.92 47.21 47.86 46.83 42.59 40.36 38.24 38.60 34.79 41.44 38.72 43.86 37.78 37.69 39.26 37.51 36.60 34.97 35.75 39.58 33.34 34.46 34.75 37.88 39.26 40.23 39.18 39.43 38.82 36.16 35.23 35.49 34.77 34.87 35.16 35.49 36.45 36.09 35.61 35.58
43.47 38.58 36.24 43.64 46.61 43.90 39.52 35.14 35.34 35.44 33.16 34.73 35.03 35.27 36.18 40.69 38.03 35.70 36.42 34.07 35.34 31.62 34.19 33.95 33.70 33.66 36.30 37.55 37.00 38.92 38.66 38.83 38.43 37.57 37.02 36.60 36.20 35.14 35.31 35.24 35.49 35.18 34.75 34.40
43.54 42.88 44.02 42.29 39.54 34.35 33.33 32.44 32.44 32.44 33.67 33.84 33.84 34.53 36.62 34.97 39.39 34.01 32.98 33.34 34.02 28.92 35.87 31.08 29.84 36.35 37.25 37.35 36.88 37.21 38.82 37.47 36.25 36.48 35.86 36.40 36.08 36.62 35.70 34.94 34.61 34.61 34.02 32.65
43.75 38.64 33.15 34.09 32.78 31.71 31.71 29.88 32.07 32.42 35.50 36.01 34.05 32.60 34.61 35.72 36.95 33.89 35.15 32.07 31.20 34.38 28.52 29.36 34.38 36.07 37.64 38.14 36.67 36.71 37.17 35.89 34.47 35.59 36.52 36.78 36.38 35.93 33.72 32.86 33.58 33.24 33.43 33.51
34.98 32.80 30.59 32.25 30.17 32.89 33.89 34.97 35.59 35.94 36.39 35.70 35.88 33.34 36.12 34.07 33.16 33.34 30.62 30.62 31.74 26.81 25.13 28.35 33.64 36.62 36.86 36.15 36.54 35.21 34.34 34.77 32.71 34.03 34.80 34.44 33.77 33.28 33.19 32.00 32.22 31.47 31.32 32.69
33.34 33.93 29.53 30.77 31.39 34.25 33.89 34.79 35.52 35.23 37.01 36.36 34.55 34.05 35.77 32.25 30.26 31.79 29.55 26.73 25.49 28.00 28.61 33.39 36.20 35.39 35.16 34.92 35.06 35.30 34.80 33.46 32.58 34.17 34.10 33.21 32.67 32.44 32.60 34.00 34.51 33.77 32.29 31.62
33.01 31.45 29.78 31.05 32.06 31.53 32.25 33.34 32.98 35.13 34.07 34.91 35.73 31.78 30.80 29.10 30.40 27.47 27.35 25.92 25.11 29.76 34.16 36.22 35.38 33.85 34.06 34.40 34.83 34.00 33.77 32.75 32.85 33.68 33.62 33.49 32.73 32.01 33.13 33.47 32.82 32.39 32.25 31.55
32.23 29.63 31.84 32.08 32.62 33.70 33.52 35.70 34.79 36.08 34.25 32.25 32.17 28.79 27.56 28.27 27.10 25.84 28.13 26.87 31.59 34.30 34.46 34.32 34.23 34.01 34.20 34.42 34.04 32.77 32.44 32.34 33.28 33.98 34.10 33.83 33.97 33.66 32.14 32.18 33.47 32.86 32.75 32.70

GFSNW_sfc_wetblb_021.txt.gz
Wetbulb
50.98 50.77 50.73 50.93 51.89 52.45 53.84 59.43 52.32 62.96 64.41 52.45 54.45 50.26 49.89 48.72 50.75 52.68 50.98 51.38 49.55 48.27 48.14 46.64 46.34 45.76 48.35 50.62 50.32 46.36 48.01 45.62 40.64 42.01 47.13 49.07 47.50 45.17 44.67 38.71 35.30 39.15 37.37 37.50
51.07 50.71 50.55 50.79 51.51 52.08 62.99 56.06 56.35 62.86 62.15 50.31 51.63 51.20 49.92 51.18 50.46 50.34 50.32 49.27 50.73 51.20 48.58 44.83 47.53 47.92 50.28 50.79 50.06 48.28 48.80 44.90 38.82 40.75 44.65 47.19 44.41 45.65 44.74 42.44 40.88 35.98 35.69 38.01
50.66 50.83 50.95 50.85 51.22 52.56 60.89 57.41 52.45 55.94 57.87 56.74 51.76 49.85 49.07 48.16 51.90 50.53 51.48 50.52 51.70 50.15 47.84 49.74 47.07 47.40 49.36 50.75 50.60 45.14 48.59 45.37 40.45 37.07 40.21 43.47 40.73 42.64 43.75 42.61 37.07 37.92 38.88 41.02
50.51 50.58 50.62 50.97 51.45 52.10 60.48 58.64 54.37 54.96 50.66 52.21 52.56 52.46 50.70 48.45 46.95 51.18 52.09 49.47 49.62 48.79 45.23 47.01 46.17 48.66 48.61 49.42 45.35 48.93 48.56 40.99 43.34 43.68 43.81 43.24 42.30 41.86 42.52 40.99 41.69 37.58 40.35 41.37
50.24 50.21 50.52 51.11 51.50 51.66 60.90 55.20 54.53 56.28 54.74 53.60 52.28 47.93 49.55 48.52 48.37 49.81 48.34 48.73 49.89 49.66 46.56 46.18 45.15 46.97 46.50 45.70 48.58 48.00 47.86 41.51 41.90 39.05 42.86 42.52 40.18 42.26 42.70 42.59 42.53 42.72 42.51 41.86
50.57 50.26 51.00 50.85 51.25 52.58 60.55 59.79 59.51 57.58 47.33 52.51 51.09 50.14 50.18 49.65 51.09 50.36 51.47 51.35 49.70 48.24 49.18 51.92 52.35 51.86 50.66 49.44 47.51 45.63 44.98 43.43 39.06 35.72 40.88 39.59 35.99 40.50 41.58 42.41 43.95 43.02 38.84 43.78
50.36 50.43 50.86 50.53 50.98 52.63 62.26 60.17 59.71 55.68 49.41 51.58 50.93 50.28 51.01 50.27 50.60 49.50 51.68 52.07 49.94 51.34 54.61 53.59 52.06 50.72 49.06 49.10 48.23 49.16 43.90 41.55 39.64 36.06 35.88 31.30 42.16 46.36 45.55 43.16 43.72 45.25 45.09 45.61
50.54 51.06 50.80 50.33 50.86 52.29 61.09 59.54 58.86 54.29 41.68 52.39 50.54 51.20 51.05 51.40 52.17 50.79 50.76 50.90 53.23 55.65 52.32 47.68 41.47 40.42 37.62 41.51 45.33 45.69 47.26 43.33 36.83 34.45 34.92 38.43 41.29 42.82 42.39 40.79 40.65 46.16 45.24 46.34
51.60 51.30 50.87 50.47 50.87 52.42 60.97 58.89 59.68 57.76 45.23 50.34 52.79 51.76 52.37 50.13 50.05 49.95 49.24 52.32 54.58 54.18 50.57 43.91 36.33 37.13 38.99 39.12 40.62 44.56 43.77 44.78 41.36 35.87 31.84 30.14 40.73 45.04 46.09 45.87 36.97 46.98 46.53 45.66
51.71 51.47 51.01 50.71 50.39 51.69 60.88 59.46 60.54 58.45 54.35 53.56 53.91 51.73 51.49 53.78 52.36 50.18 50.55 50.51 49.63 53.17 46.21 39.00 39.84 39.48 42.16 37.57 35.84 34.20 35.71 36.89 35.92 34.92 33.44 37.34 44.62 45.59 47.06 35.16 38.55 46.91 46.28 43.98
51.56 51.45 51.12 49.92 49.70 50.95 58.54 59.45 60.28 59.10 53.62 53.23 54.41 54.12 52.90 52.96 52.95 49.46 51.53 49.84 50.21 49.74 39.56 39.56 42.00 38.42 42.43 40.41 42.04 38.99 37.04 35.99 33.77 36.00 31.82 30.03 46.76 45.23 38.93 44.78 47.33 46.02 45.42 43.47
51.20 51.35 51.28 50.11 50.40 50.94 52.88 58.86 60.28 60.58 57.37 54.93 57.67 56.88 57.18 56.34 55.74 54.40 52.90 50.62 50.55 51.02 47.19 43.45 43.02 36.28 37.70 40.13 37.21 45.39 38.28 42.25 40.31 40.46 40.45 47.68 47.90 46.56 48.83 48.55 47.26 46.09 43.82 42.93
50.70 51.22 51.72 51.15 51.01 51.08 53.91 59.99 60.08 60.19 55.53 54.72 54.89 53.91 56.63 59.09 58.60 59.04 52.17 53.93 53.25 52.46 55.07 49.46 44.02 35.39 44.41 35.39 40.15 44.17 45.24 47.78 42.85 42.48 45.07 45.57 47.04 48.48 47.89 47.76 45.49 44.51 43.66 44.55
49.96 49.34 50.29 51.03 50.88 51.58 54.15 59.65 59.67 58.61 52.39 39.38 51.92 54.55 54.47 56.03 58.17 57.98 57.99 55.67 55.15 54.97 53.60 42.23 38.11 38.83 48.72 43.31 44.94 43.91 46.27 45.93 43.71 43.49 45.94 46.08 47.11 45.38 44.86 44.84 44.55 44.70 43.87 43.39
49.53 49.33 49.99 51.47 51.53 52.47 58.76 60.58 59.61 59.53 56.11 46.76 50.95 53.20 53.02 54.35 55.65 55.88 56.15 55.25 53.51 52.32 45.09 37.93 40.30 49.25 47.66 46.33 43.84 42.69 46.63 44.78 42.19 39.68 45.76 43.26 43.34 44.01 44.51 44.31 43.23 43.03 41.70 41.07
48.75 49.83 50.58 51.01 50.89 51.75 59.34 54.95 59.78 59.85 59.62 50.04 44.80 52.72 50.31 52.35 54.03 54.49 54.18 54.67 53.50 53.67 49.27 42.19 49.40 50.28 47.20 37.93 37.88 45.20 47.58 49.03 48.92 46.18 47.02 46.45 44.38 44.38 45.20 43.46 41.88 41.69 41.79 41.63
48.53 48.88 49.44 49.84 49.96 58.15 54.29 52.21 54.71 52.71 60.19 49.35 43.55 46.11 48.82 49.41 51.90 52.29 52.25 51.40 50.97 50.19 49.77 45.95 47.15 47.88 47.51 37.57 36.70 44.72 47.06 48.10 47.03 47.03 45.69 41.20 42.79 42.90 43.48 41.73 42.38 42.48 41.49 40.99
48.31 48.33 48.39 48.69 48.53 49.92 53.85 55.69 52.56 54.14 54.63 52.13 41.37 40.91 43.84 48.32 44.92 43.29 48.69 46.10 46.62 47.50 46.16 41.41 43.35 45.39 43.62 37.38 43.16 45.64 45.98 44.75 42.80 43.23 44.04 43.98 43.72 42.49 42.08 41.93 40.71 38.77 38.52 39.01
48.28 48.28 48.40 50.69 50.13 49.60 53.46 48.09 51.34 57.10 53.93 45.63 37.75 36.66 35.57 47.11 42.16 42.88 43.31 46.04 38.83 43.09 37.02 37.83 41.18 37.38 35.78 41.60 44.00 43.46 43.31 42.37 42.11 42.89 42.66 41.82 39.93 39.28 39.02 38.84 38.61 37.52 37.19 37.30
48.02 48.15 45.69 37.93 42.81 47.48 48.62 49.96 47.92 48.15 48.85 46.73 38.11 46.17 39.07 45.39 40.02 38.65 39.17 40.22 39.54 35.39 38.05 39.16 33.40 34.07 39.17 42.34 43.60 44.34 44.45 42.61 41.84 39.65 38.14 38.29 36.66 37.23 37.50 37.35 38.10 37.45 36.54 36.53
44.62 39.18 36.30 43.50 46.72 45.10 40.97 35.75 38.11 36.99 34.85 36.99 39.66 40.87 39.40 44.89 39.36 37.02 39.92 35.21 35.75 33.37 35.57 36.11 35.27 34.71 40.27 42.17 41.80 42.30 42.04 42.37 41.56 40.62 39.13 38.67 37.92 37.11 37.13 37.10 37.14 36.46 36.03 35.62
43.56 43.35 44.04 42.90 39.14 35.51 36.12 33.94 33.94 33.76 34.87 34.98 34.06 36.01 39.41 37.88 41.71 35.58 33.71 33.94 35.45 31.93 38.29 32.88 30.26 38.44 41.82 41.26 40.63 40.98 41.30 41.03 38.91 38.50 37.70 38.24 38.01 38.38 37.55 36.63 36.00 35.98 35.55 34.32
42.51 36.75 33.73 34.12 32.31 31.22 31.58 30.31 32.49 33.38 34.12 34.35 33.76 32.67 34.48 35.16 37.09 33.03 34.12 32.31 33.58 37.60 30.70 30.69 36.78 39.76 40.19 40.85 41.01 40.15 40.86 38.52 36.13 36.95 37.94 38.23 37.83 37.57 35.75 35.11 35.61 35.16 35.02 35.51
35.54 32.85 31.04 32.13 31.22 33.03 34.29 35.75 36.48 36.08 35.75 35.93 34.48 33.21 34.48 34.85 33.21 34.48 32.85 33.50 34.35 29.33 27.36 30.57 38.67 39.47 40.34 41.18 40.30 39.16 37.85 35.22 34.73 35.21 36.21 35.82 36.26 35.86 36.21 34.12 34.04 33.20 33.26 34.90
35.13 34.71 30.29 31.55 33.40 34.12 34.12 34.67 35.93 36.07 38.67 38.92 37.86 37.63 38.12 34.48 32.13 34.29 31.77 28.65 27.87 29.88 31.47 36.11 39.44 40.33 40.10 38.08 37.56 36.87 35.81 35.29 34.94 36.21 35.82 35.16 35.21 34.95 34.67 36.01 36.08 35.91 34.30 33.37
36.20 34.38 31.95 33.58 33.40 32.49 32.85 33.21 33.40 36.91 37.12 38.08 37.80 34.12 32.67 31.40 33.21 29.86 29.56 29.13 27.83 32.60 36.29 39.57 38.87 36.83 36.70 36.60 36.69 36.14 36.11 35.12 35.12 35.31 35.15 35.50 35.15 33.91 35.18 36.00 34.78 33.58 32.85 32.49
33.55 32.45 35.75 34.85 34.85 33.94 34.67 36.12 36.12 37.87 35.93 33.21 34.71 30.31 29.52 31.19 29.73 28.26 32.65 31.28 34.42 37.32 38.27 38.13 37.19 35.56 35.95 36.20 36.50 35.24 35.32 35.30 35.38 35.54 35.75 35.86 36.30 35.90 34.81 33.29 35.92 36.27 35.87 33.91

GFSNW_sfc_wetblb_024.txt.gz
Wetbulb
50.60 50.82 50.87 51.17 51.51 52.85 55.82 62.81 50.00 63.96 66.13 50.98 52.54 50.12 50.63 48.38 50.50 52.91 51.53 51.64 49.32 48.16 48.14 46.90 46.64 46.22 48.49 50.88 50.36 46.28 47.14 45.53 41.96 42.42 46.86 48.39 46.91 44.65 44.25 39.49 36.04 39.76 37.84 36.23
50.46 50.66 50.68 50.93 51.54 52.20 61.73 54.75 56.70 63.10 63.16 49.07 52.83 51.80 50.30 51.41 50.20 50.36 50.34 49.46 50.92 51.69 48.74 45.20 47.97 48.18 50.69 51.00 50.48 47.45 47.87 45.32 39.52 40.41 44.49 47.15 43.42 45.29 44.73 43.67 41.20 35.49 33.14 36.13
50.46 50.57 50.71 51.21 51.73 52.96 58.70 57.79 51.85 54.58 56.49 57.08 51.72 50.00 49.01 48.60 52.95 51.46 51.85 50.88 51.72 50.14 48.36 49.99 47.08 47.26 49.73 51.38 49.71 46.37 48.77 45.25 41.38 37.25 39.98 43.12 40.43 42.37 43.85 42.42 37.05 37.06 37.24 39.44
50.34 50.51 50.89 51.34 51.77 52.43 58.44 58.34 53.66 53.97 49.07 51.62 52.41 51.87 50.36 48.55 47.42 51.69 52.22 49.79 49.80 48.93 45.89 47.05 46.65 48.74 48.26 49.77 46.02 48.90 48.81 41.84 43.57 43.44 43.12 42.87 41.82 41.44 42.15 40.58 41.26 36.13 39.46 40.04
50.82 50.31 51.18 51.42 51.49 51.52 58.85 55.68 54.15 55.98 54.01 53.78 52.08 48.40 49.75 49.01 49.18 49.95 48.47 48.37 50.08 50.43 47.50 47.41 45.96 47.93 47.59 46.53 48.49 48.07 48.67 42.19 42.48 39.47 42.81 41.98 39.24 41.35 41.87 42.07 42.07 41.76 41.73 41.14
50.24 50.57 51.12 50.96 51.27 53.07 60.82 59.84 60.51 56.97 49.35 52.50 52.14 50.48 50.26 49.98 51.45 51.33 52.41 51.47 50.43 47.96 49.68 51.60 51.59 51.79 50.89 49.64 47.82 46.39 45.85 44.45 39.95 35.96 39.57 38.75 36.23 40.91 41.81 42.44 43.61 42.76 38.30 43.25
50.61 51.11 50.78 50.75 51.27 52.49 62.54 61.41 59.72 56.49 50.27 52.28 50.62 51.41 51.68 50.67 51.08 49.35 51.81 52.73 50.28 51.98 54.10 53.13 51.96 50.44 49.36 49.08 48.53 49.45 43.89 41.92 39.43 35.09 35.61 29.78 41.66 45.67 45.28 42.94 43.71 44.63 44.52 45.34
52.01 51.44 50.94 50.74 51.06 52.53 62.15 61.07 60.07 55.00 40.45 52.50 51.46 51.44 50.88 52.18 52.21 51.26 51.05 51.91 53.85 55.34 52.32 48.27 40.47 41.07 38.12 41.94 46.11 46.09 48.15 43.27 36.48 35.00 34.15 37.57 40.81 43.61 42.47 40.33 39.78 45.61 45.17 45.23
52.06 51.45 50.91 50.47 50.84 51.91 61.70 60.07 61.85 59.04 46.76 51.74 53.32 51.35 52.24 50.46 50.42 49.96 49.56 53.40 56.05 54.34 51.13 44.24 37.40 37.87 40.20 38.86 40.58 45.52 45.47 46.38 41.06 35.48 30.18 28.75 41.09 45.06 47.00 45.69 35.51 46.30 45.68 44.47
51.84 51.63 50.92 49.31 50.46 51.61 60.01 59.71 62.46 60.13 55.45 54.70 55.22 52.53 51.95 53.95 52.55 49.85 50.28 50.20 50.41 53.71 45.38 36.82 41.17 40.30 42.78 37.52 35.40 34.73 36.04 38.10 36.37 34.24 31.77 36.21 44.06 46.30 47.02 34.12 37.37 45.75 45.20 43.99
51.96 51.53 50.99 49.36 50.81 51.35 57.61 59.65 62.19 60.13 54.55 54.34 56.15 55.78 53.96 53.56 54.27 49.88 51.72 49.82 51.47 51.18 38.09 39.91 42.57 38.08 42.75 41.43 42.67 37.71 35.27 34.62 32.78 34.93 32.78 29.64 46.87 45.47 38.23 44.07 47.15 45.95 44.85 44.03
52.14 51.96 51.43 50.98 51.02 51.16 52.92 58.52 61.17 62.61 57.92 55.34 59.01 57.49 57.82 56.40 56.42 54.45 53.93 50.76 50.68 51.14 46.01 44.32 44.87 35.66 37.06 39.20 38.53 45.24 39.15 42.60 40.59 39.46 38.71 46.98 47.90 46.85 48.06 47.72 45.15 44.07 43.90 44.17
51.72 52.89 51.92 51.26 51.34 52.14 53.84 60.12 60.64 61.18 58.11 54.78 54.68 53.48 57.23 58.65 58.72 60.29 52.73 55.47 54.06 53.17 55.24 47.59 41.79 33.92 43.49 34.74 40.14 43.58 44.77 47.39 44.00 43.16 45.04 45.98 46.90 47.75 47.02 46.06 44.11 44.63 45.14 44.03
49.85 49.49 50.61 50.92 51.27 51.83 53.53 59.56 60.70 58.82 52.38 38.09 52.37 56.02 55.19 56.96 58.65 58.63 58.66 56.25 57.15 56.41 52.64 41.07 37.37 36.28 48.11 42.90 44.20 44.45 46.28 46.50 44.37 43.58 46.08 46.90 46.29 46.34 45.63 45.36 45.36 44.67 44.37 43.22
49.13 49.45 50.57 51.45 52.30 51.75 58.71 61.03 60.38 60.35 56.09 43.94 51.67 54.10 54.40 55.60 56.41 56.41 56.56 56.16 54.65 52.33 43.31 37.01 39.08 48.59 48.62 46.53 44.60 43.02 45.84 43.55 41.43 40.64 46.31 45.66 45.04 45.30 45.71 44.29 43.90 43.24 41.23 40.82
48.68 49.77 50.46 50.64 50.64 50.36 59.29 54.15 59.49 59.75 59.82 49.51 42.05 53.25 51.48 53.27 54.71 55.03 54.47 54.62 54.42 53.33 48.76 42.06 48.40 51.32 48.57 37.19 37.49 44.58 46.75 48.18 48.88 45.63 47.59 46.70 46.51 45.50 46.09 43.92 43.15 41.91 41.32 41.07
48.31 49.29 49.60 50.02 50.35 57.11 53.11 51.05 53.37 51.60 58.66 47.70 40.81 46.25 49.32 50.44 53.02 52.87 52.55 53.15 51.44 51.02 50.29 45.22 46.03 48.60 47.55 37.91 37.16 44.18 46.57 47.92 48.28 48.09 46.28 42.48 43.65 42.44 44.58 42.55 42.33 42.26 40.50 40.17
48.26 48.35 48.52 48.80 48.39 49.60 53.78 54.50 52.97 53.09 54.55 51.63 41.36 41.29 45.20 49.30 46.09 44.50 49.07 46.21 46.64 47.71 46.02 42.21 43.14 46.34 41.90 37.53 43.31 45.94 46.98 47.62 45.52 45.69 46.67 45.27 45.00 43.74 42.54 42.03 40.12 38.47 37.91 38.23
48.23 48.32 48.69 52.58 53.06 52.28 53.95 48.95 50.20 58.33 53.83 46.50 36.64 36.64 35.37 47.82 42.45 42.20 43.99 46.18 37.37 43.99 37.73 38.52 42.53 37.90 36.09 41.21 43.89 45.58 46.22 44.25 43.34 44.24 43.54 42.89 41.44 40.31 39.32 38.64 38.08 37.12 36.66 36.45
48.21 49.15 46.11 38.08 42.43 47.66 48.29 53.04 49.63 49.56 49.73 47.11 38.46 45.22 40.00 44.79 40.58 37.55 38.46 39.36 38.06 34.82 38.10 39.55 33.92 34.58 42.14 44.92 46.01 46.74 45.53 45.05 44.09 40.57 39.15 39.39 37.49 37.30 37.38 37.19 37.99 37.15 35.95 35.65
45.08 39.33 36.27 43.57 46.58 46.50 43.62 40.09 39.71 40.24 36.82 38.80 41.05 43.80 39.82 45.39 37.80 36.46 40.45 35.56 36.46 33.56 36.31 36.37 35.15 34.55 40.13 44.13 43.45 45.31 44.60 43.41 42.80 42.20 40.82 39.49 38.24 37.03 37.07 37.67 37.08 35.67 35.29 34.63
43.36 42.63 44.08 42.37 39.04 35.25 37.73 34.29 33.92 34.11 36.20 36.02 34.59 36.20 41.91 39.79 44.66 38.70 35.79 34.11 34.65 32.11 38.74 33.52 31.33 37.70 42.87 42.48 42.09 41.96 42.48 42.19 40.06 39.54 38.38 38.37 38.12 38.17 37.42 36.33 35.37 34.74 34.12 31.44
41.94 37.34 34.42 36.01 32.28 31.39 31.37 30.20 31.92 32.28 33.20 34.00 33.73 32.81 35.18 35.76 37.37 33.18 32.64 31.57 31.72 36.87 32.02 29.78 35.40 40.20 41.76 41.94 41.52 40.92 40.35 36.51 36.53 37.20 37.81 37.85 37.13 36.28 34.92 33.65 34.44 32.65 33.84 34.42
35.64 33.00 31.39 32.11 31.57 32.47 32.46 32.64 33.38 34.83 35.37 34.11 34.11 33.02 33.92 32.84 32.47 32.29 31.57 32.82 34.87 29.95 27.98 29.68 37.96 39.31 40.13 41.22 41.30 40.12 36.60 31.38 33.92 35.08 35.86 34.13 34.83 34.55 33.37 32.72 32.30 30.50 32.05 33.52
35.67 34.95 30.83 31.52 33.20 33.38 33.38 33.56 34.65 34.21 36.02 34.80 33.91 33.91 35.07 32.66 31.93 32.66 31.92 29.21 28.33 30.22 30.83 34.11 38.61 39.51 39.07 37.12 37.90 36.77 35.24 32.32 32.72 35.85 33.89 31.52 32.39 33.05 33.56 34.11 34.43 34.67 32.21 31.42
37.11 34.49 32.66 34.11 33.38 32.47 32.29 32.66 32.66 35.97 35.72 37.17 36.82 32.84 32.29 31.36 32.47 30.39 30.04 29.28 28.04 32.64 36.08 39.44 37.49 36.10 35.67 35.74 35.40 34.86 35.18 34.65 34.71 34.66 34.15 33.43 32.57 31.62 34.19 34.83 33.98 32.31 32.79 32.21
33.05 32.57 36.99 34.65 33.92 33.38 33.92 35.92 35.92 38.17 34.83 32.29 33.92 31.19 28.37 32.21 30.14 28.96 32.50 31.25 33.86 37.91 38.30 36.43 36.05 35.40 36.08 36.08 35.24 33.83 34.44 35.12 35.01 35.01 34.74 34.50 34.23 33.39 33.55 32.62 34.41 34.67 34.58 32.82

GFSNW_sfc_wetblb_027.txt.gz
Wetbulb
50.52 50.00 50.85 50.93 50.93 52.84 54.58 54.56 44.17 59.31 60.80 44.44 45.81 42.82 49.45 46.98 48.80 51.44 50.57 49.57 47.53 46.06 45.45 44.60 44.19 43.83 45.75 48.81 48.11 43.11 43.59 40.47 31.07 39.19 44.08 45.65 42.92 41.48 41.30 29.13 30.80 29.52 27.93 29.72
50.26 49.99 50.46 50.54 51.33 52.38 56.58 50.28 51.51 59.05 58.65 37.95 38.92 48.09 49.61 49.92 48.32 48.49 48.86 47.74 49.34 48.93 45.86 41.40 45.51 45.35 49.00 49.52 46.88 43.63 44.21 38.60 29.76 35.12 40.38 44.06 40.33 42.54 42.92 39.84 32.36 29.38 21.61 27.27
50.15 50.08 50.18 50.71 51.71 52.67 54.87 52.64 43.50 50.27 51.79 50.97 47.45 46.83 46.13 46.91 50.82 50.04 50.45 48.86 49.34 47.04 44.98 47.34 43.84 44.54 48.74 48.94 46.75 45.40 45.98 41.78 35.27 29.50 35.31 38.45 35.95 39.23 40.20 38.06 28.17 29.61 30.40 35.45
50.05 50.31 50.17 51.48 51.78 52.18 54.89 53.57 47.69 48.00 40.17 43.47 46.63 48.11 47.72 46.43 45.85 49.97 50.17 47.36 47.76 46.10 39.59 43.36 43.19 45.60 46.17 47.91 45.76 46.20 44.12 36.32 39.30 40.00 40.00 39.97 38.63 38.11 38.51 36.98 36.51 29.87 33.35 37.19
50.16 50.15 51.16 51.21 51.30 51.26 53.92 52.14 50.84 48.96 45.62 46.94 46.39 45.22 46.02 46.59 47.62 47.59 46.37 45.63 47.67 47.20 43.18 44.02 42.16 45.26 44.01 43.28 44.92 44.19 44.80 33.69 33.84 32.65 39.56 38.88 35.50 37.76 38.62 38.87 39.14 37.89 38.04 37.15
50.15 50.66 51.20 50.76 51.17 52.61 54.04 54.67 55.14 52.15 46.25 43.83 43.64 44.31 47.29 48.19 48.76 48.98 50.62 48.19 45.55 41.74 45.56 46.65 46.50 46.61 45.86 46.35 43.85 42.03 41.17 33.82 30.00 27.89 35.57 33.58 27.91 35.32 39.15 39.55 40.24 38.42 31.95 38.36
51.06 51.63 51.06 50.61 51.01 52.65 58.05 56.24 55.40 46.52 39.42 45.31 46.39 49.41 49.45 48.22 48.44 46.31 49.17 49.35 44.50 48.00 49.84 46.64 45.35 43.55 43.56 45.98 44.21 46.90 36.45 34.17 30.22 23.76 26.97 17.62 37.96 42.59 41.88 40.07 40.69 41.24 41.38 41.60
51.94 51.19 51.20 50.71 50.83 51.83 57.01 56.43 55.77 46.30 35.89 47.49 48.12 47.99 48.07 48.50 48.82 47.23 47.88 49.41 50.18 50.24 48.24 37.88 32.88 32.41 30.70 36.78 43.28 42.86 44.10 33.35 26.24 27.09 25.74 31.56 37.44 41.26 39.16 36.03 36.41 42.90 41.49 41.63
51.40 50.90 49.78 49.33 50.97 51.82 57.00 55.91 57.21 51.98 41.18 42.37 51.57 47.49 47.76 43.82 43.37 44.53 46.43 50.93 51.45 50.94 38.10 31.31 26.30 27.11 32.78 33.12 37.93 41.42 42.12 36.81 29.58 23.45 22.12 17.27 33.55 42.05 44.58 42.67 28.54 42.60 42.42 40.58
51.28 50.82 48.62 49.78 50.92 51.68 56.95 55.50 57.44 55.99 45.64 49.60 50.95 46.37 45.85 49.39 46.64 42.63 45.33 45.89 44.14 48.46 33.05 32.52 30.52 29.67 38.65 31.45 30.47 28.28 27.87 31.86 27.88 22.28 21.52 28.59 40.05 43.59 44.74 29.01 30.62 42.05 41.84 40.56
51.30 51.00 50.54 50.68 50.74 51.40 55.97 54.39 57.35 55.12 47.31 49.35 53.11 53.30 49.62 49.35 47.75 39.95 45.65 41.52 41.41 36.71 35.65 32.55 31.60 29.85 32.01 32.58 37.30 33.04 28.89 27.04 26.72 29.87 28.32 22.11 43.83 43.03 33.64 37.77 42.28 41.86 40.54 40.49
52.19 51.16 50.80 50.87 51.07 51.50 52.61 53.33 57.41 57.92 52.59 50.68 53.99 53.43 54.53 53.59 52.99 49.18 47.39 43.79 46.34 44.52 37.46 34.18 34.93 32.58 34.74 32.16 27.87 40.32 31.50 34.74 31.20 32.33 30.70 40.01 43.47 42.26 44.35 44.12 41.51 41.17 40.43 41.80
53.07 50.33 48.98 50.02 51.00 51.39 53.24 55.24 56.29 55.68 47.22 48.98 49.94 49.31 53.17 54.88 54.89 55.45 45.89 45.21 49.78 48.12 48.56 39.22 39.46 32.65 35.51 27.70 31.22 32.82 39.21 43.40 34.01 36.10 40.98 42.27 43.51 44.07 43.84 43.47 42.67 42.95 42.96 44.12
49.31 49.26 49.64 50.16 50.80 51.09 54.19 54.88 55.99 52.28 47.20 36.43 45.48 53.40 51.24 54.23 54.79 54.88 54.06 51.99 52.16 50.47 44.77 37.62 36.59 32.31 42.32 33.12 35.96 34.03 39.14 41.78 39.51 36.00 41.00 43.40 44.88 44.21 43.19 42.98 44.11 43.92 43.77 40.18
48.64 49.44 49.88 50.25 50.02 50.71 55.89 56.53 56.17 55.91 51.20 38.66 39.74 50.90 51.80 53.39 53.33 53.28 53.44 52.02 49.58 44.62 38.16 34.96 34.39 34.22 37.11 33.11 34.08 33.33 43.03 39.30 34.36 31.33 42.09 41.27 41.47 42.92 44.23 42.85 42.85 41.45 38.93 38.27
49.00 49.72 50.20 50.71 49.86 50.48 55.99 50.27 54.56 53.55 55.36 43.62 36.04 47.91 47.84 50.19 51.24 51.14 51.00 50.59 49.22 47.32 40.45 35.33 40.92 47.22 39.35 34.78 33.77 41.09 44.64 45.77 45.03 42.01 44.75 43.96 43.27 44.25 45.68 43.77 40.71 40.00 38.96 37.90
48.71 49.18 50.23 49.58 49.20 52.05 49.52 47.27 50.04 48.91 52.74 40.20 35.71 39.27 45.27 47.17 49.04 47.75 49.58 48.09 45.90 45.78 41.84 37.11 35.60 37.81 41.45 34.22 33.56 40.91 44.41 45.03 45.08 45.49 44.01 40.62 43.02 40.74 43.10 41.26 40.48 39.62 37.59 36.56
48.37 48.95 49.06 49.39 47.56 49.29 50.24 50.48 50.20 49.64 48.49 43.82 35.88 36.61 36.59 46.04 37.30 38.90 43.87 38.59 43.22 44.14 41.19 38.93 36.30 38.38 35.71 34.69 40.42 43.01 44.62 44.70 44.44 44.52 45.51 43.49 43.54 43.45 40.66 38.70 37.18 35.51 34.41 33.96
48.45 48.70 49.88 51.64 49.16 45.88 49.19 48.14 48.72 53.62 48.69 37.65 34.24 31.52 29.78 43.15 39.15 37.63 38.15 42.41 34.60 40.69 34.42 35.69 38.56 34.22 34.39 39.21 40.90 42.73 43.75 41.84 41.53 43.46 44.31 43.81 42.65 38.01 36.45 35.82 35.14 33.61 32.56 32.78
48.28 49.10 46.37 38.04 41.62 46.88 48.89 49.12 41.46 41.61 42.44 41.47 34.22 37.46 35.30 40.90 35.49 34.42 35.11 34.22 34.04 32.96 34.97 38.05 32.96 33.86 39.24 41.76 42.94 42.62 43.41 43.63 42.98 39.34 37.72 37.06 35.92 34.57 34.47 34.62 34.50 33.39 32.44 32.31
44.82 39.25 35.85 42.48 46.43 45.03 40.22 35.66 37.28 37.36 35.16 36.74 37.82 37.06 37.29 40.39 33.89 33.66 35.31 33.14 33.48 31.06 30.63 33.60 32.44 31.90 36.26 40.57 41.15 41.70 41.97 41.54 40.07 39.09 38.16 37.60 36.19 34.19 33.95 33.59 32.10 30.90 30.26 30.42
43.26 42.47 43.70 41.75 38.73 35.55 35.30 33.86 33.45 34.55 33.65 34.15 33.85 34.74 38.25 35.82 41.41 34.66 33.83 33.23 32.76 29.53 35.91 32.22 29.14 32.09 39.00 39.18 39.48 40.25 40.29 38.99 38.06 38.40 37.00 36.09 35.98 34.96 32.34 31.28 30.67 30.93 30.58 25.96
41.54 38.00 34.60 36.34 32.00 31.27 31.45 30.24 30.74 31.81 32.20 33.78 33.14 32.76 33.30 34.82 36.42 32.56 32.53 31.46 30.76 33.53 30.89 27.41 28.49 38.32 39.97 39.43 36.11 34.77 34.88 33.44 33.02 34.72 35.57 34.86 34.31 33.72 30.81 29.02 30.74 26.80 29.76 30.71
34.73 32.92 30.11 31.66 29.97 30.71 30.33 31.43 32.22 32.94 32.77 32.77 32.96 32.20 32.38 32.23 32.37 31.84 30.30 31.08 31.45 28.51 23.57 22.40 33.42 37.20 38.65 38.45 36.22 33.70 31.27 29.65 30.21 30.85 31.26 30.49 29.69 29.48 28.47 27.92 27.00 24.19 28.16 29.82
33.51 33.26 29.22 29.62 31.29 31.99 32.17 33.06 33.38 33.09 34.00 33.68 32.74 32.56 32.91 31.48 30.71 31.10 29.77 27.55 26.59 27.94 28.13 30.93 33.66 34.12 34.32 32.92 33.40 32.28 30.64 27.34 29.28 31.18 30.06 26.34 26.96 28.11 29.73 29.95 30.06 30.39 27.50 27.78
33.17 32.33 30.06 31.90 32.20 31.64 32.05 32.06 31.88 34.36 33.68 34.04 33.47 31.28 31.10 29.23 29.80 27.95 28.10 27.16 25.88 29.06 31.29 32.97 32.49 32.34 32.88 32.58 32.03 31.02 31.67 31.30 31.31 31.16 31.14 30.04 26.77 25.56 30.34 30.30 28.92 28.08 27.95 27.25
32.37 30.83 33.66 32.58 32.65 32.14 32.31 33.51 33.30 36.08 33.48 31.19 31.61 28.62 26.41 30.01 27.38 26.80 29.85 28.49 30.12 31.82 31.18 31.82 32.42 32.16 32.08 31.50 32.08 30.71 31.86 31.91 31.82 31.52 31.15 30.89 30.86 27.73 27.98 28.75 31.50 30.89 30.88 27.17

GFSNW_sfc_wetblb_030.txt.gz
Wetbulb
49.93 49.61 50.35 50.41 50.60 52.10 52.94 50.72 41.95 55.49 53.31 40.51 42.05 40.63 47.07 47.22 47.05 49.53 48.25 47.56 46.28 43.43 43.37 42.52 42.22 41.99 43.78 47.40 46.63 40.58 42.10 37.61 29.99 37.22 42.06 43.53 40.84 39.65 38.37 28.17 29.82 27.78 26.34 28.46
49.60 49.72 50.04 50.29 50.80 52.38 52.43 47.32 49.55 56.87 50.78 34.06 34.85 44.21 47.75 47.99 46.45 46.36 46.53 45.91 47.62 46.94 43.87 40.45 43.60 43.55 47.12 46.74 45.17 42.05 41.73 35.89 28.22 33.38 38.58 41.93 38.13 40.42 40.79 36.50 30.43 28.86 21.36 26.45
49.42 49.60 49.92 50.24 50.62 52.23 53.49 48.80 41.52 47.28 50.07 45.73 42.97 44.30 44.13 45.07 48.78 47.90 48.23 46.85 47.73 45.47 43.20 45.23 42.12 42.95 46.86 46.53 44.56 44.50 44.86 38.91 33.53 29.06 33.54 36.30 33.33 36.68 38.77 35.99 26.64 28.49 28.64 33.05
49.28 49.36 49.82 51.33 51.78 51.89 51.97 50.58 44.29 44.88 38.24 40.80 45.26 45.79 45.45 44.51 43.66 47.89 47.89 45.55 45.68 44.09 38.53 41.77 41.02 43.76 44.53 46.07 44.62 44.46 42.20 34.80 36.95 37.31 37.27 37.22 35.89 35.36 35.57 34.70 34.27 29.62 32.36 33.98
49.56 49.43 51.03 51.10 51.36 51.35 51.44 49.91 48.24 46.09 42.00 43.92 44.33 43.09 44.33 44.85 45.78 45.91 44.59 43.48 45.74 45.09 41.25 42.38 40.79 43.17 41.89 41.04 42.47 41.87 42.38 32.46 32.82 31.41 37.36 36.55 32.95 35.67 36.37 36.75 36.76 36.00 36.04 35.54
49.89 50.86 50.64 50.50 51.03 51.42 52.28 53.71 52.87 48.03 43.12 40.34 41.14 42.29 44.77 46.08 47.17 47.34 48.29 46.36 42.74 40.02 43.67 44.42 44.11 43.91 44.88 44.86 41.97 40.53 38.65 32.14 28.27 24.96 32.93 31.60 26.09 34.19 37.00 37.15 37.52 36.97 31.36 36.71
51.12 50.87 50.41 50.14 51.03 52.45 57.35 54.81 52.31 44.86 37.53 41.33 42.26 47.25 47.32 46.25 46.40 44.90 47.53 47.09 42.38 46.25 48.38 44.27 41.93 41.15 42.59 43.59 43.23 43.75 34.99 32.01 27.06 21.64 23.69 15.94 34.16 40.45 40.26 38.12 39.35 39.85 39.23 39.19
51.52 50.53 48.33 48.65 49.75 51.54 54.65 54.99 52.37 43.90 34.01 44.33 45.61 46.37 46.53 46.61 46.56 45.58 46.30 47.94 47.57 48.34 44.97 34.01 31.54 31.07 31.33 35.36 41.28 42.00 40.28 30.27 26.01 19.35 23.99 28.34 34.76 39.07 37.73 35.27 36.06 40.96 39.57 39.37
51.61 48.65 49.17 50.44 50.42 51.76 54.24 53.82 54.70 47.03 40.19 41.05 49.44 45.32 46.05 42.00 41.34 41.93 44.85 49.17 50.11 45.60 34.06 29.02 26.32 26.07 29.20 31.50 36.52 39.92 39.32 33.01 26.43 24.79 17.17 15.14 30.66 39.65 42.53 40.54 29.33 41.63 41.02 38.99
50.33 48.67 50.15 50.57 50.76 51.97 54.20 53.28 55.25 51.31 43.40 47.23 48.60 43.95 44.50 46.44 43.21 40.18 43.06 44.06 42.85 43.15 29.01 31.37 24.16 28.81 36.10 29.80 28.56 26.76 26.92 24.97 25.53 16.57 16.06 26.24 36.01 41.46 42.56 28.81 30.36 40.84 41.22 39.51
50.43 50.08 49.94 50.47 50.67 51.14 53.01 53.05 54.83 52.03 44.48 48.57 51.09 50.96 47.69 47.15 44.21 38.16 43.25 40.36 39.26 36.81 29.70 26.99 32.48 24.36 30.40 30.49 34.97 31.76 28.99 26.77 24.17 23.37 17.12 21.61 40.15 40.76 33.49 36.39 40.18 40.65 40.04 39.73
49.72 47.69 48.05 49.77 50.45 50.90 53.51 51.05 55.54 55.11 49.89 49.28 51.76 52.09 51.82 51.82 50.45 46.93 43.90 41.05 42.15 40.47 35.39 34.00 36.02 26.61 32.62 29.18 27.57 37.98 30.84 32.30 29.88 32.05 31.08 37.72 41.31 40.40 42.01 42.90 40.36 40.05 39.53 40.29
47.78 48.20 48.56 49.14 50.36 51.57 54.34 53.10 53.48 51.44 44.27 46.63 48.33 48.34 52.50 53.35 52.58 52.99 44.06 42.53 48.21 45.73 42.69 37.83 32.04 26.37 33.02 29.03 30.79 32.33 38.13 41.26 33.41 34.33 39.02 40.22 41.97 42.30 42.11 42.14 40.90 42.97 42.91 42.21
48.65 48.81 49.01 48.85 49.89 51.67 53.75 52.99 52.96 48.49 43.70 35.33 43.76 51.99 49.87 53.44 53.73 53.28 51.43 49.98 48.97 45.70 41.45 36.21 35.88 29.13 38.06 30.47 32.91 31.61 36.16 39.91 37.59 34.16 39.38 41.77 41.93 41.41 41.78 41.76 42.76 43.78 44.08 40.79
49.37 49.73 50.08 49.47 49.81 51.33 54.53 53.34 52.15 52.49 45.61 38.30 38.12 48.67 50.78 51.51 52.05 52.08 51.73 50.09 47.31 41.01 36.69 33.52 33.62 31.93 35.11 33.26 31.83 32.74 41.13 38.78 33.21 32.44 40.00 39.98 39.92 41.96 42.49 42.62 43.32 43.53 38.42 35.75
48.97 50.10 50.21 49.56 49.37 52.12 52.52 47.58 52.25 51.13 50.22 39.91 33.94 44.71 46.00 47.74 50.64 50.37 49.82 49.68 47.33 43.95 38.61 34.91 38.91 43.84 36.03 34.03 33.23 39.45 43.24 44.63 42.87 40.93 44.02 43.48 42.36 42.53 45.07 44.21 41.92 39.48 36.18 35.00
48.63 50.23 48.31 48.09 49.39 50.05 47.47 44.37 49.00 49.03 48.69 38.28 35.51 36.19 42.95 45.89 47.38 45.02 45.68 45.78 44.26 44.09 37.79 35.75 34.58 34.77 39.47 34.55 32.62 39.59 42.22 43.92 44.23 44.64 43.22 40.28 41.13 41.07 44.33 41.03 38.90 37.57 35.58 34.36
49.35 49.59 49.24 47.84 49.45 49.61 48.48 48.69 47.68 48.18 45.01 39.02 33.16 31.24 35.24 43.42 36.29 35.48 42.16 36.89 40.27 41.83 40.06 38.38 36.26 36.50 34.74 34.38 39.10 41.70 43.42 43.12 43.57 43.11 42.55 42.06 43.43 42.75 39.07 37.34 36.65 34.62 33.22 32.91
49.21 49.18 49.11 48.43 47.03 43.76 47.19 47.10 46.74 50.27 44.88 34.88 32.07 30.25 29.96 40.73 38.37 36.25 36.05 39.65 33.13 38.24 33.82 34.96 35.64 33.93 32.14 37.62 39.56 41.01 42.39 41.23 41.77 42.51 43.14 43.21 41.67 37.46 35.78 35.79 34.81 33.13 32.07 32.01
47.45 47.87 43.60 39.12 41.99 46.65 46.94 45.44 39.42 38.55 40.32 37.18 33.11 36.26 33.16 39.76 33.69 33.88 34.40 33.87 33.14 32.50 33.87 38.39 33.14 34.08 37.22 39.11 41.24 41.49 41.56 42.21 42.87 40.33 36.51 34.77 33.96 34.19 34.40 34.03 33.76 32.75 31.76 31.22
44.75 40.14 36.78 42.57 46.00 43.03 39.12 36.22 33.56 36.27 34.89 36.16 36.18 35.19 36.00 38.28 33.47 33.49 33.35 32.22 32.95 30.36 29.14 32.27 31.21 31.18 34.66 38.83 38.64 39.18 39.28 39.25 39.15 38.72 37.49 36.71 35.73 34.72 33.90 32.97 31.74 30.70 29.72 29.88
43.65 42.58 43.71 41.61 37.90 35.02 34.55 34.07 33.67 33.85 33.38 33.82 34.03 34.71 37.36 35.65 38.49 34.14 33.84 32.50 32.01 28.54 34.51 32.40 28.86 32.67 36.66 35.83 36.99 36.97 37.77 38.01 37.29 37.29 36.03 35.87 35.07 34.21 31.67 30.33 29.52 29.78 29.52 25.58
42.28 38.49 34.82 36.56 32.92 32.42 33.14 31.94 30.91 31.45 32.19 33.79 33.14 32.96 33.14 34.83 36.23 32.96 32.74 31.47 30.78 33.31 31.29 28.82 29.30 37.29 35.22 34.30 34.08 34.00 35.75 35.24 34.12 34.55 34.76 33.92 33.23 32.03 29.77 28.81 29.84 26.22 29.22 30.02
35.27 34.02 30.28 31.42 29.24 30.14 30.14 31.45 32.03 32.42 32.42 32.60 32.78 32.00 32.36 32.04 32.39 31.85 30.34 31.27 31.26 29.00 20.30 20.20 32.50 37.50 37.34 34.73 33.66 32.37 30.40 28.81 30.46 30.68 31.21 30.52 29.25 28.92 27.54 24.71 25.01 22.09 26.72 29.22
33.44 30.41 28.05 27.96 30.52 31.59 31.95 32.42 32.59 32.92 33.66 33.32 32.57 32.37 32.68 31.47 30.35 30.91 29.03 26.97 25.48 26.98 26.48 30.74 31.98 32.82 32.78 32.07 32.69 31.31 29.60 27.23 28.90 30.17 29.11 25.47 25.30 26.21 28.09 28.58 28.49 29.17 25.94 25.33
32.51 32.01 29.39 31.02 31.05 31.29 31.89 32.09 31.88 34.00 33.32 33.32 33.10 30.93 30.19 26.46 29.21 27.36 27.12 26.36 23.81 26.65 31.11 31.74 33.16 33.48 34.49 34.36 32.30 30.35 31.01 31.00 30.77 30.71 30.63 29.66 25.04 23.05 29.16 29.56 28.09 26.25 25.52 25.39
31.83 30.71 32.74 32.13 31.98 31.47 32.07 32.43 32.39 35.42 32.93 31.02 30.55 25.28 23.94 29.40 24.58 23.51 28.70 26.26 29.24 30.91 31.87 33.55 32.09 31.82 31.17 31.03 31.85 30.69 31.16 31.18 30.87 30.63 30.12 30.12 29.91 26.21 26.16 26.93 30.80 30.23 30.01 27.62

GFSNW_sfc_wetblb_033.txt.gz
Wetbulb
49.92 50.03 49.94 50.18 50.85 52.08 52.52 47.76 40.42 53.86 49.27 39.52 39.48 39.96 45.34 46.35 45.32 48.14 46.99 45.94 44.18 41.49 41.63 40.96 40.20 40.16 42.01 45.93 44.76 38.73 40.54 35.82 29.43 35.37 40.60 41.79 38.87 37.40 35.93 25.98 28.45 26.56 25.29 27.75
49.67 49.67 50.23 49.91 50.81 52.20 51.56 46.11 49.53 55.75 46.86 32.50 33.55 41.52 45.75 46.40 44.73 44.68 44.95 44.04 45.68 45.05 42.32 38.90 41.48 41.85 45.52 44.38 43.53 40.31 40.22 34.56 27.75 32.41 37.36 39.95 36.75 38.53 37.48 33.81 29.77 27.94 20.90 26.16
49.60 49.67 49.87 49.97 50.33 52.06 52.05 47.37 41.32 45.96 48.12 41.82 40.38 41.12 42.88 43.02 47.10 46.18 46.35 45.06 46.07 43.61 41.77 43.51 40.17 41.39 44.79 44.11 42.70 44.29 43.38 37.08 32.02 28.13 31.70 34.98 31.84 34.91 36.89 34.37 26.18 27.78 27.49 30.64
49.57 49.56 49.42 49.74 50.00 51.53 51.84 48.06 42.55 43.87 37.95 41.37 43.82 43.52 43.91 42.70 41.84 46.04 46.10 43.83 44.02 42.54 37.83 39.69 39.59 42.28 42.77 43.76 43.96 42.63 40.37 33.58 35.24 34.65 35.33 35.10 34.00 34.30 35.14 33.96 32.93 29.01 31.09 32.26
49.37 49.15 49.97 51.06 51.22 51.20 50.40 48.21 44.40 43.84 39.60 42.37 43.53 41.65 43.19 43.22 43.91 44.02 42.79 42.40 43.96 42.98 40.04 41.21 39.52 41.88 39.81 38.00 41.07 40.07 40.45 31.40 32.43 30.29 35.18 34.68 31.66 34.02 33.86 33.79 34.00 34.27 34.02 34.09
49.41 50.15 50.90 50.92 50.89 52.17 49.15 49.96 50.39 45.69 40.34 38.97 39.07 40.28 43.62 44.68 45.70 45.80 46.35 44.95 41.57 38.59 41.75 43.07 42.77 43.00 43.49 43.06 40.54 38.90 36.03 31.05 27.33 23.78 30.59 28.79 24.08 31.31 35.44 35.76 36.27 35.26 31.48 35.82
50.44 50.67 50.09 50.25 50.70 51.40 54.74 53.10 49.23 43.15 36.31 37.61 40.32 45.04 45.44 44.90 44.99 43.76 45.58 45.06 41.62 44.56 45.31 41.89 41.61 40.09 41.55 42.78 41.31 41.67 33.35 29.94 24.71 20.50 23.03 16.10 31.92 37.32 38.09 36.27 37.50 37.58 37.09 37.94
50.56 47.65 47.85 48.00 49.96 51.61 56.46 53.33 49.47 42.08 33.35 41.56 43.43 45.25 44.76 45.03 45.11 44.07 44.81 46.39 45.85 46.19 40.69 32.90 31.44 29.74 31.29 34.42 39.67 38.95 38.28 29.56 25.12 19.56 22.00 27.14 32.92 36.89 36.76 34.76 34.01 39.19 37.55 37.75
47.33 47.82 48.94 49.85 50.59 51.72 55.45 53.66 50.87 45.83 41.29 41.71 47.03 44.49 44.49 40.80 39.66 40.99 43.33 47.76 47.67 42.79 31.29 28.73 24.94 24.36 28.84 30.23 34.96 38.84 36.23 30.72 25.97 24.32 15.62 15.09 29.70 37.55 40.66 38.94 29.47 40.24 39.25 37.44
47.82 48.79 49.90 50.06 51.03 52.76 53.29 53.21 53.15 48.86 42.82 46.15 46.93 43.21 43.12 44.21 41.40 39.11 41.90 42.63 41.33 40.76 27.29 23.55 24.46 27.73 33.27 29.03 27.96 26.27 27.18 24.19 22.68 15.68 15.98 25.71 34.21 39.74 40.74 29.16 28.99 40.06 40.27 38.83
48.97 48.11 48.59 49.82 50.75 52.68 53.33 52.30 53.16 50.15 44.26 47.27 49.44 49.81 46.03 44.88 42.66 38.02 42.05 39.72 38.31 32.57 28.53 25.69 27.04 22.13 29.88 29.88 33.09 30.96 29.31 26.13 25.54 21.81 18.16 22.62 37.92 38.43 33.37 36.36 38.08 40.87 40.04 39.35
48.57 48.21 48.75 49.26 50.33 52.09 52.24 51.45 54.45 53.11 49.15 47.96 50.55 50.67 50.85 49.80 47.17 45.17 41.76 41.52 40.19 39.21 32.33 29.16 31.65 25.39 32.27 27.61 25.78 35.58 28.50 31.26 29.63 31.15 30.67 37.06 38.71 38.41 39.70 41.12 40.28 39.45 39.87 40.12
47.69 48.21 48.75 49.35 51.04 52.31 53.46 52.22 50.95 48.65 43.91 46.40 47.47 47.30 51.42 52.28 51.42 51.18 42.19 40.97 45.35 42.59 40.47 37.64 31.17 25.65 30.50 28.24 29.57 30.14 36.42 38.42 31.08 32.88 36.81 37.57 38.99 41.11 41.54 41.83 40.41 40.95 41.96 42.66
48.73 48.99 48.67 49.71 51.26 51.78 52.74 51.23 50.28 46.28 41.70 35.44 43.19 50.59 48.52 51.79 52.45 52.30 50.15 48.29 45.49 42.86 39.20 32.70 31.39 25.88 35.25 28.52 31.59 31.62 35.50 37.88 35.37 32.85 37.21 39.62 41.61 41.31 41.12 41.03 41.95 42.75 42.95 41.15
49.32 49.03 48.83 49.89 51.65 51.96 52.89 51.18 49.97 50.00 43.73 37.78 36.60 46.98 48.90 49.34 51.44 50.49 49.90 48.06 44.98 40.10 35.84 33.26 32.92 30.62 33.13 33.53 32.90 32.66 38.86 37.09 32.36 32.19 38.79 38.97 38.73 41.30 41.52 40.55 41.65 41.96 38.04 35.88
49.28 48.05 47.49 48.95 50.78 51.71 48.81 44.83 50.17 50.43 47.52 40.08 34.35 43.31 44.74 46.77 49.43 48.77 48.06 48.03 44.92 41.45 37.91 34.49 37.39 41.12 35.27 32.62 33.65 38.97 41.56 42.55 40.60 39.17 40.70 41.04 40.70 41.14 42.69 42.57 42.82 39.44 36.35 35.29
49.30 48.20 48.77 49.09 49.24 49.91 45.64 41.95 47.20 48.10 46.58 38.51 35.49 33.74 41.15 43.97 44.85 43.14 44.10 43.98 42.98 42.94 38.73 34.47 36.02 33.90 38.79 33.25 30.90 38.79 41.26 42.40 42.43 43.31 42.45 38.75 40.09 40.17 43.39 40.94 37.96 37.50 35.49 34.82
49.44 48.41 47.83 48.97 49.37 48.91 47.08 47.91 47.24 47.26 41.94 37.55 32.20 30.13 34.07 41.96 36.12 36.33 41.31 36.43 38.85 39.51 38.85 37.40 34.09 36.65 34.32 33.96 37.86 40.25 41.77 41.97 42.14 42.50 41.80 42.13 42.01 38.68 36.15 36.55 35.68 33.83 32.95 32.80
48.71 48.02 48.13 47.98 46.16 43.08 45.50 46.63 46.75 46.72 43.22 33.73 31.50 30.59 29.94 39.27 37.70 36.45 36.82 38.82 33.94 38.06 33.97 34.88 35.82 33.05 33.25 37.08 38.32 39.43 40.23 39.98 41.07 41.69 41.35 40.62 37.01 35.37 36.11 35.58 34.88 32.79 31.90 32.00
47.23 47.39 42.93 38.49 42.98 46.51 46.27 43.94 38.62 37.56 36.29 37.04 32.84 35.99 33.32 39.02 33.79 33.81 32.16 33.94 32.69 28.59 32.87 38.12 32.89 33.87 36.00 37.08 38.27 39.35 40.62 40.67 41.77 37.60 33.72 34.80 33.75 34.03 34.74 35.20 34.35 32.68 31.84 30.91
42.89 39.54 36.89 43.02 45.53 42.62 38.46 34.21 32.02 36.47 35.14 35.89 35.92 34.79 35.64 37.90 33.80 31.72 32.10 31.17 32.03 29.73 27.84 32.74 28.88 31.11 33.26 34.83 34.81 35.98 36.97 37.47 37.26 37.20 36.77 36.80 35.76 33.89 33.83 32.60 32.10 31.18 30.46 30.07
42.52 41.29 42.55 39.33 36.74 34.41 34.78 33.34 33.76 33.72 32.42 33.75 34.14 34.86 37.17 35.41 36.01 33.85 33.94 32.35 31.68 28.09 33.55 32.15 28.66 31.64 33.42 34.40 34.73 36.26 37.79 37.64 37.35 37.78 37.20 37.25 36.67 35.31 32.07 30.42 29.78 29.72 29.44 26.45
42.52 38.34 35.14 36.80 33.55 32.95 33.41 31.18 31.36 31.74 32.31 33.73 33.08 33.07 32.87 34.48 35.43 32.70 32.63 31.72 30.20 32.95 31.24 29.34 30.47 32.85 35.53 35.80 36.38 36.43 37.31 36.37 35.60 36.50 35.41 33.69 32.61 31.84 30.43 29.24 30.05 26.61 28.91 29.91
35.62 33.76 31.62 32.09 29.30 30.05 30.28 31.20 31.95 32.13 32.34 32.52 32.69 32.13 32.48 32.15 32.43 31.95 30.82 31.36 31.38 28.80 23.46 19.42 32.03 35.15 36.29 32.33 31.71 30.76 29.33 27.61 29.94 30.35 30.34 29.66 28.83 28.61 26.57 24.94 25.16 23.37 26.51 28.87
32.74 32.56 28.14 28.20 30.67 31.33 31.57 32.33 32.49 32.49 33.56 33.05 32.49 32.27 33.13 31.38 30.59 30.83 28.91 25.58 22.31 24.14 22.92 29.57 31.39 32.48 32.49 32.17 33.30 30.73 29.58 27.84 28.68 29.55 28.95 25.89 25.46 25.89 27.58 28.10 28.03 28.43 23.68 24.00
32.52 31.47 29.47 30.85 30.94 30.85 31.81 31.99 32.01 34.12 33.07 33.07 33.01 30.83 29.49 27.64 29.13 26.14 25.38 24.67 19.43 20.37 29.33 31.38 31.77 32.04 32.99 34.42 33.46 30.44 30.80 30.09 30.06 30.11 30.35 29.43 25.89 24.74 29.15 28.57 27.02 23.53 22.86 22.95
31.44 30.82 32.69 31.83 30.94 31.38 32.01 32.55 32.51 35.18 32.84 30.25 30.33 20.42 22.62 28.90 24.51 24.49 28.95 24.49 27.92 31.01 31.49 33.32 33.10 32.74 32.67 31.60 30.89 30.31 30.73 30.56 30.12 30.23 30.22 30.20 29.50 25.16 25.24 25.95 30.18 29.53 29.09 25.03

GFSNW_sfc_wetblb_036.txt.gz
Wetbulb
50.63 50.00 49.93 50.08 49.91 52.02 51.73 44.69 39.90 53.31 47.98 39.74 38.32 38.42 43.55 45.84 44.14 45.88 45.41 44.40 41.81 39.74 39.86 39.21 38.60 38.98 40.70 43.92 43.15 38.03 39.01 34.92 29.75 33.91 38.39 40.08 37.38 35.96 34.19 25.08 26.98 25.92 24.85 26.37
49.94 49.51 49.83 50.07 50.20 52.38 50.46 46.59 48.66 54.16 46.42 33.84 33.35 39.94 43.63 45.00 43.13 43.42 43.38 42.59 43.87 43.50 40.82 37.54 39.57 40.42 43.86 42.71 41.63 39.22 39.39 33.54 27.81 31.63 35.26 37.95 35.20 36.82 35.19 32.02 29.29 27.26 20.79 25.49
49.49 49.45 49.80 49.90 50.45 52.06 50.27 47.01 41.75 45.62 45.52 40.51 38.88 39.43 40.62 41.50 45.48 44.59 44.94 43.75 44.58 42.30 40.22 41.92 39.14 40.10 42.98 42.56 41.50 44.31 42.10 35.28 31.65 28.53 30.23 33.62 31.15 34.54 35.08 33.33 25.57 27.14 26.97 29.26
49.31 49.71 50.04 49.99 50.51 51.45 51.05 45.90 41.82 44.50 38.73 40.87 38.00 41.51 42.18 41.56 40.47 44.41 44.93 42.52 42.93 41.02 37.09 38.15 37.88 40.82 41.11 41.76 43.36 41.51 38.52 32.64 33.27 32.57 33.42 33.29 32.19 32.40 34.14 32.88 31.76 28.79 29.43 30.41
49.17 49.67 49.84 49.58 50.21 51.35 49.86 47.36 42.41 40.93 38.90 43.82 41.55 39.65 41.39 41.79 42.34 42.87 41.06 41.48 41.89 41.38 39.01 40.12 38.58 40.63 38.65 36.51 40.27 38.42 38.79 31.20 31.54 30.28 33.09 33.01 31.20 32.66 32.67 32.85 31.79 32.53 31.72 32.11
49.24 49.49 49.23 49.99 50.70 51.28 48.35 48.74 48.46 43.98 38.53 38.87 38.66 39.52 42.24 43.12 44.83 44.19 44.33 43.36 40.86 37.97 40.77 42.12 42.01 41.64 41.50 40.67 39.22 37.07 34.48 30.58 28.00 25.06 28.69 27.35 23.56 30.50 32.17 32.76 34.29 33.52 29.99 34.24
49.19 50.35 50.53 50.42 50.97 51.38 51.69 50.78 48.19 42.38 33.53 35.63 40.63 43.14 43.75 43.26 43.26 42.79 43.79 43.41 40.05 41.96 43.07 41.73 40.85 39.53 40.97 41.48 39.90 39.20 31.83 28.99 23.54 19.70 21.89 15.76 30.58 35.37 35.29 34.64 35.23 35.98 35.43 36.32
49.65 49.47 49.60 49.94 50.68 50.85 53.49 52.03 48.28 41.62 32.11 37.11 40.12 43.19 43.47 43.54 43.65 42.70 43.58 44.86 44.06 43.83 38.68 33.30 32.45 29.72 32.01 33.50 37.81 35.61 35.56 28.55 22.69 19.31 20.54 26.85 31.67 34.84 35.07 33.91 33.39 38.41 36.65 36.56
47.54 48.25 48.57 48.86 50.35 50.91 53.82 52.22 49.36 45.91 39.11 39.25 44.48 43.12 42.79 39.61 38.56 39.74 41.80 46.29 44.74 40.57 30.20 28.88 25.20 25.40 30.05 29.37 33.81 37.46 34.34 30.12 26.41 20.00 15.76 14.49 29.45 35.32 38.94 37.76 28.92 37.61 38.41 36.56
48.32 49.53 49.71 49.88 50.62 51.85 54.24 53.43 50.99 47.79 42.48 44.76 44.79 42.04 42.06 42.76 40.29 38.31 40.94 42.33 39.80 39.12 26.80 22.77 23.66 25.86 31.13 27.89 26.89 26.38 28.73 25.74 21.20 14.04 14.78 24.48 32.52 37.37 38.95 29.03 29.55 37.90 38.50 37.23
48.27 48.66 49.44 50.27 51.18 51.93 54.91 53.04 52.52 48.65 43.73 46.07 48.13 48.51 44.40 43.40 41.56 37.48 41.36 39.33 37.98 31.84 29.10 26.09 25.56 22.42 29.13 29.35 31.93 31.02 29.61 28.08 28.04 22.08 15.17 21.94 36.29 37.80 32.80 36.11 35.63 38.74 38.60 38.09
48.50 48.59 49.03 50.30 51.67 51.50 54.34 52.89 53.58 51.52 47.95 46.95 49.35 49.56 49.59 48.41 45.69 43.82 40.52 41.30 39.53 38.19 31.22 26.08 27.58 25.83 31.36 27.16 25.52 33.88 28.46 30.98 27.68 29.72 29.72 35.74 36.78 37.29 39.11 39.16 38.51 38.77 39.18 38.76
47.92 48.50 49.80 50.26 51.40 51.28 53.71 52.10 48.44 48.19 43.63 45.45 46.52 46.20 50.38 50.90 49.83 49.12 41.61 39.25 43.12 40.14 38.39 32.70 29.21 25.55 29.20 25.98 28.48 29.15 34.60 35.79 29.58 31.89 35.10 36.15 37.90 38.98 41.66 41.07 40.15 40.12 40.79 40.83
48.01 48.99 50.05 50.36 50.94 51.31 51.88 49.76 48.39 45.45 42.26 35.67 42.12 49.17 47.39 49.98 51.34 50.65 48.46 45.73 42.99 40.55 37.70 32.15 30.31 26.25 33.48 27.67 30.17 29.41 34.49 35.61 33.21 31.96 36.39 36.88 40.42 41.05 40.54 40.84 41.09 41.35 41.75 40.89
48.19 48.88 50.64 50.78 51.29 51.64 51.93 49.73 49.46 47.85 42.98 37.68 36.13 45.64 47.23 48.84 50.25 48.80 48.05 46.19 43.63 39.64 35.47 33.30 32.01 29.15 32.22 33.63 32.30 32.05 36.72 35.21 31.56 30.79 37.55 37.48 37.69 40.25 40.90 40.82 40.98 41.25 37.54 35.77
46.66 48.14 49.13 49.73 49.79 49.51 46.77 44.23 48.89 49.05 45.78 40.72 34.73 41.96 42.91 45.39 47.16 46.89 46.11 46.21 42.80 40.16 37.66 33.46 35.40 39.63 34.33 32.86 33.67 37.98 39.82 40.55 38.97 37.47 39.42 39.64 39.69 40.36 40.93 40.95 40.69 37.26 36.57 35.59
47.94 48.61 49.31 49.66 50.08 50.42 44.22 41.32 47.04 47.00 45.24 38.38 35.35 33.87 39.79 42.06 43.20 41.46 42.48 42.09 41.23 41.15 38.46 34.32 35.33 35.13 37.45 32.53 31.19 37.67 40.14 40.88 40.88 41.48 40.32 37.97 38.14 39.26 41.64 38.46 36.05 35.94 34.69 34.63
47.63 48.21 48.47 48.38 48.48 48.10 46.81 46.87 46.59 46.55 40.40 37.24 31.86 30.92 33.94 40.70 36.73 36.45 41.51 36.84 38.46 39.41 38.98 36.69 33.96 36.73 34.35 32.98 36.57 39.00 40.53 41.28 41.13 41.27 40.57 39.96 37.72 35.03 34.29 35.62 35.93 35.07 34.25 33.40
48.04 47.70 48.06 47.68 45.80 43.76 44.74 46.56 46.23 44.82 42.19 32.80 27.14 29.94 29.03 39.36 37.02 35.95 36.84 38.18 34.34 37.66 33.84 35.46 35.63 32.92 32.62 34.77 34.21 36.36 37.73 38.34 39.08 39.42 36.51 35.27 34.18 35.02 36.12 36.34 35.76 34.30 32.85 32.06
47.16 47.16 42.79 36.74 42.87 46.47 45.66 42.80 38.11 37.11 35.54 38.43 32.09 35.27 33.25 38.86 33.84 33.68 33.04 34.02 31.91 26.82 30.14 37.80 33.09 33.07 34.52 32.93 33.34 34.11 35.18 37.68 39.92 33.42 32.32 33.89 34.34 34.69 34.93 34.84 34.31 33.86 32.19 31.48
43.74 39.54 37.28 43.07 44.79 42.49 36.11 32.02 32.55 35.39 29.68 35.50 35.02 34.77 34.42 37.66 33.84 31.94 31.32 30.81 32.14 29.56 27.15 32.58 29.96 30.43 32.31 33.33 34.73 35.84 36.30 36.51 36.34 36.55 36.57 36.51 35.26 34.08 33.31 32.34 32.09 30.74 30.37 29.78
42.93 42.01 41.79 39.79 37.41 34.68 33.28 32.24 32.60 31.78 27.76 33.60 34.19 34.35 37.02 34.91 34.99 34.47 33.61 31.16 31.26 27.72 32.85 31.59 28.09 29.29 33.64 36.30 36.62 37.22 37.93 37.93 37.36 37.70 36.75 36.80 36.45 35.96 32.83 30.17 29.32 29.47 29.21 26.80
41.03 36.84 33.51 34.91 32.12 32.91 31.25 31.02 31.80 32.03 32.36 33.78 33.12 32.94 33.10 34.73 34.74 32.72 33.24 31.32 29.89 32.44 30.90 29.01 30.46 31.66 36.17 36.75 36.70 35.56 35.01 34.46 34.81 35.54 35.37 33.46 31.68 31.17 30.07 29.14 29.78 27.34 29.17 29.87
34.84 33.21 33.28 31.76 30.91 30.48 30.85 31.79 32.21 32.00 32.36 32.56 32.94 32.17 32.51 32.20 32.69 31.98 31.53 31.09 31.40 28.65 25.38 21.74 31.59 34.31 32.10 30.42 30.88 30.55 28.78 26.18 28.89 29.38 29.93 29.58 28.88 28.50 26.98 25.80 24.54 23.42 26.77 28.64
32.91 33.19 27.75 28.18 30.34 31.03 31.61 32.20 32.51 32.35 33.25 32.92 32.71 32.69 33.36 31.41 30.82 30.51 28.76 23.75 19.65 21.38 19.92 28.85 30.87 32.14 31.46 32.85 32.69 29.25 28.44 24.77 27.32 29.04 28.18 24.53 24.45 25.23 26.63 26.88 26.78 27.41 22.00 22.26
32.64 29.99 29.32 30.88 31.16 30.70 32.04 32.03 32.04 33.98 33.10 33.10 33.04 31.03 28.21 27.68 25.94 22.70 21.37 21.18 15.44 20.83 29.21 28.91 31.56 31.52 33.61 33.84 34.12 30.39 30.71 30.24 29.90 29.88 29.78 28.67 24.38 23.21 28.49 27.49 25.88 21.00 19.97 20.56
31.01 30.85 32.54 31.94 32.00 31.59 32.04 32.41 32.57 34.65 32.56 30.28 29.57 22.77 21.98 26.99 21.44 21.68 25.36 20.56 26.32 30.52 32.24 32.91 33.24 33.22 33.76 34.22 31.32 29.83 30.34 30.18 29.85 29.92 29.69 29.47 28.86 24.24 25.79 26.86 29.49 28.52 28.32 24.61

GFSNW_sfc_wetblb_039.txt.gz
Wetbulb
52.19 51.93 51.57 50.57 50.06 50.45 51.24 46.62 41.70 54.62 49.78 41.62 39.96 38.80 42.11 46.15 46.28 47.39 46.80 45.53 43.78 42.08 42.44 41.52 40.95 41.32 43.47 45.99 46.57 42.83 42.47 39.47 36.01 38.84 42.50 43.71 42.42 40.34 39.33 33.60 30.91 31.17 31.82 34.54
51.61 51.27 50.98 50.07 49.84 52.30 50.05 43.87 48.65 55.05 47.89 36.42 36.38 41.89 44.77 46.40 44.94 45.36 45.66 45.25 45.98 46.06 42.66 39.96 42.03 42.86 45.70 45.16 44.90 42.82 42.81 37.97 33.70 36.09 39.86 41.96 40.38 40.31 37.77 35.70 34.99 31.90 32.75 34.38
51.03 50.79 50.24 49.72 49.89 52.42 52.05 48.42 43.21 47.64 44.78 42.52 40.91 41.22 42.16 43.67 46.79 46.44 46.12 44.98 46.14 44.45 42.71 43.43 41.10 42.22 44.90 45.44 44.70 43.82 44.21 37.92 37.10 34.49 36.19 38.43 36.51 38.49 37.71 38.18 33.60 32.63 34.04 36.09
50.41 50.16 49.79 49.50 49.79 51.94 51.54 46.47 43.72 46.86 40.11 40.65 40.61 42.89 43.39 42.83 42.52 46.63 46.50 44.79 44.80 43.12 39.67 40.89 40.39 43.00 43.20 43.92 44.43 43.77 42.77 37.35 37.07 36.00 36.42 36.84 36.58 36.47 37.26 36.42 36.54 35.17 35.89 35.57
49.84 49.81 49.29 49.45 49.94 51.40 51.14 44.87 42.95 41.79 41.36 43.64 41.60 41.55 42.24 42.68 44.17 44.86 44.04 43.41 44.24 44.79 41.36 42.68 40.54 42.51 41.51 40.18 43.42 42.09 40.70 36.55 36.15 34.47 35.33 35.05 34.83 36.18 36.18 36.69 36.48 36.85 35.97 36.37
49.81 49.65 49.18 49.22 49.87 51.61 49.74 49.92 48.09 44.67 38.67 40.50 38.76 39.85 42.63 43.58 45.61 45.62 45.52 45.15 43.26 41.81 44.28 44.93 43.87 43.68 43.36 43.18 42.32 39.30 37.87 35.85 33.57 30.41 31.17 31.22 29.70 34.55 36.68 36.38 37.37 38.89 35.01 40.40
49.38 49.06 48.83 49.06 50.59 51.12 52.15 51.33 47.66 41.50 34.88 39.15 39.50 42.51 44.99 44.12 45.05 44.09 45.22 45.33 43.26 44.35 46.15 44.49 44.34 42.49 42.43 42.31 39.64 40.53 34.91 32.16 28.96 29.07 26.69 25.57 36.15 39.12 38.44 37.05 37.82 38.94 38.97 40.14
48.93 48.51 48.50 48.79 50.53 51.06 54.49 52.52 48.53 41.75 33.44 38.25 40.43 43.45 43.71 44.43 44.78 44.14 44.74 45.67 44.96 45.40 42.31 38.62 36.30 34.66 35.95 36.61 38.20 36.74 37.43 32.92 27.73 29.72 27.40 31.04 35.19 35.27 37.25 36.56 37.78 40.63 40.16 40.27
48.39 48.72 49.13 49.30 50.82 51.00 54.54 52.64 50.46 45.79 38.81 38.44 43.81 43.87 44.14 41.51 40.91 42.13 43.88 46.44 45.73 42.21 35.14 34.35 31.78 31.68 35.01 33.34 36.46 38.78 35.90 34.48 34.70 27.22 27.12 25.01 33.93 37.82 42.13 41.66 34.62 40.93 41.57 39.92
48.13 48.65 48.82 49.47 50.87 50.98 54.49 52.90 51.47 49.77 43.89 46.89 46.04 43.62 43.19 43.91 42.14 40.44 42.22 43.40 42.93 42.75 33.86 32.53 32.66 33.03 33.89 31.80 29.70 30.43 32.54 31.51 31.56 22.78 29.34 30.88 36.12 39.25 42.06 33.03 35.56 40.37 41.83 40.81
47.75 48.01 48.91 49.91 50.67 50.70 54.20 52.46 53.21 50.75 44.91 47.52 49.84 49.64 44.42 44.14 44.07 40.78 43.24 42.47 41.65 36.79 35.00 35.22 32.39 33.05 33.65 33.51 34.67 33.66 33.18 31.34 30.15 25.43 26.79 28.05 38.72 40.94 37.70 42.02 41.03 41.71 41.85 41.63
48.48 49.02 49.68 49.92 50.75 51.25 53.53 51.85 53.95 52.07 48.79 47.82 50.44 50.41 50.78 50.58 48.41 45.05 42.68 44.26 42.04 41.77 36.35 32.85 31.79 32.00 32.79 31.26 32.45 36.19 33.11 36.20 34.15 33.82 35.09 40.21 40.24 41.87 43.13 42.29 41.96 42.58 42.67 42.95
48.33 48.93 50.16 50.21 51.12 51.76 53.18 53.02 51.27 50.32 45.94 46.59 47.78 47.59 50.64 51.12 50.20 51.06 44.14 41.65 44.84 41.36 41.04 36.20 34.09 32.87 33.82 31.98 32.51 34.85 37.11 37.54 35.71 35.65 39.53 38.55 40.49 42.56 42.26 44.10 43.22 44.27 44.15 43.49
48.90 49.37 50.32 50.65 50.90 51.22 52.31 51.07 49.82 48.48 44.16 36.72 44.31 49.19 47.77 50.11 51.52 51.65 49.22 45.57 43.01 41.89 40.24 35.12 33.94 34.65 35.51 32.84 35.26 35.18 37.85 37.91 36.26 35.80 38.81 39.61 41.18 42.29 43.93 43.25 44.06 44.09 43.45 43.38
49.50 50.00 50.32 50.35 50.75 51.11 51.55 50.86 49.76 48.98 46.27 38.60 40.16 46.29 47.11 48.50 49.95 48.13 47.69 46.12 44.55 41.84 38.24 34.54 36.04 33.98 35.88 35.60 34.72 33.96 38.37 37.74 35.91 35.48 40.05 40.33 40.93 42.80 43.81 43.21 43.38 43.40 40.41 37.18
49.11 50.44 50.75 50.44 50.27 50.42 49.39 46.74 49.00 47.64 46.36 42.55 36.67 42.73 42.97 45.12 47.04 46.22 45.60 46.22 43.60 42.15 39.91 35.36 37.73 40.54 37.47 33.62 33.92 38.85 41.16 42.14 41.33 40.36 42.85 42.72 43.20 43.63 44.13 43.03 40.51 38.18 36.76 35.80
49.16 48.98 49.30 49.47 49.18 49.39 43.72 42.22 47.11 46.68 45.88 39.77 36.18 36.73 40.45 42.13 43.91 43.66 43.45 43.37 42.18 42.96 39.78 35.95 37.84 38.88 38.88 33.94 34.17 38.16 40.53 41.54 42.55 43.63 43.32 41.68 40.95 39.26 37.59 36.42 36.36 37.46 37.15 37.30
48.13 48.30 48.41 48.39 48.44 48.06 47.39 46.78 46.21 45.86 40.76 38.95 33.86 32.90 36.65 41.44 38.27 37.92 41.76 38.88 40.50 40.41 39.14 37.58 35.95 37.85 35.95 34.88 35.79 36.31 37.66 38.70 41.06 40.59 39.37 37.08 36.39 36.96 36.70 37.65 36.66 34.33 33.36 32.82
47.53 47.54 47.66 47.64 46.05 44.59 46.03 46.32 45.91 45.12 42.80 34.02 30.84 32.41 32.75 41.17 37.10 36.73 38.60 39.03 34.35 38.31 35.09 36.52 38.59 34.15 32.43 31.79 32.41 33.38 34.73 35.20 37.35 35.81 36.57 37.35 36.32 35.97 35.51 35.03 34.38 32.67 32.43 33.26
47.00 46.57 43.34 38.29 43.19 46.01 45.39 42.68 39.54 38.50 36.79 37.34 31.68 35.65 33.80 39.52 35.45 34.18 35.56 34.69 33.79 32.61 34.28 37.87 34.00 32.26 32.65 34.18 35.02 35.21 35.44 37.01 36.68 34.43 33.66 34.23 33.84 34.48 34.44 34.51 35.00 34.56 34.11 34.15
44.17 40.79 38.88 43.92 44.98 42.64 36.58 33.57 34.25 34.68 32.38 36.02 35.34 36.36 35.19 38.10 35.67 33.44 33.55 32.61 33.33 30.30 31.78 34.06 31.75 31.08 31.81 35.38 35.62 36.41 37.34 37.35 37.32 37.15 36.65 36.46 35.88 34.74 34.11 33.74 34.17 33.89 33.13 31.59
43.80 43.31 42.94 40.88 38.29 35.05 34.21 32.99 33.35 32.21 31.68 33.95 34.35 34.86 37.70 35.62 36.84 34.47 34.61 31.49 32.25 28.66 34.39 32.48 28.99 29.99 35.15 36.47 36.47 37.26 38.01 38.05 37.44 37.69 36.66 36.91 36.68 36.73 35.25 32.95 31.37 31.10 31.19 29.83
42.95 39.32 36.68 37.55 33.95 32.36 27.83 29.16 31.81 32.16 32.91 33.92 33.62 33.08 34.17 35.81 36.74 33.46 34.31 32.45 30.95 34.33 31.81 30.03 29.94 33.35 35.77 36.05 35.10 34.71 35.34 35.12 36.00 35.91 35.57 33.45 32.24 31.95 31.57 30.80 31.15 29.97 31.12 31.50
34.41 32.98 32.37 28.82 32.11 31.58 31.72 32.43 33.09 32.17 32.55 32.91 33.46 32.73 33.64 32.91 33.46 32.37 32.55 31.24 32.43 29.79 27.77 25.59 31.16 33.83 32.98 34.15 33.78 32.20 29.95 28.29 30.49 30.72 31.16 29.93 29.40 29.46 28.17 25.72 25.30 24.19 29.34 30.22
33.36 33.20 27.88 28.71 30.48 31.69 31.77 32.17 32.69 32.49 33.59 33.46 33.28 33.09 34.25 32.14 31.33 30.91 30.24 27.09 24.23 25.12 24.37 29.56 31.12 29.84 30.75 30.75 30.67 30.61 30.28 26.97 29.90 31.25 30.00 26.42 26.49 27.56 28.61 29.62 29.99 28.85 26.38 26.54
33.21 31.51 29.46 31.39 31.10 31.27 32.19 32.19 32.01 34.10 33.06 33.24 33.49 31.55 30.64 28.21 28.28 26.52 25.47 25.03 21.85 25.79 30.16 30.75 32.04 32.58 33.06 33.96 34.11 31.36 31.64 31.08 30.84 30.82 30.53 29.43 27.34 26.87 28.82 28.68 28.50 26.44 26.73 24.56
31.57 30.62 32.35 32.17 32.17 31.63 31.82 32.55 32.73 34.75 33.35 30.71 29.91 25.23 24.87 28.53 24.54 23.86 27.60 24.92 26.85 31.26 31.65 32.21 32.20 32.78 33.88 34.30 32.47 31.09 30.96 30.68 30.62 30.30 29.58 28.82 28.48 27.52 26.71 24.64 24.63 25.40 26.33 25.14

GFSNW_sfc_wetblb_042.txt.gz
Wetbulb
50.66 52.61 53.00 52.04 51.19 50.52 51.07 53.34 46.34 59.98 59.52 49.04 51.34 46.51 47.88 47.77 49.98 51.94 49.28 49.32 47.44 46.02 46.95 45.74 44.93 45.05 47.03 49.69 50.06 47.40 47.73 47.02 42.50 43.69 46.53 47.71 46.96 45.38 45.16 39.10 36.21 39.43 38.55 39.06
50.52 51.28 52.30 51.35 50.56 51.01 53.63 50.15 52.75 56.34 55.90 45.82 46.22 48.25 47.64 50.35 48.41 49.43 49.36 48.28 49.37 49.93 47.79 44.42 46.69 47.45 48.17 49.03 48.96 48.26 48.02 44.83 39.84 40.68 44.14 46.30 44.47 46.09 45.23 42.86 42.49 37.89 36.92 39.21
50.04 50.62 51.80 50.72 50.34 51.49 55.49 51.75 48.07 52.70 52.08 52.35 48.88 46.30 46.05 46.65 50.36 49.89 50.23 49.38 50.53 49.28 47.28 48.39 46.21 46.85 47.37 48.19 48.52 43.92 47.74 45.74 43.53 39.45 41.58 45.15 41.93 43.59 44.47 43.57 38.52 38.84 39.46 40.59
49.48 50.45 51.46 50.47 50.20 51.28 54.01 53.33 49.18 52.19 46.72 47.82 47.91 48.76 47.53 45.83 46.56 50.14 51.21 48.95 49.90 48.67 45.33 46.01 45.72 47.48 45.98 47.60 45.20 48.43 48.53 43.08 43.17 42.07 41.77 41.98 42.42 42.49 43.28 41.95 42.87 38.94 41.24 40.68
49.63 50.35 50.88 50.07 49.97 51.03 51.34 50.77 49.92 50.90 50.79 50.17 47.25 45.24 46.33 46.21 47.59 48.99 48.26 48.75 49.80 50.24 47.62 48.14 46.39 47.89 47.32 46.90 47.92 47.75 46.49 42.74 41.93 39.71 40.45 40.45 39.51 42.42 42.77 43.69 43.74 43.37 43.32 42.62
49.76 50.25 50.20 49.73 49.88 51.50 53.18 56.69 53.59 53.41 43.74 47.64 46.15 45.81 47.19 47.24 50.93 48.75 49.41 51.53 49.93 48.67 48.92 50.74 51.88 50.66 50.23 49.47 48.24 46.47 45.40 43.29 40.29 36.50 37.46 37.77 35.88 40.99 42.86 43.19 44.35 44.11 40.53 45.18
50.53 50.40 49.47 49.34 49.72 51.81 57.85 58.62 54.76 50.97 43.36 46.38 45.29 46.75 49.03 48.79 50.55 49.32 49.11 50.68 50.34 48.59 52.35 52.22 51.33 49.95 48.42 47.84 45.82 46.84 42.65 42.05 39.07 36.94 33.53 31.63 40.66 43.39 43.21 43.56 44.95 45.91 44.86 45.52
49.96 49.26 49.15 49.20 49.42 50.61 56.04 59.51 54.85 50.46 40.90 47.17 46.16 47.66 49.25 49.61 50.08 49.33 49.63 48.97 50.21 52.47 49.76 47.23 43.41 43.56 43.27 43.27 43.95 43.62 44.71 41.68 35.16 36.90 34.41 38.00 40.35 40.22 39.69 39.72 41.11 45.65 45.16 45.99
49.03 48.86 49.01 49.11 49.15 50.58 52.81 58.84 56.74 54.90 47.13 45.33 48.98 48.53 50.49 48.54 49.03 48.37 46.66 48.50 50.78 48.79 47.60 45.40 40.83 38.78 41.63 39.51 41.15 43.28 42.39 42.84 42.16 34.99 35.34 33.41 39.81 42.82 45.91 45.18 38.38 45.57 46.37 46.07
48.61 48.54 48.85 48.90 49.25 50.81 54.78 58.73 57.13 56.79 51.31 49.75 51.56 48.90 49.16 51.96 50.47 48.77 46.96 46.90 46.85 48.18 45.92 43.44 42.70 40.96 40.79 38.20 36.71 35.49 38.84 39.00 37.82 36.19 36.71 38.64 42.72 43.16 45.88 36.14 38.72 46.06 47.25 47.68
48.13 48.27 48.60 48.69 48.83 51.08 54.29 57.15 57.86 58.01 52.27 51.90 53.08 51.97 50.60 50.39 52.33 48.95 48.13 47.85 47.46 46.92 45.12 44.92 42.47 42.12 40.66 40.07 40.90 39.09 39.08 38.18 36.99 35.30 35.00 32.96 43.91 44.44 40.77 45.77 48.20 46.75 47.87 48.06
48.17 48.52 48.74 48.94 50.07 50.86 52.70 55.99 57.33 58.66 54.91 52.16 54.64 53.77 54.47 53.86 53.43 52.42 50.45 51.05 49.37 50.49 47.37 44.81 42.65 38.73 37.13 40.88 39.34 41.96 38.62 42.99 41.90 41.14 42.02 45.06 46.20 47.71 48.72 48.36 47.75 48.34 48.08 48.48
47.90 48.24 48.70 49.60 50.33 51.38 53.84 56.82 56.91 57.74 53.96 52.35 53.63 51.74 54.16 56.00 55.15 55.90 50.71 50.34 51.32 49.18 50.00 47.61 45.45 37.58 43.70 37.18 40.84 41.31 43.09 43.20 42.10 40.49 43.95 44.82 46.32 48.01 48.74 49.17 47.98 48.50 48.77 49.09
47.99 48.43 48.92 49.62 50.46 51.55 53.59 56.35 55.48 56.72 52.03 41.93 49.34 53.80 51.90 53.95 55.71 55.38 53.88 52.23 50.11 49.40 51.01 47.59 41.46 41.77 43.24 42.13 42.77 42.85 44.21 43.38 42.24 41.97 45.05 45.64 46.08 46.69 47.71 48.32 49.20 48.50 48.52 47.92
48.30 48.96 49.47 50.12 51.09 50.77 54.41 54.10 52.87 54.49 53.05 43.86 49.04 51.58 51.55 53.11 53.65 52.58 52.72 51.84 51.14 50.33 47.62 41.89 44.58 43.56 43.36 41.65 42.31 42.41 44.44 42.62 41.81 42.00 43.88 44.42 45.19 47.65 47.88 47.45 47.36 47.50 45.15 43.80
49.22 49.67 50.48 50.38 50.10 51.27 57.29 51.21 51.95 51.01 55.07 51.70 42.94 49.47 48.90 51.12 52.45 51.52 50.58 51.30 50.60 50.31 46.59 40.40 44.66 43.22 45.48 38.27 41.27 41.93 44.40 45.01 45.53 44.22 47.30 47.04 47.23 44.91 46.20 43.97 43.78 43.06 42.09 41.83
49.36 49.15 49.06 48.83 49.15 53.23 52.34 49.89 50.47 48.64 52.25 49.17 41.86 45.02 47.22 48.05 50.22 48.53 49.84 49.97 48.96 49.54 43.99 40.65 42.65 42.84 45.83 38.98 41.19 39.91 41.98 43.11 45.19 46.59 46.37 44.50 41.12 39.60 41.75 41.76 40.85 39.41 37.80 36.89
49.37 49.27 49.06 48.61 48.65 49.13 51.54 50.65 47.17 48.43 49.58 50.24 41.06 40.88 46.11 46.77 43.74 43.01 46.04 44.88 47.77 44.19 41.54 41.77 40.13 41.72 42.65 39.41 36.80 38.28 40.86 42.33 41.54 41.19 42.61 41.41 41.07 39.81 37.89 37.73 37.24 35.92 35.35 35.47
48.50 48.04 48.59 54.39 51.55 52.11 51.53 45.92 46.94 51.16 50.10 44.13 37.21 40.48 37.78 44.35 40.32 41.67 44.61 44.58 38.66 41.75 40.48 40.11 43.02 37.83 36.26 33.37 34.63 36.28 37.52 37.91 38.42 40.54 39.66 37.99 36.10 35.82 36.27 35.77 35.22 35.03 34.92 36.37
47.32 52.00 51.08 47.59 49.14 46.19 47.93 50.08 49.08 47.11 45.21 43.37 35.40 40.52 36.74 42.78 41.39 37.87 40.07 40.03 38.38 36.57 38.61 40.23 37.21 32.77 34.41 35.42 36.15 36.72 38.87 41.00 39.44 35.24 34.21 35.39 34.99 35.57 35.66 36.32 37.52 37.85 37.77 37.90
51.73 48.78 44.30 49.66 46.43 49.88 45.74 41.48 41.28 41.73 37.92 39.49 38.69 40.93 38.40 41.20 38.71 36.24 38.85 35.57 38.52 34.66 37.05 37.65 35.37 32.45 33.05 36.17 36.65 38.20 39.62 40.14 39.56 38.43 37.67 37.73 37.68 36.94 37.19 36.79 37.01 36.07 35.06 34.39
48.72 48.95 48.22 48.22 45.31 43.86 37.16 34.67 37.74 37.24 34.83 37.12 38.02 38.22 40.45 38.98 42.47 38.67 38.44 34.68 36.06 32.13 38.68 35.69 31.88 32.20 35.79 36.41 36.70 38.11 39.85 40.13 39.52 39.76 38.79 38.87 37.97 37.21 35.59 34.58 34.16 34.25 33.95 32.86
49.92 46.70 40.26 44.26 38.66 35.76 35.94 31.93 34.27 33.48 35.40 35.54 36.06 35.19 38.96 39.47 40.75 37.16 37.03 33.59 33.00 38.82 33.33 32.02 31.92 34.71 35.98 36.51 37.12 37.40 38.56 38.16 38.02 36.83 36.18 35.55 34.98 34.78 34.55 33.66 34.01 34.57 34.21 34.52
41.99 38.27 33.95 35.22 34.49 33.87 34.30 35.58 35.22 33.75 35.04 35.58 38.12 35.40 37.21 37.20 36.85 35.04 33.95 32.68 34.43 31.58 29.53 29.72 31.77 33.92 35.50 36.35 36.77 35.67 33.40 32.46 34.26 34.26 34.28 32.86 32.79 32.31 32.37 31.80 31.86 32.28 31.70 32.18
36.21 37.77 30.85 31.22 31.94 32.86 32.68 33.41 34.31 34.45 35.61 37.58 37.92 37.38 38.46 33.95 33.04 33.86 33.71 30.69 29.19 30.42 30.49 31.99 33.24 34.13 36.03 35.37 33.83 33.62 32.61 32.30 34.08 34.57 32.61 31.74 32.30 32.60 32.46 32.44 31.02 29.67 28.81 28.07
35.36 34.35 31.59 32.86 32.48 31.96 32.32 32.50 32.50 35.61 35.22 36.49 37.56 33.72 34.13 31.76 34.11 32.14 31.74 31.23 29.72 31.51 34.53 33.84 32.46 33.64 35.54 34.43 34.37 34.55 34.50 34.21 34.00 34.11 33.40 32.11 30.98 30.64 30.49 29.53 27.98 27.20 27.60 25.84
33.89 31.93 33.41 33.41 32.68 31.96 32.32 33.41 33.04 34.92 34.13 32.50 35.53 32.14 29.90 32.95 30.86 29.78 32.90 31.76 33.39 33.79 32.20 33.83 35.38 34.44 33.97 35.64 34.68 33.49 33.84 34.11 33.70 32.93 31.83 30.82 29.82 28.71 27.07 25.52 26.05 26.41 26.66 25.81

GFSNW_sfc_wetblb_045.txt.gz
Wetbulb
50.73 51.02 50.83 52.10 52.41 51.16 50.85 53.26 46.92 59.06 61.71 46.63 49.98 47.66 50.02 49.39 50.23 54.10 50.91 50.02 48.17 47.29 47.49 46.30 45.94 45.24 48.51 52.88 52.40 48.17 50.53 47.92 43.23 45.24 49.43 50.36 49.46 47.04 46.89 40.94 39.14 41.09 40.72 40.16
50.25 50.76 50.70 52.03 51.73 51.38 52.35 49.54 51.80 59.62 58.96 43.71 47.91 50.80 50.48 51.20 49.37 50.91 50.45 48.26 49.57 50.37 48.16 45.04 47.35 47.65 51.84 52.01 51.78 49.56 51.01 45.47 40.50 42.49 46.34 48.54 46.19 47.52 47.29 46.71 44.56 40.16 39.14 40.76
50.00 50.47 50.56 51.34 51.24 51.50 55.04 51.55 47.38 51.48 54.63 51.62 50.31 48.70 48.65 47.81 52.00 51.42 51.88 49.67 50.56 49.20 47.33 49.54 47.33 47.92 50.08 51.64 51.75 45.87 49.77 46.75 43.91 40.02 43.20 47.05 44.92 46.08 47.28 45.85 40.72 40.47 41.18 42.86
49.88 50.24 50.54 51.59 51.07 51.17 53.59 51.30 49.17 51.63 46.49 48.89 51.11 51.04 49.51 47.08 46.68 51.71 52.73 50.14 49.95 48.92 45.93 47.12 47.23 50.10 49.19 50.42 46.55 49.78 50.78 44.70 46.25 46.35 46.24 45.86 45.58 45.01 45.51 44.34 44.78 41.84 43.17 42.87
49.34 49.96 49.95 51.07 50.84 51.04 49.69 51.12 50.28 52.52 50.53 50.65 50.88 48.30 48.50 46.92 48.16 50.24 49.32 48.63 49.79 50.89 48.41 49.13 47.31 50.16 49.91 48.82 50.69 50.61 50.75 44.95 45.62 42.72 45.63 45.08 43.24 45.21 45.38 45.07 45.29 44.49 44.47 44.07
49.11 49.46 49.65 50.52 50.62 51.23 48.33 55.02 56.86 54.03 49.25 50.75 49.41 49.52 49.15 48.19 50.37 52.01 53.04 51.67 50.30 50.39 51.33 54.65 55.01 54.54 53.61 52.83 50.84 49.78 48.88 46.28 42.72 38.60 41.94 41.63 37.40 43.02 44.40 45.25 46.36 45.93 42.59 46.67
48.96 48.95 49.08 49.46 50.31 50.89 54.46 56.55 56.53 50.77 47.78 50.77 49.10 49.71 50.30 49.23 49.80 50.58 52.12 54.43 52.40 53.03 56.43 55.80 54.63 53.08 51.69 51.21 50.43 52.26 47.52 46.34 43.68 39.08 35.81 31.88 42.83 45.82 45.24 44.53 45.98 47.31 47.13 47.70
48.64 48.80 48.42 48.92 49.91 50.48 55.47 61.72 57.42 52.52 45.55 50.82 48.66 49.79 49.75 50.61 52.08 52.38 52.49 51.96 54.93 56.74 54.68 49.26 45.31 45.73 44.58 45.56 47.17 46.99 48.97 45.68 38.85 37.91 36.69 40.68 42.48 43.64 42.58 41.74 42.40 46.59 46.59 47.05
48.32 48.86 48.82 49.55 49.64 50.14 54.31 57.59 60.55 55.60 51.85 49.93 50.70 49.15 50.27 49.48 50.35 50.82 49.25 54.44 55.37 53.59 52.66 48.53 41.65 39.58 42.90 42.16 44.20 46.60 45.33 46.61 43.19 37.79 35.25 32.42 42.14 45.19 47.65 47.00 39.36 46.81 47.11 47.00
48.74 48.63 49.18 49.40 49.54 50.15 53.88 56.89 61.00 56.97 52.10 52.65 52.86 49.34 50.43 52.43 52.49 51.08 49.86 50.19 49.95 52.68 50.20 44.27 44.40 42.73 45.86 41.02 40.28 37.44 41.22 41.53 39.30 39.02 38.03 41.42 46.05 45.97 47.83 38.10 40.86 47.86 48.56 48.34
48.81 49.10 49.12 49.18 49.43 49.85 53.38 55.83 61.47 58.17 54.75 53.56 54.90 54.56 52.41 53.74 53.46 50.29 51.78 50.30 50.62 50.43 46.51 47.83 46.36 44.38 44.89 43.70 44.92 42.13 40.94 40.53 37.94 41.18 35.10 33.76 46.73 46.51 41.68 47.55 49.10 49.27 49.33 49.76
48.80 48.73 48.76 49.03 49.19 49.49 52.73 53.56 61.10 61.55 57.61 53.80 57.77 57.14 57.24 56.72 57.65 55.41 53.36 52.48 52.21 52.83 50.00 49.65 49.83 42.20 40.82 45.06 40.56 46.96 41.48 45.56 44.60 43.66 43.64 48.18 48.54 47.64 50.14 50.22 49.05 49.63 49.82 50.66
48.26 48.34 48.39 48.57 49.11 50.51 54.04 56.64 59.75 60.24 55.25 53.47 54.84 53.96 56.44 58.03 58.63 59.81 53.41 55.79 55.84 54.54 56.70 52.12 50.84 42.80 48.50 39.57 44.39 45.37 46.58 47.18 44.56 43.06 45.71 46.83 47.96 49.44 50.38 50.92 50.51 50.87 51.23 50.72
47.79 47.98 48.31 48.56 49.26 50.98 53.28 57.26 58.91 59.83 55.09 46.89 50.54 56.92 53.92 56.85 58.47 58.02 58.26 57.51 56.29 55.78 55.76 52.51 43.77 43.89 49.23 46.90 46.99 46.05 47.32 46.76 44.63 44.49 46.47 47.21 48.35 49.53 50.04 50.07 51.06 50.77 50.86 49.81
47.95 48.20 48.62 49.20 50.47 51.43 55.04 57.54 56.10 58.28 56.56 47.09 49.23 54.13 54.42 56.54 56.98 56.26 56.62 56.25 54.55 53.16 50.88 44.36 47.38 48.74 47.87 47.54 47.10 45.55 47.70 45.71 43.96 43.73 46.88 46.77 47.89 48.29 49.25 48.69 48.07 48.61 47.23 45.32
47.76 48.04 48.79 49.72 50.95 51.87 57.56 55.26 55.59 55.81 59.41 52.68 46.19 52.32 51.51 54.91 56.01 55.16 54.95 55.90 55.48 55.06 49.24 47.54 49.06 47.55 50.03 41.99 43.58 45.79 46.69 46.69 47.39 46.83 48.54 48.54 47.79 46.34 46.53 45.14 45.22 45.28 44.22 42.65
48.04 48.60 49.41 50.10 50.97 56.88 53.85 51.17 53.39 51.89 57.77 51.82 44.77 45.98 50.81 52.03 53.92 52.71 53.98 54.99 53.39 53.80 49.73 44.62 48.17 47.76 49.11 41.74 42.64 44.42 44.27 45.65 46.86 47.31 47.49 44.61 45.15 42.75 44.01 42.51 41.59 40.53 39.50 38.96
48.66 49.11 49.32 48.69 48.94 49.55 53.01 50.17 47.33 51.06 52.11 53.74 42.81 42.02 47.33 51.04 48.93 46.49 51.69 50.64 52.79 48.12 44.88 45.47 43.93 45.64 45.43 43.18 41.93 42.55 43.40 45.36 44.18 44.67 45.77 44.53 43.35 41.81 40.42 39.91 38.41 36.99 36.27 36.92
48.50 48.79 49.37 55.38 55.18 54.45 52.22 46.38 48.10 54.19 52.51 47.39 38.81 39.53 37.84 48.05 44.91 46.68 47.49 50.57 41.48 47.59 42.82 43.65 45.19 40.26 39.25 38.45 39.89 40.29 41.04 41.67 42.11 42.14 41.49 40.37 39.28 37.92 37.70 38.49 38.39 37.89 37.86 39.13
48.57 54.73 53.16 50.82 52.43 47.15 48.35 50.27 51.20 50.74 48.91 46.40 38.44 44.43 40.12 45.27 44.24 41.01 42.96 42.84 41.56 38.18 40.28 44.45 41.62 36.14 37.68 38.81 38.90 39.80 41.85 42.39 40.76 37.79 36.05 36.31 35.81 37.41 38.23 38.80 39.54 39.54 38.64 37.56
54.97 51.58 47.07 51.90 47.73 51.93 48.67 43.39 44.73 46.38 39.63 41.41 41.22 43.87 40.71 45.11 40.88 37.30 41.97 38.21 41.19 35.33 38.41 38.72 36.89 35.23 34.70 38.02 38.69 41.11 42.59 41.33 40.83 40.32 39.66 40.25 39.96 38.60 38.14 38.06 37.13 36.14 36.06 35.48
51.72 51.51 51.25 51.46 49.10 46.31 38.89 36.99 38.91 39.11 36.21 38.86 38.67 40.15 41.64 41.43 46.51 41.46 42.06 36.71 39.04 33.41 41.01 38.40 34.24 33.68 36.47 37.69 38.64 40.21 41.02 40.85 40.48 40.90 39.43 39.50 38.90 38.24 37.01 36.39 36.02 35.49 35.69 34.41
53.96 49.58 42.63 46.36 40.08 36.45 35.73 33.90 35.04 34.57 36.81 37.19 39.06 36.11 41.02 41.37 43.94 39.66 38.09 34.09 35.11 41.27 34.72 33.43 33.97 35.51 36.62 38.00 38.69 38.41 39.96 39.89 39.65 38.67 38.10 37.28 36.28 36.38 36.30 34.72 35.01 37.02 35.51 35.79
44.86 39.47 34.64 36.81 34.28 34.82 35.36 36.41 35.53 35.18 36.45 38.81 40.17 36.81 38.92 40.24 36.45 38.44 35.18 34.09 37.15 32.42 31.07 32.23 33.61 35.17 36.42 38.66 39.33 38.46 36.31 36.53 36.32 35.91 35.68 34.73 34.35 33.68 33.59 32.92 32.75 32.12 31.39 31.26
39.14 38.96 31.92 31.74 32.64 33.37 33.55 34.64 35.73 35.43 38.02 40.65 38.84 39.22 41.01 36.09 35.36 36.64 34.46 31.56 30.73 32.35 33.07 33.10 33.86 35.04 36.99 37.14 37.00 35.27 33.51 33.85 35.44 35.68 33.61 33.72 34.75 34.15 33.33 32.19 31.05 30.10 28.67 27.76
36.58 34.84 32.46 33.01 32.83 32.10 32.83 33.19 33.19 37.04 38.05 42.25 42.86 37.51 36.27 33.73 34.88 32.76 33.85 33.44 31.94 32.19 34.80 34.45 34.88 35.99 36.72 36.16 36.20 36.01 36.40 36.08 36.04 35.67 34.44 33.07 32.19 32.87 31.58 30.05 28.65 28.93 27.89 26.02
35.25 32.10 33.73 33.73 32.64 31.92 32.28 33.37 33.73 36.44 36.81 34.28 37.31 33.53 31.63 35.72 32.42 31.41 35.05 33.01 34.80 34.46 35.19 34.91 35.77 35.69 36.06 36.46 36.70 34.99 36.29 36.28 35.90 35.40 34.44 32.86 31.28 29.78 28.69 27.41 27.69 27.54 27.83 27.33

GFSNW_sfc_wetblb_048.txt.gz
Wetbulb
50.11 50.93 51.27 51.31 52.32 51.72 50.81 49.15 42.91 58.18 60.25 46.88 46.17 44.55 48.08 49.11 51.24 52.53 50.62 50.06 47.94 46.23 46.58 45.20 44.68 44.37 47.44 51.92 51.33 47.39 49.79 47.29 42.98 44.63 49.22 50.12 48.46 46.18 46.21 41.74 38.63 41.99 40.69 39.45
49.39 50.12 50.91 50.93 52.03 51.68 50.73 45.31 49.40 58.86 57.52 41.51 42.91 46.67 48.34 50.01 49.90 50.61 49.89 49.05 49.40 49.86 46.97 44.55 46.76 47.35 52.51 52.45 50.82 48.52 50.49 46.02 39.80 41.60 45.96 48.94 45.73 46.12 46.25 46.45 46.05 40.35 37.88 39.68
49.44 49.83 50.55 50.60 51.45 51.79 52.21 46.69 44.35 50.05 53.26 51.38 45.48 44.47 46.22 47.13 52.29 50.52 50.92 50.05 50.36 48.50 47.17 49.26 46.71 47.13 50.72 52.42 51.79 47.38 51.88 47.19 42.84 38.70 41.85 46.05 44.41 45.60 46.20 45.59 40.88 40.35 40.18 41.89
48.69 49.31 50.29 50.35 50.99 51.31 51.24 48.78 46.65 49.97 43.20 46.61 47.31 49.02 47.82 46.05 46.72 51.10 51.53 49.25 48.95 47.61 44.94 46.27 45.93 48.50 49.79 50.85 47.04 50.00 50.20 42.83 44.15 44.47 45.64 45.86 45.18 45.09 45.35 43.62 44.58 40.52 43.18 42.78
48.00 49.04 49.73 50.19 50.71 51.25 49.29 46.35 47.67 51.50 49.03 48.98 47.29 45.93 47.57 46.77 48.47 48.60 48.07 48.39 49.17 49.02 46.98 47.13 45.76 48.61 49.71 47.82 50.22 49.50 50.67 44.34 45.53 43.43 46.23 45.44 43.04 44.49 44.80 44.69 44.66 44.14 44.81 43.98
47.98 48.89 49.54 49.60 49.81 51.04 48.30 51.88 53.17 50.75 46.96 47.66 45.60 46.20 48.46 48.92 50.73 51.01 50.96 51.08 50.09 48.93 50.55 53.64 54.68 54.98 54.12 52.30 50.27 48.79 48.64 46.73 43.72 39.49 42.72 40.98 35.49 42.51 43.46 44.30 45.82 45.45 41.34 46.58
48.31 49.02 49.12 49.45 49.97 50.70 51.77 52.81 53.90 49.97 45.70 47.00 46.31 47.87 50.34 49.90 50.33 49.68 52.19 53.42 50.93 53.82 57.26 56.41 55.00 53.62 52.81 52.84 51.96 52.81 48.70 47.39 45.10 39.78 35.72 30.82 42.57 46.49 45.09 43.50 44.44 45.46 45.43 46.58
48.36 48.64 48.86 49.27 49.56 50.81 50.73 54.19 53.62 51.84 44.13 48.23 47.87 49.14 49.92 51.76 51.98 50.82 50.67 53.82 56.27 57.59 55.36 49.46 45.27 45.08 43.34 46.58 48.93 48.89 50.97 46.94 40.80 37.10 36.18 40.25 42.39 44.10 43.35 42.42 42.18 46.52 45.36 46.31
47.77 48.09 48.56 48.91 49.37 49.78 50.55 52.08 53.30 54.40 50.55 48.21 50.28 49.91 51.50 48.62 49.79 50.67 50.23 55.42 58.61 57.70 53.73 49.14 42.05 39.93 42.72 41.84 43.49 47.19 46.79 49.15 43.62 38.66 35.96 30.74 42.95 45.45 47.49 46.37 38.56 46.55 46.58 46.79
47.83 47.79 48.35 48.44 48.45 48.81 48.62 49.40 52.51 52.38 49.08 51.87 52.77 50.27 49.52 53.47 52.30 48.85 50.25 50.01 50.90 54.14 50.34 41.42 45.32 43.28 45.92 41.05 39.92 36.81 41.03 41.75 37.98 38.21 37.29 40.93 46.79 46.90 47.67 37.66 40.65 47.95 48.10 48.12
47.64 48.06 48.28 47.96 48.12 48.31 48.45 47.47 51.31 50.19 53.29 54.53 56.45 55.62 52.53 53.13 53.91 45.17 50.00 50.31 51.57 52.35 46.62 47.15 47.92 44.45 46.49 44.82 45.52 42.08 40.06 40.38 36.54 42.01 34.82 33.01 47.36 45.85 41.70 47.25 49.84 49.11 49.39 49.79
47.55 47.94 48.27 48.34 48.65 49.23 49.52 46.70 53.26 55.20 51.43 55.12 58.19 57.44 58.08 56.22 57.27 54.28 53.46 53.12 51.88 53.21 50.53 49.77 51.30 40.75 40.19 45.57 41.20 47.75 41.83 45.74 43.84 43.25 42.38 49.18 49.27 48.32 50.46 50.45 48.98 49.30 49.26 49.60
47.14 47.61 48.20 48.51 48.72 49.21 49.32 49.99 54.08 57.12 55.23 53.99 54.82 54.03 56.37 58.13 58.87 61.48 53.05 56.95 56.53 55.53 59.12 53.46 51.38 39.57 49.59 38.80 45.64 47.38 47.69 48.79 46.15 44.83 46.48 47.21 48.55 50.03 50.47 50.19 49.37 50.12 50.69 49.84
45.79 48.05 48.31 48.63 48.84 49.42 49.56 50.10 54.17 56.32 56.56 47.60 50.87 57.29 54.38 57.47 59.02 59.22 60.35 59.66 59.40 58.74 57.65 53.93 42.58 42.62 51.49 48.12 49.27 47.93 47.75 47.76 44.93 45.11 46.74 47.70 48.47 48.84 48.96 49.56 50.11 49.72 49.17 47.59
46.03 48.13 48.60 48.80 48.93 49.39 50.44 52.97 56.26 57.14 54.22 46.26 49.07 53.72 55.34 56.90 57.72 56.77 57.97 58.25 56.50 55.50 51.46 41.86 48.69 50.60 49.76 49.05 49.40 47.94 48.29 46.13 44.76 44.34 47.15 47.19 45.21 46.45 48.10 46.35 45.48 46.12 44.20 41.55
47.94 48.34 48.38 48.54 48.76 49.49 52.02 49.63 56.84 57.73 57.40 51.95 44.49 52.47 52.66 55.46 56.53 55.54 56.05 56.59 57.10 55.54 50.20 49.19 50.13 50.13 51.04 41.58 44.62 47.10 47.69 48.51 48.71 47.04 48.97 47.51 45.46 45.36 45.71 43.92 43.28 42.68 41.41 40.63
47.53 47.73 48.10 48.42 49.15 51.84 51.21 49.21 51.48 49.76 56.34 51.18 42.08 44.23 50.41 53.66 54.29 54.03 54.01 56.48 54.27 53.83 50.32 47.10 48.56 47.95 49.31 41.17 44.77 45.61 46.02 47.09 47.38 47.48 47.98 44.15 45.31 40.98 42.66 41.53 40.39 40.36 39.77 39.27
47.57 47.96 48.43 48.86 49.10 49.64 50.94 51.17 48.58 49.34 53.41 53.27 40.44 38.43 46.92 51.42 49.14 47.57 52.08 51.78 52.12 48.84 44.93 45.98 45.36 46.22 47.83 44.13 44.10 44.51 44.69 45.66 44.98 44.79 45.82 44.40 43.12 41.55 39.86 40.36 39.53 38.24 37.45 37.75
48.45 48.81 49.54 51.98 52.33 50.82 50.54 46.49 47.64 56.99 52.10 46.36 37.54 38.45 37.36 49.03 45.89 46.28 47.87 50.13 40.95 47.15 42.60 43.88 46.08 40.72 39.85 42.84 42.23 42.46 43.34 43.53 42.07 42.86 42.76 42.17 40.07 38.87 38.56 38.79 38.18 37.02 37.42 38.18
49.01 52.08 50.61 43.33 48.81 46.58 48.22 52.24 50.48 50.37 48.56 46.86 40.63 44.35 39.90 45.02 43.88 41.35 42.22 43.81 40.59 38.83 41.26 44.76 40.36 36.66 39.82 40.82 42.16 42.48 43.54 43.57 42.71 39.06 37.06 37.36 36.77 37.08 37.82 38.06 38.56 37.30 36.09 35.88
55.36 49.66 44.35 48.92 47.15 51.48 49.67 42.09 43.71 45.17 39.88 42.01 42.50 44.07 41.47 45.49 40.49 37.83 43.46 39.13 40.97 36.64 38.86 40.03 36.37 35.63 36.39 40.10 40.92 43.25 43.51 42.65 41.68 41.68 40.20 40.20 39.47 38.37 37.48 36.18 35.92 35.96 34.97 33.86
52.88 51.96 52.02 52.85 49.58 46.63 38.25 36.28 39.29 38.93 36.18 39.00 39.24 41.02 41.94 42.77 46.97 41.40 42.01 37.01 39.07 34.20 40.91 36.05 34.36 34.47 37.98 38.77 39.92 41.16 41.67 40.82 40.14 40.90 39.48 39.28 38.80 38.07 36.88 35.86 35.00 34.62 33.91 31.46
54.65 48.80 41.42 45.54 39.04 35.91 34.64 32.45 34.67 33.80 36.28 37.40 38.83 36.66 41.11 42.35 43.54 38.88 37.79 34.28 35.87 41.33 34.87 33.51 34.43 35.85 37.78 39.00 39.53 39.53 40.75 40.23 38.88 38.14 37.91 37.07 36.04 36.14 34.90 33.60 34.25 33.86 33.42 31.21
44.32 38.27 33.74 35.37 33.56 33.01 33.56 34.64 34.46 34.10 35.19 37.91 38.76 36.82 38.75 39.90 35.55 37.00 33.37 34.46 36.51 32.42 30.72 32.68 33.78 35.85 37.75 38.27 38.81 37.72 36.06 34.39 36.21 35.95 35.00 33.66 32.87 31.94 31.46 30.50 29.99 28.40 28.55 28.15
37.65 37.45 31.20 31.18 32.09 33.01 33.01 34.10 34.64 35.32 39.16 40.58 39.97 39.55 39.22 35.37 34.46 36.46 33.56 31.74 31.34 33.24 33.11 33.98 34.71 36.30 37.87 37.76 37.00 34.82 34.18 33.28 34.07 34.44 33.13 32.17 32.40 32.02 30.43 29.85 29.66 28.62 25.82 25.30
35.64 33.52 32.26 32.83 32.83 32.11 32.47 32.65 32.83 36.59 38.78 42.21 43.41 36.80 33.92 33.37 34.82 33.56 33.33 32.65 31.72 32.80 33.93 34.29 35.69 36.12 36.88 36.75 35.01 35.00 35.41 35.89 34.62 34.10 33.54 32.62 31.58 30.50 29.62 28.70 27.31 26.31 25.18 22.97
33.92 31.73 32.80 32.83 32.26 31.34 31.92 32.83 33.53 37.61 38.35 34.46 38.29 33.19 31.65 35.76 32.70 31.30 33.94 31.56 33.12 34.26 33.89 34.95 36.12 35.38 35.58 35.83 35.87 34.70 35.59 35.81 35.25 34.62 34.05 32.19 30.83 29.74 28.87 27.31 26.58 27.21 27.13 23.29

GFSNW_sfc_wetblb_051.txt.gz
Wetbulb
48.30 49.54 50.74 51.53 51.28 52.02 51.41 49.40 41.77 52.57 56.21 43.92 42.44 40.07 43.65 46.09 48.28 50.60 49.41 48.36 47.11 45.05 43.61 43.84 41.83 42.34 44.77 48.45 49.73 45.14 46.92 41.26 36.61 41.15 46.74 48.09 44.97 42.71 42.39 30.69 33.05 33.95 29.30 32.32
47.35 47.76 49.99 51.03 51.38 51.41 50.56 45.78 46.43 54.19 53.26 35.85 38.32 42.76 43.41 46.44 47.06 47.29 48.25 47.01 48.30 47.85 44.18 42.10 43.58 44.09 50.15 49.07 47.80 45.30 46.80 40.52 31.80 36.58 41.19 45.16 42.31 43.48 43.23 42.16 38.07 33.78 26.41 31.63
47.23 46.31 49.76 50.44 50.92 51.41 51.76 46.19 40.93 48.14 49.69 44.00 40.61 40.62 40.88 42.25 48.56 48.01 49.33 48.90 48.70 46.26 43.29 45.58 44.40 45.20 50.04 50.28 48.41 45.97 47.95 43.29 38.12 31.72 36.82 41.30 40.02 42.55 43.34 40.64 30.52 32.87 33.25 37.60
47.48 46.08 49.62 49.82 50.86 51.00 51.12 46.57 43.22 47.73 42.17 42.99 42.76 42.58 42.66 41.71 43.31 48.86 49.61 47.61 46.88 45.20 40.70 42.57 44.17 46.25 47.18 49.24 46.92 47.16 45.22 38.35 40.12 40.88 42.49 43.26 42.58 41.83 42.07 41.12 40.04 34.15 37.61 39.48
45.75 46.45 48.33 49.36 50.37 50.90 47.94 43.87 43.49 47.74 45.77 46.48 44.35 42.72 41.13 42.54 45.01 47.00 45.86 45.50 47.13 46.30 42.59 43.67 42.45 46.03 45.68 44.21 45.91 44.00 46.00 38.10 39.49 37.66 43.07 41.92 38.59 41.11 41.34 41.03 41.26 40.06 39.58 39.14
43.95 43.84 44.81 48.99 49.76 50.11 44.30 48.11 48.43 47.59 43.76 44.40 42.48 41.73 42.89 43.44 47.10 48.43 49.42 47.76 46.31 44.45 46.08 48.68 48.17 50.01 49.49 48.33 45.21 42.78 43.19 40.05 34.87 31.79 37.11 36.79 29.61 37.83 39.75 40.98 41.60 40.24 35.41 40.00
43.63 43.79 44.85 48.47 49.38 49.20 48.31 48.71 48.92 46.31 39.66 43.80 43.14 44.03 45.21 45.24 46.17 45.98 49.71 49.06 46.30 49.84 52.78 51.44 49.72 47.99 48.16 50.21 47.35 48.14 42.67 40.61 34.18 29.70 29.64 21.79 38.06 43.36 42.18 40.60 40.98 41.45 41.47 42.64
44.43 44.49 45.60 48.15 48.82 49.74 46.69 49.65 50.20 45.94 36.16 44.91 44.95 44.52 44.98 45.94 47.77 47.80 48.66 50.67 52.31 52.73 50.43 43.20 39.70 37.36 37.33 42.51 46.52 45.44 46.89 39.10 32.35 27.61 27.25 34.84 39.09 41.07 40.56 38.55 37.41 42.03 41.16 42.27
44.89 46.12 47.05 47.82 48.42 49.83 48.51 47.17 51.42 49.61 45.34 42.96 48.19 45.04 45.94 43.96 45.07 45.95 47.89 52.33 53.50 51.84 47.15 37.92 33.53 32.01 37.74 37.50 40.08 44.87 44.81 42.23 32.66 29.52 25.62 21.05 36.21 42.15 44.87 43.05 31.09 43.13 43.34 42.90
46.45 46.82 47.28 47.89 48.76 49.47 48.59 47.44 50.75 47.85 45.21 48.93 48.52 44.61 43.91 48.35 47.57 46.29 46.63 47.48 48.52 51.04 35.87 36.27 32.25 32.52 42.63 33.72 33.48 31.94 31.31 30.62 28.13 25.21 24.70 32.07 44.00 44.27 45.23 30.12 32.39 43.69 44.32 43.89
46.62 47.36 48.08 48.65 48.94 49.42 49.09 46.79 48.95 47.60 46.12 47.78 51.96 50.29 47.38 48.77 48.06 41.54 46.19 44.57 46.67 45.38 37.60 38.16 33.22 31.63 36.13 36.75 41.75 36.65 33.76 31.69 26.97 31.18 30.84 27.77 44.65 43.16 36.50 41.21 43.56 44.30 44.16 44.17
46.86 47.35 47.80 48.44 48.71 48.90 48.81 43.22 49.16 51.14 45.97 47.24 51.38 53.79 53.52 53.37 52.34 47.51 46.65 45.70 46.99 47.14 42.73 40.66 38.14 36.71 34.42 35.16 30.27 43.15 34.18 39.63 34.82 36.22 34.87 43.39 45.00 44.36 45.66 45.83 44.26 44.41 44.60 45.43
46.98 47.35 47.91 48.01 48.17 48.22 47.65 44.65 48.99 49.00 46.21 46.83 49.02 50.69 54.54 56.09 54.62 55.11 45.89 46.11 50.95 50.79 52.17 45.11 41.32 35.76 37.59 31.74 33.23 36.65 42.18 45.35 38.99 38.35 42.40 43.37 45.52 46.53 46.84 46.88 45.91 45.41 44.29 44.07
46.90 47.39 47.61 47.80 47.80 48.18 47.88 46.29 49.43 50.34 45.61 39.44 47.76 55.51 52.77 55.97 57.46 56.45 54.44 53.32 55.25 54.28 51.09 40.76 37.57 36.25 44.59 34.80 39.52 38.46 41.51 42.54 41.05 39.54 43.47 43.98 43.74 44.81 45.54 45.11 44.96 41.17 41.06 40.55
47.15 47.50 47.66 47.89 48.34 48.60 48.95 48.57 50.03 51.89 47.62 42.34 46.00 51.81 53.65 55.13 55.47 55.54 55.91 55.01 52.69 49.13 41.03 35.94 38.43 42.80 40.51 38.98 37.83 34.11 42.94 41.59 34.80 34.20 43.00 41.77 40.61 42.99 43.86 41.36 40.63 40.72 39.05 37.67
46.06 47.22 47.80 48.16 48.33 48.81 48.34 43.99 49.71 51.01 52.68 47.56 37.98 49.14 49.11 53.24 54.12 53.41 51.27 52.80 52.38 49.31 42.54 37.16 43.32 46.19 40.14 33.38 30.38 42.09 44.11 45.40 45.34 42.77 43.55 41.89 41.07 41.10 41.55 39.61 39.08 39.06 37.86 37.26
45.89 46.35 47.90 48.42 48.34 48.94 47.76 47.01 49.86 51.32 53.39 45.95 37.79 39.72 48.12 50.70 50.75 48.88 50.48 51.09 48.19 47.76 43.64 39.48 40.82 41.94 41.70 35.72 32.10 41.78 44.26 44.04 44.02 44.68 43.02 39.34 40.29 37.46 39.28 38.73 38.25 38.35 37.09 36.62
46.65 47.04 47.94 48.12 48.55 49.60 49.04 51.66 48.97 49.11 51.12 46.92 37.02 36.69 41.99 48.48 41.64 41.14 48.08 45.11 44.47 43.83 42.55 41.44 35.73 39.02 34.32 32.46 39.76 41.68 43.08 42.59 41.74 41.48 42.46 39.59 39.13 38.76 37.96 37.71 37.38 36.62 35.52 35.43
47.72 47.78 47.94 48.43 48.98 47.87 50.13 50.39 47.08 50.80 48.32 38.44 34.53 35.60 34.68 46.24 42.98 42.10 43.04 43.77 36.97 43.39 36.51 38.74 38.03 35.08 34.04 38.92 39.13 40.05 41.40 40.47 39.66 40.29 39.29 37.94 36.78 37.36 37.75 37.26 35.70 33.97 35.15 34.53
48.01 48.42 48.77 42.13 48.00 48.25 48.39 48.97 44.30 44.13 43.02 40.91 35.24 41.55 36.34 43.01 37.58 36.53 36.63 36.89 35.80 34.02 36.42 41.12 34.83 33.13 38.12 38.56 39.77 40.45 40.62 40.54 39.99 36.46 35.53 36.08 35.86 36.23 36.63 36.90 36.31 35.10 34.03 32.71
49.25 46.39 41.06 47.00 47.71 47.17 42.58 36.12 35.51 37.96 33.50 37.02 38.97 39.53 38.26 43.04 35.87 34.86 36.48 34.90 33.64 28.41 32.51 33.49 31.75 32.09 36.79 40.56 40.73 42.08 41.72 40.15 39.37 38.93 38.39 38.85 38.14 35.66 34.14 34.26 33.98 31.91 30.59 29.63
49.58 47.77 49.00 48.21 45.28 39.46 34.39 33.02 34.24 34.60 32.48 35.43 36.10 37.41 40.31 37.70 43.48 34.44 36.23 33.62 32.18 28.71 36.24 34.03 27.83 33.22 36.87 38.44 39.55 39.84 39.73 39.71 39.60 40.21 39.08 38.62 37.65 35.88 34.63 33.06 31.41 29.91 28.72 27.16
49.72 43.60 38.28 41.10 35.15 32.71 28.08 28.26 32.09 31.88 33.25 35.38 35.20 34.15 35.23 37.36 38.25 34.68 34.62 33.08 29.42 31.15 29.67 27.55 31.02 35.45 37.36 38.37 39.03 38.81 39.76 38.77 37.25 35.45 35.35 34.88 33.40 33.08 32.02 31.18 31.03 28.30 26.44 26.85
38.95 35.41 31.46 32.48 31.50 30.23 30.11 31.57 32.52 32.52 33.07 34.71 35.60 33.99 33.96 34.17 33.75 33.07 31.50 32.30 33.08 28.32 22.58 26.05 32.60 35.49 36.76 38.02 38.30 36.72 35.21 32.89 33.42 33.13 31.98 30.40 29.98 28.85 28.14 26.40 25.68 25.51 24.59 24.94
33.47 32.96 28.26 28.77 31.06 32.15 32.33 32.71 33.04 33.75 36.08 35.79 35.18 34.67 35.01 32.89 32.87 32.72 32.21 30.65 28.50 26.69 26.55 31.60 34.38 35.88 36.17 35.14 33.75 32.70 31.91 31.99 32.12 32.61 30.77 29.45 28.22 27.39 27.03 26.99 26.00 24.89 20.86 18.95
33.31 31.86 31.43 32.30 32.12 31.74 32.13 32.37 32.37 35.31 34.35 34.70 33.88 33.16 32.48 31.57 32.45 31.53 30.69 26.98 25.95 29.62 31.06 33.55 35.70 36.00 35.53 33.78 33.07 33.48 33.57 32.36 31.64 31.66 31.34 29.92 27.55 25.97 25.45 26.10 24.54 19.21 18.30 13.97
31.95 29.87 31.77 31.97 31.68 30.49 31.39 32.19 32.51 34.59 34.15 32.52 32.66 28.94 29.39 32.57 30.32 29.11 30.96 27.94 30.35 31.91 32.66 34.56 35.35 34.03 32.27 33.12 33.13 32.77 32.83 32.39 31.47 30.69 29.86 28.02 27.91 26.14 25.14 23.15 24.10 24.40 22.79 14.73

GFSNW_sfc_wetblb_054.txt.gz
Wetbulb
47.17 47.95 48.40 49.80 50.76 51.09 50.47 47.76 41.09 51.65 54.24 41.39 41.07 39.35 42.12 44.21 45.36 48.20 47.45 47.37 45.50 42.83 41.89 40.68 40.23 40.26 43.10 46.74 47.55 42.92 44.65 39.95 34.47 39.84 45.09 47.09 43.26 40.70 40.68 30.08 31.19 31.35 27.66 30.92
46.53 46.96 47.82 49.00 50.40 51.09 46.67 44.42 45.37 51.09 51.09 34.93 35.55 40.86 42.53 44.46 43.66 45.19 46.12 45.63 46.96 46.31 42.62 38.82 41.69 42.36 47.42 47.21 47.37 43.97 45.05 38.43 31.77 35.78 40.86 43.64 40.80 41.72 41.52 39.89 34.99 31.50 25.74 30.89
45.46 46.63 45.37 48.25 49.92 50.81 47.85 46.01 39.38 45.93 47.15 44.04 38.37 37.78 39.72 40.24 45.30 44.43 45.80 46.17 47.32 44.90 42.57 43.92 41.27 43.23 47.70 48.33 47.61 46.22 46.22 40.75 36.03 31.97 35.88 39.18 37.42 40.68 41.13 38.32 29.05 31.24 31.82 36.09
46.02 46.22 45.90 46.92 49.27 50.26 47.67 45.84 40.30 43.20 38.54 40.27 40.39 39.73 40.00 39.06 39.48 44.28 47.46 45.50 45.07 43.84 40.13 40.65 41.11 44.92 45.30 47.34 45.76 46.04 43.57 37.63 39.07 39.77 40.66 41.25 39.69 39.37 39.57 38.32 37.89 32.86 36.30 36.80
45.10 45.57 45.82 45.47 48.36 50.14 45.34 42.79 40.74 44.97 42.20 42.94 40.43 38.70 37.99 38.92 40.88 43.01 41.43 42.96 45.84 45.66 41.89 41.99 40.33 44.73 43.53 42.47 44.37 42.97 43.94 36.72 36.41 35.30 39.06 39.15 36.69 38.79 38.89 39.35 39.42 38.66 38.11 37.70
45.09 45.41 45.80 46.46 46.90 49.02 42.63 46.87 46.35 45.74 41.94 41.52 40.03 39.42 39.09 40.35 42.93 44.60 45.88 46.28 45.56 44.19 45.64 46.56 45.80 47.89 48.09 46.79 43.37 41.36 41.10 38.25 32.65 30.83 34.71 35.02 29.53 36.20 38.47 39.27 39.48 39.27 34.02 37.97
45.16 45.12 44.90 46.52 46.48 48.75 46.79 45.37 47.30 43.63 37.50 42.95 41.47 42.43 43.43 41.84 43.21 41.13 45.83 46.59 45.55 47.70 50.62 48.55 47.06 45.78 46.77 46.82 44.34 45.59 39.53 37.33 31.36 28.09 28.50 22.09 37.40 42.26 41.12 38.45 38.58 39.46 39.97 39.86
44.87 44.36 46.13 46.33 45.44 48.83 46.33 48.32 48.32 44.04 37.25 43.29 44.34 43.70 42.89 44.63 44.81 44.26 45.52 48.33 50.26 50.96 47.96 41.41 37.93 35.27 37.06 40.54 43.30 43.94 44.81 36.35 31.00 27.02 26.97 33.16 37.74 39.55 37.84 36.52 35.45 40.45 39.33 40.63
45.20 44.36 43.72 43.45 44.30 45.89 47.10 46.12 49.60 48.19 40.18 40.84 46.31 44.10 43.76 41.45 41.68 41.59 45.44 50.93 51.69 50.36 44.46 36.66 32.57 30.72 36.06 36.66 39.99 43.78 41.73 38.78 33.57 28.47 24.91 21.87 34.62 40.02 42.57 41.23 30.19 41.11 42.26 41.92
44.99 44.59 44.25 44.04 44.78 46.34 47.41 45.43 48.47 46.00 44.19 45.09 47.13 43.95 42.28 45.68 42.70 40.85 45.55 47.23 46.00 49.20 35.69 33.67 31.38 32.22 40.10 32.65 32.45 30.77 30.80 30.60 27.80 22.91 23.32 29.12 39.25 42.72 42.75 29.92 31.03 41.86 42.73 42.56
44.53 45.07 45.00 44.94 45.20 48.72 47.20 44.43 49.87 46.03 44.39 45.51 49.57 48.72 43.70 45.63 44.95 39.96 44.14 43.89 43.92 40.98 35.32 36.40 36.30 31.65 35.21 34.62 38.34 34.88 32.83 29.68 25.87 28.34 24.49 25.86 43.34 41.82 35.60 37.81 41.56 42.65 42.52 42.30
44.86 44.88 45.65 46.16 48.16 48.63 48.06 43.17 48.84 50.21 43.88 45.27 49.64 49.69 50.42 48.93 48.77 47.00 45.11 44.92 45.01 45.36 40.41 41.15 38.57 35.02 33.38 33.59 30.97 41.13 33.09 35.60 32.59 34.24 32.74 41.11 43.08 42.38 43.49 44.00 42.75 42.70 42.83 43.77
44.74 45.77 46.55 47.47 48.08 48.40 47.51 44.73 47.19 46.44 43.30 43.78 46.92 46.16 51.72 54.80 53.12 53.08 45.18 45.27 49.45 47.30 47.64 44.29 41.50 35.46 36.36 30.96 30.99 35.74 40.08 43.71 38.03 37.18 40.64 41.91 43.44 44.67 44.90 43.99 40.58 40.54 41.46 43.10
46.09 46.67 47.14 47.53 48.08 48.80 47.87 44.14 48.09 46.57 45.77 38.47 41.08 54.55 51.66 54.61 54.93 52.91 51.91 50.30 51.08 50.40 46.32 39.33 37.16 35.17 41.58 32.35 37.87 36.35 40.17 41.63 38.39 38.54 41.04 41.88 42.33 42.80 41.17 40.00 39.97 38.74 38.87 38.84
46.48 46.83 47.15 47.99 48.15 48.16 46.44 48.31 47.46 49.32 46.54 38.95 43.01 50.59 52.24 53.77 53.89 52.27 51.89 51.82 50.42 45.14 39.21 34.01 36.59 39.32 38.37 36.81 35.92 32.49 41.11 39.74 34.58 33.56 42.38 39.97 39.45 40.08 41.10 39.07 38.35 38.06 36.76 35.92
46.48 47.31 47.48 47.74 47.76 47.59 44.78 41.18 45.65 49.21 50.04 43.73 37.37 48.46 49.48 51.34 53.89 53.04 51.56 52.14 49.66 48.14 43.24 35.37 41.68 45.34 38.18 32.56 28.36 40.76 42.65 43.68 43.28 41.27 41.66 40.02 39.22 39.23 39.67 37.63 36.99 36.64 35.44 35.01
46.75 47.03 47.26 47.51 47.37 46.69 42.45 39.97 45.67 48.02 49.35 42.97 37.08 39.07 47.25 50.57 50.84 48.51 49.72 49.60 47.25 47.77 43.13 40.05 40.63 41.83 39.53 31.89 31.73 40.74 41.58 41.47 40.79 40.87 40.02 37.21 37.85 35.37 37.46 36.52 36.05 36.34 35.27 35.07
46.85 47.05 47.05 47.39 47.41 47.66 44.09 49.09 49.07 48.88 45.46 45.40 35.74 37.98 40.75 47.59 41.81 42.19 46.62 44.37 44.48 43.74 42.06 39.02 35.90 38.92 33.20 31.43 39.12 40.06 40.38 41.19 40.50 39.27 40.31 38.17 37.19 36.41 35.70 36.16 35.70 34.35 33.47 32.41
46.69 47.00 47.35 47.28 45.61 43.86 46.01 48.69 48.87 50.41 47.05 38.29 34.11 35.18 34.65 43.59 41.17 39.43 38.10 40.28 36.07 40.89 35.71 35.58 38.29 34.90 33.02 36.72 38.64 38.86 39.93 38.72 36.59 37.30 37.20 36.39 35.01 35.06 35.46 35.31 34.16 32.31 31.14 31.62
46.78 45.91 44.50 39.72 45.46 49.16 49.67 47.77 44.77 44.91 43.10 40.14 34.65 39.74 36.10 41.51 34.59 35.57 33.22 34.29 33.91 29.72 36.01 39.56 32.96 32.58 36.69 38.14 39.01 39.53 39.17 38.24 37.49 34.09 33.25 34.65 34.84 35.19 34.69 34.22 33.30 32.25 30.48 29.60
44.99 42.29 39.74 45.82 49.02 48.18 43.77 38.42 35.48 36.98 32.01 35.81 38.21 36.70 37.82 41.42 34.28 34.11 33.88 33.20 33.26 30.31 34.32 32.60 32.46 31.69 35.71 39.50 39.64 40.19 40.21 39.83 37.99 37.71 37.10 37.69 37.15 35.44 33.38 32.86 32.01 30.64 29.52 28.65
48.04 47.18 48.49 47.28 44.65 38.49 34.72 32.73 32.52 33.06 31.52 34.86 35.71 36.61 39.72 37.22 42.23 35.85 35.34 32.91 29.27 28.08 36.43 32.88 30.08 33.80 38.62 39.44 39.44 40.26 39.78 38.88 38.50 38.81 37.56 36.37 35.63 34.87 32.75 30.66 29.15 28.44 28.73 26.54
47.67 42.73 37.64 39.94 33.49 29.76 25.35 27.61 30.17 30.13 33.00 35.13 34.59 33.88 35.33 36.91 37.92 33.73 32.04 28.53 26.15 31.31 24.48 30.65 31.84 35.98 38.22 39.07 38.53 38.15 38.34 37.41 36.42 36.51 35.72 34.72 33.65 32.64 30.19 27.26 26.94 27.04 25.56 24.36
38.10 35.63 30.65 31.69 30.35 29.61 29.87 31.07 32.25 32.76 33.00 34.63 34.45 33.73 34.08 33.38 34.06 32.25 30.09 31.89 31.24 27.43 23.32 25.76 32.40 35.26 37.09 38.04 37.22 34.27 33.19 32.43 32.64 32.27 31.78 30.50 29.77 29.07 28.66 26.47 25.04 24.41 23.32 21.90
33.33 33.26 27.48 28.18 30.97 32.05 32.08 32.28 32.79 33.49 34.97 31.69 32.06 34.00 35.16 32.64 32.17 31.98 31.74 30.15 27.07 26.28 26.79 31.13 33.79 35.49 36.02 34.88 33.15 32.16 31.05 31.05 30.86 30.76 29.02 27.62 27.30 26.43 25.92 25.99 25.35 24.33 21.49 18.82
32.85 31.27 31.18 32.23 32.05 31.49 31.86 32.11 32.31 34.89 33.37 33.91 34.64 32.01 29.98 30.05 30.60 30.64 28.69 26.75 26.09 28.76 30.80 32.97 34.63 33.53 33.08 33.00 32.58 32.56 32.31 31.17 30.08 29.13 28.30 27.33 26.08 25.13 25.13 24.77 22.75 19.90 19.18 16.28
31.12 29.26 31.66 31.69 31.27 30.26 31.31 31.95 32.61 34.75 33.35 32.11 29.37 29.66 29.14 31.41 29.48 27.97 29.85 26.59 29.32 31.34 32.26 34.37 34.15 31.98 32.04 32.14 31.79 31.62 32.11 31.06 30.51 29.43 28.37 27.17 26.44 25.71 24.30 22.13 22.45 23.18 20.83 15.76

GFSNW_sfc_wetblb_057.txt.gz
Wetbulb
47.96 48.41 48.48 48.75 49.39 50.05 48.78 42.38 36.76 51.23 52.57 41.84 39.38 37.50 40.73 43.86 44.07 45.88 45.08 45.18 44.21 41.71 40.56 38.63 38.87 39.40 42.01 44.75 44.34 40.58 42.63 38.06 32.63 38.73 42.60 44.50 40.96 39.67 38.28 29.78 30.44 30.15 27.28 29.68
47.20 48.05 48.17 48.33 48.54 49.63 46.02 38.86 42.46 51.48 49.93 38.01 35.93 39.90 41.05 43.42 43.00 43.67 42.92 43.60 45.18 44.65 40.40 37.11 40.24 41.16 45.00 46.54 44.36 42.16 42.97 36.28 30.39 34.39 38.61 41.49 39.70 40.41 40.26 37.57 33.11 30.02 25.26 30.19
46.99 47.21 47.44 47.61 47.82 49.10 45.97 40.51 37.59 44.29 46.93 45.27 39.97 37.27 38.47 39.38 45.16 43.27 43.89 43.09 44.86 42.98 40.64 42.83 40.06 40.79 46.20 46.60 45.80 45.70 45.08 38.50 35.86 32.24 36.00 39.77 37.89 38.62 38.95 37.22 28.76 30.50 30.60 34.29
46.86 46.34 47.15 47.29 47.54 48.36 45.13 41.35 37.55 41.17 37.52 40.05 41.25 39.51 39.46 38.32 39.34 43.38 43.65 40.56 41.80 41.34 37.92 39.65 39.73 43.65 44.38 45.77 44.40 43.93 42.62 36.77 37.11 37.83 38.46 39.01 38.47 38.80 38.64 37.10 36.07 32.15 34.95 34.89
46.66 46.81 46.80 47.04 47.66 48.55 42.85 38.04 40.85 42.38 38.81 41.40 41.27 38.98 37.65 38.45 40.53 41.00 39.39 39.19 43.41 42.52 40.05 41.89 39.00 43.56 41.94 41.92 43.14 41.08 42.02 34.96 34.70 34.38 37.29 37.87 36.12 38.79 37.72 37.62 37.26 37.08 36.65 35.99
46.21 46.38 46.39 46.23 46.24 45.68 42.04 41.68 44.56 42.64 39.84 38.86 38.84 38.56 38.31 38.94 42.14 43.17 43.81 42.35 41.56 39.26 43.51 46.96 46.38 46.03 45.87 44.95 42.71 40.13 39.39 36.38 31.65 29.98 33.37 33.25 29.63 35.02 37.53 38.04 38.44 37.77 33.15 37.55
45.95 45.65 45.60 45.54 45.75 45.00 43.73 42.20 45.74 42.40 35.46 39.19 38.17 40.07 41.50 39.52 41.06 39.91 43.93 43.79 41.48 44.83 49.67 47.93 45.71 44.45 45.11 45.08 43.46 43.57 38.18 34.92 30.24 27.08 28.30 21.43 36.03 39.95 39.98 37.63 36.70 37.45 37.66 38.82
45.57 45.54 45.48 45.52 45.37 45.38 41.57 43.71 44.11 43.54 34.75 40.03 41.28 40.34 40.94 41.05 42.31 41.95 42.50 44.08 45.59 49.47 47.62 40.71 37.06 34.05 36.06 38.54 42.60 42.65 42.04 34.52 29.24 26.91 27.15 31.52 36.70 37.11 36.92 35.91 34.38 38.42 38.03 39.08
45.03 44.75 44.78 45.16 45.68 45.15 43.22 42.45 47.33 44.21 40.25 39.24 43.70 40.67 41.77 39.51 39.04 39.71 42.04 47.22 50.26 48.56 42.85 35.60 32.77 31.33 36.15 36.06 38.07 42.06 40.08 37.50 32.99 25.82 24.79 23.30 35.24 39.53 41.14 39.73 29.67 40.10 40.12 39.78
44.36 44.48 44.91 45.03 45.86 45.62 43.48 44.46 48.45 44.36 40.41 43.43 44.98 41.49 41.20 43.59 41.99 39.36 40.27 45.92 45.48 47.03 34.61 32.70 31.47 32.35 39.19 32.92 32.35 31.25 31.02 30.65 29.47 22.93 23.93 30.05 37.83 41.10 40.67 30.24 31.56 40.40 41.60 40.68
43.93 44.21 44.69 45.12 45.77 46.11 43.68 43.66 48.26 44.89 42.64 44.58 46.75 47.03 43.26 43.06 43.82 37.53 41.59 43.55 42.86 39.16 35.27 35.64 33.24 30.47 34.89 33.56 36.76 33.85 33.72 30.77 25.79 26.07 21.55 26.82 41.10 39.65 34.39 36.59 39.70 41.40 41.42 41.71
43.84 44.00 44.30 44.21 44.81 45.92 44.89 42.54 48.78 49.73 43.38 43.83 46.80 47.19 47.81 47.14 47.08 44.74 43.71 42.17 43.36 43.65 39.35 37.30 35.53 33.03 31.13 32.48 30.41 39.25 33.12 35.56 33.05 33.93 32.99 39.90 41.54 39.96 41.07 41.79 41.61 41.51 41.93 42.18
44.25 44.10 44.32 43.31 43.96 45.76 44.92 44.61 46.44 44.68 40.11 39.91 43.25 44.49 48.77 50.74 49.48 51.55 42.86 43.37 47.14 46.16 46.23 41.35 39.09 33.41 35.28 31.98 32.14 36.10 39.05 40.97 35.63 36.50 39.54 40.53 41.71 42.26 41.65 42.09 41.30 41.93 42.75 41.67
44.57 44.78 44.62 45.16 45.65 45.27 47.31 44.71 46.35 43.84 42.32 36.32 40.78 51.99 51.58 53.75 53.13 52.09 51.13 49.06 50.30 47.69 45.38 39.90 36.52 33.08 42.02 36.94 39.40 37.56 40.24 41.18 37.44 36.62 39.20 41.38 41.78 39.57 38.86 38.58 38.71 37.91 37.92 37.95
44.64 44.92 45.03 45.11 46.43 48.06 47.23 46.89 46.78 46.87 43.75 38.64 37.57 46.90 50.71 53.21 52.49 51.97 51.31 51.25 48.19 42.94 38.64 34.67 36.67 38.12 37.72 35.15 37.01 36.47 40.74 38.75 35.95 34.32 40.88 39.68 40.11 38.96 39.48 38.00 36.92 36.98 35.93 34.93
44.85 45.43 45.51 47.62 47.60 47.14 45.21 40.47 44.33 49.03 48.40 42.13 34.81 45.68 47.57 51.48 52.63 50.89 50.33 50.33 48.37 45.72 42.24 38.45 42.44 43.73 37.48 33.79 32.33 39.68 41.64 42.64 41.53 40.70 43.38 39.32 38.58 38.08 38.21 36.56 35.55 35.65 34.99 34.54
45.56 46.75 47.10 47.15 46.87 45.34 41.31 36.88 41.50 48.53 48.43 41.25 34.75 36.57 46.46 49.82 50.13 47.25 48.08 47.30 45.24 45.16 42.37 37.49 38.74 40.47 39.15 30.60 29.36 39.37 40.42 40.08 39.74 39.91 39.18 36.00 36.85 34.70 35.81 35.18 35.02 35.51 34.24 34.27
46.64 46.94 46.73 46.64 46.68 45.76 40.20 47.50 48.08 47.65 44.94 43.69 34.49 35.24 39.75 47.75 42.61 42.45 44.79 41.72 42.51 43.26 41.26 39.25 32.74 38.42 34.08 32.86 37.35 38.93 39.80 39.83 39.27 38.11 39.08 37.79 35.91 35.09 34.15 34.66 34.29 32.87 31.81 31.55
46.62 46.86 46.93 45.90 42.24 38.52 42.58 47.39 48.27 48.93 43.44 35.76 33.24 33.41 33.46 44.36 40.88 40.24 40.47 40.74 35.76 41.14 33.96 37.77 39.62 34.45 35.71 37.53 37.99 38.61 38.91 38.58 35.46 36.08 35.57 35.24 33.97 33.72 33.57 33.41 31.58 29.69 29.51 30.16
46.50 43.87 40.02 35.12 39.58 47.73 48.08 46.03 42.69 43.50 43.12 41.10 34.51 39.14 34.67 42.39 36.12 34.87 36.54 35.38 34.67 34.13 36.37 39.39 34.10 34.02 37.43 38.12 39.79 39.33 38.09 37.33 36.76 33.69 32.67 33.72 32.93 32.76 32.72 31.60 31.70 31.18 29.33 29.19
40.27 39.48 37.89 44.66 47.92 43.67 40.92 34.45 34.01 35.47 33.24 36.01 36.74 38.10 37.69 41.57 35.74 35.02 34.28 33.57 32.27 32.20 34.20 34.50 31.93 32.23 34.58 38.61 38.86 39.05 38.98 38.74 38.25 38.43 37.16 37.05 35.99 34.31 32.59 31.52 30.77 29.41 29.04 28.10
42.77 43.90 47.09 46.29 43.11 37.50 33.64 32.06 33.03 33.57 32.17 34.34 35.38 36.60 39.06 36.60 40.02 34.90 34.92 33.07 30.60 30.63 35.83 33.13 31.35 32.06 36.96 37.79 37.33 37.99 38.44 38.40 37.93 38.58 37.69 37.14 36.21 34.62 32.30 30.29 29.33 28.84 27.87 24.71
45.81 42.55 36.43 38.67 32.97 31.43 30.39 28.50 29.95 30.43 32.68 34.61 34.69 33.60 34.45 35.31 35.02 32.24 30.13 25.05 27.54 33.24 31.62 30.30 31.42 36.28 37.98 38.07 38.00 37.81 38.71 37.94 36.57 35.92 35.23 33.60 31.89 31.42 30.01 28.26 27.67 26.74 25.37 24.34
36.80 34.28 29.79 31.13 29.51 29.68 30.03 31.50 32.30 32.68 32.50 33.60 34.31 33.04 33.36 32.68 31.67 29.88 28.19 31.74 31.40 19.80 21.69 26.36 32.39 35.99 36.66 36.23 36.08 35.17 33.78 32.84 32.70 32.39 31.40 29.94 28.26 27.08 27.02 26.55 25.11 23.37 22.29 22.46
32.89 32.61 27.23 28.20 30.96 31.90 31.93 32.32 32.68 33.00 34.46 33.72 33.66 33.96 34.71 31.55 31.99 29.89 31.30 29.57 27.19 22.49 22.94 30.81 33.54 35.73 34.15 33.49 32.60 31.61 30.85 30.61 30.51 30.72 29.40 27.77 26.72 25.57 24.83 25.23 24.66 22.39 20.26 19.04
32.61 30.95 31.07 32.08 32.11 31.16 31.71 32.14 32.35 34.57 32.86 33.13 32.04 31.55 30.63 29.86 30.54 29.80 27.51 23.95 25.41 28.14 30.46 32.47 34.42 33.37 32.82 32.33 31.92 31.88 31.63 30.79 30.07 29.57 28.89 27.76 25.99 24.41 24.12 23.96 22.18 19.95 18.68 16.75
30.66 28.76 31.71 31.53 31.14 30.45 31.38 31.93 32.03 34.53 32.85 30.98 29.22 29.16 29.21 30.97 28.40 26.88 28.98 25.71 28.64 30.82 32.08 32.54 32.66 31.79 31.52 31.66 31.46 30.97 30.92 29.91 29.06 28.12 27.32 26.44 25.89 23.63 22.51 21.04 21.48 21.83 19.72 16.62

GFSNW_sfc_wetblb_060.txt.gz
Wetbulb
47.98 47.61 48.01 48.92 48.94 48.66 47.27 43.29 33.37 46.13 52.21 41.50 42.88 38.99 38.53 43.31 43.81 45.41 43.40 43.11 42.83 39.75 38.40 36.53 36.73 37.65 40.78 43.21 42.56 39.08 41.41 36.06 30.78 36.73 40.43 42.01 39.65 38.49 37.08 29.57 29.64 29.29 26.70 28.52
47.95 47.39 47.63 48.69 48.60 48.45 43.86 39.15 37.56 50.45 49.27 34.81 37.63 41.57 39.86 41.69 41.89 42.04 41.02 41.13 43.37 43.20 38.50 35.18 38.24 39.42 43.68 43.11 42.47 40.72 41.60 34.55 28.70 32.10 36.23 39.70 37.94 38.96 38.41 35.49 31.87 29.64 24.81 29.75
47.89 47.42 47.39 47.94 48.32 48.59 45.19 39.08 31.46 41.93 44.47 41.82 38.15 38.58 38.49 37.38 43.86 42.20 42.49 41.25 42.77 41.70 38.90 40.25 37.82 39.47 43.75 44.98 43.79 44.87 44.06 36.98 33.44 30.31 33.13 37.16 35.66 37.97 38.46 36.91 28.88 30.35 29.61 33.33
47.88 47.32 47.47 47.83 47.97 48.41 45.18 39.44 33.46 39.87 35.32 36.22 38.45 39.73 39.63 36.87 37.34 42.38 42.50 39.54 40.44 40.12 36.36 37.49 37.97 42.02 43.18 44.49 44.49 42.38 41.48 35.22 35.82 36.25 36.95 37.62 37.13 36.97 36.17 35.18 34.77 31.74 34.35 33.25
47.43 47.03 47.27 47.32 47.63 48.16 43.39 35.62 35.60 40.85 37.59 39.12 38.34 40.12 37.87 37.55 38.65 40.04 38.73 38.29 40.32 41.04 37.73 39.40 38.40 42.70 41.30 40.21 41.28 40.49 40.07 34.97 34.45 33.55 35.39 36.55 35.08 37.85 37.05 36.75 35.84 35.14 35.11 34.51
47.18 46.89 46.89 47.18 47.47 46.74 38.85 40.91 41.14 41.21 38.32 38.80 36.34 36.97 38.10 38.43 40.86 42.09 42.61 41.73 40.61 39.12 41.29 43.99 45.05 45.35 44.69 43.54 40.28 38.43 37.95 35.01 31.68 30.30 32.54 33.29 29.25 34.29 37.06 37.47 37.25 37.34 32.44 37.08
46.94 46.37 45.99 46.35 47.12 45.99 42.22 41.06 40.68 38.87 33.54 37.47 36.28 37.69 40.46 38.85 40.43 39.21 42.85 43.48 40.43 43.05 47.08 46.90 44.99 43.41 43.15 42.81 40.89 41.62 36.05 34.01 30.29 27.10 27.46 21.28 35.35 38.04 38.51 37.29 36.82 36.61 35.91 36.33
46.54 46.14 46.05 46.48 46.60 47.12 42.81 41.69 40.80 40.57 32.88 37.83 39.00 38.47 39.34 40.81 41.47 41.19 42.23 43.75 45.56 46.99 46.52 40.16 36.42 33.65 35.54 37.37 41.09 40.80 40.16 33.62 29.61 27.23 26.95 30.96 34.57 36.40 36.12 35.25 34.52 37.68 36.24 37.27
46.15 45.78 45.65 45.96 46.54 47.32 43.86 42.30 42.40 42.04 38.55 36.43 40.84 39.13 39.79 38.10 37.46 37.90 40.78 44.94 47.24 47.27 39.78 36.00 31.95 30.74 34.29 34.86 36.58 40.49 38.40 36.15 32.15 26.18 24.62 22.78 33.51 38.28 39.19 38.15 29.98 38.47 38.70 38.59
45.87 45.73 45.78 46.06 46.46 46.94 43.61 41.67 43.48 41.09 37.70 42.47 42.85 38.53 38.27 42.04 38.79 35.91 38.56 42.81 42.86 45.03 30.99 29.14 29.87 32.00 38.32 32.35 32.78 32.49 30.95 29.73 28.25 22.81 23.85 30.06 37.94 38.86 39.51 29.84 32.44 38.09 40.02 40.41
45.56 45.61 45.78 45.90 45.79 46.10 42.20 40.73 45.05 41.81 39.84 43.31 45.64 44.88 41.16 41.86 41.60 35.14 39.12 42.91 40.80 36.25 33.19 32.72 31.14 28.73 35.06 34.05 36.93 35.23 34.97 31.87 27.83 25.72 23.26 27.52 39.84 38.44 34.66 37.17 37.73 39.39 39.48 39.86
45.36 45.07 45.03 45.53 45.69 45.19 42.87 37.85 43.67 47.41 43.34 42.54 45.79 45.61 46.79 46.67 46.13 43.16 42.26 39.86 41.68 41.76 38.47 35.34 33.03 31.20 31.66 33.77 31.05 38.68 33.96 37.08 34.08 35.06 34.17 39.54 39.97 38.72 39.42 39.95 39.85 40.58 41.01 40.57
44.97 44.74 44.91 45.17 45.33 44.95 42.62 40.27 43.80 44.63 40.56 41.65 42.93 42.71 47.90 48.90 48.12 48.59 40.96 41.16 45.68 43.55 44.34 40.15 37.83 33.54 35.76 31.71 32.89 35.18 38.91 40.18 35.78 36.46 38.44 39.88 40.87 40.95 40.86 40.99 40.53 41.55 41.57 38.47
44.19 44.31 44.26 44.50 44.83 45.07 43.65 40.79 43.30 44.63 42.24 36.18 39.95 49.40 48.37 51.42 50.33 49.91 48.53 46.65 47.62 45.95 43.77 37.58 36.58 34.03 40.66 33.91 38.87 37.00 39.55 40.64 37.32 36.50 39.39 40.72 41.39 39.55 39.17 38.71 39.33 38.78 37.79 37.13
43.76 43.64 44.38 44.84 45.00 45.16 43.65 43.14 45.96 46.11 42.13 37.17 37.93 43.20 49.11 52.23 51.00 50.18 49.91 48.84 45.79 42.15 38.02 34.73 35.63 38.03 37.74 35.26 35.97 30.69 40.68 39.23 36.71 37.00 41.83 41.06 39.51 38.39 38.66 38.16 37.04 37.06 36.07 34.56
43.58 43.86 44.32 44.55 45.13 45.78 41.66 37.77 45.83 46.73 46.25 39.23 33.00 40.93 42.76 48.80 51.04 50.37 48.05 48.34 45.82 43.94 39.50 36.53 40.39 42.27 38.13 32.76 31.37 39.31 41.52 41.97 42.31 41.43 42.61 38.81 38.09 37.35 37.50 36.16 35.41 35.46 34.83 34.66
44.24 44.18 44.63 45.03 45.38 43.59 40.31 37.63 43.89 47.12 46.08 38.69 33.94 34.57 42.98 48.44 49.98 47.87 47.67 45.90 43.84 44.04 40.95 35.44 38.58 39.64 37.95 28.97 30.33 38.52 39.47 40.04 40.52 39.42 39.45 36.35 37.05 35.21 35.34 34.70 34.34 34.62 33.35 33.58
44.64 44.87 44.99 45.55 46.36 45.77 40.44 46.26 47.16 46.87 42.99 41.52 33.77 34.57 37.69 46.63 42.47 41.78 45.72 42.32 42.29 42.05 40.63 37.37 33.87 38.02 32.97 35.09 37.20 37.66 38.04 37.66 37.03 36.34 37.51 37.38 35.53 34.51 33.48 33.82 33.60 32.34 31.47 31.30
45.08 45.60 46.11 45.15 42.25 38.01 39.54 47.45 47.81 47.67 41.65 33.66 32.03 32.91 29.41 41.38 39.74 40.09 40.74 42.61 35.46 39.79 34.73 36.38 37.88 32.94 35.58 37.39 36.79 37.32 38.62 38.05 34.44 34.95 35.51 35.44 33.06 32.58 32.68 32.60 31.68 30.31 29.75 30.40
45.99 43.98 39.48 33.89 37.65 47.06 47.38 44.57 38.68 40.99 40.12 40.26 34.20 38.17 33.99 39.22 34.55 35.84 35.28 35.24 34.35 33.63 35.75 39.04 33.96 33.85 37.09 38.36 40.09 39.98 37.20 36.48 35.98 33.18 31.93 31.97 31.51 31.42 31.01 31.05 31.52 30.75 30.17 30.07
38.61 35.57 35.93 41.48 46.40 44.56 40.10 33.95 34.07 35.23 33.18 35.76 35.83 36.47 36.02 40.74 34.92 33.63 34.32 33.98 33.28 32.48 34.56 34.63 32.35 32.09 35.77 38.63 39.72 39.71 38.93 38.02 37.64 37.59 37.34 36.72 34.57 32.21 30.55 30.09 30.71 30.54 30.58 28.86
39.97 43.03 44.20 44.49 40.90 36.94 30.77 32.12 32.60 33.61 32.52 33.93 34.70 36.39 38.15 36.73 39.82 35.27 34.13 31.82 31.99 31.20 35.53 33.57 30.88 32.55 36.02 36.57 35.96 37.21 37.73 37.53 36.97 36.64 35.54 35.05 33.95 32.99 31.27 30.26 29.82 28.87 27.20 25.67
42.77 41.42 36.40 37.94 33.42 29.47 21.57 26.76 30.17 31.05 32.87 34.29 34.57 33.46 34.61 33.99 36.26 32.30 31.25 29.91 29.57 33.48 32.05 30.91 31.73 36.24 37.11 37.06 37.33 37.11 37.88 37.36 36.58 35.56 34.76 33.38 31.84 31.80 30.60 28.61 27.58 26.41 25.41 24.67
36.69 32.69 29.15 30.90 28.88 29.89 30.46 31.53 31.14 31.64 32.56 33.46 33.99 32.71 33.61 32.72 32.48 31.02 31.37 31.37 31.58 27.68 26.22 27.26 32.33 35.40 35.90 36.68 36.69 35.05 33.64 33.12 32.69 31.97 31.24 30.07 29.46 28.09 27.51 26.88 25.36 24.11 23.39 23.09
31.80 32.23 27.12 28.40 30.67 31.77 31.80 32.18 32.71 32.53 34.13 33.80 33.45 33.61 34.27 31.95 30.74 30.81 30.96 28.97 26.61 24.60 22.10 30.30 32.69 33.93 34.09 33.19 32.84 32.07 31.26 30.99 30.14 29.64 28.11 27.20 26.90 25.76 24.33 24.07 23.99 22.91 21.44 19.96
31.94 30.14 30.40 31.38 31.29 30.46 31.20 31.98 32.03 33.89 32.91 33.19 34.20 31.92 30.75 30.12 31.02 29.45 26.54 26.34 24.96 27.44 29.93 31.98 33.00 32.15 32.03 31.72 31.35 31.31 31.12 30.36 29.69 28.81 27.74 26.63 25.27 24.22 23.06 22.27 21.00 19.83 19.17 17.69
30.08 28.21 29.80 30.10 30.27 28.82 29.93 30.81 30.03 33.58 33.27 30.30 30.45 29.63 28.32 31.28 27.25 25.18 28.29 24.81 28.15 29.91 30.81 31.67 32.06 31.19 30.98 30.94 30.61 30.25 30.15 29.41 28.66 28.21 27.18 25.12 24.47 23.05 21.73 19.76 20.47 20.97 19.02 17.27

GFSNW_sfc_wetblb_063.txt.gz
Wetbulb
49.42 49.61 49.16 48.48 48.29 48.93 47.22 41.53 32.90 44.48 48.73 36.84 39.26 36.38 39.94 42.99 43.23 45.82 43.67 43.94 42.67 41.13 39.49 38.41 38.53 39.17 42.21 44.01 44.12 41.42 44.53 40.74 35.69 39.97 43.98 45.02 44.03 42.62 41.52 37.39 34.41 34.51 33.59 35.38
49.08 49.41 48.99 48.32 47.93 48.84 44.51 37.31 38.04 45.59 44.92 31.58 33.70 38.76 40.28 42.41 41.45 43.05 42.22 41.36 43.53 45.60 41.35 37.30 39.84 40.85 45.10 43.33 43.98 42.75 43.60 38.55 34.24 36.08 40.31 43.81 42.35 42.13 41.03 39.10 37.39 34.42 34.31 37.04
49.06 49.36 48.73 48.02 47.88 48.71 44.58 37.88 32.06 39.65 41.18 39.23 36.05 35.46 37.93 38.57 43.56 42.85 43.42 42.27 43.55 43.53 41.49 42.48 39.20 40.36 44.83 44.26 44.87 44.43 45.59 39.67 37.92 34.35 37.71 40.94 39.19 40.74 40.76 41.27 35.63 36.82 36.17 40.13
49.01 49.15 48.47 47.77 47.78 48.30 43.94 38.39 34.34 38.48 32.47 33.27 35.68 37.75 38.19 36.97 37.35 42.71 43.45 40.87 41.39 41.77 39.01 40.18 39.83 42.95 45.00 45.63 45.19 44.66 45.56 38.91 38.70 39.10 39.23 40.49 40.83 40.81 39.86 39.27 40.88 37.76 40.38 38.06
48.83 48.89 48.12 47.46 47.70 47.97 41.66 34.87 35.75 37.81 38.92 36.87 34.97 36.98 36.60 37.04 39.09 40.43 39.14 39.19 41.15 42.08 39.63 41.16 40.32 43.10 44.23 43.37 43.53 43.23 43.14 39.16 38.66 37.49 39.03 39.04 38.58 40.16 39.84 40.26 39.94 39.42 39.26 38.64
48.88 48.80 47.61 47.24 47.48 46.95 40.31 41.51 41.83 38.38 37.27 36.06 33.49 33.91 36.70 38.63 41.06 42.05 43.07 42.14 41.00 39.94 42.39 45.39 46.00 47.58 46.74 46.31 44.77 41.54 40.67 38.45 36.28 34.34 36.41 37.43 33.30 38.26 39.56 40.35 41.33 41.70 37.85 42.86
48.89 48.57 47.31 46.88 47.33 46.28 43.29 42.01 40.66 37.01 32.27 36.24 34.85 35.39 38.97 38.51 40.46 38.82 42.26 43.81 40.96 44.36 48.01 47.93 46.93 45.52 44.95 44.63 43.55 44.67 39.21 38.23 35.49 33.17 32.21 28.83 40.55 41.62 42.50 41.43 41.91 42.01 40.65 41.49
48.23 48.02 46.82 46.66 47.06 46.71 42.46 42.28 40.85 38.94 32.16 37.62 37.40 37.01 37.15 40.96 42.02 40.88 42.09 43.82 45.94 47.56 45.80 40.49 37.78 36.86 38.34 39.74 42.19 41.62 42.34 37.24 33.17 32.96 32.43 35.46 38.19 39.75 40.30 39.85 40.81 42.87 42.19 41.98
48.35 47.13 46.73 46.50 46.85 46.92 43.52 41.32 43.44 42.14 35.84 35.58 40.28 37.87 38.24 37.59 38.12 38.78 41.49 46.41 49.18 47.02 40.75 36.83 33.09 32.36 36.42 36.49 38.24 40.93 38.94 39.09 37.87 30.99 30.70 29.27 38.54 41.65 42.63 43.33 36.28 43.33 42.64 41.94
47.72 46.77 46.56 46.55 46.85 47.14 43.42 41.56 44.00 41.69 37.32 40.76 41.50 38.57 37.70 41.70 39.42 37.69 39.74 42.49 42.99 46.40 34.95 33.76 33.15 33.08 39.11 35.43 34.48 34.61 34.78 34.20 33.55 30.17 33.51 35.59 40.57 41.84 43.10 36.12 39.45 42.83 43.44 43.59
46.88 46.52 46.26 46.36 46.54 46.95 43.99 41.80 44.22 41.57 39.25 40.50 44.21 44.54 41.10 41.59 41.18 36.24 39.72 40.60 41.52 38.78 34.79 34.36 34.35 33.43 36.87 37.01 38.86 36.61 36.60 34.65 33.14 31.42 31.94 32.11 42.31 40.26 39.07 44.05 42.44 43.44 43.60 43.90
46.42 46.06 45.92 45.92 46.63 46.87 45.28 40.16 45.01 45.19 39.90 41.94 45.90 46.22 47.34 47.29 46.15 42.95 43.76 41.95 41.95 41.93 38.89 37.27 36.34 34.65 34.03 37.57 34.34 40.10 36.23 39.72 37.29 37.79 39.35 44.33 42.96 45.24 44.18 43.49 44.80 43.62 44.34 43.88
45.71 45.80 45.87 46.04 46.23 46.25 43.96 40.47 42.46 41.93 38.47 41.82 42.08 43.29 48.42 49.55 48.55 50.14 43.26 43.18 46.76 44.84 46.65 41.80 40.27 35.92 37.57 33.92 34.99 37.80 39.97 42.31 39.40 40.26 42.41 42.38 43.69 44.53 44.42 44.55 44.42 44.69 45.33 42.84
45.36 45.40 45.68 45.97 46.41 45.36 43.37 40.69 43.21 41.39 40.62 34.73 39.54 48.73 48.39 51.02 50.28 49.50 49.25 48.30 48.35 47.72 46.20 39.95 36.55 37.31 41.86 36.75 40.79 39.98 41.62 42.43 39.94 39.92 41.87 42.49 43.89 44.23 44.15 42.75 42.69 41.87 41.95 41.30
45.43 45.47 45.52 45.68 44.97 44.42 42.29 43.48 43.71 43.54 40.56 35.21 38.33 44.71 48.52 51.27 50.37 50.72 50.55 49.44 47.01 44.99 42.02 36.72 39.83 40.84 39.99 37.68 39.51 37.55 42.92 41.40 39.36 39.38 44.42 44.61 45.83 46.03 43.06 41.65 41.27 41.02 38.84 37.33
44.68 45.19 45.38 44.98 44.16 43.42 40.63 35.53 42.97 44.09 43.41 37.89 33.44 42.99 43.85 50.07 50.97 49.65 48.81 49.18 47.67 46.65 42.94 40.08 41.95 43.53 41.85 36.80 37.91 42.61 43.86 44.02 43.00 43.85 43.76 40.41 39.84 39.19 40.79 39.70 39.48 39.00 38.65 37.13
44.20 44.68 44.84 44.62 44.29 41.29 37.88 36.80 42.61 43.67 45.93 37.19 33.34 35.56 43.17 48.74 49.39 48.69 48.10 48.96 47.70 46.24 43.69 40.24 42.15 42.28 41.42 35.40 36.60 41.44 40.87 41.22 41.40 40.73 41.09 39.23 39.45 38.64 37.94 37.30 36.45 36.13 35.52 35.67
43.90 43.90 43.75 44.26 44.31 43.39 39.67 45.92 46.19 46.12 41.82 40.13 31.80 33.94 39.79 46.32 43.01 41.81 46.28 43.70 44.63 43.66 42.15 39.54 40.26 40.47 37.45 36.69 39.23 39.29 39.06 38.87 38.13 37.37 38.69 39.06 36.46 35.81 34.64 35.18 35.17 33.96 33.41 33.54
44.01 44.32 44.53 42.77 40.83 38.37 41.14 46.61 46.61 47.36 42.77 33.31 32.19 33.10 33.79 42.68 39.72 40.26 41.59 42.23 35.26 40.97 35.62 38.27 40.88 36.82 37.53 40.47 39.40 38.71 38.71 39.42 35.37 35.87 36.23 36.06 34.58 33.76 34.01 34.31 33.83 32.63 31.99 32.07
44.18 42.24 38.13 32.72 39.74 45.32 46.27 43.52 39.85 40.00 40.13 37.44 33.49 36.34 35.26 40.00 35.82 36.34 36.33 36.15 33.61 33.25 37.01 40.29 36.72 36.83 39.39 39.99 41.01 40.91 38.09 36.49 36.49 33.73 32.37 33.06 32.71 32.54 32.77 33.11 33.58 32.90 31.84 30.51
39.64 38.16 36.48 41.54 46.61 43.95 39.92 32.70 32.85 34.44 32.87 36.48 36.09 36.94 36.30 41.22 35.06 34.52 35.63 33.26 32.70 31.60 35.30 36.98 34.18 34.28 36.80 39.46 40.61 39.59 38.43 38.28 38.76 40.04 37.56 37.21 35.60 33.34 31.78 31.55 32.13 31.19 30.24 28.27
40.85 42.10 44.77 43.90 38.99 36.26 32.99 32.16 32.84 33.50 31.95 34.83 35.01 36.47 38.33 37.52 40.65 35.34 34.82 32.51 31.90 30.43 35.93 33.97 31.72 34.39 36.89 37.77 37.61 38.11 38.66 38.12 36.92 36.77 35.36 34.43 33.32 32.99 32.33 31.42 30.62 29.51 28.46 27.21
42.41 39.75 35.97 35.63 32.84 29.24 28.68 27.41 30.50 31.01 32.88 34.62 35.27 34.00 36.31 35.81 36.53 33.10 32.57 30.96 30.59 33.52 32.36 31.93 32.06 35.86 36.49 36.78 37.03 36.94 37.83 36.52 35.23 33.65 33.21 32.43 31.71 32.00 30.43 28.53 28.81 28.56 27.25 26.39
34.45 32.22 29.61 30.46 30.15 30.82 31.23 31.75 32.52 32.79 33.28 34.55 34.65 33.10 34.71 33.82 33.28 32.73 31.36 32.72 31.72 29.77 28.74 27.05 32.30 34.62 35.53 35.64 35.67 34.17 32.63 32.15 31.98 31.32 30.82 29.87 29.15 27.88 27.75 27.80 27.75 26.49 24.57 24.05
31.45 31.72 27.00 28.37 30.83 31.72 31.98 32.37 32.88 32.84 34.39 34.42 33.96 33.97 34.58 32.16 31.32 32.14 32.34 29.95 26.88 27.12 26.81 30.67 32.13 33.16 33.01 32.38 32.20 31.27 30.43 29.86 28.94 28.83 27.67 27.19 26.87 26.39 25.69 26.08 25.75 24.39 23.23 22.21
31.90 29.02 28.07 30.23 29.32 28.52 29.75 30.80 31.59 33.13 33.05 34.27 34.05 31.80 31.36 30.07 31.80 29.25 27.32 26.88 25.01 27.43 30.14 31.72 32.21 31.56 31.32 30.92 30.75 30.39 29.86 29.14 28.49 28.00 27.62 26.81 25.44 24.33 23.18 22.96 22.17 21.48 21.16 20.16
30.07 26.44 27.87 27.06 27.62 25.42 27.28 28.92 28.85 32.30 32.70 30.86 31.96 28.42 26.53 31.05 26.15 24.14 27.70 24.58 27.17 29.51 30.20 31.06 31.48 30.24 29.67 30.03 29.76 29.36 29.25 28.29 27.59 27.03 26.06 24.79 24.23 23.54 22.49 20.54 21.11 21.14 20.07 19.54

GFSNW_sfc_wetblb_066.txt.gz
Wetbulb
49.88 49.71 49.82 49.92 49.61 48.88 47.99 42.94 33.58 49.53 51.21 36.12 37.29 34.59 40.91 43.43 44.78 48.64 46.36 45.53 44.20 43.87 42.07 41.59 42.01 42.66 45.12 48.79 49.11 45.12 48.58 45.74 41.13 43.18 48.30 49.53 48.98 46.96 46.93 40.60 38.86 41.36 40.44 40.00
49.40 49.51 49.58 49.60 49.28 48.83 46.72 37.33 38.18 49.93 48.66 30.35 31.45 38.76 39.89 42.92 43.53 44.36 45.15 43.97 45.14 46.95 44.80 39.82 43.63 44.21 48.75 48.26 48.37 46.77 48.20 43.94 38.83 40.27 43.97 47.26 45.43 47.01 47.29 46.28 44.40 40.42 38.22 40.57
49.34 49.64 49.45 49.36 49.21 48.79 46.41 38.52 32.05 39.37 41.10 42.74 36.49 35.52 37.02 38.34 44.60 44.41 46.20 44.93 46.11 43.95 43.18 46.12 41.98 43.39 45.75 48.26 48.75 47.29 48.75 45.73 42.28 38.12 41.11 44.57 42.65 44.68 46.29 45.35 41.01 40.70 41.27 43.15
49.41 49.57 49.63 49.28 48.96 48.40 44.75 38.51 35.74 39.94 31.47 34.83 37.96 37.77 38.47 36.63 38.11 43.85 46.30 44.54 44.15 43.39 40.79 42.44 42.06 43.81 45.56 45.86 45.56 48.42 49.01 42.77 44.50 44.45 44.79 44.72 44.01 43.44 44.34 43.36 43.96 40.77 43.57 43.89
48.62 48.81 49.54 49.01 48.68 48.28 41.70 35.21 37.67 41.48 38.13 38.78 37.47 37.13 36.77 37.24 39.62 42.10 41.27 41.98 43.95 44.60 41.66 42.98 40.79 44.13 45.30 45.45 47.25 47.37 48.79 43.02 44.77 42.14 44.59 44.05 42.24 44.24 44.79 45.21 45.35 45.42 45.69 44.82
48.38 48.65 48.96 48.89 48.43 47.41 40.34 43.20 44.77 42.51 38.65 37.67 35.68 36.66 35.95 37.87 41.69 43.73 45.39 44.80 43.46 41.65 43.81 46.82 46.99 48.05 47.60 47.36 46.06 46.42 46.30 44.65 42.37 38.73 42.63 42.27 37.32 42.31 44.55 45.74 47.03 46.53 43.19 47.12
48.01 48.03 47.68 48.58 48.04 46.68 45.46 43.02 43.36 39.26 35.01 37.40 35.23 37.08 38.00 38.40 40.82 41.03 44.83 46.67 44.05 46.38 49.13 48.49 47.63 46.86 46.33 47.13 46.81 48.41 45.24 44.63 44.11 39.50 37.54 33.03 43.66 46.98 48.31 46.66 47.56 48.92 48.31 49.01
47.59 47.56 47.49 48.19 47.57 46.87 45.80 44.94 43.95 40.79 36.18 38.29 38.08 37.50 37.21 40.05 42.07 42.72 44.04 46.72 48.67 50.31 47.00 40.91 36.55 38.33 41.54 43.76 46.32 46.77 48.38 45.50 40.49 38.35 37.41 41.58 43.34 42.64 45.06 44.83 45.40 49.95 48.69 49.71
47.33 47.39 47.62 47.85 47.28 47.03 45.54 47.31 48.31 44.98 39.22 38.36 40.60 38.57 39.26 38.29 40.05 41.45 44.05 49.11 51.26 48.94 43.74 41.51 34.28 29.78 38.82 39.09 41.35 44.97 44.67 45.11 43.66 38.10 36.03 34.30 43.36 47.46 49.68 48.80 41.18 49.96 49.74 49.20
47.15 47.12 47.93 47.37 47.14 46.89 45.85 46.71 49.65 45.35 39.33 42.00 42.68 38.78 37.35 42.35 42.41 42.30 43.98 45.95 46.30 49.29 41.73 38.32 36.67 34.15 40.26 37.17 37.61 38.25 39.50 39.92 39.46 38.98 38.78 42.04 47.13 46.18 48.55 39.64 43.55 50.82 50.67 50.37
46.98 47.37 47.38 47.04 46.88 46.93 46.00 45.32 49.38 46.41 41.30 43.51 45.03 45.14 42.29 42.40 44.39 40.75 44.12 43.70 45.46 44.38 39.85 39.50 39.33 38.43 39.29 38.99 42.53 40.40 39.64 39.22 38.51 38.92 37.81 35.91 46.07 44.51 43.69 50.08 51.02 51.60 50.97 51.28
46.34 46.56 47.17 46.90 46.56 46.61 45.92 41.70 47.81 49.32 44.18 42.86 47.03 47.60 48.99 47.98 48.58 46.28 47.74 44.58 45.33 46.13 42.44 43.18 43.81 40.30 40.69 40.17 35.62 44.91 37.92 43.88 43.36 42.69 44.06 49.03 48.87 50.54 51.73 51.43 51.87 50.20 51.41 51.25
46.31 46.88 47.04 46.53 46.79 46.60 45.19 43.16 46.03 46.64 40.58 41.84 44.49 43.21 48.76 52.74 52.41 54.37 45.20 47.29 48.47 47.87 50.60 46.57 45.72 42.13 44.20 39.75 40.34 42.22 43.86 45.62 43.95 43.14 48.22 47.99 49.54 50.89 49.77 50.56 50.36 50.28 50.87 50.80
46.85 46.69 46.51 46.11 46.67 46.28 45.58 42.60 46.69 45.36 42.40 34.62 39.96 48.90 46.13 52.87 53.04 53.24 53.60 50.57 53.01 52.41 50.49 47.53 43.32 43.04 47.00 44.76 45.70 43.81 46.47 45.38 44.94 45.43 48.66 46.95 48.10 50.62 51.78 50.06 49.79 49.01 49.81 50.03
46.42 46.23 46.14 46.58 46.71 45.65 45.23 46.71 46.69 47.36 42.66 35.53 38.36 44.07 46.62 50.14 51.82 50.65 51.78 52.31 51.37 50.63 47.50 40.31 43.27 47.85 46.63 45.98 45.07 44.44 47.07 46.02 43.14 43.66 50.35 48.96 51.24 50.66 52.76 50.37 48.75 48.69 47.75 47.04
45.73 45.89 46.55 45.18 44.96 44.84 43.41 39.07 45.29 46.99 47.03 37.56 33.64 43.67 41.48 48.92 51.03 49.96 50.41 50.83 51.07 50.71 48.04 47.78 48.68 49.28 48.07 43.07 42.65 47.79 49.23 49.56 50.31 48.53 46.72 47.80 45.98 45.26 46.39 49.11 48.64 47.99 47.28 47.38
45.55 45.59 45.06 44.49 44.34 46.05 40.92 38.75 43.63 46.17 45.89 37.17 33.18 33.21 43.70 48.71 49.66 50.26 49.57 51.05 49.69 49.46 48.15 47.60 47.85 48.37 47.06 43.40 41.56 47.38 48.41 48.92 48.05 46.18 45.42 46.00 43.56 45.53 43.89 44.50 44.60 44.36 44.39 43.98
44.31 44.10 43.84 43.85 44.29 44.42 43.09 47.11 45.56 45.30 41.42 39.29 31.72 33.05 38.46 47.01 43.30 42.46 49.39 45.90 47.67 48.81 47.68 46.54 46.67 46.69 46.47 42.39 46.61 48.49 47.82 45.43 44.63 43.56 43.98 44.98 43.38 42.49 41.96 42.51 41.58 40.28 39.98 39.90
44.45 44.16 43.95 44.59 42.68 40.30 43.71 44.55 44.68 48.35 42.09 34.68 32.58 32.58 33.12 44.09 42.42 43.20 42.72 45.34 39.10 44.89 42.70 44.78 47.20 43.14 41.11 44.68 47.12 47.00 46.38 45.14 45.14 42.04 42.26 42.14 41.61 41.00 40.76 41.45 41.14 39.24 38.25 39.03
44.04 43.19 39.22 35.06 41.27 46.03 44.13 40.47 39.62 40.04 41.47 39.68 34.39 37.96 33.67 41.56 41.52 39.34 40.86 42.82 38.71 35.30 38.86 45.97 41.58 42.26 47.33 46.80 46.97 47.80 45.99 44.49 43.36 40.81 38.95 38.81 38.74 37.99 38.57 39.46 39.83 38.71 37.52 36.51
41.90 36.77 35.83 43.63 46.37 42.85 38.77 33.83 34.92 35.33 32.94 38.24 36.11 36.64 38.24 42.94 38.88 37.45 40.54 37.12 37.84 34.57 38.18 37.82 37.97 40.57 44.00 43.00 42.59 43.59 43.45 43.49 43.04 43.45 41.63 41.14 40.56 39.13 36.80 36.02 36.57 34.87 33.93 32.49
39.91 41.38 44.87 43.08 36.93 34.81 33.06 32.40 32.94 33.05 33.82 37.80 36.97 39.57 41.54 41.46 46.47 39.31 38.27 35.20 35.43 32.53 36.55 33.49 32.52 35.20 38.27 39.96 39.89 41.43 40.96 40.89 40.52 41.66 40.69 37.51 36.84 34.37 33.02 32.03 30.99 30.48 29.69 29.17
45.41 42.48 36.73 35.72 34.53 31.13 31.82 28.05 32.55 33.68 36.61 38.48 38.58 36.25 41.23 42.75 43.17 36.53 36.71 32.94 34.69 36.32 33.12 31.45 32.29 35.69 37.04 37.70 37.13 35.83 35.64 35.06 34.94 35.17 34.19 32.94 31.89 31.82 30.34 28.82 29.80 29.66 28.74 28.78
37.46 34.90 29.86 32.40 31.49 33.40 34.62 35.50 37.41 36.79 37.82 37.29 39.40 36.72 41.57 40.17 36.57 36.75 33.85 34.51 36.41 33.12 31.40 28.57 33.05 33.05 34.16 35.11 34.34 32.70 31.42 31.41 31.01 30.34 29.78 29.24 28.87 29.27 30.22 30.11 30.21 29.02 27.75 28.13
33.06 34.39 29.34 30.74 32.40 32.91 32.76 34.03 35.66 35.01 39.35 38.12 38.65 38.49 38.67 35.30 34.03 34.39 34.38 32.76 29.68 29.78 29.50 31.24 32.88 33.61 33.14 32.20 31.43 30.09 29.25 28.71 28.56 28.87 28.67 29.08 29.64 29.10 28.48 28.80 28.47 27.22 26.25 25.22
33.10 29.16 28.64 28.58 29.15 27.32 28.89 29.96 32.03 33.59 34.74 36.14 36.31 33.12 32.58 32.03 33.49 31.66 30.16 30.32 27.09 27.82 30.00 32.11 32.49 30.89 30.48 29.55 29.55 29.43 29.51 29.26 29.17 29.85 29.12 28.20 27.10 26.67 26.25 26.23 25.20 24.82 24.46 23.44
29.94 27.05 28.28 27.17 26.67 24.62 26.45 27.85 27.74 32.29 33.67 32.03 34.33 30.77 28.58 34.24 28.79 26.35 28.20 25.83 28.09 29.84 30.42 32.18 32.13 31.19 30.09 29.98 30.51 30.45 30.31 29.45 28.84 28.16 27.48 26.98 27.09 27.05 25.05 22.85 23.39 23.27 22.51 21.72

GFSNW_sfc_wetblb_069.txt.gz
Wetbulb
49.23 49.49 49.91 49.99 50.25 49.81 47.95 42.54 35.12 48.35 52.55 36.02 37.68 34.11 39.38 42.70 43.74 47.05 46.61 47.45 46.72 44.38 45.36 43.53 42.21 41.19 46.46 49.48 49.71 46.46 49.24 46.71 42.21 44.46 49.33 50.18 49.92 47.22 47.34 41.94 40.27 43.17 41.73 41.81
49.18 49.18 49.56 49.81 49.75 49.60 45.39 38.44 38.99 49.78 49.66 31.57 34.04 38.84 39.09 41.89 42.49 43.75 45.45 45.09 47.15 48.46 46.28 41.89 44.13 44.22 48.51 49.63 49.29 48.05 49.13 44.56 39.85 41.88 45.71 48.71 46.58 48.41 48.87 48.19 46.92 41.93 39.93 41.52
49.26 49.13 49.35 49.71 49.54 49.78 45.98 38.71 33.20 40.14 42.68 42.58 38.31 36.68 37.08 37.60 43.23 43.43 45.20 45.79 47.55 46.31 45.19 47.70 43.23 44.41 47.24 50.56 49.87 48.35 50.21 46.14 43.22 39.11 42.51 46.20 43.59 45.46 47.43 46.86 43.22 42.41 42.53 44.16
49.23 49.38 49.36 49.50 49.58 49.41 45.39 38.58 36.84 41.05 31.72 35.25 39.35 39.51 38.70 37.15 37.20 42.95 44.57 43.78 45.58 44.98 42.47 43.64 43.76 44.65 46.29 47.57 48.38 49.76 49.28 43.27 44.84 45.03 46.24 46.17 45.21 44.99 45.39 44.57 45.35 42.36 44.28 44.67
49.45 49.13 49.02 49.32 49.32 49.37 42.77 34.89 38.68 40.46 40.30 39.65 38.39 38.37 37.25 37.23 38.97 40.65 40.16 41.60 44.48 45.94 43.57 44.73 42.70 44.37 44.73 44.78 48.36 47.97 49.68 43.60 45.07 42.81 45.59 45.57 43.62 44.93 45.52 45.27 45.19 45.00 45.17 44.84
48.68 49.18 48.66 48.67 49.08 48.88 41.26 42.49 46.15 43.24 38.30 38.07 36.67 38.17 38.23 37.99 40.67 42.45 43.95 43.82 43.69 44.21 46.35 49.27 48.32 47.72 46.79 47.17 47.82 47.06 47.11 45.79 43.19 39.36 44.50 44.49 40.55 43.68 44.99 45.73 47.08 46.67 43.44 47.62
48.24 48.37 48.64 48.56 48.90 48.66 44.72 45.99 44.64 40.33 35.22 37.23 38.16 38.89 39.82 39.21 40.04 39.68 43.54 45.57 44.23 47.44 52.24 50.53 49.03 47.37 45.60 46.00 47.02 49.25 46.52 45.53 44.73 40.88 40.01 33.89 44.44 48.93 48.47 46.61 47.55 48.87 48.82 49.36
47.70 47.77 48.03 48.52 48.79 48.90 45.15 47.27 44.84 41.06 36.92 39.28 38.58 39.50 39.84 41.25 41.88 41.13 42.69 45.78 48.64 51.99 48.89 43.28 39.49 38.08 38.99 42.68 45.99 47.10 48.89 46.45 43.26 39.05 39.27 42.13 44.44 46.13 45.85 45.65 45.43 49.63 48.96 49.89
47.13 47.30 47.37 47.60 48.09 48.96 45.83 46.69 50.18 45.34 39.76 38.59 41.66 39.19 40.91 38.69 39.10 40.27 43.13 48.49 51.60 50.44 45.57 41.42 34.81 31.60 35.33 37.45 41.63 47.38 47.64 47.94 44.69 41.70 36.08 33.46 43.74 48.10 50.42 50.40 42.67 50.71 50.95 50.61
46.64 47.15 47.30 47.49 47.51 48.59 46.03 45.25 50.44 46.47 40.26 42.97 42.94 39.50 40.09 43.25 42.04 40.50 42.45 46.37 47.21 50.46 43.28 38.86 36.95 35.35 40.84 34.73 36.87 38.55 41.04 41.35 40.35 40.27 38.89 42.26 48.15 49.76 51.51 41.26 43.18 51.54 52.01 51.97
46.29 46.87 47.20 47.25 47.02 47.90 45.85 44.76 50.18 47.50 41.92 42.90 45.36 45.37 42.76 43.38 42.85 39.99 43.71 43.65 44.40 45.12 40.57 39.45 39.85 40.08 39.71 38.73 41.00 41.22 40.63 39.53 39.73 41.90 39.42 36.60 50.28 47.54 44.55 50.37 53.44 53.26 53.37 53.29
46.45 46.68 46.98 47.25 47.15 47.69 46.79 43.36 49.82 50.52 45.20 43.65 49.10 49.34 49.49 48.91 47.64 46.04 44.94 45.15 45.68 46.26 42.93 44.23 43.95 42.69 43.04 40.59 35.99 44.64 38.09 44.87 42.61 44.17 44.28 51.75 51.29 51.35 52.62 53.64 53.19 54.03 54.07 54.26
46.56 46.59 47.20 47.15 47.76 47.34 46.77 46.47 48.85 47.73 43.12 43.14 45.21 44.99 49.46 52.28 51.76 52.14 45.94 47.22 49.69 48.44 50.59 47.03 45.72 41.31 44.56 39.23 40.72 42.27 45.49 47.62 44.73 45.66 48.32 50.40 51.55 52.63 53.31 53.87 53.20 54.41 54.14 54.45
46.38 46.73 47.34 47.23 47.20 46.63 47.11 46.31 48.57 46.51 42.63 37.00 40.52 48.89 46.95 51.00 50.77 50.87 51.01 50.90 51.90 52.56 50.77 47.94 45.61 43.74 48.04 44.49 44.20 43.58 45.74 47.06 45.04 45.22 47.60 49.05 51.42 51.79 53.56 53.78 54.05 53.16 53.57 53.31
46.79 47.07 46.84 46.94 46.24 46.58 47.55 48.04 47.83 48.55 43.08 38.95 39.36 46.04 48.25 49.75 49.21 48.94 48.44 50.23 51.36 49.72 47.83 46.40 43.72 46.21 45.72 48.24 47.05 44.95 47.74 46.78 44.95 43.77 49.17 49.96 50.23 52.29 52.91 53.93 53.98 53.62 52.21 51.73
46.53 46.90 46.71 45.85 46.12 46.43 44.43 38.14 46.54 48.92 48.18 41.75 36.53 45.54 45.20 48.22 48.47 47.49 47.92 49.31 50.47 49.55 47.36 46.98 47.13 48.05 46.84 45.08 41.87 46.28 47.53 49.71 50.87 48.99 50.44 50.56 50.76 48.72 49.55 50.34 53.14 53.85 52.71 52.28
46.65 46.31 45.46 45.68 45.73 45.24 41.44 40.66 45.24 47.09 48.69 42.06 36.09 38.20 43.89 46.49 45.44 45.56 47.95 48.34 49.34 49.64 48.05 47.21 47.72 47.88 48.22 46.07 41.69 46.02 48.87 50.38 51.78 50.93 48.81 48.23 49.75 48.77 47.69 48.05 49.49 48.25 50.61 50.96
44.67 44.84 45.35 45.61 46.02 46.27 43.99 46.50 46.79 47.92 44.50 43.48 35.31 34.56 36.75 45.47 38.59 42.53 49.14 46.64 47.47 47.21 46.44 48.81 46.87 48.52 48.41 42.14 46.38 47.90 49.45 50.87 49.75 49.58 49.07 48.99 48.47 47.59 46.46 46.66 46.06 46.06 46.04 46.71
44.59 44.72 44.90 44.77 44.09 41.31 43.36 45.32 45.39 48.86 44.63 36.78 34.53 33.83 31.82 43.58 44.15 45.13 44.60 46.97 41.29 48.19 44.48 45.39 46.79 44.38 41.29 43.96 46.21 47.58 49.85 49.63 49.64 48.11 47.29 47.14 46.43 45.84 45.12 45.11 44.90 44.24 43.18 43.95
44.44 45.00 41.06 37.59 43.23 44.68 44.39 40.54 40.10 41.46 42.18 41.75 34.36 38.60 33.77 38.05 39.03 40.06 41.84 44.92 41.11 37.33 41.91 47.61 43.32 42.94 47.56 48.56 49.87 50.97 50.37 49.89 48.09 45.89 44.67 44.47 44.25 44.26 44.05 44.50 44.68 43.77 42.99 42.40
43.42 40.02 38.13 44.10 45.14 45.32 39.68 35.01 35.77 37.13 33.85 38.27 38.91 37.52 33.61 39.01 36.70 36.64 40.47 38.02 40.30 36.44 38.91 40.04 38.67 40.48 43.14 45.77 46.98 48.29 48.72 48.42 47.34 47.32 46.93 46.35 45.86 43.93 42.25 41.22 40.94 40.19 37.95 35.15
42.88 44.05 44.75 43.86 39.64 34.89 32.93 32.52 34.48 33.06 32.61 38.81 37.22 34.82 33.66 37.48 45.60 41.27 40.71 37.40 38.96 34.44 38.66 34.44 33.52 34.11 37.53 40.03 42.11 44.37 44.95 44.83 43.96 43.07 40.82 41.49 40.00 38.07 36.00 33.14 30.61 29.84 29.59 29.78
47.12 42.19 37.07 36.18 33.88 29.91 30.27 28.23 32.82 33.17 38.21 39.12 36.91 33.51 38.51 42.22 43.28 38.65 38.12 35.53 34.44 39.31 33.70 32.60 33.17 34.97 36.28 36.12 35.00 34.98 37.61 37.90 36.39 34.15 32.70 31.67 30.88 30.97 30.07 29.08 30.06 29.96 29.17 29.02
40.07 35.59 30.82 32.45 31.72 34.11 34.34 35.37 37.24 36.74 39.42 41.50 41.03 38.51 39.58 41.12 38.30 37.89 33.36 35.50 37.79 34.08 32.36 31.67 33.81 33.66 33.38 34.05 33.85 31.03 29.78 29.87 29.51 29.41 29.89 29.65 29.89 29.85 30.57 31.25 31.48 30.65 29.40 29.59
34.84 34.80 28.30 28.82 32.22 32.65 32.80 35.17 35.82 35.82 41.52 42.64 40.78 40.46 40.15 35.53 35.53 36.62 35.53 32.81 30.71 30.45 29.95 31.13 32.55 33.64 32.51 30.59 30.14 29.43 29.05 29.30 29.86 31.01 30.76 30.50 30.66 30.06 29.85 30.29 30.07 28.96 28.12 26.78
33.40 30.00 29.75 30.71 31.38 28.80 29.31 30.72 31.86 33.20 35.78 43.96 40.09 36.04 33.72 32.81 34.89 33.99 30.23 31.93 27.59 28.03 30.48 32.52 31.69 29.97 30.22 30.33 30.34 30.41 30.73 30.50 30.14 30.54 30.08 29.56 28.79 27.94 27.37 27.85 27.24 27.37 26.81 26.05
30.82 28.32 30.11 29.61 29.71 25.92 26.69 28.30 28.23 31.57 35.88 32.81 35.82 32.09 28.04 35.09 30.55 27.02 28.57 25.63 28.91 30.99 31.14 32.15 31.24 30.15 30.22 30.90 31.15 30.91 30.99 30.50 30.04 29.86 29.36 28.70 28.84 28.66 26.90 24.29 24.71 24.55 24.30 24.12

GFSNW_sfc_wetblb_072.txt.gz
Wetbulb
49.21 49.43 49.57 49.55 49.88 49.86 48.29 42.87 33.73 46.28 50.93 36.56 37.14 32.65 36.96 40.57 40.67 43.71 43.07 43.98 43.28 42.97 43.53 44.42 42.74 42.11 44.74 50.02 48.37 44.85 48.56 46.30 41.56 43.67 48.42 49.32 48.00 46.08 46.70 41.15 39.54 43.17 40.34 40.99
48.76 49.07 49.33 49.49 49.53 49.59 45.90 38.41 38.46 46.86 47.71 31.03 31.63 36.95 37.09 39.81 39.55 40.80 41.88 41.58 44.13 46.55 44.85 41.60 45.33 45.18 48.81 49.13 47.31 45.58 48.25 44.10 39.03 41.16 45.24 48.27 45.11 46.57 47.52 47.32 46.05 41.33 37.79 40.46
48.73 49.07 49.26 49.14 49.35 49.59 46.72 37.46 31.91 39.51 42.36 41.67 36.80 34.57 35.23 35.79 41.25 40.64 42.92 42.82 44.09 42.67 43.43 46.10 44.03 45.00 47.23 49.77 48.53 46.77 48.18 46.23 42.90 38.58 42.12 45.55 43.10 45.03 46.69 46.67 40.93 42.06 42.43 44.05
48.61 49.00 49.25 49.14 49.18 49.39 46.40 37.47 35.70 40.22 32.29 34.58 37.18 38.05 36.81 35.55 35.70 40.56 42.18 40.93 41.67 40.14 38.55 42.09 42.55 45.62 46.19 47.12 47.71 48.27 47.60 43.01 45.12 45.03 45.41 45.61 44.74 44.52 45.07 43.86 44.94 41.94 44.87 44.31
48.57 48.80 49.10 48.93 48.88 49.26 44.07 33.21 36.89 40.85 38.89 38.04 36.18 37.06 36.23 35.86 38.03 38.58 37.66 38.64 41.85 42.40 39.26 40.88 41.36 44.36 45.31 44.22 47.89 46.03 47.02 41.13 44.31 42.63 45.21 45.43 43.25 45.63 45.73 45.12 44.98 44.72 45.37 44.78
48.60 48.78 48.64 48.86 48.82 48.44 43.08 42.09 44.61 41.33 38.29 36.92 34.93 35.21 36.83 37.45 39.82 41.12 41.94 41.24 41.46 41.13 42.52 45.24 47.46 47.97 48.20 47.20 45.14 45.74 44.84 42.91 41.03 37.49 44.09 43.11 37.46 43.47 44.72 45.09 46.40 45.81 42.33 46.98
47.86 48.52 48.80 48.87 48.70 48.45 45.79 44.34 42.85 38.56 34.31 37.32 36.73 37.57 38.51 38.48 40.08 39.08 41.88 43.45 41.56 46.60 50.29 50.20 47.54 46.04 46.30 46.28 46.05 47.10 44.04 43.33 41.64 37.83 38.26 31.69 43.57 48.80 47.78 46.10 46.40 47.71 47.63 48.51
47.37 47.64 47.91 48.22 48.63 48.80 46.21 46.05 42.60 40.93 36.51 38.48 37.27 38.94 38.87 40.03 41.59 40.74 41.24 43.77 46.20 48.50 47.16 41.56 38.01 37.88 40.08 42.40 45.19 44.79 46.66 44.63 37.75 35.94 36.40 41.27 43.84 46.43 46.24 44.95 44.56 49.15 47.96 49.18
46.75 47.04 47.20 47.52 48.29 48.98 47.25 45.22 48.17 44.41 38.93 38.05 40.86 38.65 40.19 38.08 38.99 39.84 42.47 46.24 48.31 48.10 44.73 40.40 33.78 32.02 36.15 36.74 40.42 45.92 44.96 45.92 40.76 38.60 34.34 31.61 43.26 48.25 50.95 49.86 39.97 49.64 49.92 50.23
46.60 46.67 47.15 47.45 47.67 48.14 47.37 44.77 48.45 44.37 39.31 42.28 42.66 38.79 39.53 42.48 40.98 40.03 42.00 43.23 43.42 48.96 40.87 36.49 33.96 34.10 40.35 34.68 35.87 36.91 38.31 39.75 37.47 36.69 35.14 41.03 47.85 48.94 50.24 38.99 41.52 50.51 51.63 51.61
46.56 46.43 46.96 47.42 47.68 47.53 47.35 44.61 48.32 44.31 40.87 42.81 45.05 44.65 41.56 42.62 42.69 39.26 42.85 41.20 42.01 42.58 37.81 37.20 38.00 37.06 39.21 37.59 40.64 39.87 38.82 37.29 37.14 38.53 35.53 34.12 50.25 48.84 42.81 47.30 52.46 53.20 53.56 53.84
46.34 46.14 46.52 47.12 47.35 47.07 46.96 42.14 47.30 48.98 43.53 42.97 48.30 46.81 48.68 46.01 47.08 45.01 45.73 42.44 42.82 43.48 41.44 41.66 41.74 40.47 42.04 39.91 33.80 42.71 33.62 40.96 40.98 42.03 42.33 51.35 52.37 50.48 51.85 52.69 52.98 53.89 54.75 54.77
46.25 45.97 46.42 47.00 47.14 47.07 45.88 44.09 46.00 45.83 41.93 41.25 43.44 43.30 48.74 51.19 51.25 52.89 43.56 45.28 47.58 47.04 47.87 45.23 45.20 40.25 43.07 37.61 39.07 41.28 44.16 46.74 40.74 41.07 46.26 48.63 51.16 52.96 54.08 53.12 53.11 54.35 55.34 54.58
46.05 45.72 46.23 46.83 47.32 47.24 46.81 44.03 46.28 45.18 41.60 36.65 39.50 48.40 46.38 51.43 51.70 51.27 51.16 48.58 50.58 50.43 49.22 45.55 44.85 41.77 46.93 41.43 43.53 41.31 45.30 45.47 43.02 42.85 45.90 47.04 48.12 50.70 52.56 53.11 54.42 54.15 54.19 54.33
46.00 46.19 46.44 46.95 47.03 47.46 46.62 46.89 47.38 48.12 42.56 36.29 39.21 45.22 47.59 49.37 49.16 48.64 49.53 48.25 47.00 44.33 41.77 45.37 42.70 45.81 45.97 47.75 46.23 43.56 45.97 44.54 43.00 43.56 48.32 48.59 49.15 51.21 51.52 52.65 53.29 54.65 53.53 52.86
46.11 46.40 46.93 46.94 46.84 46.79 44.96 38.81 46.09 47.73 49.85 41.56 35.59 45.05 44.73 47.05 48.12 47.12 46.43 47.11 46.85 46.40 43.36 43.30 46.98 49.58 46.71 44.28 40.61 46.00 47.66 47.75 47.82 48.43 51.30 50.95 51.77 50.40 50.76 49.74 51.32 52.60 53.48 54.00
46.27 46.25 46.20 46.60 46.69 46.05 42.16 40.25 44.38 48.29 49.63 41.35 36.69 37.59 43.67 45.92 46.44 46.35 45.86 47.45 45.60 45.56 44.42 42.84 45.26 46.34 46.40 44.49 39.01 44.63 47.35 48.18 49.10 50.63 51.12 49.54 50.80 48.71 48.67 48.92 48.94 49.26 51.06 51.25
45.65 45.78 45.86 45.98 46.18 46.21 43.97 46.91 46.82 48.61 44.45 42.33 35.23 35.09 38.55 45.89 41.41 40.15 43.56 42.54 43.23 43.87 43.21 45.84 45.51 47.38 47.21 40.47 44.22 47.02 48.38 48.72 51.09 51.12 50.89 49.93 49.44 48.56 47.31 47.36 47.55 46.92 46.99 47.62
45.63 45.90 45.83 45.39 44.62 41.78 42.28 45.30 45.47 50.69 44.00 36.41 35.97 33.45 32.92 39.37 41.11 42.69 42.87 41.80 34.13 43.79 42.59 44.24 46.27 43.94 39.82 44.20 45.37 46.81 48.26 48.21 48.72 50.37 48.64 48.28 47.53 46.90 45.92 46.07 45.86 43.66 43.77 44.87
45.43 45.32 41.31 35.81 42.07 44.81 45.58 43.94 40.56 40.28 41.48 41.90 35.33 39.76 34.85 37.14 34.55 38.17 39.73 40.08 36.24 36.06 41.35 45.68 43.01 41.37 46.59 45.08 49.37 50.19 50.20 50.08 49.25 46.13 44.82 46.25 45.12 44.56 44.93 44.24 44.33 43.94 42.95 42.03
44.17 39.82 36.83 42.56 44.87 44.45 40.68 35.47 34.60 36.65 33.56 38.40 38.78 38.71 35.65 37.54 32.35 32.47 41.87 38.00 40.46 35.27 39.62 40.00 38.95 39.08 40.68 42.86 45.48 47.67 48.74 48.65 47.46 47.58 47.52 47.83 46.20 43.71 41.53 35.78 34.48 33.60 31.71 30.03
43.31 42.44 44.39 44.60 40.07 36.09 33.88 32.16 34.88 34.05 31.93 38.27 37.03 35.87 37.93 36.72 38.07 34.49 39.46 35.25 37.73 33.43 41.03 36.93 34.13 33.46 37.02 37.29 36.90 40.55 44.09 43.74 41.86 40.49 38.32 36.75 35.51 35.03 32.72 31.03 30.36 29.76 29.35 28.64
45.91 42.10 37.21 36.74 33.93 30.05 29.41 26.78 29.92 32.60 38.01 37.70 37.10 33.85 36.04 34.80 36.91 34.87 34.34 32.89 32.89 38.29 33.79 32.77 31.89 33.99 34.87 34.72 33.57 32.53 34.82 35.09 34.24 33.25 32.77 31.50 30.60 31.02 29.44 28.01 28.46 28.32 27.63 27.69
39.27 34.44 30.35 31.98 30.68 31.02 31.00 32.86 34.79 35.06 38.87 36.89 38.18 36.25 36.08 35.43 31.80 34.52 31.80 34.34 36.09 33.25 31.32 29.39 30.83 31.73 31.76 31.19 30.48 29.54 29.28 29.75 29.51 29.29 29.64 29.44 29.11 28.96 29.59 29.59 29.33 28.19 27.40 27.44
33.71 33.87 27.62 28.75 31.53 30.49 31.22 33.02 34.26 32.72 35.74 40.17 39.20 39.09 38.46 34.87 34.16 35.97 34.70 32.69 28.95 28.09 27.06 29.69 31.55 31.88 30.28 29.29 29.53 29.71 29.61 29.61 29.59 29.95 29.32 28.85 28.72 28.48 28.13 28.28 27.62 26.67 25.27 24.61
32.36 29.16 28.50 29.26 28.79 25.23 27.26 27.05 27.89 31.59 30.32 35.73 39.74 36.15 33.98 32.51 34.62 32.17 28.45 29.65 23.77 26.63 29.61 30.57 31.41 30.47 30.08 29.94 30.32 30.18 30.14 29.67 29.29 29.25 28.75 27.91 26.75 26.37 26.67 27.02 26.78 26.27 25.82 25.14
30.31 28.50 28.97 28.67 26.87 25.49 24.14 25.93 26.90 30.32 31.21 32.89 36.01 30.21 29.11 35.87 30.10 25.39 26.95 24.70 27.88 29.72 29.85 30.74 30.82 30.03 29.96 30.53 30.25 29.89 29.78 29.18 28.78 28.65 28.11 27.41 27.25 26.39 24.96 22.90 23.60 24.05 23.95 22.78

GFSNW_sfc_wetblb_075.txt.gz
Wetbulb
48.46 48.83 49.26 49.56 49.70 49.74 47.95 42.69 33.17 46.05 47.52 35.65 34.71 29.50 33.59 37.95 37.12 40.13 38.44 38.42 37.48 36.97 38.11 36.99 36.85 40.28 41.91 46.32 45.80 43.01 43.91 42.50 36.99 39.98 46.09 48.04 45.93 42.33 42.67 35.82 35.74 36.77 32.64 33.47
48.08 48.70 49.00 49.38 49.62 49.65 45.26 37.36 37.56 45.70 44.68 30.38 30.68 34.12 34.29 35.88 35.70 36.92 37.01 35.95 39.38 39.79 37.72 35.32 39.50 43.07 46.54 45.95 44.78 42.77 44.23 39.94 33.64 36.75 41.82 45.53 42.50 43.62 44.47 43.45 40.83 36.07 29.95 34.79
48.33 48.45 48.76 49.14 49.47 49.83 45.97 35.66 31.12 38.46 41.09 38.98 34.44 31.88 32.32 32.90 38.18 36.80 38.41 37.58 39.17 37.33 36.91 41.04 37.77 39.10 46.51 46.56 45.98 46.78 46.40 41.55 37.84 32.96 37.91 43.25 40.02 42.88 43.79 41.85 33.95 35.86 36.44 39.92
47.82 48.19 48.64 48.96 49.31 49.60 45.90 37.09 33.01 37.38 31.64 34.39 34.80 34.80 33.95 32.15 32.27 37.58 38.74 35.59 35.78 36.01 33.85 37.12 36.12 42.09 42.91 45.70 45.81 45.72 44.69 37.66 40.16 41.77 43.44 44.75 43.07 42.35 42.11 40.51 41.72 38.93 40.37 41.46
47.65 47.97 48.30 48.62 49.06 49.26 43.51 32.78 34.87 38.04 35.47 35.73 35.16 34.20 33.59 32.70 34.23 35.69 34.60 33.92 36.08 37.13 34.27 37.99 35.76 39.87 41.94 41.06 44.17 42.18 43.96 37.36 40.36 38.46 42.89 43.08 41.59 42.88 42.79 42.66 43.20 42.17 41.95 42.61
47.80 47.99 48.04 48.27 48.61 48.50 42.09 41.55 41.88 38.85 35.57 35.02 32.34 32.45 33.13 34.65 37.18 38.21 38.55 37.98 35.87 34.26 37.25 43.62 44.97 46.48 45.03 43.94 42.19 41.27 42.15 39.39 37.68 33.68 40.75 40.60 33.19 39.21 42.72 43.10 44.75 43.10 38.78 42.41
48.07 48.08 48.01 48.13 48.48 48.33 45.35 42.99 41.46 35.37 32.32 33.14 33.92 35.10 35.42 34.90 37.16 35.85 38.87 39.97 37.09 40.03 43.59 48.70 46.57 44.90 44.97 43.50 41.32 44.18 40.66 40.74 37.96 32.64 34.73 29.11 40.14 45.03 44.75 43.32 45.03 44.73 44.47 44.51
47.57 47.64 47.78 47.86 48.11 48.57 46.17 45.36 41.15 36.97 30.87 36.03 35.13 35.80 35.73 36.87 38.32 37.57 38.28 41.01 42.60 42.62 41.56 38.76 35.81 35.73 37.08 39.15 42.13 42.34 43.36 41.04 34.33 32.33 32.62 37.44 41.46 43.68 42.48 41.69 40.81 46.14 44.25 45.11
46.60 46.81 47.25 47.69 48.25 48.64 47.38 45.48 45.24 40.49 34.19 33.34 38.97 36.41 37.49 34.19 33.92 35.37 38.02 43.22 43.35 41.36 36.60 35.15 29.22 27.73 34.44 34.73 38.80 43.71 43.54 42.27 36.06 33.46 29.42 27.18 38.99 45.58 47.29 46.48 35.17 46.29 46.31 45.78
46.55 46.51 46.81 47.12 47.84 48.31 47.51 45.19 46.68 41.58 35.74 38.86 40.14 36.03 35.29 39.41 37.18 34.39 37.59 39.23 38.74 41.61 31.86 29.16 28.20 30.08 37.42 31.45 31.86 32.69 32.73 34.78 33.10 29.56 31.00 35.20 45.05 47.29 47.65 34.97 35.08 47.19 48.02 46.60
46.76 46.80 46.60 46.76 47.22 47.88 46.98 45.25 47.04 42.68 38.28 39.91 41.88 43.43 39.61 39.02 38.89 34.04 37.38 37.50 36.96 34.81 30.06 30.66 30.52 27.63 34.59 34.14 37.35 36.58 34.71 32.59 32.54 33.71 31.78 30.78 47.23 45.93 40.90 42.93 46.35 48.52 48.06 46.60
46.54 46.70 46.63 46.62 46.95 47.39 47.26 42.11 46.93 47.08 42.18 40.37 46.05 46.38 46.00 44.19 43.27 40.81 40.09 38.25 37.42 37.86 34.58 34.46 34.65 30.23 30.40 32.23 27.64 40.97 35.00 38.99 36.62 38.76 35.95 44.91 47.85 46.64 48.96 48.93 48.35 48.72 47.94 49.68
46.42 46.61 46.64 46.73 47.07 47.18 46.48 41.61 44.80 44.49 40.78 40.48 41.96 40.09 45.64 48.05 46.24 47.58 40.00 39.58 41.78 40.17 42.42 38.60 36.84 30.89 36.24 26.70 30.73 35.32 39.96 42.30 38.15 37.82 41.58 43.21 47.41 47.95 48.87 50.17 49.63 50.54 50.53 49.60
46.26 46.82 46.75 46.71 46.85 47.33 46.33 41.40 44.57 43.65 38.02 33.28 37.91 46.89 45.53 48.44 48.37 48.25 47.87 45.94 45.28 44.55 42.51 37.78 38.86 33.41 40.13 33.48 37.61 36.09 39.92 41.38 39.57 39.11 42.03 44.11 46.67 46.95 47.73 48.27 49.57 50.97 51.36 49.77
46.13 46.63 46.65 46.66 46.75 47.16 45.13 44.08 45.96 45.84 41.57 35.07 36.52 43.64 46.18 48.36 47.36 46.69 45.46 45.23 42.64 40.44 37.73 33.64 35.03 38.87 40.25 39.38 38.59 35.76 42.00 40.40 38.22 35.81 43.71 43.59 45.09 47.04 49.51 48.86 49.72 50.23 50.15 48.93
46.38 46.17 46.22 46.66 46.78 46.05 43.47 38.38 45.47 47.29 46.73 39.26 32.27 42.41 42.88 44.39 45.34 44.44 43.12 43.88 42.80 41.34 37.96 36.80 41.49 42.59 40.28 35.16 33.30 41.65 43.96 44.65 44.62 43.72 47.05 48.11 48.15 47.52 47.85 47.66 47.72 48.23 48.48 48.87
45.44 45.92 46.54 46.49 45.85 44.94 39.48 36.61 43.10 47.34 46.86 39.09 32.39 32.68 40.10 43.84 43.18 42.17 42.03 43.39 40.96 40.93 38.93 36.99 39.73 40.65 40.05 37.21 30.71 41.46 44.55 45.58 45.67 44.88 47.22 44.74 45.72 44.36 46.16 45.69 46.07 46.78 46.65 45.96
46.19 46.58 46.68 46.36 46.13 45.87 42.75 45.48 46.55 47.20 42.88 40.63 29.49 28.54 34.81 40.53 36.19 35.18 41.00 38.35 39.14 39.14 37.90 37.93 38.98 40.71 39.79 32.52 39.38 41.65 43.72 44.95 47.54 47.12 46.74 46.39 45.98 44.80 44.11 44.89 44.26 42.93 42.03 41.88
46.56 46.45 46.42 44.98 43.13 40.11 42.11 46.81 47.09 47.31 42.12 31.30 29.62 26.68 25.69 37.74 36.49 37.74 37.92 38.78 32.88 37.92 31.17 37.27 39.52 36.81 34.39 39.89 41.55 42.74 43.92 44.25 44.23 46.10 45.66 45.48 43.61 43.38 43.57 42.59 42.11 40.44 37.67 31.84
45.99 44.68 38.60 32.98 40.74 46.07 45.67 42.77 38.74 38.73 38.81 37.75 28.82 33.26 29.14 35.77 33.94 32.82 34.01 35.15 33.07 30.61 32.86 40.41 34.68 34.49 40.87 40.81 43.55 45.26 45.33 45.21 44.92 42.57 41.56 41.81 41.33 40.39 38.80 34.87 34.41 32.69 31.45 30.00
42.77 37.47 35.87 41.57 45.31 42.80 38.57 32.20 32.29 34.14 30.02 33.53 33.28 33.58 31.92 36.11 31.88 29.61 34.53 32.42 32.93 27.16 33.85 32.60 32.40 33.43 37.56 38.28 38.42 41.73 40.13 39.61 38.63 38.72 41.76 43.02 38.91 35.29 32.23 30.48 30.15 28.83 27.35 25.52
40.77 40.51 42.98 42.18 38.78 35.10 30.46 28.59 30.52 29.49 27.88 32.62 33.11 33.26 32.51 34.31 36.41 29.81 33.62 32.49 32.51 28.84 38.05 33.10 31.13 31.44 34.70 34.39 33.44 35.73 36.54 35.45 33.79 33.88 32.81 32.48 31.79 30.99 29.58 28.37 27.32 26.73 26.84 26.44
42.30 40.05 34.45 35.11 31.02 27.09 22.75 21.34 24.55 25.41 29.25 33.96 33.11 30.47 32.34 34.18 35.59 31.83 31.69 30.39 31.00 34.84 32.60 29.96 29.50 31.72 32.38 32.34 31.87 30.93 32.03 31.74 30.89 30.48 30.08 29.55 28.82 28.93 28.01 26.57 26.76 26.10 25.00 25.03
36.33 33.11 27.62 29.68 25.78 27.68 26.44 29.60 31.95 32.42 33.70 32.46 32.74 33.16 31.39 32.22 29.82 31.63 30.94 32.36 33.80 31.09 28.14 25.27 28.33 28.86 28.78 29.48 30.00 29.06 28.26 28.91 28.84 28.56 28.73 28.16 27.56 27.22 27.37 26.75 26.39 25.17 24.30 24.64
29.65 28.49 23.74 24.10 28.48 27.07 28.61 29.15 30.85 29.82 31.55 32.96 33.38 32.46 34.34 31.69 31.31 32.05 31.50 30.38 25.44 25.04 22.91 27.04 28.41 28.66 28.77 28.80 28.85 28.59 28.33 28.01 27.57 27.40 26.44 25.78 25.69 25.17 24.60 25.50 25.52 24.81 23.62 23.11
27.74 25.33 24.50 25.57 24.32 22.50 23.78 24.10 25.75 29.65 28.65 31.91 34.23 33.34 31.95 30.73 30.47 26.01 24.09 25.02 20.40 22.74 26.59 28.43 28.47 28.12 28.29 27.87 28.02 27.89 27.64 26.63 26.12 26.10 25.84 25.25 24.50 23.92 24.01 24.61 24.34 23.69 23.05 22.22
28.02 22.40 24.46 24.60 22.53 22.75 24.22 25.43 25.56 29.16 28.29 31.69 31.59 27.06 26.47 31.55 24.70 22.21 24.83 21.28 24.55 26.39 27.28 28.68 28.79 27.86 27.73 27.87 27.80 27.42 26.96 26.02 25.65 25.28 24.96 24.47 24.92 24.54 23.26 21.84 22.89 23.15 22.55 21.33

GFSNW_sfc_wetblb_078.txt.gz
Wetbulb
47.41 47.62 47.91 48.33 48.77 48.93 47.60 42.39 33.42 45.62 47.05 34.85 35.07 28.77 31.00 36.63 35.09 38.17 36.34 36.06 34.40 32.64 34.66 33.40 34.26 34.28 39.13 45.03 43.80 39.37 42.98 39.43 34.53 37.68 43.71 44.32 44.64 42.33 41.25 33.31 33.45 34.91 31.88 35.30
46.91 47.33 47.60 48.05 48.33 48.82 45.44 37.80 36.76 45.66 44.06 29.24 30.73 34.63 33.12 33.82 33.72 34.59 35.21 34.81 36.59 37.49 34.62 31.05 37.21 38.47 43.73 43.53 43.93 41.27 41.24 37.98 31.07 35.45 39.87 42.87 40.60 41.91 43.04 41.87 39.25 35.05 30.21 33.89
47.02 47.08 47.57 48.25 48.39 49.00 45.91 34.13 30.84 37.85 40.28 37.04 33.64 31.97 32.07 31.22 36.25 33.44 35.12 34.82 36.53 34.41 32.90 36.75 34.48 37.89 41.95 44.63 44.53 45.83 44.85 38.97 36.90 31.99 35.57 40.07 38.49 41.84 43.39 41.92 34.17 35.06 34.95 37.95
46.88 47.33 47.78 48.01 48.45 48.59 45.87 33.78 32.45 37.39 30.57 33.04 33.77 33.70 33.71 31.27 30.84 36.82 36.98 33.41 32.97 32.02 29.93 32.52 32.64 38.56 40.61 42.43 44.53 44.60 43.49 35.53 38.03 39.64 41.45 42.07 40.81 40.50 42.11 40.62 39.71 36.20 38.67 38.94
47.38 47.45 47.58 47.81 48.29 48.57 42.36 31.77 34.38 37.57 32.72 35.71 33.77 33.52 32.30 31.51 33.00 33.09 32.14 31.99 34.29 34.33 30.78 32.72 31.48 37.91 39.22 38.88 42.14 41.95 42.77 34.68 37.62 35.85 40.71 41.52 39.15 41.64 42.68 41.90 40.71 39.78 41.53 39.94
46.89 47.32 47.52 47.57 47.86 47.35 40.97 41.38 39.34 38.38 34.72 33.69 32.51 32.01 31.91 33.65 34.89 36.23 36.80 35.89 34.73 32.96 34.94 38.40 39.23 42.25 43.82 42.80 40.08 38.99 39.20 37.48 34.14 30.82 38.97 39.21 32.76 38.39 42.28 41.87 42.28 41.41 37.04 41.05
47.11 47.30 47.30 47.32 47.59 47.58 43.90 42.57 40.60 34.70 31.17 31.78 32.17 33.65 35.27 34.06 34.86 33.20 37.46 38.38 34.90 38.14 41.71 41.97 43.94 43.75 43.09 42.52 41.27 41.39 37.28 36.66 34.45 30.02 33.99 27.54 37.70 43.94 45.31 43.12 43.34 43.49 42.45 43.15
47.51 47.30 47.34 47.47 47.58 47.99 44.90 45.02 40.64 36.34 30.66 34.81 33.89 34.07 34.14 35.73 36.65 35.18 35.67 38.67 41.66 41.63 37.85 34.26 32.37 33.13 35.18 37.77 40.41 40.05 41.59 38.17 31.12 30.16 30.48 35.23 39.14 42.62 41.80 41.45 40.41 44.03 43.73 44.17
46.70 47.04 47.18 47.34 47.71 48.25 46.29 44.55 45.60 40.10 33.98 32.37 37.37 34.92 35.53 32.34 32.46 33.49 35.79 40.93 43.43 39.84 34.86 32.49 26.27 23.15 31.28 31.92 36.55 43.08 42.22 40.54 34.59 30.47 28.66 24.67 36.39 43.61 46.73 45.59 35.19 44.98 45.52 45.16
46.17 46.38 46.61 46.98 47.54 47.92 46.87 44.69 46.53 41.79 35.45 37.66 38.26 35.31 34.85 37.40 35.19 31.77 34.90 36.57 36.78 39.44 30.61 27.44 24.82 26.22 34.59 29.01 29.45 32.64 32.77 34.19 31.28 28.95 30.20 33.34 42.51 45.24 46.84 35.77 34.96 45.05 46.48 46.06
46.58 46.49 46.37 46.57 47.01 47.60 45.93 44.16 47.19 42.08 37.63 38.35 40.08 41.98 38.21 37.44 36.96 31.66 35.36 34.49 35.13 32.72 27.97 28.31 27.04 24.61 31.81 33.30 35.92 34.89 33.45 31.76 31.85 32.77 30.08 28.86 44.68 45.08 39.43 42.12 44.27 46.85 47.47 47.19
46.26 46.58 46.63 46.56 46.78 47.10 47.05 41.27 47.30 46.55 40.54 39.68 43.31 43.62 44.99 43.53 42.72 38.26 37.38 35.64 36.10 36.23 31.83 30.05 30.31 27.16 28.41 32.12 28.00 38.21 31.85 38.06 34.90 35.10 34.54 44.00 45.08 45.74 47.61 46.79 46.47 47.66 48.30 48.37
46.51 46.64 46.95 46.84 46.87 47.01 46.30 43.20 44.52 44.02 39.99 39.99 40.29 39.91 44.36 46.98 45.45 45.26 36.88 37.35 41.19 38.81 39.53 35.58 33.97 29.21 33.73 27.23 30.74 34.30 39.55 42.25 38.31 38.16 41.82 43.37 44.44 45.33 47.42 47.28 47.47 48.68 49.08 47.94
46.30 46.51 46.58 46.74 46.77 47.10 46.65 42.14 44.63 43.53 37.48 33.48 37.05 45.60 42.83 47.26 46.89 46.32 44.67 42.53 44.00 44.56 40.34 36.72 32.38 28.82 37.75 31.46 35.20 35.00 37.68 40.76 38.65 37.21 40.60 42.09 43.52 44.61 45.83 47.61 48.83 50.34 50.14 48.67
46.32 46.72 46.67 46.60 47.15 46.86 45.45 43.71 44.69 44.58 40.27 33.66 34.15 42.51 45.32 46.12 46.86 46.14 44.91 44.19 42.78 40.52 37.18 34.60 32.99 36.17 36.72 36.23 36.03 34.54 40.56 38.59 34.69 33.68 41.63 41.39 42.57 45.23 47.35 47.25 47.83 49.06 49.26 48.54
46.00 46.53 46.48 46.67 46.88 46.42 42.64 37.64 43.49 45.83 46.39 39.35 32.21 39.82 42.70 45.03 45.51 44.60 42.60 42.78 43.71 42.37 37.46 35.23 39.01 41.83 37.63 31.55 32.93 38.28 41.37 41.85 42.77 42.16 44.48 44.23 45.55 46.38 47.55 46.45 46.37 46.74 46.94 47.57
45.95 46.48 46.35 46.39 46.58 43.90 39.04 36.63 40.61 45.30 45.81 39.04 33.12 34.13 40.27 44.48 44.03 43.06 41.69 42.15 41.88 41.52 39.19 35.91 36.99 37.71 37.94 32.36 31.70 38.94 41.83 42.15 43.72 44.31 45.77 43.47 44.83 44.46 45.03 44.95 44.42 43.20 41.69 41.69
46.10 46.28 46.14 45.62 45.35 45.02 41.33 44.44 45.76 45.63 43.37 40.06 32.04 32.68 36.53 40.81 36.92 37.07 40.59 37.62 37.74 38.13 36.37 35.56 34.86 37.22 35.51 32.54 37.13 40.31 42.66 43.31 42.79 45.78 45.50 45.26 44.25 43.95 43.17 42.56 41.12 35.77 33.58 33.32
45.54 45.66 45.75 44.01 41.58 39.79 42.19 46.14 46.97 47.30 41.76 32.04 26.16 26.66 30.07 38.33 36.29 35.96 35.89 36.44 32.90 35.30 28.02 33.24 34.69 32.62 30.59 36.91 39.65 40.26 41.86 41.41 42.53 44.10 43.77 43.48 42.51 41.95 41.27 38.82 35.46 32.43 29.92 29.19
45.40 43.02 38.19 32.15 38.79 46.24 45.34 41.14 37.09 38.21 37.09 34.71 25.72 30.12 31.34 34.75 31.82 31.67 32.09 29.94 26.88 29.83 32.73 37.06 28.80 29.48 39.76 39.77 38.82 39.26 38.54 37.99 43.04 40.34 38.86 39.93 38.23 35.44 33.62 32.39 31.86 30.04 28.32 27.09
40.23 36.41 32.33 41.78 45.70 42.01 37.45 32.13 31.37 33.51 30.23 32.39 31.43 31.20 30.33 34.53 29.85 29.02 30.03 32.17 32.82 27.47 28.93 30.18 30.23 30.04 36.29 37.87 37.34 37.10 37.29 35.74 36.42 39.25 39.32 38.62 35.74 31.72 29.77 27.66 27.40 27.08 26.29 25.04
38.94 39.37 42.12 40.75 37.98 33.27 28.75 25.74 29.10 28.45 27.56 30.29 29.64 33.39 32.92 32.39 34.06 26.94 29.04 32.20 31.74 25.05 32.70 29.48 27.70 30.46 33.82 33.08 32.08 33.57 34.32 33.79 33.37 34.03 33.05 32.38 31.58 30.01 27.93 26.67 25.80 25.38 24.66 23.23
42.34 37.84 33.36 33.04 30.08 22.99 18.64 19.78 25.90 27.34 29.57 32.99 31.94 31.10 31.60 33.48 34.90 30.52 30.13 30.08 28.03 34.85 30.60 29.11 27.40 30.13 30.95 31.59 30.93 30.50 31.53 30.90 30.01 29.00 29.18 28.78 27.82 27.65 26.42 24.96 25.19 24.80 23.90 24.16
34.16 27.76 19.89 20.48 20.65 24.22 23.94 26.91 29.96 29.93 31.73 30.73 28.75 31.18 31.62 32.11 30.01 30.38 29.01 32.33 32.87 29.72 26.34 22.91 26.20 27.21 28.33 29.48 29.83 28.82 28.10 28.26 27.49 26.95 26.69 25.85 25.15 24.59 25.14 24.97 25.01 24.01 23.08 23.49
27.00 26.95 19.39 22.34 25.22 25.28 26.06 27.35 28.55 28.23 30.03 31.71 29.19 32.83 33.57 30.96 30.26 30.99 30.76 28.95 22.91 22.16 19.55 24.83 26.56 28.23 28.31 27.72 27.74 26.89 26.22 25.47 25.09 25.16 24.51 24.15 24.13 23.75 23.24 24.32 24.63 24.01 22.99 22.44
26.34 23.09 20.56 22.43 22.90 21.03 23.01 23.23 23.63 28.05 27.98 30.94 32.13 32.68 31.18 29.69 26.99 24.40 21.97 22.17 17.06 19.22 24.37 26.47 27.23 25.93 25.66 25.26 25.32 25.28 25.26 24.78 24.47 24.47 24.23 23.90 22.95 22.21 22.12 22.72 22.48 21.78 21.47 19.92
24.41 19.87 22.51 19.49 21.48 20.48 21.73 22.79 23.54 27.51 27.79 29.74 30.58 23.42 22.65 28.08 22.26 20.37 22.81 19.16 22.44 25.34 26.00 27.00 26.62 25.31 25.00 25.30 25.03 24.69 24.49 23.95 23.77 23.91 24.01 23.72 24.41 24.01 22.23 20.29 21.56 21.74 21.31 20.60

GFSNW_sfc_wetblb_081.txt.gz
Wetbulb
46.51 46.64 46.89 47.27 47.56 47.82 46.40 40.89 32.17 44.00 45.80 34.04 34.33 28.30 29.42 35.60 34.16 37.06 34.55 34.55 32.37 30.81 31.83 30.50 31.39 32.90 36.79 42.42 42.69 37.85 42.05 37.02 32.83 36.48 42.00 42.88 41.99 40.42 40.32 32.56 31.69 33.05 31.21 33.95
46.43 46.42 46.76 46.99 47.36 47.95 43.61 36.73 37.10 45.13 43.44 27.53 29.05 32.92 32.28 32.80 32.04 33.30 33.56 33.57 34.73 34.88 31.26 27.84 32.02 33.83 41.98 43.73 41.90 39.35 41.48 35.46 28.94 33.05 37.93 41.65 38.49 39.94 40.97 39.38 36.89 32.53 29.63 32.31
46.44 46.46 46.51 46.72 47.29 47.91 43.89 34.66 30.25 37.58 39.70 36.05 31.02 30.52 31.54 31.47 35.31 32.61 33.82 33.43 34.76 32.40 30.68 33.46 31.19 33.96 40.42 43.79 43.38 44.91 44.05 38.80 34.97 29.54 33.29 37.85 36.08 39.53 40.66 40.22 32.06 32.66 35.51 37.65
46.48 46.63 46.63 46.67 47.09 47.48 43.82 35.73 31.76 36.79 29.81 32.27 33.36 32.54 32.66 31.41 30.47 34.57 34.55 31.54 31.00 29.98 26.94 29.33 29.32 33.15 35.51 41.78 43.30 41.30 42.10 34.58 36.80 37.79 39.16 40.38 39.49 38.68 39.30 37.80 37.79 34.61 36.55 39.00
46.33 46.87 47.01 46.89 47.06 47.42 41.74 32.47 33.66 37.63 31.86 34.33 33.64 32.84 31.35 30.73 32.56 32.86 31.82 31.75 33.75 32.47 28.60 30.02 28.25 32.38 32.69 36.20 40.75 38.58 40.05 34.33 36.16 34.10 38.31 39.66 38.44 40.51 40.71 39.36 39.34 39.73 39.31 39.66
46.71 46.93 46.83 46.98 47.02 46.78 40.44 40.94 39.41 36.55 34.13 32.51 32.27 31.55 31.35 32.26 33.83 35.44 35.81 34.69 33.07 31.40 33.33 36.08 36.68 36.73 37.32 39.12 39.38 35.04 33.93 35.06 32.14 29.72 36.91 38.08 32.40 37.42 40.12 40.86 40.30 39.66 36.26 41.13
46.60 46.64 46.72 46.92 47.39 46.96 43.23 42.12 39.96 34.73 29.97 31.47 31.56 33.59 33.72 32.93 34.79 32.31 36.33 36.75 33.31 37.05 40.83 39.42 38.32 37.38 36.91 37.64 39.85 40.62 34.54 33.03 34.01 28.23 30.75 27.10 36.68 42.63 43.13 41.70 42.43 43.57 42.70 43.26
46.63 46.61 46.64 46.79 47.12 47.37 43.63 43.84 39.87 35.70 30.21 33.91 32.44 33.52 33.91 35.14 35.90 34.57 35.41 37.49 39.93 41.31 38.52 33.42 29.51 29.17 32.11 35.09 39.44 39.76 39.52 35.04 31.49 29.70 28.36 32.58 36.80 39.99 39.86 39.78 39.17 44.74 42.20 43.95
46.45 46.56 46.88 46.86 47.07 47.57 44.95 43.33 45.18 39.41 33.67 31.55 36.31 33.22 34.27 32.02 32.44 33.14 35.08 39.83 42.12 38.28 34.72 31.63 27.53 21.09 27.77 28.87 35.94 40.55 39.27 38.78 33.63 31.88 28.81 23.44 33.46 41.36 45.39 45.01 34.50 44.54 44.84 43.79
45.99 46.31 46.46 46.80 47.22 47.28 45.30 43.17 45.38 41.23 34.56 37.41 37.24 33.56 33.59 36.37 34.51 32.14 34.58 36.17 35.10 38.03 31.26 28.91 27.73 25.90 32.11 25.53 28.24 31.21 32.87 32.95 31.32 31.79 30.83 31.46 39.43 43.69 46.00 34.07 34.17 45.36 45.94 45.37
45.97 45.99 46.10 46.43 46.83 47.46 46.14 42.91 45.88 41.87 37.10 38.83 39.39 40.10 37.02 37.08 36.46 31.38 35.14 33.99 32.76 31.67 26.99 27.74 27.27 22.71 28.32 29.01 32.94 32.17 30.93 30.08 29.89 32.36 30.01 26.98 42.55 43.69 37.85 41.16 44.87 44.95 46.59 46.77
45.76 46.03 46.15 46.36 46.57 46.92 47.13 41.75 46.16 45.79 39.50 39.57 43.08 42.36 43.71 42.88 42.15 38.25 37.93 34.69 34.80 34.24 30.11 28.76 28.45 24.71 24.47 29.29 25.34 36.45 31.26 34.73 32.91 35.31 33.97 41.71 43.55 43.78 46.95 46.92 45.18 46.30 46.93 48.15
45.96 46.22 46.47 46.45 46.69 46.90 45.97 42.90 44.18 44.15 39.03 38.88 39.16 37.96 42.66 45.69 45.15 45.02 37.01 36.49 39.71 39.24 38.43 33.26 32.24 27.32 30.35 23.96 28.68 33.03 36.14 40.89 36.63 36.95 40.08 41.42 44.02 45.32 45.42 47.60 46.88 47.73 48.63 48.04
45.99 46.18 46.40 46.47 46.71 47.01 46.50 42.04 44.42 42.62 38.91 32.84 36.56 43.23 41.23 45.76 45.83 45.10 44.98 43.07 44.19 42.30 41.56 36.74 31.25 28.52 35.20 28.76 32.24 32.57 36.76 40.28 38.58 37.50 40.32 41.94 42.83 43.47 45.41 46.37 48.03 48.28 49.71 48.59
46.40 46.31 46.63 46.84 46.77 46.82 46.04 44.05 44.46 43.73 39.50 33.27 34.51 39.77 43.21 44.84 45.46 44.20 44.43 43.96 41.75 39.21 35.93 32.98 32.57 34.68 34.99 33.81 34.37 32.09 38.60 37.72 35.24 34.17 41.39 40.17 41.18 43.65 45.26 44.81 46.36 47.97 47.84 47.38
45.97 46.34 46.66 46.68 46.79 46.48 43.85 37.61 43.42 44.90 44.05 38.92 32.45 39.14 40.09 42.94 43.82 42.81 43.09 43.31 42.62 40.46 37.96 33.01 38.39 41.53 36.96 26.02 29.64 36.72 39.05 40.41 40.35 38.51 42.01 42.16 43.38 44.77 45.38 45.25 45.18 44.65 44.60 46.35
45.95 45.96 46.29 46.66 46.47 45.05 38.23 35.23 40.48 45.22 45.37 37.61 32.63 30.96 38.87 42.65 41.96 41.59 41.41 42.36 41.66 40.44 38.00 34.57 35.76 38.15 39.01 28.79 28.09 37.27 40.50 40.73 41.17 42.24 40.92 41.46 43.62 42.92 44.48 43.27 40.16 38.99 40.09 40.08
45.96 46.15 46.45 46.22 46.15 44.51 41.39 42.16 45.62 45.22 41.96 38.23 31.35 32.86 35.15 40.96 37.85 36.92 40.82 38.82 38.83 39.67 37.81 36.14 34.34 37.62 34.78 28.96 34.43 37.41 40.56 42.16 42.32 41.27 41.66 42.43 43.42 42.45 40.77 39.28 37.34 33.04 30.35 30.09
46.38 46.38 45.66 43.84 42.05 39.50 42.22 45.41 45.42 46.23 40.59 32.77 28.34 30.46 29.50 39.21 37.15 38.39 37.76 38.33 32.47 36.48 31.50 33.18 35.02 30.98 29.99 33.93 35.98 38.88 40.00 39.94 39.25 38.67 40.78 41.88 40.61 38.91 36.99 35.70 33.17 29.74 27.18 27.00
44.61 42.40 37.62 32.12 40.55 45.69 45.02 40.06 36.92 37.79 38.30 35.67 30.72 32.31 31.70 36.58 33.70 32.45 33.45 32.48 31.01 29.77 32.68 34.96 27.43 29.04 35.66 38.02 39.65 38.91 37.80 36.36 36.92 37.75 37.21 37.42 36.21 35.22 33.07 31.06 29.95 28.11 26.33 25.91
40.43 35.33 34.25 42.16 45.08 39.93 37.45 31.11 31.67 32.96 29.87 32.04 29.45 31.87 31.37 33.85 30.16 32.00 30.85 31.24 30.57 26.66 27.37 29.60 28.03 28.65 33.63 37.02 36.30 36.33 35.75 35.66 35.06 35.31 36.38 35.24 33.52 29.24 27.67 26.79 27.11 26.61 25.98 24.51
39.57 39.84 42.67 41.79 36.05 32.72 30.02 29.40 30.22 26.52 26.91 29.67 29.32 26.78 28.93 33.16 34.09 30.87 31.65 31.05 31.26 26.97 29.81 26.63 27.05 30.40 32.27 32.27 31.38 32.36 32.86 33.58 32.99 32.30 30.44 29.54 28.74 27.80 26.75 25.60 24.39 24.14 23.86 23.20
42.12 38.53 33.34 33.16 27.77 20.88 20.64 21.14 27.60 27.55 31.15 32.43 30.81 29.26 32.02 33.07 33.13 30.68 31.62 29.59 28.31 31.88 30.63 29.19 26.41 29.04 29.61 30.60 30.18 29.67 30.32 29.53 29.15 28.25 28.21 27.58 26.65 26.62 25.89 23.89 24.16 24.09 23.17 23.29
32.06 26.96 18.41 16.77 12.99 20.26 22.12 24.35 27.94 28.16 31.29 29.52 31.51 31.23 31.49 31.70 29.15 30.05 28.28 28.99 32.07 28.24 25.87 20.97 24.65 26.75 27.89 28.68 29.12 28.12 26.72 27.00 26.30 25.69 25.63 25.32 24.54 23.88 24.17 23.89 23.71 22.78 21.85 21.73
25.01 24.82 17.67 19.91 23.88 24.28 24.91 26.38 27.24 27.05 29.89 31.65 32.17 32.12 32.73 30.34 28.24 30.15 29.67 27.43 18.82 20.69 17.39 19.70 25.81 27.20 26.94 25.89 26.19 25.28 24.78 24.41 24.01 24.23 23.65 23.37 23.27 22.90 22.38 23.38 23.34 22.16 20.40 19.28
24.91 21.37 19.36 21.05 20.53 18.90 20.89 21.17 22.85 26.86 26.84 30.93 33.30 31.00 30.48 26.49 24.26 22.34 19.09 18.40 14.89 19.57 22.36 25.14 25.37 24.35 24.42 23.92 24.39 24.27 24.41 23.98 23.44 23.03 22.91 22.31 21.57 20.72 20.60 21.28 20.90 20.82 20.20 18.99
22.28 18.70 20.78 19.64 19.28 17.19 18.80 20.02 21.56 25.53 27.17 27.46 29.01 22.21 20.45 27.18 20.30 19.05 21.28 15.24 20.46 23.49 23.75 24.78 24.46 23.43 23.12 23.80 23.89 23.99 23.76 23.03 22.61 22.41 22.51 22.21 22.71 22.31 20.67 18.56 19.30 19.41 18.58 17.33

GFSNW_sfc_wetblb_084.txt.gz
Wetbulb
45.58 45.61 45.71 46.38 46.70 47.03 44.16 39.03 30.94 41.54 44.82 33.04 33.18 27.67 29.28 34.65 32.41 35.94 32.97 33.66 31.61 28.89 29.88 28.32 28.39 30.59 34.41 40.46 41.78 37.35 40.53 37.12 29.65 34.27 40.60 41.95 39.18 37.51 38.30 32.64 29.92 31.03 29.96 32.95
45.17 45.62 45.99 46.03 46.46 46.53 38.78 34.95 35.37 42.69 41.83 26.97 27.23 31.38 31.20 32.85 30.79 31.78 32.23 32.02 33.69 33.37 29.22 25.75 29.36 30.94 38.12 41.93 41.32 38.58 39.30 35.96 30.42 30.44 36.32 39.35 36.31 38.32 39.00 37.95 35.28 31.54 29.46 31.56
44.87 45.30 45.91 45.79 46.10 46.62 40.89 35.50 29.29 35.68 38.63 34.17 29.07 27.90 28.87 29.00 34.96 31.50 32.31 32.29 32.97 31.19 28.89 32.32 29.40 30.51 35.45 38.06 37.04 44.69 41.70 35.82 33.89 29.90 32.40 37.16 34.74 37.45 39.51 38.11 31.37 32.98 34.42 34.87
45.44 45.80 45.53 46.38 46.48 46.27 41.15 35.70 31.19 35.04 25.02 30.78 31.26 29.91 29.80 27.83 29.25 33.14 32.67 29.52 29.81 28.76 25.92 26.93 26.99 30.49 32.29 35.08 38.93 40.86 39.60 31.66 34.49 36.06 37.70 37.49 37.17 37.09 37.74 36.85 36.95 33.29 34.65 36.68
45.69 45.61 46.37 46.29 45.84 46.53 38.81 32.33 32.21 34.76 34.93 31.93 31.92 31.96 29.10 28.65 30.60 31.69 30.13 29.01 32.18 30.93 27.08 28.54 27.17 30.95 31.56 31.19 38.24 37.68 38.65 31.17 33.41 32.30 34.65 36.53 35.05 38.06 38.57 38.41 37.26 36.83 36.47 36.15
45.80 45.97 45.69 45.60 45.85 44.92 37.43 38.29 39.79 36.21 33.12 30.91 31.14 30.22 30.88 30.72 32.66 34.58 35.25 33.95 32.72 31.12 32.58 34.60 35.41 35.33 35.11 34.36 32.28 34.38 35.66 34.06 31.37 27.26 32.99 34.29 30.57 35.02 38.38 38.49 38.88 38.25 34.38 38.21
45.92 45.89 46.08 45.97 45.84 45.35 40.96 40.83 38.83 33.71 28.69 30.84 29.85 32.10 33.40 31.83 33.33 31.29 35.63 36.83 33.62 36.46 40.58 40.34 38.17 35.91 35.33 34.76 34.26 35.58 33.03 33.47 31.35 29.06 31.99 26.51 35.90 40.40 41.28 39.46 40.41 40.27 39.75 40.21
45.68 45.40 45.70 46.22 46.29 46.44 42.71 42.31 39.81 35.38 29.32 32.22 32.12 32.67 33.30 34.76 35.23 34.11 34.70 36.40 39.45 41.19 38.59 34.47 30.55 27.58 30.03 31.59 33.62 33.31 37.04 34.20 30.68 27.97 28.81 33.10 35.43 38.78 38.07 37.38 38.32 42.75 41.35 41.63
46.18 46.25 45.96 46.24 46.43 46.76 44.53 43.13 43.67 39.61 31.85 29.71 35.10 32.62 34.33 31.92 32.42 32.94 34.70 39.86 41.97 39.89 34.41 31.41 25.85 21.73 26.84 26.78 31.45 36.43 37.30 36.46 32.14 30.88 26.82 24.61 34.49 39.70 43.53 42.81 33.34 42.43 41.92 42.34
45.54 45.56 45.71 46.26 46.50 46.87 44.97 43.15 44.61 40.15 33.74 35.80 36.02 32.46 32.23 36.27 34.95 32.54 34.77 36.02 35.70 38.11 31.41 27.14 25.57 25.15 31.62 25.03 24.82 30.43 31.23 32.47 29.31 29.83 29.47 31.98 40.14 42.21 43.45 31.77 32.77 43.16 43.61 43.21
46.01 45.84 45.75 46.10 46.33 46.93 45.21 42.34 44.80 40.48 35.57 37.44 38.67 38.99 35.84 36.37 35.96 31.43 35.36 34.69 33.90 32.62 29.19 28.54 28.08 25.12 27.72 27.30 29.96 30.03 28.56 29.14 29.29 31.96 29.24 26.49 41.78 41.20 37.91 40.71 43.16 44.42 44.45 44.64
45.40 45.87 46.06 46.20 46.38 46.34 46.77 40.19 45.16 44.82 39.10 38.32 41.97 42.17 43.10 42.05 41.12 37.71 38.25 35.76 34.70 33.64 30.73 27.94 27.92 23.84 24.27 28.00 23.86 32.28 27.83 32.62 30.20 33.24 33.32 40.95 41.52 41.86 43.73 45.76 45.45 44.53 46.03 46.29
45.22 45.35 45.84 46.19 46.41 46.55 45.57 43.20 44.02 42.11 37.59 36.98 38.00 38.69 41.84 44.36 44.41 45.09 35.16 35.71 39.78 38.30 37.45 35.89 31.78 25.98 29.00 23.16 25.97 29.24 32.82 38.35 34.03 34.76 37.42 38.99 41.41 43.19 44.56 45.39 46.08 48.39 47.09 47.56
45.12 45.40 45.73 46.01 46.19 46.45 46.04 41.86 44.68 42.14 37.25 32.01 36.10 42.42 40.63 44.63 44.54 44.08 43.37 41.33 42.92 41.02 40.86 36.91 34.62 28.66 34.04 27.65 30.71 30.05 33.63 35.87 34.44 34.77 39.50 41.44 42.78 43.47 43.88 43.60 45.27 46.90 48.18 48.03
45.80 46.01 45.97 46.15 46.18 46.54 45.48 43.96 44.23 44.77 39.09 32.81 34.62 39.07 41.44 43.28 43.00 42.72 42.57 42.54 41.37 39.66 37.53 35.10 34.02 35.86 36.12 32.06 32.01 29.37 35.27 34.10 32.19 31.77 39.46 38.55 39.40 41.47 43.08 43.25 43.28 45.14 46.26 47.50
46.11 46.27 46.19 46.29 46.45 46.38 43.36 37.44 43.05 44.60 44.43 36.96 30.91 38.29 38.07 40.87 41.86 41.60 40.50 41.32 41.32 40.28 37.06 36.48 36.82 38.53 35.36 31.05 27.61 34.88 37.31 38.57 39.39 37.83 40.86 40.38 41.62 42.52 43.65 42.23 39.27 41.08 40.39 42.03
45.83 46.17 46.29 46.35 46.29 45.03 37.45 35.50 40.51 44.86 44.25 36.62 31.83 32.87 37.54 40.33 40.83 40.19 40.19 41.77 40.85 40.53 38.83 36.62 34.86 35.37 37.85 31.81 30.29 35.50 38.42 39.22 39.45 40.74 41.01 39.35 40.12 41.36 40.07 38.96 38.85 38.10 35.34 34.65
45.73 45.71 46.24 46.22 46.52 45.15 40.51 43.36 44.93 44.31 40.00 38.76 29.87 31.95 34.52 39.27 36.56 35.83 38.85 38.27 39.58 39.63 38.12 37.94 32.65 34.37 33.97 31.39 33.17 37.11 39.42 40.10 40.08 41.12 41.79 40.82 41.39 40.43 37.41 36.99 34.26 31.33 29.30 29.27
45.95 45.84 46.27 45.09 40.42 35.48 41.29 45.38 45.09 44.72 39.83 32.30 29.64 30.57 29.63 39.50 37.26 38.22 37.15 38.98 31.87 37.76 33.92 34.93 34.03 29.82 30.41 34.04 34.75 35.84 37.28 38.84 38.70 38.39 38.89 40.30 39.92 36.58 35.45 33.64 31.54 28.56 26.28 26.41
45.96 43.07 35.26 31.15 39.76 45.60 44.80 40.91 37.63 36.75 38.05 34.96 28.01 32.94 31.89 36.67 34.58 33.35 33.79 34.32 32.04 29.75 32.60 34.01 29.34 28.37 34.07 35.47 36.95 36.81 37.07 36.53 36.13 34.96 36.45 36.23 35.44 32.85 30.25 28.43 27.99 26.68 25.27 24.90
39.66 35.69 34.62 42.14 45.15 40.35 37.10 30.53 31.23 31.86 29.64 32.12 32.12 33.23 32.63 35.05 32.27 31.81 31.87 31.65 30.46 24.59 26.86 29.31 28.55 28.40 32.39 34.36 34.59 34.76 35.25 35.32 34.17 34.01 33.98 35.60 35.03 28.41 27.03 26.10 26.52 26.00 25.10 23.95
40.72 40.46 42.32 40.32 36.75 32.75 29.78 28.98 30.32 30.25 27.18 31.81 28.46 31.60 30.33 33.13 36.07 33.04 32.66 28.52 29.39 23.52 29.31 29.37 25.97 29.36 30.46 31.50 30.48 31.18 31.91 33.32 31.79 30.58 28.36 28.79 28.38 27.51 26.27 24.64 23.74 23.23 22.76 21.71
39.81 35.13 30.42 30.35 25.72 24.73 24.33 19.18 25.70 26.98 30.67 31.62 30.94 29.60 32.03 31.98 33.40 31.30 31.02 28.85 26.63 31.81 29.28 25.97 25.79 26.96 28.75 29.33 30.36 28.96 29.66 29.41 28.73 27.71 27.49 26.81 25.88 25.75 24.52 22.90 23.22 22.54 21.41 21.05
30.59 24.50 15.89 17.70 11.30 18.87 20.88 21.74 25.96 27.69 30.16 28.00 29.92 30.31 29.19 29.95 28.62 30.02 26.05 26.30 31.56 27.83 25.24 19.03 22.61 26.28 26.91 27.12 27.48 26.53 25.54 25.97 25.74 25.32 25.28 24.57 23.92 23.24 23.58 23.13 22.51 20.99 19.64 19.33
22.79 22.19 14.76 17.38 22.70 22.39 23.57 24.81 26.72 26.58 29.16 31.65 31.00 31.94 30.82 29.62 28.75 29.29 29.26 26.97 20.63 17.60 14.47 19.39 23.01 25.12 25.07 24.57 24.86 24.46 23.99 23.46 23.45 23.57 22.90 22.38 22.41 21.82 20.83 21.28 21.47 19.98 18.84 17.75
22.64 18.46 17.38 18.64 18.71 16.71 18.79 19.53 21.41 25.39 25.23 30.50 32.70 31.00 28.07 24.44 23.64 21.05 18.39 16.14 12.37 16.60 21.58 23.68 24.13 22.95 23.23 23.39 23.61 23.32 23.11 22.52 22.15 22.14 21.95 21.57 20.41 19.46 19.41 20.23 19.74 19.25 18.43 17.26
20.89 16.44 19.24 18.14 17.06 15.16 16.73 18.87 19.97 24.55 26.29 25.35 26.72 21.47 19.37 24.95 19.41 16.71 18.99 10.94 18.05 21.34 22.15 23.41 23.68 22.79 22.61 23.32 23.22 22.86 22.64 21.73 21.51 21.31 21.12 20.45 20.77 20.14 18.44 15.88 16.80 17.28 16.75 15.43

GFSNW_sfc_wetblb_087.txt.gz
Wetbulb
45.48 45.50 45.65 45.35 45.90 46.74 42.65 37.65 29.76 41.83 44.92 31.42 32.64 26.89 28.91 34.06 32.26 35.68 33.79 34.22 32.15 29.82 30.49 28.91 29.19 30.18 34.33 38.28 42.30 36.56 40.62 37.99 33.50 35.44 41.95 43.08 41.31 39.02 39.35 33.82 33.01 35.84 35.07 36.49
45.24 44.88 45.07 45.50 46.22 45.82 39.20 33.75 33.75 42.47 41.62 26.20 25.99 30.52 30.26 32.37 30.75 31.11 32.34 31.95 34.07 34.10 30.51 26.53 29.79 31.77 37.38 39.23 38.64 34.61 37.57 34.18 27.44 32.99 37.46 40.93 38.41 39.53 40.35 39.81 38.93 34.47 32.31 35.94
44.82 44.86 45.00 45.45 45.21 45.72 41.53 33.98 27.88 34.20 37.43 35.87 30.01 27.85 28.54 28.51 34.56 32.34 32.72 31.90 33.84 32.40 30.80 33.18 30.14 30.88 34.93 37.39 36.16 39.65 42.03 35.27 30.30 26.95 33.11 36.32 33.43 36.59 38.83 38.28 34.43 35.39 36.19 38.34
44.15 44.31 44.88 45.15 45.40 45.33 41.05 34.10 30.46 32.80 27.13 29.85 30.93 30.59 29.46 27.24 27.29 33.48 33.82 30.03 30.71 30.54 27.51 28.37 28.25 31.19 33.17 36.46 39.25 38.11 39.86 32.27 34.46 35.46 36.15 36.54 36.08 35.53 36.60 36.09 37.82 34.45 38.09 39.14
44.02 44.37 45.08 45.28 45.61 45.75 38.18 29.71 29.81 34.13 32.65 32.06 31.21 31.41 28.30 27.96 28.85 31.27 30.09 28.66 31.36 31.25 27.82 29.60 27.87 31.60 32.47 32.25 37.44 38.37 39.51 31.99 33.28 30.74 35.43 36.15 33.87 36.38 37.48 38.28 39.12 39.07 39.67 39.40
44.31 45.06 45.68 45.28 45.61 45.04 36.78 37.35 38.51 34.58 30.86 29.73 29.68 29.21 29.72 29.50 32.08 33.48 34.51 33.09 31.59 30.88 32.86 35.40 36.38 36.59 36.31 35.68 33.37 32.12 32.73 31.77 30.24 27.83 33.73 34.10 29.97 35.47 37.64 39.20 41.52 40.85 36.97 42.49
45.15 45.28 45.41 45.51 45.23 44.82 39.41 37.49 36.64 31.33 26.78 28.02 28.37 30.07 32.50 31.45 32.12 30.39 35.19 36.25 33.57 36.93 41.08 40.24 38.95 37.32 36.34 35.87 35.26 36.03 32.72 31.78 30.82 26.95 30.38 22.60 35.53 41.54 42.22 39.72 41.64 43.61 43.42 44.15
45.27 45.28 45.35 45.56 45.67 45.37 40.65 40.63 36.13 32.57 25.51 29.93 30.18 31.77 31.27 33.51 34.64 33.55 33.75 37.09 39.70 41.96 37.60 33.72 30.14 30.33 30.89 32.72 34.71 34.38 35.56 32.37 27.78 25.65 26.72 32.05 34.43 39.99 39.15 38.09 38.59 43.96 43.49 45.29
45.11 45.38 45.33 45.30 45.65 46.33 42.65 40.60 40.81 36.59 29.79 26.50 32.82 31.85 33.72 31.41 31.75 32.45 34.63 40.19 42.62 39.82 35.70 32.28 25.81 23.65 27.83 28.00 31.73 35.78 34.49 34.78 30.47 28.67 24.91 23.75 34.67 41.74 43.66 43.97 35.38 43.86 44.93 45.18
45.70 45.68 45.61 45.54 46.00 46.37 43.82 41.41 42.34 37.41 30.73 35.63 35.00 31.57 31.97 36.14 35.02 32.74 35.00 35.99 36.34 38.66 31.76 28.15 26.34 24.61 31.76 26.71 26.78 30.11 29.66 30.12 27.22 26.34 24.58 30.61 40.62 42.80 45.10 33.17 35.05 42.51 43.81 45.73
45.14 44.68 44.86 45.36 46.23 46.02 44.80 41.85 44.19 38.16 33.21 34.74 38.29 38.56 35.52 36.19 35.84 32.20 36.11 34.89 34.91 33.02 29.63 29.23 28.58 28.12 30.35 29.33 31.78 32.18 30.29 29.43 28.69 28.76 26.29 25.23 42.54 42.21 36.98 40.55 43.47 43.46 44.64 46.37
44.79 44.78 44.54 44.94 45.03 46.00 45.81 40.22 44.36 44.43 36.81 36.82 40.98 41.57 42.65 41.75 40.86 37.77 37.83 35.73 35.27 36.08 32.82 31.85 32.63 29.06 29.74 30.73 25.94 34.31 29.07 34.88 33.54 34.14 34.26 41.84 43.14 43.05 45.47 45.46 43.98 44.30 44.20 47.12
45.06 45.29 45.46 45.56 45.51 45.25 45.03 42.20 43.45 41.62 37.15 36.23 37.75 36.88 42.08 44.53 44.26 45.26 35.28 37.98 40.14 38.17 40.30 35.27 32.96 28.77 32.02 28.23 29.57 32.67 34.82 38.58 35.63 35.72 38.77 40.30 42.18 43.94 44.65 46.21 44.97 46.20 46.58 47.68
45.15 45.32 45.58 45.67 45.84 45.63 45.26 41.38 43.56 41.00 36.51 31.31 35.28 42.26 40.77 44.86 44.47 44.28 43.32 41.66 43.44 42.66 40.39 35.70 35.22 32.27 35.84 31.67 33.61 33.02 36.15 37.64 35.90 35.63 38.91 40.89 42.39 44.25 44.44 43.39 45.03 46.12 47.15 48.96
45.30 45.44 45.47 45.60 45.91 45.68 44.74 43.33 44.21 43.78 38.44 32.57 33.91 39.95 41.18 43.47 43.17 42.17 43.02 41.55 40.42 39.42 37.50 35.25 34.10 36.80 36.87 37.17 35.14 33.48 37.38 36.62 34.74 33.89 40.20 39.57 40.37 43.52 44.13 43.20 44.39 43.72 46.30 48.38
45.17 45.58 45.72 45.70 45.84 45.62 42.78 36.86 42.03 44.99 43.69 37.15 31.61 40.03 39.08 41.03 42.09 40.91 40.79 41.16 40.60 39.83 37.47 35.58 37.95 40.62 37.76 33.06 31.14 36.71 39.92 41.43 40.72 39.08 43.11 43.20 43.14 43.34 44.73 45.07 41.90 40.40 41.07 47.60
45.43 45.61 45.80 45.91 45.56 43.83 37.77 36.02 41.23 44.09 42.96 34.49 31.56 33.29 38.80 40.49 40.01 39.87 39.95 41.76 40.70 39.26 36.96 35.83 37.15 38.14 39.52 33.82 30.88 37.10 39.83 40.95 41.26 42.21 42.20 40.63 42.10 41.40 43.77 42.12 37.66 36.04 35.79 36.34
46.01 45.94 45.87 45.86 46.17 44.82 39.84 43.54 44.73 43.95 39.73 37.88 31.01 30.90 35.62 39.93 36.09 35.15 40.56 38.01 39.13 38.60 37.42 37.31 35.67 36.97 36.82 32.19 36.24 38.26 39.82 40.84 40.75 41.15 42.70 42.99 43.09 42.07 40.83 38.36 36.21 33.44 30.92 30.86
45.89 45.82 46.38 44.50 39.70 34.54 40.17 45.21 44.85 45.41 39.28 31.92 31.84 28.25 29.48 39.09 37.10 38.45 37.95 39.22 31.82 38.22 33.75 35.11 36.09 34.14 30.53 35.28 37.16 37.62 37.58 37.82 39.20 39.94 40.35 40.71 40.34 41.36 38.41 35.82 33.89 31.24 29.25 29.41
45.70 42.95 35.13 31.47 36.79 45.44 44.77 40.89 37.23 36.63 38.45 35.96 31.50 34.74 31.94 37.13 35.40 34.36 33.33 34.63 32.40 30.30 32.55 36.71 33.50 32.36 35.66 35.80 36.11 35.63 35.40 35.96 36.51 36.89 38.40 38.91 38.86 36.34 32.70 31.16 30.65 29.97 28.06 27.21
39.02 32.88 34.01 41.89 45.05 40.30 35.71 30.50 31.52 32.20 28.61 31.78 31.88 33.66 31.77 36.46 32.83 31.93 34.43 32.17 32.40 28.25 30.36 32.10 30.11 28.97 32.64 33.66 33.40 34.17 34.23 35.27 35.46 34.05 33.90 33.90 34.44 34.53 29.80 27.89 27.84 27.96 27.41 25.80
40.84 40.80 41.67 40.37 35.70 32.53 30.60 28.02 30.57 28.77 27.50 32.05 30.69 32.67 34.94 34.33 37.47 34.07 31.97 30.92 30.73 24.65 32.07 29.93 25.88 28.10 29.42 29.97 31.18 31.36 31.45 32.15 32.34 31.62 29.53 29.65 30.12 30.30 28.82 26.90 25.69 24.72 23.16 21.63
39.22 34.25 30.14 29.94 26.07 24.17 21.30 21.84 26.75 27.90 31.22 31.83 32.31 31.23 33.54 33.65 35.88 33.09 32.38 28.45 27.19 32.95 29.71 27.40 24.72 26.57 28.23 28.01 28.47 29.39 29.45 29.47 28.97 28.07 27.93 27.52 26.61 26.63 25.38 23.44 23.58 23.10 21.27 20.49
28.99 25.53 16.95 17.45 12.30 18.40 19.19 22.09 26.12 27.77 30.37 31.32 32.30 30.79 30.61 31.90 30.54 31.46 28.10 30.31 31.67 27.60 26.29 21.26 23.04 24.73 25.94 26.58 26.82 25.94 25.08 25.76 25.39 25.32 25.35 24.71 23.89 23.14 23.45 22.59 22.18 20.04 18.31 18.51
22.37 22.20 13.96 15.93 21.17 20.41 21.86 23.34 26.30 25.52 28.10 32.32 32.10 32.46 32.42 30.20 29.29 29.49 29.91 27.42 21.87 19.84 17.33 21.32 23.35 24.33 24.44 23.77 24.29 23.84 23.67 23.60 23.13 23.20 22.14 21.40 21.22 20.48 20.05 20.77 20.55 19.45 17.62 16.17
21.36 17.08 15.85 16.82 17.88 15.82 17.76 18.56 20.53 24.36 24.68 29.58 33.20 31.54 25.11 23.89 24.78 22.37 17.75 18.90 14.74 17.84 21.16 23.00 23.57 22.51 22.87 22.73 22.79 22.33 22.72 22.37 21.63 21.74 21.02 20.56 19.61 18.47 18.04 18.36 17.44 16.76 16.12 14.89
18.41 14.71 17.96 16.27 15.38 14.41 16.03 18.48 19.13 24.06 26.33 25.17 25.23 18.84 18.85 24.65 19.66 15.72 18.41 14.15 17.28 20.90 21.25 22.42 22.79 22.29 22.53 23.30 23.05 22.75 22.28 21.31 20.67 19.99 19.74 18.88 19.21 18.39 16.60 13.93 15.01 15.42 15.06 14.15

GFSNW_sfc_wetblb_090.txt.gz
Wetbulb
44.89 45.34 45.34 45.65 45.82 46.47 44.52 40.15 31.72 45.26 48.05 33.94 34.19 29.04 32.37 34.77 34.25 37.29 35.74 35.72 33.00 32.08 32.20 30.90 31.22 31.12 35.35 40.21 39.33 35.93 39.27 39.54 34.66 37.46 44.16 45.98 44.29 42.01 42.52 37.30 36.82 39.93 39.06 39.38
44.51 44.92 45.31 45.02 46.25 45.85 43.04 36.32 36.14 44.82 44.95 28.23 28.80 32.33 32.59 34.09 33.07 33.80 33.76 33.27 35.30 35.74 32.12 29.21 31.83 33.62 39.50 40.98 39.72 36.83 38.96 36.85 31.76 33.90 40.03 42.98 40.02 41.58 42.38 42.24 41.88 37.29 35.49 39.49
44.30 44.40 45.14 45.22 45.43 45.47 44.12 36.69 30.29 36.68 37.41 37.70 32.39 30.06 30.34 30.46 35.73 34.53 35.18 33.57 35.70 33.51 31.65 34.70 31.27 33.66 38.45 40.24 39.54 39.13 40.43 35.89 32.56 29.42 33.96 39.09 36.38 39.23 41.20 40.28 36.75 38.04 39.14 41.16
44.39 44.81 44.90 44.56 45.24 45.44 42.42 34.52 32.67 35.55 28.18 31.65 32.29 33.29 31.15 28.73 29.20 35.45 36.27 32.99 32.68 32.20 29.33 31.51 31.79 34.81 37.05 38.97 41.31 41.17 39.20 31.92 35.38 36.36 37.02 37.31 37.03 37.08 38.80 38.25 39.93 36.74 40.20 41.54
44.12 44.33 44.38 45.01 45.00 45.05 39.07 33.97 33.43 36.61 33.89 34.81 32.41 32.22 30.74 29.85 32.10 32.93 32.13 31.75 33.58 33.95 31.23 32.67 30.69 34.26 34.76 34.66 38.60 38.41 39.89 33.44 34.88 32.87 36.93 37.24 35.29 37.60 38.50 39.38 40.51 41.29 41.91 42.12
43.88 44.18 44.39 44.90 45.00 44.47 36.94 38.21 41.37 36.95 32.64 32.59 30.81 31.33 31.99 32.19 34.72 35.46 36.20 35.86 34.52 33.10 34.96 38.02 38.95 39.32 39.24 38.89 36.68 34.57 34.65 34.01 30.59 28.32 35.35 35.38 31.00 36.59 37.90 39.38 41.86 42.67 39.72 44.96
44.10 44.59 44.78 44.83 45.16 44.52 41.88 41.40 39.66 34.21 28.24 31.07 31.25 32.03 32.97 32.83 34.04 33.16 36.46 37.66 35.18 38.34 42.55 42.04 41.39 39.91 39.10 38.99 38.60 39.65 34.53 32.42 31.53 29.27 30.99 22.39 35.65 42.23 42.97 40.90 43.26 45.35 45.90 46.76
44.90 44.76 45.04 45.06 45.13 45.56 43.75 43.49 38.85 33.92 27.96 31.80 31.65 32.61 32.64 34.64 36.33 34.89 35.73 37.97 40.96 43.08 39.30 34.16 31.04 31.29 32.19 35.15 37.82 38.14 38.95 35.30 29.43 27.72 28.35 32.59 35.48 40.35 39.36 40.89 40.79 46.11 45.13 47.18
44.76 44.92 44.95 45.11 45.40 45.71 44.58 43.84 43.00 38.77 31.28 30.33 33.99 32.45 34.50 32.62 32.64 33.30 36.05 41.56 43.21 41.12 36.80 33.52 26.70 26.84 30.38 30.78 34.28 39.68 38.31 37.77 32.24 30.05 24.92 23.09 37.43 42.59 46.83 46.07 36.37 46.11 46.62 46.64
45.24 45.31 45.28 45.54 45.54 45.75 45.20 41.95 45.48 40.20 32.12 35.76 36.31 32.03 32.34 36.69 35.37 33.54 36.98 37.75 38.21 39.82 33.05 30.43 28.36 28.48 33.58 29.00 29.55 30.16 30.91 30.46 27.57 28.15 26.51 32.01 39.51 42.16 46.22 34.10 37.20 44.99 47.02 46.69
45.66 45.87 45.85 45.80 45.55 45.86 43.93 41.17 43.90 40.53 34.41 36.41 38.64 38.64 36.37 36.39 37.08 33.17 36.54 35.81 36.25 34.94 30.82 31.06 31.33 30.72 32.79 31.54 34.73 34.05 31.64 30.27 29.42 30.54 27.89 25.31 42.88 43.25 37.13 42.57 46.02 46.35 47.12 46.08
45.40 45.35 45.71 45.90 45.92 45.70 45.60 39.33 43.66 42.70 37.85 37.48 42.22 41.63 43.74 42.99 41.88 39.21 39.44 36.91 36.35 36.85 33.47 35.59 35.64 32.19 34.81 33.26 28.91 38.33 31.84 37.15 35.25 35.61 35.43 42.56 44.69 43.26 45.81 47.41 46.37 45.89 46.48 47.62
45.49 45.47 45.26 45.01 45.19 45.73 45.31 41.65 42.51 40.94 36.00 36.39 37.03 36.32 42.77 44.81 44.96 46.24 36.25 38.13 40.40 39.10 41.46 39.34 37.74 32.59 36.63 31.28 32.33 35.56 38.87 41.37 37.29 37.56 40.53 41.76 43.81 45.85 46.93 47.64 46.94 46.38 47.59 48.19
45.40 45.43 45.07 44.98 44.84 44.64 45.65 41.21 43.79 40.55 37.82 31.90 35.60 43.20 42.02 46.21 45.10 44.46 44.00 41.79 43.21 42.85 40.89 35.72 35.94 33.94 39.46 35.52 36.81 36.67 39.58 40.84 38.14 38.09 40.96 42.56 43.74 45.00 45.90 46.26 46.67 47.08 47.47 46.87
45.19 45.41 45.38 45.18 45.28 45.11 44.58 43.30 43.89 44.34 38.61 33.40 35.55 41.37 43.18 44.29 44.71 42.99 43.56 41.74 40.38 39.33 36.40 35.21 34.68 38.82 38.39 39.48 38.96 36.53 41.33 39.18 36.98 36.42 42.66 42.45 43.11 45.66 47.49 45.88 46.07 45.97 44.30 45.69
44.84 45.43 45.54 45.51 45.21 44.94 42.13 35.41 41.98 44.82 43.86 37.23 33.25 40.21 40.33 43.28 43.33 42.11 42.02 42.06 40.41 39.62 37.31 36.01 39.39 42.32 39.95 34.86 34.06 40.37 43.13 44.46 44.88 42.30 45.32 45.52 46.40 47.01 47.49 46.33 45.47 42.14 42.67 45.73
44.78 45.08 45.49 45.56 44.87 43.65 37.47 37.30 42.11 45.01 43.46 36.74 32.58 34.75 39.93 42.87 41.30 41.17 40.54 42.35 40.49 39.41 37.31 36.34 37.37 39.29 40.53 35.60 32.53 39.79 42.15 44.21 44.80 45.77 45.45 43.26 45.18 43.96 46.28 45.34 41.83 40.43 38.88 39.74
45.03 45.03 45.24 44.97 44.93 43.44 39.76 45.12 44.94 44.24 39.69 37.23 33.17 33.80 36.62 41.66 36.79 36.09 41.24 37.77 38.76 38.30 36.11 38.17 36.73 39.51 38.07 34.02 38.28 40.68 42.28 43.57 43.98 44.55 45.45 45.17 46.08 46.10 46.14 44.00 41.01 38.78 37.44 36.57
45.43 45.34 45.52 44.04 41.42 34.52 39.82 45.10 44.97 46.77 41.03 34.86 34.17 31.64 29.74 40.98 37.33 38.81 38.25 39.36 32.36 38.68 34.39 36.16 38.69 36.09 31.98 37.20 39.55 40.61 41.42 39.83 40.71 41.92 43.71 44.84 44.33 44.52 43.44 41.97 39.70 37.38 34.95 34.92
45.67 42.24 33.61 31.63 36.83 45.25 44.33 40.61 36.56 37.62 39.23 38.70 34.27 38.53 32.10 38.93 36.93 35.59 35.69 36.76 34.88 31.59 34.56 39.59 35.51 34.70 39.87 39.16 38.90 39.16 38.67 38.74 39.88 37.74 38.41 39.81 39.75 41.71 40.65 38.82 38.57 37.29 35.70 32.91
38.58 33.58 34.71 41.42 45.37 41.56 36.97 31.99 33.44 34.48 31.02 34.32 36.14 36.74 33.74 38.61 35.10 34.88 37.34 33.46 34.95 30.20 33.81 32.88 32.47 31.12 34.20 34.10 35.37 37.11 37.31 37.39 38.17 38.36 37.94 36.41 36.00 37.50 39.06 36.40 35.03 34.18 32.82 30.37
40.50 41.30 42.36 41.14 37.19 34.68 32.13 30.89 32.48 30.41 29.41 32.67 32.22 35.05 37.30 36.22 39.96 36.34 34.95 33.32 33.95 28.90 36.06 32.24 29.00 27.83 29.89 30.63 30.91 32.52 34.43 34.30 34.31 33.94 33.11 32.85 31.93 33.96 35.50 33.37 31.89 30.51 28.14 24.94
41.08 36.52 32.35 33.40 28.60 29.44 29.15 24.97 28.54 29.93 33.61 33.90 34.39 33.43 37.26 33.53 36.04 35.61 33.26 31.27 31.10 36.50 30.72 29.30 26.75 28.37 29.24 29.25 30.26 30.01 31.49 31.51 31.11 30.49 29.56 28.95 28.40 29.21 28.72 26.13 24.69 24.48 23.54 23.29
31.89 28.92 21.35 24.58 21.98 24.62 25.81 28.31 29.90 30.10 34.05 35.25 35.99 33.85 36.90 35.80 34.70 34.60 30.72 33.95 33.82 28.92 27.34 25.33 26.10 26.19 27.11 27.90 28.44 28.03 26.72 26.91 26.87 26.50 26.72 25.37 24.40 23.40 23.63 23.38 22.80 21.19 19.35 20.30
26.16 26.48 19.46 20.70 23.82 24.69 25.03 26.51 28.26 27.84 30.04 34.62 34.82 35.94 36.60 33.34 31.63 33.03 32.16 29.62 26.73 24.61 23.05 24.38 24.83 25.58 25.96 25.58 25.71 25.35 25.27 24.78 24.44 24.26 22.96 22.18 21.50 20.43 19.73 20.37 20.49 19.12 18.06 17.73
23.75 20.41 20.20 22.43 24.18 21.69 22.00 21.26 22.74 25.46 27.20 32.98 35.39 33.65 31.09 27.96 30.20 25.98 22.77 23.22 20.87 21.86 23.50 24.66 25.37 24.45 24.55 24.41 24.44 24.03 24.27 24.62 23.75 23.43 22.70 21.34 20.03 18.55 17.95 18.71 18.33 17.91 18.00 16.80
20.10 18.48 21.57 21.29 20.77 19.42 21.40 23.02 22.20 25.89 28.11 29.55 31.04 25.91 23.04 28.85 23.00 18.39 22.02 19.77 21.57 22.90 24.15 24.66 23.86 23.36 23.62 24.26 23.88 23.39 23.11 22.51 21.98 21.41 20.92 19.99 20.03 18.97 17.25 15.17 15.85 16.12 15.55 14.65

GFSNW_sfc_wetblb_093.txt.gz
Wetbulb
44.45 44.58 44.97 45.01 45.55 46.14 44.09 40.69 33.14 47.48 48.55 35.47 35.67 32.62 35.28 38.12 36.20 38.56 38.20 38.35 37.09 36.06 35.63 34.15 33.80 34.12 38.08 41.48 41.06 38.57 42.27 41.32 37.79 39.88 45.12 46.50 45.37 42.74 42.29 37.59 37.03 40.59 39.62 39.86
44.43 44.48 44.89 45.05 45.45 45.57 44.79 37.08 37.69 47.33 46.25 30.06 31.11 35.02 35.00 36.80 35.55 35.62 36.21 35.86 37.87 38.08 35.31 31.60 34.03 34.95 40.32 42.33 40.92 39.38 41.04 38.25 34.31 35.55 40.96 44.09 42.49 44.20 44.43 44.22 43.24 38.84 37.19 39.60
44.46 44.78 44.66 44.66 45.01 45.44 44.58 38.40 32.15 38.30 41.26 39.21 34.62 32.59 32.53 31.98 37.56 36.10 37.09 35.97 37.91 36.09 34.59 36.62 33.19 33.99 38.59 42.14 41.69 40.61 41.40 38.56 36.07 32.15 35.91 39.78 37.89 41.40 43.47 41.84 37.82 38.93 39.81 41.60
44.54 44.61 44.66 44.96 44.37 45.35 42.94 36.75 33.82 37.29 31.25 33.38 34.28 34.50 33.54 31.62 31.24 36.53 37.67 34.84 34.82 33.74 30.95 32.44 32.44 35.39 36.69 40.13 41.36 41.99 40.68 33.67 36.85 37.05 37.72 38.79 38.44 38.64 40.08 39.19 40.40 37.60 40.84 42.03
44.34 44.57 44.41 44.86 45.24 45.10 40.48 34.22 34.19 37.58 35.42 36.28 34.03 33.34 32.16 31.77 33.52 34.32 33.22 33.35 35.62 36.26 32.50 34.22 33.22 35.77 36.79 36.08 39.81 39.56 41.01 34.77 36.52 33.64 37.23 37.70 35.98 38.25 38.96 39.27 40.35 41.34 41.94 41.25
43.81 43.83 44.52 44.84 45.00 44.16 38.32 40.06 41.40 37.25 33.98 34.09 32.25 32.80 33.38 33.14 35.69 36.60 37.76 36.64 35.87 34.85 36.54 39.34 40.79 40.63 40.19 39.49 38.00 36.39 36.69 36.09 33.14 29.84 36.26 36.26 32.68 37.42 38.83 39.45 40.71 40.97 38.52 43.30
43.83 43.96 44.19 44.88 44.79 44.28 41.63 40.49 40.73 35.30 29.74 32.05 32.50 33.95 33.93 34.25 35.02 34.23 37.39 38.58 35.87 39.87 43.84 43.33 42.69 41.08 39.64 39.12 39.15 39.97 35.05 35.14 34.18 30.46 32.56 23.53 36.51 41.89 41.89 39.94 42.39 43.58 42.49 45.11
44.14 44.28 44.36 44.35 44.83 44.57 44.60 43.71 40.02 36.38 30.66 33.41 33.15 34.04 34.22 35.81 36.99 36.02 37.01 38.75 41.98 43.45 41.00 35.11 32.52 33.19 33.56 36.33 38.76 38.67 39.40 34.69 31.05 29.02 29.85 34.02 36.73 40.69 41.84 39.55 39.62 47.10 46.51 47.83
44.31 44.67 44.93 44.91 45.17 45.39 44.81 43.72 44.57 39.83 33.88 31.86 35.70 33.69 35.07 32.90 33.37 35.32 37.57 42.00 43.94 42.67 37.08 33.86 27.18 27.29 31.49 31.44 34.71 40.32 38.97 37.70 33.08 30.92 26.32 25.12 39.04 42.52 44.82 45.03 36.44 46.06 46.41 46.91
44.58 44.74 45.05 45.13 45.31 45.52 45.78 42.62 45.96 39.71 33.78 37.41 37.44 33.58 33.66 37.67 36.27 34.68 37.14 39.14 39.43 41.90 35.03 30.36 29.11 29.51 35.41 30.64 31.24 32.15 32.32 32.78 29.99 30.86 28.13 33.31 41.33 43.28 44.81 34.36 37.45 45.87 46.23 45.81
44.49 44.67 45.03 45.34 45.48 45.61 45.00 43.12 46.41 40.94 35.32 37.71 39.56 39.88 37.11 37.39 36.81 32.96 36.72 37.55 38.07 36.08 31.58 31.89 32.47 32.31 34.63 33.91 36.22 34.97 33.03 31.20 29.95 31.28 28.26 26.17 43.71 43.82 38.34 43.43 46.42 46.91 47.55 47.28
44.65 45.13 45.40 45.77 45.83 45.86 45.55 39.34 45.50 47.08 38.75 38.31 43.05 43.35 43.43 42.87 42.59 38.89 38.75 37.87 36.38 39.13 35.31 36.41 36.66 33.93 36.31 34.78 30.13 40.47 31.96 37.08 34.98 35.73 35.13 43.64 46.29 45.48 47.37 47.49 46.26 46.86 47.25 47.55
44.90 45.04 45.81 45.71 45.95 46.02 44.99 41.27 43.09 42.30 37.17 37.67 38.87 37.86 44.28 45.85 45.29 46.33 36.30 40.37 40.34 39.95 42.27 39.17 37.38 34.39 38.56 32.17 34.30 36.92 40.18 43.47 38.71 38.58 41.82 43.18 45.40 46.34 47.22 47.11 47.30 47.71 47.68 48.39
45.06 45.05 45.19 45.52 45.57 46.02 45.68 41.93 42.88 40.89 38.09 31.18 36.27 44.83 41.64 45.96 46.29 44.94 44.26 43.67 42.94 41.79 41.77 37.84 36.61 35.24 40.76 36.56 38.17 37.28 40.28 41.65 39.42 39.39 42.29 43.72 45.10 45.99 46.62 46.92 48.50 48.07 48.42 46.98
45.13 45.29 45.24 45.40 45.59 45.52 45.30 43.78 43.40 43.74 38.75 33.70 34.61 41.95 44.23 45.82 44.13 43.81 45.25 42.89 40.09 38.38 35.47 34.29 34.98 39.58 38.86 40.11 39.43 37.84 42.13 40.27 37.95 37.59 43.42 43.44 44.42 46.77 48.16 47.04 47.08 47.89 45.53 44.62
44.95 45.36 45.62 45.26 45.34 45.18 41.28 34.11 41.98 43.78 43.29 37.42 32.52 41.74 39.93 43.37 44.47 43.79 42.66 41.80 40.57 39.30 36.25 35.98 39.13 41.84 39.75 36.04 34.83 41.36 43.49 45.10 45.40 42.64 45.85 46.23 47.04 47.85 48.55 47.26 47.55 45.83 44.60 45.65
44.85 45.04 45.37 45.19 44.65 43.63 37.32 38.57 42.06 44.84 44.46 35.85 33.95 34.01 41.29 42.88 41.96 42.11 42.19 42.45 40.20 38.54 36.92 36.41 37.96 38.76 40.00 37.52 33.52 40.66 43.11 44.68 45.49 46.75 46.05 44.08 45.92 45.30 47.77 47.75 47.28 43.96 42.31 41.40
44.85 45.08 45.22 44.86 44.84 43.29 39.68 43.99 44.81 45.29 39.70 36.88 33.19 34.08 35.56 41.72 36.73 36.78 41.58 38.21 38.40 37.32 35.42 37.81 37.14 39.08 39.30 33.84 38.65 41.46 43.05 44.28 44.59 45.65 46.69 45.90 47.15 47.52 47.41 47.56 45.28 43.58 41.29 39.81
45.75 45.14 44.87 43.40 40.60 36.55 41.30 45.00 45.24 46.09 40.77 34.78 33.78 32.12 30.88 41.19 37.46 38.79 38.40 38.80 33.24 38.45 34.97 36.07 38.50 36.21 32.84 37.42 39.30 40.58 41.91 41.54 42.38 44.07 44.37 44.78 45.16 44.88 45.97 45.77 44.53 42.66 40.93 38.88
45.25 42.31 33.22 32.15 37.25 45.06 44.89 41.26 37.22 37.42 39.08 39.84 34.63 40.38 35.03 39.63 37.30 35.38 36.76 37.36 35.35 31.94 34.34 39.69 34.81 34.52 40.38 41.42 41.45 41.34 40.42 40.33 41.22 39.72 39.78 40.44 40.16 40.69 41.18 41.99 43.77 42.14 41.33 38.78
38.64 34.11 34.51 40.66 45.03 41.44 36.17 32.69 33.06 35.12 32.65 36.70 38.16 38.67 36.51 41.83 35.61 34.78 37.87 34.46 35.92 30.53 34.50 34.13 33.43 33.44 36.20 36.40 36.71 37.67 37.92 38.23 38.61 38.86 39.14 39.73 39.08 37.87 37.63 38.43 40.95 39.35 37.73 34.87
40.81 41.00 42.52 41.92 38.21 34.84 32.32 32.29 34.27 32.26 30.69 35.46 34.70 37.51 39.47 40.13 42.79 38.18 37.09 33.68 34.64 28.97 38.02 33.06 30.41 29.69 31.97 33.43 32.79 33.50 34.79 35.10 35.42 35.97 34.41 34.07 33.62 33.81 34.70 33.91 31.43 30.63 28.90 27.15
43.42 39.16 35.02 35.72 32.45 30.16 29.43 25.71 29.01 30.89 35.55 35.36 37.83 34.75 37.72 37.90 38.89 37.09 35.68 29.97 31.45 37.61 32.79 30.85 28.34 29.35 30.50 30.59 30.91 30.65 32.63 31.86 30.87 30.76 31.12 30.23 28.60 28.86 29.01 26.76 26.62 26.35 24.84 23.99
36.39 32.94 25.39 29.50 27.49 28.35 28.43 30.27 32.47 32.19 35.66 36.15 37.78 35.60 36.70 36.24 34.33 34.51 31.61 34.64 35.28 29.99 28.66 26.33 26.15 26.27 27.54 28.39 28.17 27.46 26.84 26.90 26.54 26.38 26.44 25.87 25.22 23.97 24.28 23.59 23.46 22.43 21.13 21.51
28.92 30.43 23.60 24.60 26.38 27.46 28.04 29.55 31.04 29.43 31.04 35.68 36.22 37.67 37.84 35.21 32.87 35.19 33.48 30.88 28.64 27.09 24.27 25.14 25.86 26.46 26.35 25.99 26.11 25.69 25.45 25.69 25.59 25.38 24.20 23.06 22.47 21.64 20.77 20.82 20.50 19.23 18.13 17.01
26.52 24.50 23.39 27.46 28.11 26.25 26.44 26.10 26.92 29.35 29.49 34.44 36.01 35.21 32.35 29.98 31.31 28.90 25.41 26.08 23.78 23.13 24.66 25.34 26.21 25.04 25.23 25.00 25.37 24.52 24.62 24.94 25.07 24.72 23.72 22.53 20.98 20.18 20.09 19.97 19.31 18.97 18.65 17.97
23.87 21.92 25.29 25.64 25.26 24.55 24.39 25.57 26.24 30.17 30.65 32.13 33.40 29.27 25.99 30.87 26.21 22.43 24.12 21.50 23.60 25.11 25.68 26.09 25.18 24.17 24.56 25.47 25.50 24.73 24.20 23.47 23.27 22.76 22.18 21.50 21.53 21.02 19.34 17.22 17.67 17.62 17.06 16.85

GFSNW_sfc_wetblb_096.txt.gz
Wetbulb
44.88 44.81 44.77 45.05 45.12 44.48 43.13 38.66 33.81 47.05 47.49 34.53 34.17 29.79 33.87 37.75 37.56 39.23 36.70 37.05 36.54 35.85 36.50 35.27 35.91 36.18 38.94 41.99 41.40 37.25 42.03 38.23 36.26 38.86 44.73 46.28 44.73 40.72 40.47 35.00 34.66 38.92 37.08 37.57
44.52 44.65 44.83 44.76 45.06 43.85 43.35 35.44 36.43 47.09 45.41 29.66 30.35 34.69 34.42 36.73 36.05 36.19 35.39 34.44 36.62 37.74 35.20 32.19 35.92 36.79 41.37 42.38 41.20 37.59 39.38 37.08 32.55 35.22 40.38 44.22 41.34 43.39 43.32 41.87 40.79 36.75 33.63 36.75
44.56 44.82 44.68 44.71 44.77 44.35 43.48 36.88 31.31 37.66 39.48 38.13 33.33 31.46 32.50 32.29 37.91 36.47 37.05 35.67 36.99 35.27 34.29 37.06 34.14 34.69 38.83 42.09 41.36 42.42 41.40 36.04 34.34 31.51 34.43 39.07 38.33 41.31 43.07 41.72 36.64 37.47 38.39 40.41
44.48 44.90 44.72 44.87 44.87 44.29 41.57 36.57 32.33 36.36 31.55 33.05 33.80 34.32 33.30 31.53 31.73 36.59 37.20 33.89 34.28 33.46 30.44 32.28 32.51 35.79 36.57 39.08 41.36 40.11 39.40 31.57 34.81 36.27 37.76 37.83 37.11 37.94 39.30 38.42 40.08 36.06 39.47 40.62
43.86 44.51 44.80 44.92 45.00 44.11 38.84 34.15 33.33 36.25 33.76 35.52 33.02 33.62 31.82 31.49 33.47 34.44 33.21 32.62 34.97 34.70 31.55 32.78 31.01 34.68 36.11 35.27 38.79 38.51 40.81 33.09 35.21 32.61 36.30 36.19 34.50 37.13 38.01 38.57 38.91 38.98 40.27 40.25
43.70 43.84 44.24 44.55 44.93 44.31 38.18 40.37 40.27 36.37 33.03 32.85 31.90 31.90 32.83 32.83 35.29 36.05 37.44 36.15 34.84 33.59 35.45 38.96 39.21 40.80 40.44 39.43 37.55 37.03 36.51 34.60 33.17 28.98 35.59 35.19 31.27 35.55 36.64 37.49 39.01 38.79 35.58 41.13
43.84 43.79 44.41 44.87 44.89 44.20 42.26 39.97 39.18 33.47 28.86 30.63 31.21 33.27 34.18 33.62 34.92 33.04 36.63 38.41 34.81 38.76 44.25 43.76 42.29 40.70 39.65 38.89 38.43 39.79 35.51 34.44 34.27 29.13 32.14 23.77 36.33 41.49 40.95 39.34 40.43 41.54 44.42 43.61
43.69 43.99 44.18 44.08 44.47 44.30 43.33 42.40 39.52 34.71 29.04 32.05 32.67 33.23 33.49 35.57 36.68 35.57 36.34 38.90 41.12 42.61 40.73 34.95 31.52 31.99 32.99 34.84 37.33 37.11 38.52 34.98 31.05 27.06 27.63 32.70 35.80 39.28 39.96 39.99 39.88 45.59 45.01 46.41
43.60 43.85 43.87 43.89 44.06 44.31 44.03 42.50 44.43 38.12 32.27 30.24 35.36 33.14 34.40 31.95 32.85 34.43 36.88 41.60 43.84 42.36 36.59 32.71 26.40 25.63 30.03 29.73 33.17 38.57 37.92 38.11 33.25 31.06 24.97 24.26 37.36 42.01 43.99 43.47 35.22 44.32 44.94 44.36
43.87 44.24 44.64 44.91 44.55 44.50 44.17 40.67 45.07 39.26 33.13 35.33 35.95 32.77 32.90 36.54 34.78 33.09 36.47 37.95 38.46 41.57 33.73 28.80 27.68 27.76 34.34 29.34 29.94 30.43 31.62 32.79 29.03 29.39 28.18 32.55 40.72 42.64 44.34 32.10 35.94 44.73 45.33 45.28
43.93 44.17 44.53 44.84 45.10 45.02 44.17 41.18 44.64 40.55 35.01 36.13 38.57 39.12 35.74 36.63 36.09 31.74 36.77 36.03 37.65 35.82 30.51 30.00 30.56 30.44 33.17 32.67 34.26 33.33 31.48 30.04 29.47 30.71 27.77 25.76 43.34 42.38 37.62 42.07 45.56 45.71 46.20 46.42
43.96 44.20 44.51 44.89 45.33 45.57 45.32 39.58 44.84 45.02 37.57 36.93 42.43 42.27 43.30 41.65 40.57 38.04 38.35 35.51 32.75 38.22 34.21 34.52 35.19 32.39 36.03 33.99 29.11 39.33 31.47 35.54 33.39 34.25 33.46 42.90 44.67 45.19 47.41 47.10 45.04 45.70 46.60 46.68
44.11 44.40 44.68 44.94 44.93 45.40 45.04 41.70 43.41 41.02 36.02 36.67 37.96 37.45 43.01 45.47 45.02 46.19 36.42 38.57 39.70 39.54 40.40 37.23 36.06 31.95 36.14 31.38 32.78 35.45 38.80 41.85 35.66 36.83 40.12 42.51 44.93 46.76 47.33 46.71 46.06 47.19 47.79 47.11
44.17 44.35 44.82 45.01 45.11 46.25 45.81 41.58 43.11 41.61 37.64 31.07 34.51 44.45 41.06 45.00 45.65 44.73 44.50 41.76 41.21 39.92 40.51 35.10 35.33 33.13 38.24 35.06 36.61 36.43 39.25 39.53 38.15 38.20 42.05 43.40 45.04 45.92 46.66 46.85 47.71 47.34 47.97 46.57
44.40 44.55 45.06 45.01 45.20 45.74 45.25 44.08 43.02 43.75 37.70 33.11 34.32 41.12 43.28 45.36 44.27 42.64 43.69 42.62 40.94 39.69 36.04 33.83 32.36 37.49 37.90 39.07 38.47 35.75 41.25 39.64 37.32 35.70 42.88 42.54 43.74 46.15 47.24 46.43 46.61 46.81 45.36 44.65
44.37 44.80 45.27 45.45 45.40 45.36 40.10 33.93 42.24 43.95 43.91 35.93 32.46 41.68 40.99 43.34 43.83 42.78 41.98 42.02 41.54 40.69 36.35 34.55 37.58 40.73 37.97 33.72 33.14 40.37 42.93 44.76 44.73 42.01 45.56 45.23 46.21 46.72 47.49 46.28 46.77 45.35 44.21 43.77
44.36 44.85 45.20 45.24 45.06 42.44 36.89 37.45 41.37 44.40 43.45 33.90 33.01 33.18 40.13 41.64 42.46 42.59 42.68 43.34 41.41 39.09 36.99 34.69 35.83 37.79 38.74 35.47 31.67 38.47 41.21 42.32 43.99 45.48 45.56 43.78 45.40 43.93 46.77 47.46 46.64 44.96 43.41 40.80
44.53 44.90 45.23 45.43 45.30 43.25 38.83 44.02 44.71 44.36 38.48 36.87 31.97 32.95 35.58 41.53 36.57 36.36 42.48 37.94 38.73 37.33 36.41 37.29 36.09 38.03 37.53 32.11 38.10 40.59 42.01 43.64 44.21 44.31 45.56 45.07 45.55 46.59 45.65 46.66 46.47 44.32 43.41 40.83
44.92 45.23 45.32 43.59 40.30 35.63 39.10 45.02 45.00 44.73 39.47 33.20 32.64 30.27 29.57 39.68 36.48 37.84 38.53 38.38 32.28 37.47 32.95 35.87 37.31 35.02 31.70 36.73 38.86 40.25 40.68 39.99 40.09 41.97 43.31 43.80 42.53 42.27 42.56 42.48 42.79 42.63 42.68 40.48
44.99 42.30 34.06 31.75 37.48 45.00 44.42 40.68 37.11 36.80 37.89 38.33 32.50 38.51 33.44 37.59 36.32 34.79 34.43 35.98 34.03 31.13 33.67 38.32 34.05 32.86 38.71 38.69 37.92 37.52 38.38 38.70 39.05 36.66 36.13 37.24 37.66 38.29 38.63 39.02 40.08 40.75 41.08 37.56
39.50 34.98 34.80 41.28 44.39 40.13 34.95 31.93 32.30 33.35 31.24 35.47 36.51 37.54 34.94 40.72 34.18 32.64 36.39 33.23 35.06 29.43 33.53 33.09 32.05 31.26 31.87 34.87 34.26 34.99 36.19 36.40 36.57 36.69 36.73 36.21 34.59 33.83 34.08 35.28 35.16 34.73 34.47 31.24
41.86 41.02 42.65 41.76 37.24 34.08 31.56 30.65 32.42 32.06 30.24 36.94 36.25 37.17 39.44 40.06 42.17 35.74 35.85 32.65 33.72 28.22 37.72 33.58 29.36 28.00 30.21 31.10 30.78 31.56 32.72 32.26 32.12 33.06 32.11 31.38 30.74 30.36 31.27 29.93 29.21 28.14 27.23 25.41
43.22 39.69 36.04 35.28 33.38 29.76 28.05 25.14 28.57 30.82 36.36 37.00 38.13 35.17 37.15 39.50 40.01 37.39 35.99 30.73 29.60 37.22 32.45 29.20 25.78 27.00 28.27 28.30 28.51 28.41 29.85 28.70 28.52 28.21 28.44 28.13 26.62 26.63 27.40 26.52 26.26 25.30 23.45 22.86
36.70 33.01 27.69 30.48 28.77 29.65 28.27 29.28 32.05 33.11 37.34 37.61 38.41 36.59 35.94 36.70 34.11 34.77 30.03 33.66 34.93 28.83 27.37 23.03 24.21 25.68 26.35 26.75 26.80 26.15 25.15 26.17 25.94 25.64 25.26 24.36 23.98 23.39 23.49 23.57 23.90 22.57 21.15 20.65
30.42 31.69 24.63 25.14 27.81 28.52 29.25 31.53 31.94 30.51 33.73 35.00 36.97 37.00 36.74 33.79 31.68 32.45 32.39 29.90 28.11 25.11 21.47 23.97 25.12 25.56 25.21 24.85 25.14 24.29 24.45 25.53 25.17 24.68 23.12 21.48 21.43 20.62 19.80 20.29 20.36 19.11 18.14 16.92
27.16 26.13 25.83 29.01 27.90 27.17 28.07 29.07 29.28 30.16 30.36 33.22 36.22 33.83 32.52 30.77 32.38 30.30 25.68 26.29 20.80 21.80 24.27 24.96 25.12 24.34 24.65 25.05 25.26 24.58 24.62 24.45 24.27 23.95 23.03 21.51 20.53 19.35 18.92 19.39 19.13 18.92 18.64 18.05
24.88 22.72 26.79 28.42 27.11 25.46 26.57 28.35 27.36 31.13 30.01 32.11 33.05 30.03 26.87 32.01 26.76 22.45 23.78 20.61 22.59 24.92 25.00 25.37 24.79 23.78 23.91 24.94 24.30 24.47 23.91 23.21 22.55 21.69 21.25 20.98 20.78 20.05 18.01 15.76 16.52 17.12 17.09 16.36

GFSNW_sfc_wetblb_099.txt.gz
Wetbulb
44.71 44.88 44.92 44.87 45.15 45.16 41.88 37.29 27.44 41.98 45.66 33.04 32.10 26.07 30.34 34.97 33.57 36.95 35.49 34.96 32.80 31.19 32.73 32.60 32.95 32.13 36.62 40.38 40.12 35.63 37.48 35.59 33.57 37.15 41.31 42.97 41.77 38.53 38.04 31.77 30.14 33.59 33.00 33.29
44.91 44.85 44.74 45.14 44.99 44.75 39.85 33.94 31.08 41.07 38.27 27.27 25.10 30.88 31.87 33.19 32.42 33.67 34.10 33.93 34.61 34.54 31.32 28.27 34.31 33.92 41.48 41.48 39.12 35.14 36.06 33.04 29.34 33.89 36.79 40.63 39.82 41.67 42.42 38.86 36.60 32.35 27.28 31.96
44.66 44.80 44.93 44.90 44.89 44.89 39.25 35.00 27.55 31.91 35.40 36.27 31.52 29.76 30.66 30.46 36.50 34.67 35.64 34.43 34.78 31.98 30.23 33.74 31.70 33.80 39.16 40.73 40.78 42.18 39.91 33.35 30.01 26.25 32.04 36.12 33.29 36.66 40.64 37.40 31.25 32.27 32.59 36.34
44.39 44.41 44.76 44.95 44.82 44.71 39.12 34.64 27.11 33.55 27.81 30.52 31.25 31.71 31.33 29.47 29.88 35.51 35.54 32.73 31.94 30.21 26.52 28.95 29.25 32.94 34.55 37.36 40.99 38.48 36.21 29.82 32.96 34.25 35.35 34.95 34.17 34.08 36.67 34.21 37.01 34.57 37.13 37.68
43.71 43.90 44.20 44.52 44.74 44.68 38.08 31.06 27.53 31.53 29.76 32.18 31.02 31.72 29.76 29.40 31.23 32.29 31.49 30.45 32.95 32.02 27.96 29.43 28.08 31.57 31.56 33.09 37.02 34.85 36.83 30.74 33.76 31.32 35.60 35.65 32.65 34.91 35.20 35.78 36.25 35.69 36.79 36.13
43.67 43.79 44.17 44.52 44.54 43.15 36.26 36.77 36.41 32.87 28.87 27.59 25.63 26.99 30.38 31.18 32.70 34.44 35.98 34.80 32.72 30.37 33.55 36.17 36.45 37.24 36.34 36.31 34.23 33.50 34.34 31.63 30.13 27.64 34.10 33.12 27.19 33.15 35.13 35.71 36.94 35.58 31.75 37.38
43.51 44.01 44.30 44.73 44.86 43.66 38.12 35.80 34.99 30.50 23.39 26.17 27.56 30.56 31.74 31.52 32.82 31.20 34.90 35.65 33.55 36.82 40.87 41.31 39.67 37.71 37.33 36.02 35.81 36.20 33.30 31.61 31.77 27.74 30.24 20.94 33.79 40.56 39.22 36.94 39.07 39.75 41.54 43.11
43.22 43.81 44.16 44.10 44.59 44.52 38.33 37.77 36.37 32.20 22.91 28.56 29.42 30.63 31.84 33.40 34.05 32.61 33.86 36.39 38.79 40.15 37.39 31.15 28.80 28.09 28.80 31.85 34.63 33.88 35.39 33.40 28.31 25.82 24.77 30.83 34.33 38.35 38.85 37.88 37.43 42.06 41.23 42.46
43.10 43.93 43.78 43.84 44.09 44.00 39.53 38.23 39.62 36.59 29.64 25.21 31.72 30.33 31.60 28.71 30.10 30.14 33.67 38.79 40.22 40.71 34.54 30.77 23.46 20.31 26.62 26.05 30.72 35.80 35.20 34.61 29.46 27.53 22.94 20.53 35.24 40.37 42.31 41.11 33.29 42.92 42.67 42.00
43.05 43.24 43.59 43.90 43.96 44.08 40.35 36.74 40.38 37.31 31.95 32.11 33.37 28.26 29.58 33.24 32.17 29.58 33.25 34.35 34.81 37.77 24.83 24.91 24.41 23.93 31.82 26.59 26.67 26.41 27.75 28.61 26.12 26.23 26.68 30.60 39.29 41.29 42.97 30.06 33.05 43.02 43.45 42.32
43.16 43.18 43.50 43.82 43.99 44.44 42.42 38.84 40.31 37.23 32.12 32.09 34.76 34.97 31.83 32.75 32.13 29.11 31.99 30.13 32.76 32.71 29.28 26.56 26.23 23.80 29.91 31.12 33.41 31.10 27.52 26.59 25.36 27.89 23.74 22.90 42.17 41.33 36.36 40.33 41.28 41.64 42.54 42.22
43.25 43.51 44.10 43.80 43.84 44.15 44.07 37.42 41.53 42.03 35.34 33.40 38.21 38.73 39.45 38.14 37.11 33.77 34.22 33.36 32.77 34.23 31.00 28.97 30.41 26.71 31.02 31.19 27.53 35.06 29.12 32.73 30.58 31.03 29.78 39.20 42.87 42.80 44.61 43.75 41.89 41.25 41.96 42.01
43.33 43.83 43.46 43.73 44.01 44.35 43.91 40.63 41.35 39.79 35.07 33.51 32.75 31.90 37.72 41.51 40.96 40.45 33.47 35.77 36.74 33.63 34.03 34.65 33.50 29.33 33.26 28.48 30.25 32.58 36.85 39.93 34.87 34.69 38.14 40.02 41.99 44.10 44.86 45.01 44.13 44.35 43.69 42.79
43.41 43.73 44.08 44.25 44.07 44.33 44.50 40.92 42.37 39.85 36.25 25.61 29.23 40.02 37.44 41.06 40.91 40.13 40.16 39.23 39.26 38.23 38.04 33.81 31.94 29.94 36.68 32.95 32.25 32.14 36.50 38.81 36.74 37.01 39.39 40.29 42.52 43.77 44.40 44.47 45.27 44.49 43.74 44.23
44.00 44.23 44.11 44.19 44.26 44.80 44.34 43.87 43.25 42.77 35.71 27.98 31.48 38.24 40.34 41.59 40.77 38.75 38.61 39.57 37.81 35.89 33.77 32.12 30.03 34.16 35.34 35.65 35.22 33.38 38.21 37.35 35.42 34.05 40.76 40.03 40.79 43.89 45.69 44.69 43.06 42.94 42.42 42.10
43.98 44.54 44.17 44.46 44.82 44.49 41.28 33.82 42.14 43.66 41.44 33.72 28.20 36.77 37.65 39.58 39.88 38.98 37.10 37.28 36.86 35.17 34.00 33.37 32.99 37.35 34.01 28.17 28.77 38.33 40.00 41.04 40.54 39.09 42.94 42.16 43.76 44.39 43.98 42.42 41.59 41.54 40.08 39.59
44.18 44.35 44.61 44.84 45.12 43.34 36.70 36.11 39.84 43.32 42.90 32.18 29.54 27.96 37.18 40.17 38.83 37.17 36.55 37.75 35.57 34.96 35.81 32.43 31.42 32.18 35.61 31.24 27.16 37.29 40.40 41.28 42.57 44.11 43.65 41.54 42.22 40.19 42.40 43.11 42.48 41.34 38.63 37.14
44.74 44.39 44.57 44.89 45.11 43.11 38.72 43.13 44.97 44.01 36.17 35.36 28.10 25.58 30.59 40.56 33.52 30.97 36.95 34.10 36.32 36.88 35.47 34.71 31.36 33.86 32.60 28.06 35.28 38.41 40.16 41.69 39.98 40.72 41.17 40.51 41.17 41.21 40.32 40.74 40.67 40.03 36.85 33.53
45.01 44.62 45.01 43.47 38.56 35.21 38.24 44.78 44.81 43.86 38.38 31.15 30.27 25.48 26.03 37.38 33.38 36.54 36.78 37.70 30.83 36.61 32.14 32.83 32.64 30.60 27.15 34.58 35.19 35.48 35.84 35.66 35.94 38.31 37.60 37.35 36.77 36.40 36.70 37.08 37.29 36.45 37.19 31.46
44.74 41.26 33.97 29.94 35.22 44.74 43.40 40.41 36.28 35.84 36.47 37.01 30.29 33.86 28.30 36.11 34.29 32.36 32.92 34.05 31.29 28.17 30.53 35.71 32.21 30.15 34.26 33.78 33.74 33.97 33.97 34.09 34.51 32.20 31.62 32.31 31.83 32.19 32.94 33.34 33.39 33.03 33.23 29.34
38.54 33.07 33.46 39.46 44.61 39.10 35.10 30.29 30.61 31.59 29.52 32.57 32.63 33.85 32.45 37.54 31.91 31.57 33.52 30.96 31.77 25.95 29.78 30.57 29.35 28.27 29.85 31.08 30.40 31.63 30.94 31.04 31.25 31.53 31.22 30.67 30.22 29.08 30.46 31.04 30.80 29.73 29.05 26.79
39.90 40.05 41.91 40.78 36.31 32.70 29.52 28.53 30.63 29.98 26.04 30.32 28.63 30.44 34.61 36.10 39.53 33.04 32.96 30.57 31.21 26.66 34.38 30.17 25.88 25.24 27.49 27.69 27.53 28.22 28.44 28.39 28.15 28.89 28.00 27.72 26.64 26.21 27.93 27.40 26.43 25.60 24.88 23.41
41.60 38.52 34.81 33.40 31.07 26.04 25.99 23.49 23.82 22.44 28.61 31.04 30.47 31.58 33.38 33.49 37.19 31.98 31.02 28.34 25.86 34.22 30.49 22.71 22.24 25.25 26.08 25.82 26.20 25.85 26.90 26.92 26.44 26.10 25.70 25.30 24.55 23.52 23.37 23.22 23.96 23.32 22.03 21.89
34.99 30.83 27.31 27.73 23.42 27.66 25.63 27.83 29.23 30.82 31.96 30.18 30.80 29.48 32.36 32.92 31.79 31.73 27.08 28.23 31.12 25.60 21.83 17.12 21.70 23.79 24.35 25.00 25.42 24.30 23.80 25.59 24.77 23.41 21.98 21.83 21.57 19.75 19.26 19.38 19.76 19.81 18.88 18.60
29.16 29.04 22.47 23.74 27.01 27.96 28.74 30.79 30.57 29.64 32.14 32.12 29.74 31.40 31.99 30.87 29.38 30.67 29.12 26.41 23.77 20.28 16.26 20.81 22.42 24.01 24.08 24.68 23.94 19.58 22.08 23.18 23.05 19.20 15.21 14.60 15.78 15.59 14.32 16.33 16.76 16.61 15.28 15.23
26.33 24.36 25.16 27.42 26.20 25.05 26.38 27.69 27.28 29.36 29.34 32.07 33.84 29.77 30.28 28.28 26.24 27.43 21.19 23.76 17.15 17.33 20.98 22.22 23.17 22.05 23.36 22.65 18.96 18.81 16.40 16.43 15.47 17.93 15.17 14.67 14.05 13.92 14.09 15.23 15.49 14.80 15.09 14.91
24.21 21.21 24.70 26.10 24.48 23.23 23.86 26.52 26.23 29.76 28.97 31.23 30.78 27.07 25.07 31.12 23.16 19.17 21.53 13.23 19.75 21.88 22.04 21.96 18.67 16.23 14.46 19.93 17.54 20.37 18.06 15.55 14.82 12.29 14.30 14.90 13.73 13.87 13.77 11.73 13.39 14.11 13.98 13.41

GFSNW_sfc_wetblb_102.txt.gz
Wetbulb
44.78 44.71 44.95 44.78 45.08 45.38 40.90 36.14 26.98 37.36 42.76 31.42 30.39 28.38 30.02 34.21 32.12 34.75 32.06 33.07 31.62 30.55 30.65 29.54 31.98 31.35 33.26 40.03 38.56 34.52 36.62 33.59 30.39 36.64 40.48 41.74 39.61 36.77 37.86 30.31 28.97 31.82 30.18 31.33
44.77 45.01 45.00 45.01 45.15 44.72 35.26 32.50 29.42 37.61 37.27 21.47 27.53 29.77 30.85 32.94 31.93 32.55 31.44 31.25 32.88 33.97 30.76 26.99 31.82 33.76 38.38 40.15 37.36 33.98 35.19 31.87 26.73 33.15 37.19 39.25 35.60 37.88 40.66 37.93 34.98 30.45 27.92 30.25
44.70 44.58 44.70 44.95 45.16 44.60 38.58 32.71 25.29 28.37 36.61 35.03 30.00 29.70 28.60 28.98 35.24 33.39 34.70 33.20 33.83 30.18 28.22 32.22 29.29 31.88 36.55 38.65 38.31 38.56 37.84 32.67 27.83 25.00 31.92 35.24 31.04 33.63 37.66 36.73 29.16 30.71 32.06 35.01
44.26 44.22 44.35 44.42 44.74 44.50 37.51 33.01 26.71 28.74 18.27 24.83 29.41 31.32 29.90 28.51 28.67 34.07 34.71 31.26 31.37 28.98 24.39 26.16 25.85 30.60 32.49 35.56 39.53 39.41 35.79 30.02 31.87 32.37 34.46 35.43 33.04 33.09 33.30 34.03 33.75 29.87 34.91 37.04
44.16 43.81 43.74 44.07 44.22 44.30 34.20 29.65 30.30 30.09 27.96 30.41 27.76 28.47 28.27 28.96 29.57 31.25 30.64 29.60 31.81 31.32 27.21 28.65 27.63 31.26 31.26 30.75 36.23 34.95 37.32 30.84 31.98 28.53 33.67 34.50 32.92 34.47 34.41 35.05 34.76 34.14 34.67 33.99
43.75 43.75 43.88 44.10 44.41 42.80 35.32 36.60 34.97 32.15 27.40 26.12 22.69 25.19 28.39 28.95 31.22 32.99 34.41 33.38 31.50 29.72 32.52 34.93 35.31 35.41 34.82 34.00 33.42 31.89 33.51 31.22 28.66 25.89 32.23 32.67 26.12 31.69 34.04 35.04 36.70 36.08 31.33 38.70
43.70 43.57 43.80 44.26 44.19 42.54 35.71 33.89 35.84 31.26 22.11 25.49 26.10 28.45 29.41 29.69 31.33 30.36 33.30 33.90 31.60 36.35 40.00 38.42 36.96 35.79 35.16 34.50 34.25 35.54 31.02 30.10 28.10 25.18 28.10 20.41 33.39 38.89 37.81 38.26 39.17 39.53 39.64 40.43
43.47 43.99 44.21 43.80 44.38 44.11 36.15 35.53 34.89 31.59 20.63 26.84 27.20 28.90 29.27 30.73 31.98 31.38 32.11 34.77 36.90 38.70 36.08 28.62 27.31 26.38 27.44 29.88 33.06 31.98 33.35 30.08 23.49 21.97 22.67 28.89 32.94 37.19 36.33 36.29 36.15 41.02 39.68 40.77
43.15 43.65 43.52 43.61 44.07 44.16 37.34 35.47 37.19 36.11 29.57 24.67 30.28 28.37 30.01 27.16 26.98 29.13 32.19 36.99 38.46 38.05 31.21 25.52 23.47 19.55 25.41 24.62 28.21 34.32 32.22 31.56 25.83 24.20 21.05 18.33 32.90 38.58 41.13 39.61 32.21 41.60 41.81 41.10
42.92 43.04 43.26 43.43 43.51 43.79 38.24 35.41 37.80 35.94 30.07 30.27 30.50 26.22 27.12 31.61 30.41 26.90 30.62 32.17 31.76 37.59 27.37 25.16 22.68 22.45 30.45 24.97 25.92 25.07 24.49 24.31 23.94 22.77 21.19 28.55 37.15 40.26 41.41 28.61 30.99 41.33 41.90 40.61
42.64 42.91 42.85 43.01 43.48 43.75 40.38 35.59 38.17 35.95 30.14 30.83 33.26 33.79 29.33 29.50 29.46 27.46 30.52 28.57 31.58 29.65 27.68 27.21 25.17 23.14 28.85 28.03 31.63 30.78 25.22 21.71 19.60 23.50 20.94 20.95 39.62 40.23 34.04 38.20 39.85 40.59 40.88 40.92
42.49 42.60 42.69 42.93 43.40 43.58 43.39 37.17 40.94 38.95 33.85 30.29 36.61 37.07 37.45 36.52 35.54 31.43 32.32 30.52 31.17 34.21 29.31 29.60 29.68 26.91 29.94 29.89 26.27 33.46 27.62 29.19 27.51 28.42 28.22 37.70 40.41 40.80 44.65 43.52 40.52 39.46 39.78 40.70
42.01 42.35 42.62 42.81 43.38 43.77 42.57 39.75 40.62 39.23 34.46 32.91 32.08 30.98 36.48 38.73 37.67 38.29 29.86 32.11 36.87 33.11 35.87 32.18 32.33 28.25 32.44 26.39 27.94 30.06 35.58 37.44 33.59 32.51 36.70 38.63 40.53 42.62 44.75 44.14 41.54 41.55 42.39 43.94
41.99 42.28 42.56 43.10 43.44 43.83 43.73 39.57 41.38 39.14 35.93 27.57 27.40 37.27 34.33 38.34 38.08 37.39 38.21 36.49 37.59 37.43 36.12 33.27 32.18 28.40 35.20 30.81 32.50 31.56 34.60 36.96 36.02 36.30 39.03 40.22 42.07 42.52 42.78 43.05 43.55 43.56 41.75 40.77
42.25 42.65 42.98 43.26 43.55 43.95 42.83 41.18 41.22 41.71 35.10 26.93 30.15 36.45 38.82 39.52 37.89 36.64 37.03 37.36 36.74 35.45 33.22 31.32 28.94 32.76 33.57 34.01 34.69 33.01 38.23 34.77 33.19 33.04 39.41 38.48 40.89 43.97 44.45 42.24 41.80 42.40 39.88 36.70
43.28 43.47 43.50 43.65 43.99 44.25 40.77 34.22 41.66 43.24 40.94 33.63 26.80 33.69 36.05 37.90 37.62 36.90 35.86 35.77 35.89 36.23 33.28 31.52 33.51 36.64 34.93 30.50 28.76 36.91 39.52 39.68 39.82 37.58 41.87 41.43 41.65 41.37 43.03 40.94 40.16 39.64 38.30 36.96
43.56 44.04 44.26 44.24 44.43 42.53 35.69 35.16 38.49 44.11 42.06 31.66 28.58 25.84 32.94 38.23 37.21 35.05 34.42 35.23 33.61 33.73 32.50 32.68 32.14 31.26 33.95 30.59 27.90 35.20 39.67 40.49 40.13 39.86 41.93 38.24 38.15 36.62 39.39 40.24 38.75 37.17 34.47 33.62
43.53 44.02 44.31 44.29 44.60 43.06 38.49 42.28 44.66 43.92 35.10 34.14 28.32 24.13 27.50 36.92 31.38 29.63 33.85 31.79 34.00 35.12 31.24 32.32 32.99 31.79 32.70 28.83 33.32 34.41 37.10 38.30 37.72 37.26 37.82 36.96 37.23 36.58 35.84 36.82 37.30 36.49 32.34 30.05
44.18 44.51 44.51 42.35 38.93 33.82 38.03 44.70 44.30 42.71 38.30 30.39 29.67 21.44 20.69 36.48 33.40 35.74 35.57 36.16 30.52 36.08 30.77 29.97 31.39 28.11 28.45 33.42 32.87 31.32 31.00 31.19 32.91 34.97 33.66 33.63 32.30 32.28 32.89 33.74 32.45 32.51 30.78 28.09
44.88 41.81 34.02 29.79 34.76 44.07 43.50 40.08 36.12 35.33 35.68 35.84 28.38 29.25 26.95 34.87 33.01 31.58 32.18 33.43 28.62 27.17 30.72 33.47 30.06 29.88 31.61 30.84 30.40 30.18 29.81 29.65 30.53 29.53 28.08 28.81 28.26 28.58 30.14 31.39 31.68 31.84 30.36 27.44
38.13 32.90 33.39 37.98 43.89 39.36 34.73 29.58 29.83 31.41 29.00 31.36 31.14 31.31 31.11 36.88 31.05 31.34 32.33 30.07 31.34 25.21 27.43 28.58 27.65 27.28 26.93 29.18 28.16 28.36 28.65 28.94 27.99 28.27 27.76 26.76 25.90 25.60 27.92 28.37 28.45 28.33 27.39 25.93
38.82 39.90 41.79 40.84 36.55 32.39 28.00 27.45 30.07 27.86 25.04 27.86 28.05 29.69 33.88 35.27 38.05 31.82 31.98 29.65 30.29 25.39 32.70 25.91 23.17 22.65 25.92 26.11 25.92 26.31 26.93 26.78 26.75 26.76 25.60 25.11 23.64 23.38 25.03 24.45 24.61 24.26 23.94 22.76
40.73 37.71 33.81 31.11 30.35 23.66 20.18 21.68 23.92 20.12 24.74 27.83 26.53 26.54 31.25 34.11 35.37 31.85 31.24 27.93 26.54 33.47 28.83 19.05 19.95 23.55 24.52 24.64 24.60 24.33 25.42 26.18 24.61 23.15 23.13 23.40 22.01 20.99 21.07 21.00 21.90 22.61 21.65 21.66
34.65 30.93 26.75 26.72 23.22 23.47 22.98 26.72 29.46 30.28 31.58 28.11 27.08 26.70 31.24 31.64 29.15 26.95 27.19 27.65 30.27 19.72 20.86 15.85 20.63 23.04 24.01 24.09 23.23 22.56 21.59 24.02 21.90 19.36 20.11 19.45 18.80 17.17 17.16 16.79 17.85 17.51 18.01 18.12
28.34 26.49 20.60 22.91 24.56 26.44 28.11 30.61 29.59 29.19 31.07 31.18 32.42 30.49 29.75 29.45 26.33 29.93 27.49 25.76 18.98 18.02 14.48 18.69 21.57 22.86 23.43 22.03 21.52 19.87 19.40 18.15 17.64 14.12 12.91 12.23 12.95 13.20 12.73 14.95 15.26 15.48 14.13 14.10
25.26 21.80 24.24 26.18 23.02 22.33 25.17 26.11 26.18 28.88 28.70 31.47 31.48 28.00 27.73 23.38 28.25 25.01 19.86 19.42 10.93 14.10 17.90 20.80 21.48 18.81 19.83 17.55 17.24 15.96 12.49 12.30 11.17 12.34 13.31 11.07 9.49 9.18 9.20 10.93 11.62 11.10 11.23 10.22
23.27 18.56 23.33 22.58 22.68 20.93 22.82 25.13 25.14 28.72 28.35 30.70 27.62 25.21 22.34 29.44 18.79 16.56 19.34 9.89 15.62 20.23 21.24 20.98 17.56 15.77 14.40 16.40 15.28 14.73 14.81 12.13 10.02 11.28 12.40 11.76 12.66 12.84 11.22 8.38 10.45 11.91 11.94 11.00

GFSNW_sfc_wetblb_105.txt.gz
Wetbulb
44.60 44.56 44.56 44.84 44.64 44.75 39.60 33.93 18.77 35.08 39.30 26.54 29.23 25.32 29.57 33.29 31.46 34.23 32.02 31.26 30.25 29.03 29.50 27.32 27.71 31.79 32.82 38.85 38.08 33.42 33.72 30.89 26.65 32.98 38.98 38.93 36.38 33.52 34.53 28.41 27.90 29.28 27.49 27.66
44.36 44.53 44.84 44.85 44.87 43.91 34.14 30.43 30.94 35.91 36.54 22.42 21.43 30.43 30.26 32.03 30.58 31.47 31.07 30.12 32.43 32.31 29.62 26.07 29.31 31.08 37.67 38.33 36.64 33.56 34.19 29.70 24.70 29.18 33.98 37.51 33.51 34.79 37.70 35.68 34.12 29.81 25.86 27.93
44.20 44.62 44.85 44.54 44.60 44.40 36.25 30.99 23.61 25.76 36.55 34.11 27.04 26.54 27.40 27.90 34.08 32.26 33.37 32.28 33.47 30.56 28.08 31.84 28.30 29.63 34.93 36.88 36.49 37.79 36.94 31.29 27.99 23.70 27.07 35.41 31.55 32.37 36.33 35.05 28.68 29.11 28.91 33.11
44.26 44.58 44.51 44.20 43.95 43.96 37.13 31.65 27.12 28.49 16.68 24.78 27.95 29.43 28.31 26.87 27.24 33.03 33.93 30.20 30.68 29.09 25.17 26.53 27.55 31.47 32.68 35.77 39.06 36.19 33.83 27.93 30.37 31.67 33.86 34.71 33.85 31.99 32.68 33.43 32.83 28.86 32.02 33.09
44.06 44.37 44.31 43.98 43.94 43.96 34.66 28.21 26.83 33.03 27.56 28.40 26.54 26.45 24.66 26.41 27.48 29.93 29.78 29.25 30.67 30.16 26.88 28.70 27.16 30.24 29.87 29.43 33.88 32.72 36.63 29.13 30.99 28.86 33.25 33.77 32.54 33.56 34.40 34.85 35.70 35.37 36.06 33.28
43.89 44.16 44.06 43.96 43.87 42.21 34.46 34.74 35.94 31.81 26.17 25.79 22.12 24.50 27.55 26.85 29.41 32.19 33.49 31.73 29.67 28.87 30.52 33.85 34.23 34.00 33.84 32.75 31.03 29.98 32.19 31.28 28.67 23.68 31.08 30.04 26.55 31.72 33.58 34.19 36.34 36.99 32.72 37.38
43.66 43.91 44.04 44.15 43.81 42.03 34.23 33.40 34.28 30.19 23.43 26.29 25.87 27.23 28.02 28.21 28.96 28.34 32.11 32.65 29.55 33.90 38.38 37.17 35.32 33.51 33.92 33.30 32.39 33.54 29.77 29.99 29.73 26.28 27.75 18.45 32.22 38.47 38.84 37.32 37.83 38.49 39.31 41.54
43.54 44.04 44.42 44.30 44.03 43.80 35.38 34.41 35.20 31.23 20.28 26.59 26.65 26.98 26.72 29.06 30.03 29.71 31.03 33.19 35.21 36.58 34.43 27.59 26.40 25.64 26.60 28.55 31.48 30.92 32.30 30.06 26.02 24.21 24.22 27.34 31.56 36.45 34.40 35.74 35.70 40.54 38.84 40.68
43.12 43.48 43.72 43.60 43.72 43.99 36.88 34.23 36.41 35.09 27.71 24.98 29.26 27.44 27.90 25.24 25.81 27.31 29.82 35.78 36.09 36.48 29.60 23.46 19.39 19.03 24.76 24.46 27.73 32.03 31.05 30.03 27.51 24.97 20.24 14.96 28.74 36.99 39.63 40.18 31.37 41.54 41.50 40.68
42.62 42.88 43.24 43.53 43.54 43.58 38.23 34.74 36.60 34.24 28.39 29.55 29.72 25.79 25.44 29.47 27.41 25.75 28.44 30.41 31.07 34.03 25.12 22.48 21.60 21.41 28.16 19.74 23.64 27.31 23.83 24.44 23.11 22.21 19.33 25.83 34.41 38.68 39.81 28.76 32.18 41.51 41.54 40.79
42.37 42.76 43.12 43.22 43.26 43.43 38.53 34.33 37.86 35.02 30.04 29.37 32.16 32.83 28.63 28.12 28.38 23.55 28.09 26.68 28.18 27.92 24.55 26.93 26.54 21.91 25.98 25.42 29.28 28.91 26.29 20.70 17.43 21.63 19.53 19.30 37.25 38.64 32.12 36.87 40.17 41.52 40.45 40.10
41.98 42.73 43.03 43.09 43.00 43.36 42.08 34.99 38.17 38.45 34.17 29.33 35.22 35.57 36.34 34.59 33.49 30.23 30.05 28.23 26.97 32.54 28.30 28.47 27.21 23.66 28.80 28.69 23.77 32.41 26.93 29.14 25.60 26.36 25.54 34.09 38.44 38.84 42.16 41.36 38.94 39.22 39.26 41.22
41.91 42.30 42.52 42.87 42.83 43.23 41.26 37.60 39.02 38.39 34.37 32.91 32.02 30.55 35.73 38.02 37.35 37.86 29.92 29.33 34.32 33.72 35.21 30.59 29.04 26.61 29.40 25.82 26.93 30.17 33.24 36.31 31.58 29.52 32.63 36.21 39.27 41.50 42.57 42.45 40.90 42.75 43.34 43.11
41.58 42.15 42.32 42.54 42.73 43.03 42.79 38.43 38.35 37.25 35.30 27.97 27.13 35.85 32.96 37.37 37.11 36.26 36.37 33.81 35.76 34.79 34.57 30.61 28.71 26.84 33.09 28.10 31.71 31.07 33.06 33.31 35.10 34.15 37.77 39.06 40.67 41.68 42.14 43.00 42.05 39.75 38.85 38.80
41.35 41.78 42.07 42.44 42.69 43.14 41.39 38.52 39.76 40.22 34.94 26.57 27.97 34.33 36.68 38.80 35.60 34.29 34.46 33.67 33.36 32.83 32.35 31.04 27.85 30.41 31.25 32.99 33.42 32.56 35.37 33.30 31.96 30.86 36.83 38.42 39.82 40.50 43.70 42.03 40.69 39.03 37.07 35.34
41.14 41.55 42.16 42.65 43.03 43.56 39.72 33.86 39.89 41.17 40.63 33.48 24.05 33.86 35.12 37.07 36.75 34.36 33.74 35.26 34.43 35.45 31.53 30.05 32.55 35.74 33.58 28.14 29.01 35.84 38.45 39.80 36.96 33.95 39.79 38.86 38.38 39.28 40.61 38.47 37.19 36.61 35.22 34.59
41.24 41.80 42.61 43.00 43.44 41.57 35.86 33.69 38.83 42.62 41.13 31.67 27.51 25.26 30.79 35.03 34.70 33.23 32.81 33.53 32.96 32.31 32.12 29.51 30.18 31.26 32.41 29.71 26.79 33.22 38.05 39.44 39.27 39.13 37.47 34.71 35.10 33.15 36.43 37.30 35.33 34.14 31.93 30.98
42.15 42.59 43.21 43.51 43.49 42.38 38.09 40.53 44.52 43.34 35.12 34.17 28.43 24.16 26.33 34.93 29.72 29.78 32.85 30.10 31.99 31.46 30.91 33.84 30.66 31.05 29.96 27.90 32.58 31.80 32.58 35.41 35.15 34.39 35.21 35.08 34.70 33.94 34.24 34.12 34.59 32.73 29.81 28.32
42.02 42.93 43.66 42.35 39.31 34.72 37.19 43.59 44.14 42.51 37.56 30.09 29.75 20.82 19.86 34.58 33.12 34.64 34.86 31.54 29.06 33.22 31.02 30.51 30.46 27.98 27.69 30.88 30.12 28.51 29.22 28.76 29.55 33.61 31.57 31.09 29.20 29.48 31.25 31.61 30.83 30.93 28.95 26.95
43.05 41.71 34.22 30.73 35.06 42.36 43.93 39.63 33.81 32.92 33.43 35.07 28.23 26.63 24.05 32.25 33.04 31.77 31.97 32.86 28.21 26.68 30.05 32.84 29.49 28.58 29.20 28.91 28.74 28.54 28.54 28.01 28.71 27.59 26.04 25.81 25.27 25.79 27.68 28.93 29.88 29.92 29.20 27.49
37.91 32.03 32.68 37.91 43.16 39.25 34.51 29.20 29.71 30.93 27.38 31.02 30.76 28.84 28.05 35.45 30.12 30.24 32.15 29.80 28.57 23.40 25.31 27.38 27.72 25.36 25.23 27.70 26.62 27.33 27.55 27.66 26.88 26.73 26.53 24.67 23.56 23.63 25.17 25.68 26.11 26.40 26.18 25.22
38.17 38.91 41.35 40.61 36.54 32.20 27.64 26.83 29.36 28.37 24.42 26.40 28.10 29.97 31.73 34.59 36.77 31.43 31.59 28.11 29.36 23.66 31.44 27.58 22.62 20.81 24.55 25.21 24.87 25.03 25.89 25.25 24.02 23.47 22.92 23.71 22.25 21.25 22.79 22.36 21.98 22.66 23.38 22.58
40.44 37.11 33.67 30.67 29.54 23.81 19.12 19.12 25.26 25.04 24.48 25.36 26.48 31.55 30.34 33.98 35.63 31.83 30.69 27.72 27.03 32.51 24.95 18.67 19.59 22.54 23.65 23.10 22.74 22.56 24.36 24.33 21.94 20.64 20.98 20.73 19.41 18.62 18.54 17.48 18.74 19.28 18.38 20.54
34.34 30.73 25.97 23.67 20.70 24.01 21.19 24.73 26.13 27.98 31.35 30.75 24.55 30.81 31.33 31.77 30.67 30.20 22.83 28.47 30.39 25.02 19.19 13.74 18.46 22.02 23.54 22.83 22.70 21.25 19.34 20.64 19.49 17.60 18.07 16.90 16.49 15.14 15.19 14.28 15.92 14.43 15.12 15.02
28.32 26.54 20.52 17.27 21.35 27.05 27.86 30.45 29.53 28.94 30.62 31.56 31.41 29.73 30.25 27.26 25.87 27.57 27.03 25.02 15.66 15.33 13.08 15.44 20.63 22.57 22.77 21.34 20.95 18.98 18.65 15.59 13.07 10.86 11.28 9.68 10.62 11.15 10.33 12.26 13.15 14.07 12.70 11.80
24.51 21.39 21.97 24.10 22.26 21.63 24.11 25.06 25.43 28.87 28.16 30.78 32.54 29.67 27.02 23.06 27.40 23.52 16.00 18.06 12.54 14.44 17.13 20.34 20.35 19.56 20.24 19.12 19.10 14.92 11.96 12.33 10.57 10.19 10.88 9.11 7.88 7.77 7.11 9.32 9.69 9.72 8.95 8.81
22.30 17.82 21.59 18.88 21.05 18.44 21.33 23.29 23.83 28.23 27.47 29.21 28.47 25.44 21.66 26.61 19.04 15.47 17.20 8.11 12.25 16.50 19.16 19.14 19.34 17.29 13.78 11.50 15.60 15.82 13.52 9.68 7.94 7.78 8.65 7.72 8.68 8.79 8.51 5.66 7.84 9.51 9.52 9.15

GFSNW_sfc_wetblb_108.txt.gz
Wetbulb
43.86 43.95 43.73 44.02 44.48 44.27 38.89 30.56 17.59 36.73 37.16 23.45 27.99 23.99 28.14 33.08 30.90 33.53 30.91 30.99 29.41 27.75 29.17 28.32 27.49 27.25 30.04 35.89 35.17 33.15 34.55 30.10 26.77 30.43 37.27 37.73 33.67 30.91 32.50 26.33 25.97 27.68 26.65 26.72
44.15 44.02 43.92 44.28 44.10 43.70 33.06 27.08 27.93 34.70 36.39 20.77 19.08 27.37 29.51 31.25 29.78 30.15 30.54 29.36 31.61 32.33 29.03 25.42 28.71 29.71 34.68 35.67 35.14 32.35 34.19 28.83 24.77 26.67 32.19 35.70 31.97 32.94 35.33 33.01 31.05 27.43 24.29 26.88
44.51 44.02 44.07 44.33 44.06 44.22 34.41 27.96 18.83 25.12 35.58 33.69 27.44 20.10 24.77 26.38 32.84 31.21 32.07 31.28 32.62 30.18 28.09 31.14 27.85 29.65 34.41 36.51 36.23 38.71 36.52 32.02 27.17 23.29 26.32 31.56 30.37 31.31 32.17 31.87 26.74 27.94 27.78 32.68
44.14 43.89 43.94 44.23 44.10 44.53 35.79 28.25 20.18 29.25 20.17 22.25 26.48 25.98 27.31 25.00 24.67 31.63 32.99 29.64 29.43 28.45 25.79 26.64 27.24 30.97 32.25 35.00 37.80 37.12 34.41 28.25 30.05 30.22 32.18 33.31 33.44 33.23 31.66 31.86 30.60 28.12 30.05 30.00
43.80 43.84 43.89 44.42 44.18 43.83 33.30 27.61 23.50 30.62 28.07 27.67 26.40 24.51 23.80 25.53 25.74 27.84 28.01 27.51 28.62 29.64 26.93 27.68 26.12 29.22 30.02 29.27 33.69 32.39 35.22 26.46 30.58 26.98 30.94 30.28 30.52 32.73 32.31 33.30 33.93 33.66 32.78 33.10
43.90 43.71 43.96 44.44 43.98 41.35 35.05 31.44 32.34 28.65 25.27 25.43 21.83 23.37 25.97 25.11 27.90 29.95 31.83 30.75 28.70 27.63 29.59 31.52 32.63 33.84 33.10 32.69 30.72 29.64 30.39 29.17 26.33 23.29 28.91 28.14 24.88 30.68 32.75 33.87 35.88 34.60 29.49 35.79
43.56 43.54 44.05 44.34 44.25 42.03 33.09 31.73 32.36 28.04 20.57 25.12 25.43 26.70 26.60 26.04 27.11 25.89 29.83 31.69 28.99 32.24 35.60 35.68 34.16 32.93 32.95 32.30 31.77 33.32 28.42 27.60 28.13 25.71 27.66 17.46 30.48 37.29 35.83 35.25 37.24 36.74 38.26 40.28
43.31 43.43 43.80 44.37 43.81 43.28 34.46 32.82 32.81 30.28 20.15 26.59 26.20 26.27 26.36 27.46 28.01 27.77 29.59 32.02 33.82 34.92 33.08 27.46 25.68 25.40 26.74 28.20 30.32 29.63 30.84 28.38 23.96 23.16 23.82 26.83 29.91 36.09 34.65 33.57 35.02 39.29 39.69 40.02
43.17 43.53 43.47 43.83 43.80 43.63 37.72 34.67 35.57 34.31 24.92 23.46 28.23 26.56 27.44 24.71 24.23 26.57 28.55 33.61 34.87 33.87 28.50 21.76 19.53 18.15 24.10 24.00 26.82 30.79 29.80 29.23 25.62 24.91 21.16 17.52 28.47 35.10 38.21 38.70 30.22 41.31 41.50 41.08
42.72 42.79 43.16 43.32 43.66 43.47 37.67 36.09 37.00 34.97 26.52 27.91 29.65 25.85 25.44 27.96 26.91 24.60 27.28 29.23 29.35 31.61 23.26 21.80 20.60 21.42 26.61 18.97 21.80 25.91 24.41 23.56 22.62 23.02 21.71 26.54 32.69 36.62 38.62 28.11 29.89 41.04 42.20 41.54
42.87 42.51 42.43 43.02 43.37 43.54 38.13 34.80 37.98 35.53 29.24 27.93 30.99 31.90 28.46 27.86 26.73 22.42 26.47 24.74 26.73 27.33 21.22 22.97 24.62 23.76 25.36 24.96 25.90 25.84 26.19 23.12 18.20 21.16 18.31 18.41 35.26 36.92 31.91 36.04 39.37 41.89 40.72 39.97
42.30 42.11 42.72 42.71 43.20 43.15 40.26 31.58 37.28 39.22 34.07 28.81 33.14 33.95 34.73 33.02 32.22 27.60 28.96 26.29 25.26 29.40 24.79 26.09 26.65 23.69 28.01 25.65 22.10 31.86 22.95 29.97 26.39 26.08 24.41 32.52 36.46 37.30 40.53 41.52 38.88 39.31 39.53 43.28
41.80 41.62 42.06 42.73 42.92 43.18 40.99 37.47 38.74 37.73 33.92 31.79 31.33 30.10 34.84 36.91 36.26 36.57 29.81 28.67 31.48 30.50 34.50 25.44 26.90 24.07 27.30 23.05 25.10 29.99 32.88 33.98 30.54 29.84 32.22 34.97 38.56 40.29 41.37 42.43 41.16 41.81 41.51 41.12
41.60 41.59 42.15 42.45 42.89 43.09 40.96 37.84 38.59 36.83 33.95 26.97 26.67 35.02 31.93 36.04 36.28 35.46 35.90 32.74 34.60 34.94 34.02 29.98 27.36 25.77 31.49 26.15 28.83 28.29 32.56 33.11 32.57 32.03 35.53 37.55 38.87 38.88 41.37 40.74 39.75 38.11 37.93 37.91
41.08 41.43 41.86 42.02 42.56 42.74 39.71 37.10 38.29 38.80 33.90 26.60 27.80 33.03 35.70 36.55 35.18 33.84 34.26 32.83 31.03 29.45 28.46 30.53 27.93 30.11 30.21 31.44 32.79 30.89 35.78 32.67 30.80 30.99 36.48 37.48 36.66 38.65 41.26 38.62 37.56 37.50 35.33 32.72
40.92 41.19 41.62 42.02 42.55 42.96 38.60 33.15 38.51 40.06 39.43 32.67 23.83 30.55 32.57 35.04 35.31 32.43 31.58 31.80 30.52 30.17 28.05 28.52 32.12 35.50 32.77 26.33 26.40 34.17 34.77 34.10 35.79 32.64 36.39 35.34 36.06 35.76 37.64 35.87 35.32 34.59 33.25 32.35
40.56 40.76 41.36 41.79 42.67 39.00 34.52 32.47 37.67 41.73 40.82 31.76 24.03 25.75 30.37 32.97 33.52 31.61 30.75 32.39 34.26 33.13 28.63 27.34 29.02 30.31 31.07 26.50 25.68 31.12 34.38 35.84 34.75 34.71 34.39 32.64 32.25 30.91 33.74 35.44 33.84 32.54 30.13 29.20
40.49 40.93 41.55 42.26 42.40 41.09 37.23 39.56 42.47 42.64 36.40 33.92 23.57 24.76 26.16 33.71 27.36 26.56 31.54 30.37 32.15 33.86 28.92 32.04 30.19 30.32 28.59 25.97 30.70 29.93 30.63 32.65 32.70 33.60 33.33 31.66 32.02 31.82 32.13 32.66 34.03 30.87 28.47 27.47
40.75 41.15 41.79 40.70 38.61 34.10 37.19 43.22 43.18 41.13 35.82 29.46 29.26 20.83 17.39 35.19 33.30 34.87 33.83 31.69 27.62 30.63 29.79 28.47 29.59 27.86 25.59 28.36 28.22 27.62 27.26 27.02 26.92 31.82 28.66 28.17 26.59 26.66 28.87 29.91 29.93 30.37 28.99 27.79
41.05 39.93 33.94 29.70 34.46 42.04 42.85 37.74 34.10 32.29 32.07 33.71 25.98 25.56 21.51 30.14 31.37 30.02 30.74 32.41 23.91 23.94 27.87 31.41 29.42 26.92 27.98 27.63 27.35 27.25 26.84 26.85 26.44 25.71 24.72 23.60 22.73 23.15 24.87 25.92 26.86 27.44 27.66 26.92
36.35 31.54 31.93 36.92 42.28 39.02 34.62 29.29 28.51 30.15 26.85 30.65 28.69 27.40 24.24 32.53 27.78 29.60 31.49 29.46 28.05 23.53 24.37 26.68 25.87 23.81 23.81 25.86 25.61 26.21 25.97 25.31 23.50 24.14 24.04 23.88 22.31 20.98 22.50 22.87 23.48 24.26 24.26 23.43
36.01 37.89 40.57 40.30 36.02 32.29 27.80 26.01 28.53 27.35 24.07 25.10 27.39 28.92 29.72 32.40 36.91 31.15 31.66 27.69 27.66 22.49 29.74 26.66 20.92 19.62 23.59 23.58 22.83 22.85 25.04 23.68 21.87 21.83 21.32 21.09 20.39 19.57 20.64 19.46 19.31 19.88 22.20 22.13
40.23 37.29 33.00 31.51 29.73 24.66 18.96 18.20 24.21 24.07 23.98 23.59 28.03 29.67 28.58 33.11 35.20 31.30 30.24 27.04 24.81 31.95 24.47 17.59 18.20 22.57 23.12 22.48 22.52 21.89 23.06 22.13 20.67 19.51 19.10 18.41 17.75 16.53 16.28 15.15 16.40 17.37 16.27 18.32
33.49 29.87 24.38 23.92 21.68 23.42 21.58 25.29 25.78 26.61 31.29 30.82 28.40 31.51 31.65 32.05 30.59 30.57 25.48 28.61 28.68 24.03 15.34 13.85 17.83 21.63 22.08 22.36 22.13 20.72 18.75 18.07 17.43 14.55 15.37 14.38 14.38 12.63 12.45 11.82 13.97 13.70 13.44 12.03
28.77 26.14 18.71 23.82 21.45 21.86 23.75 30.18 28.71 28.33 29.97 31.27 30.97 30.24 29.74 29.01 28.43 28.61 26.78 23.81 14.64 14.42 13.09 15.20 20.04 22.67 21.74 20.48 20.57 17.64 15.46 11.05 10.34 8.54 7.96 6.27 7.33 8.77 7.25 9.86 10.55 10.99 9.65 9.28
24.71 20.96 22.15 24.53 19.34 17.96 21.52 24.07 25.01 28.04 27.38 29.68 31.72 29.60 26.39 24.60 26.49 23.62 17.56 17.27 13.12 12.28 16.48 20.12 20.39 19.95 19.91 19.05 18.69 14.36 12.49 12.10 8.87 9.19 10.50 8.28 5.96 4.98 6.24 7.68 8.18 7.86 7.83 7.84
21.34 14.81 19.84 14.14 13.84 13.13 18.38 20.85 21.69 25.85 24.91 28.37 27.58 24.21 19.74 22.07 17.83 15.39 14.65 8.22 13.26 16.22 17.18 17.43 16.67 17.25 18.52 18.00 17.92 16.07 14.88 11.13 9.34 7.27 8.27 5.26 6.98 7.86 7.74 4.70 5.86 7.06 7.40 6.52

GFSNW_sfc_wetblb_111.txt.gz
Wetbulb
44.41 43.70 44.62 43.56 44.24 43.92 38.68 32.32 22.93 38.76 39.77 26.58 28.71 24.29 27.25 32.43 31.03 33.93 31.52 31.23 28.94 27.17 28.44 27.71 27.83 27.10 29.84 35.84 34.87 29.91 34.88 32.00 27.98 32.38 38.36 39.51 36.63 34.37 35.72 31.11 28.89 32.67 32.40 32.21
44.60 44.19 44.27 43.88 44.51 43.40 34.78 29.23 29.13 36.68 38.53 20.54 22.81 27.53 28.85 31.38 30.15 30.71 30.83 29.79 31.53 32.56 28.76 25.55 29.16 29.90 35.56 36.55 34.81 32.32 33.90 30.71 25.82 29.08 34.28 36.54 33.25 34.89 35.64 35.77 34.69 31.19 29.01 31.93
43.91 44.59 44.17 44.24 44.50 43.85 36.16 29.55 20.79 27.81 35.32 33.63 27.01 24.34 24.88 26.18 32.03 31.09 32.15 31.20 32.54 29.62 27.82 31.10 27.82 29.28 34.00 35.82 35.66 38.66 35.87 32.20 28.74 24.59 27.86 32.27 30.82 33.97 35.63 34.53 30.01 31.23 32.85 36.06
43.89 44.46 44.30 44.51 44.55 44.38 35.76 27.52 23.34 29.09 21.33 26.27 27.60 27.30 26.80 24.68 25.15 30.04 32.10 29.81 29.17 28.13 25.45 26.78 27.59 30.00 31.04 34.05 36.88 35.23 35.05 27.63 29.98 30.63 32.13 33.34 33.05 32.54 33.33 32.05 33.67 30.68 33.95 34.99
43.41 44.20 44.14 44.62 44.69 43.94 33.96 26.81 26.59 29.96 27.43 28.37 26.83 26.32 24.38 24.78 25.59 27.30 26.86 28.13 28.91 29.23 26.48 27.59 25.96 28.16 28.53 28.98 33.70 31.75 34.04 28.92 30.26 27.74 31.55 31.23 29.50 33.58 34.03 33.42 35.72 35.45 35.98 36.86
43.41 43.66 44.14 44.31 44.38 41.73 35.54 33.05 33.66 30.14 25.95 26.42 24.74 24.74 26.03 25.49 27.37 29.46 30.89 29.38 27.37 28.38 30.02 31.94 32.38 33.07 32.56 32.36 30.52 29.77 29.78 28.94 27.63 23.98 30.27 29.29 26.94 31.66 33.24 33.69 35.48 36.10 33.25 39.12
43.60 44.28 43.94 44.33 44.42 40.58 34.74 33.27 32.57 26.93 21.11 25.23 25.37 26.74 27.42 26.21 27.00 25.56 29.06 30.59 29.28 33.44 36.55 36.31 36.22 33.89 33.02 32.91 32.36 33.27 29.19 28.15 28.67 25.82 28.56 19.14 31.54 38.64 37.77 34.32 35.43 39.42 40.49 42.09
44.06 43.67 43.64 44.04 44.25 42.76 35.81 34.21 33.45 29.92 23.18 27.08 26.76 26.90 26.90 27.93 28.99 27.38 28.16 31.51 34.72 36.25 34.76 30.46 27.49 27.42 28.72 30.47 31.71 31.40 32.84 29.78 26.33 23.69 24.02 28.03 32.77 34.96 34.78 33.35 35.29 40.24 40.75 42.41
43.87 43.93 43.87 43.87 43.91 44.04 37.35 35.00 36.44 34.59 25.88 24.69 28.83 26.58 27.82 25.52 25.36 27.17 29.50 34.10 36.13 35.25 30.92 26.89 21.89 20.33 24.36 24.52 27.90 32.42 31.31 31.47 27.77 25.31 21.36 18.79 30.05 35.95 39.13 39.32 32.40 42.29 42.74 42.93
43.39 43.38 43.30 43.55 43.77 43.74 38.14 37.71 38.37 36.18 28.68 29.77 30.34 27.33 27.08 29.23 28.33 26.54 28.21 29.71 30.12 33.24 27.06 25.42 24.07 23.33 28.18 23.15 23.70 25.98 27.53 27.21 24.33 24.13 22.42 27.17 34.81 36.74 40.65 29.72 32.58 42.86 43.41 43.13
43.55 43.06 43.05 43.38 43.47 43.37 39.53 37.67 38.10 36.60 30.37 29.61 31.49 32.27 29.08 29.74 29.31 25.45 28.16 27.22 29.63 28.80 25.06 24.69 24.63 24.08 26.23 26.14 27.36 26.98 26.95 25.39 23.76 25.54 22.67 19.40 36.78 38.12 33.92 38.11 42.02 43.04 43.32 42.66
43.20 42.89 43.18 42.97 43.28 43.18 40.35 33.93 37.87 40.71 33.95 29.98 33.96 34.88 35.60 35.13 34.23 30.55 30.47 27.90 28.80 30.91 27.67 27.83 27.31 25.09 27.41 25.59 22.93 31.31 26.31 30.28 27.34 27.62 27.72 34.35 40.27 39.68 42.07 42.24 41.45 41.77 43.35 43.78
43.14 42.49 42.17 42.16 42.66 43.09 40.63 35.24 37.59 38.00 34.03 32.13 31.65 30.86 35.78 37.46 36.89 37.40 29.31 32.13 33.53 31.92 34.99 30.62 27.21 23.73 29.35 23.22 24.21 27.22 31.49 35.47 31.39 30.75 34.40 36.67 38.64 41.95 41.12 41.58 40.86 42.38 43.25 41.41
42.55 42.20 41.92 42.20 42.80 43.05 41.65 36.66 38.94 37.34 33.50 27.63 28.32 35.84 33.32 37.57 37.33 36.41 36.47 34.85 36.91 36.30 34.57 29.91 28.46 26.01 32.00 27.70 28.63 27.80 31.21 33.35 32.06 31.72 35.03 37.11 35.92 38.74 40.03 38.77 38.36 37.67 37.34 37.52
41.57 41.83 41.85 42.27 42.70 42.67 40.10 37.32 37.99 39.22 33.38 26.50 28.53 33.77 36.12 37.42 35.76 34.78 35.23 34.45 33.14 31.92 29.11 28.18 26.33 31.39 30.98 32.23 31.53 30.92 34.83 30.58 27.57 28.49 33.13 34.81 31.81 34.62 37.74 36.68 37.06 36.53 34.91 33.58
41.81 41.14 41.47 42.22 42.55 41.55 38.86 32.76 37.92 39.40 38.81 31.24 25.13 33.15 32.86 36.45 35.26 33.98 33.05 33.53 32.62 32.39 29.91 29.42 32.19 35.19 32.74 27.73 25.96 33.99 35.16 34.06 32.61 30.73 34.61 32.92 35.11 33.79 34.94 34.16 33.65 32.89 31.95 31.12
41.59 41.19 41.61 42.20 42.54 39.50 32.87 29.79 36.99 40.83 39.82 32.06 27.05 27.20 32.57 34.82 33.86 32.71 32.16 33.51 33.20 32.53 31.07 30.49 31.56 31.87 32.87 29.22 24.76 30.82 32.13 35.18 33.98 33.13 32.42 30.43 30.58 30.00 32.23 34.43 32.22 31.90 29.82 29.30
41.27 40.92 41.41 41.94 42.23 40.64 36.30 39.07 41.44 41.52 36.11 34.54 27.35 26.00 28.70 34.73 30.27 29.75 33.08 30.68 32.85 34.28 32.88 32.60 30.95 31.99 31.78 26.84 29.57 29.53 29.20 31.03 29.75 31.06 31.05 29.95 30.21 30.62 31.10 32.55 33.91 30.26 28.31 27.61
41.02 40.75 41.21 39.13 37.59 34.16 36.63 42.47 42.26 40.51 35.41 29.21 28.24 24.54 22.01 35.40 33.85 34.15 32.71 33.71 27.65 33.31 30.00 29.65 30.93 29.11 25.74 28.25 27.92 27.13 27.18 25.78 25.45 29.16 27.60 26.89 25.15 26.04 27.44 27.61 28.29 28.53 27.86 27.09
40.88 38.64 32.95 30.19 34.50 41.67 42.69 37.74 33.68 32.38 32.71 33.07 28.43 28.70 24.87 32.42 31.80 31.36 31.82 32.46 29.52 25.64 29.58 32.75 29.25 27.82 27.43 27.02 26.85 26.22 25.91 24.76 24.85 24.36 23.22 23.31 22.32 22.48 24.05 24.08 25.02 25.81 25.79 25.97
35.92 31.64 31.33 37.48 42.21 38.56 34.15 29.98 29.27 29.21 27.82 30.63 30.75 28.84 27.41 33.01 29.15 30.30 32.91 29.62 28.75 24.04 26.57 27.34 26.53 23.97 23.26 25.41 24.31 25.88 25.69 24.42 22.96 23.38 22.85 22.64 21.07 20.65 21.70 21.44 22.05 22.80 23.81 23.34
35.66 36.36 39.74 38.33 35.62 32.23 28.18 26.14 29.06 27.34 24.99 27.88 27.74 29.26 30.41 31.76 36.60 31.37 31.69 29.00 28.55 21.97 30.36 27.26 22.38 20.21 22.99 23.26 22.72 23.82 23.63 22.78 21.54 21.03 20.08 20.12 19.20 19.00 19.66 18.69 18.55 18.95 20.25 21.36
38.76 35.43 32.23 31.79 29.95 24.61 19.47 20.68 24.99 24.92 27.17 27.18 30.14 28.86 30.34 31.91 35.39 32.06 30.78 27.34 24.18 31.92 26.60 20.58 19.18 22.31 22.87 22.83 22.59 21.70 21.84 21.00 19.51 18.40 18.34 17.97 16.68 15.49 15.45 14.88 16.06 17.72 16.23 17.33
32.20 30.29 23.60 23.35 21.16 23.89 24.19 26.40 27.50 28.55 30.36 29.26 30.93 31.17 30.64 32.09 31.32 30.83 27.13 28.72 29.36 23.42 17.77 15.52 19.54 22.18 22.11 22.52 22.41 20.66 18.51 17.44 16.50 14.34 14.70 13.44 13.34 12.45 12.20 11.78 13.81 13.18 13.40 12.90
29.94 27.98 19.38 22.89 23.64 26.25 27.89 30.34 28.84 28.39 30.85 31.96 31.72 32.23 32.02 30.64 29.11 30.18 28.06 25.15 17.31 16.59 15.08 17.65 21.46 22.58 21.39 20.48 20.42 18.87 17.63 15.93 13.86 12.12 10.43 9.08 9.68 10.07 9.08 9.96 10.93 11.55 10.45 10.66
25.26 20.89 22.54 25.16 22.91 22.29 22.70 24.40 25.38 26.60 26.86 30.16 30.81 30.36 27.27 26.11 26.94 24.25 18.87 18.67 15.41 15.17 18.58 20.55 21.08 20.38 20.21 19.47 18.91 16.59 15.14 14.19 12.42 12.07 12.22 10.19 7.70 7.76 8.28 8.32 8.74 8.50 9.53 8.99
21.03 15.87 18.92 16.66 17.14 16.54 19.15 20.51 20.28 24.22 24.97 29.24 29.10 26.24 22.65 24.55 19.19 15.52 15.61 13.32 16.75 18.67 18.65 19.61 19.66 19.08 17.72 17.32 18.80 17.44 16.37 13.42 12.37 10.94 10.99 9.81 10.22 10.25 9.88 8.23 8.95 9.63 9.88 9.68

GFSNW_sfc_wetblb_114.txt.gz
Wetbulb
44.89 44.23 44.70 44.33 44.52 43.90 42.09 40.31 33.49 44.32 45.69 35.20 36.00 32.12 30.98 32.74 33.30 35.78 33.47 33.83 32.30 29.80 30.84 29.69 29.93 30.59 32.88 37.65 36.93 31.41 33.96 31.62 29.41 33.11 40.14 42.00 39.01 37.54 38.05 32.18 31.06 34.42 34.81 35.29
44.22 44.58 45.00 44.30 44.90 44.19 42.17 36.81 35.61 43.84 42.78 29.25 30.15 32.05 31.17 33.05 31.80 32.26 32.51 31.75 33.59 34.72 31.45 27.07 31.38 32.64 37.29 37.80 35.62 33.14 34.80 30.41 26.73 29.98 36.24 37.72 34.82 37.60 39.53 39.68 38.26 33.83 31.29 34.97
44.85 44.87 44.95 44.61 45.09 43.72 42.84 36.77 30.35 34.97 37.40 37.81 27.64 26.85 28.85 28.68 33.52 32.47 34.26 33.17 34.94 32.63 30.99 33.75 30.16 31.89 35.64 37.64 36.08 38.12 37.17 32.71 28.86 23.30 28.84 35.42 31.57 33.20 37.97 36.62 33.33 34.12 35.57 37.93
44.79 45.18 44.96 44.78 45.11 44.13 42.14 37.46 31.95 34.59 29.69 30.51 31.43 31.23 29.83 27.74 26.10 32.25 33.44 32.32 31.99 30.07 26.76 29.66 30.02 32.73 33.68 35.77 36.50 36.15 35.04 27.24 31.70 31.70 33.01 34.67 34.50 34.98 34.38 34.64 36.28 33.63 36.63 37.47
44.63 45.39 45.02 44.92 45.18 43.72 40.55 33.10 32.56 34.31 31.85 32.42 31.13 29.55 28.56 27.55 28.70 29.22 29.09 29.87 31.85 31.59 29.26 30.48 28.42 31.39 31.80 30.35 33.90 33.03 35.39 27.47 31.56 28.45 31.69 34.87 32.06 35.67 36.30 36.58 36.84 38.04 38.51 38.08
44.49 45.34 45.44 45.23 44.95 43.70 39.10 39.38 39.08 36.08 30.50 30.42 29.19 29.55 29.13 28.62 30.01 31.48 33.37 32.45 30.57 30.06 33.23 35.90 35.88 36.41 36.12 35.55 32.77 30.93 31.67 29.94 27.72 25.80 32.49 31.81 29.71 34.77 35.88 36.69 38.96 39.20 36.34 41.58
45.57 44.75 45.15 45.25 44.72 43.45 41.15 39.16 38.50 32.73 27.74 29.93 29.36 28.93 30.07 29.53 30.58 28.74 32.21 33.71 31.34 35.30 39.46 38.82 39.72 39.27 38.19 37.75 36.36 36.34 31.89 30.95 29.51 26.70 30.40 20.68 33.08 40.05 39.72 37.34 38.83 41.52 41.73 44.33
45.06 44.64 44.88 45.00 44.74 43.14 41.13 41.15 38.33 34.34 28.62 30.70 29.69 29.76 30.40 31.39 32.18 31.01 31.55 33.91 36.94 39.42 36.78 32.75 30.37 31.21 31.90 33.26 35.36 35.94 35.94 32.57 28.13 24.58 26.14 29.81 32.67 35.41 36.12 35.45 36.88 42.20 42.23 44.54
44.64 44.79 44.69 44.57 44.48 44.07 42.04 41.57 43.56 38.39 31.85 29.71 31.90 29.93 30.95 28.84 29.66 30.73 32.22 37.09 39.33 38.65 34.57 30.36 24.70 23.06 26.92 27.37 30.59 36.38 34.55 35.08 30.46 27.76 21.57 21.03 31.65 37.74 41.02 40.78 33.31 43.41 44.66 44.65
44.72 44.67 44.52 44.71 44.06 44.38 43.22 41.37 43.97 38.65 31.61 34.02 33.74 30.67 30.69 33.71 31.62 29.69 32.16 32.83 33.21 37.33 32.02 27.47 25.82 24.55 30.68 25.20 25.30 27.45 29.68 31.03 27.45 27.65 24.53 28.70 36.16 39.51 43.28 31.52 34.07 43.26 44.97 42.40
44.65 44.42 44.26 44.36 43.85 44.21 43.30 41.21 43.73 39.02 34.06 34.89 35.05 35.25 32.46 32.85 32.31 28.27 32.46 31.60 32.70 33.51 28.33 28.55 27.98 26.94 29.38 27.96 29.20 28.44 27.96 27.53 28.79 28.99 24.82 22.17 39.23 39.86 34.15 39.07 43.67 43.29 43.45 43.50
44.21 43.89 44.09 43.58 43.75 43.88 43.50 38.84 42.76 42.47 36.16 35.62 38.38 39.09 39.72 38.36 37.37 34.19 34.10 31.70 30.66 34.09 30.59 32.14 31.54 27.89 29.99 28.62 23.99 34.02 28.05 30.66 29.65 30.28 31.36 39.06 41.32 39.33 42.28 43.74 42.33 43.45 44.14 45.22
43.81 43.71 43.76 43.45 43.66 43.77 42.99 41.25 41.04 39.22 34.13 33.65 34.73 34.79 39.93 41.83 40.98 41.93 32.04 33.61 35.65 34.93 36.67 33.25 30.29 25.32 31.78 25.87 27.90 29.87 32.17 35.64 31.40 32.39 35.95 35.92 35.54 39.01 41.30 41.07 41.68 43.40 44.64 43.67
43.69 43.30 43.23 43.61 43.10 43.53 43.00 40.63 42.49 38.61 35.46 29.55 33.05 40.52 37.73 41.86 42.24 40.77 40.11 38.19 39.49 39.36 36.45 31.90 31.22 27.58 34.07 29.88 29.27 28.17 31.97 33.26 30.98 32.13 33.61 33.94 33.14 34.41 37.58 38.44 38.30 37.57 40.01 40.03
43.49 43.23 43.13 42.49 42.78 43.24 44.13 43.60 43.05 42.50 36.13 29.00 32.27 38.08 40.33 41.18 40.68 39.68 39.87 38.21 36.54 32.85 31.95 29.98 28.27 33.24 32.89 33.01 32.51 30.85 34.99 30.27 28.01 27.97 32.23 32.64 31.21 34.08 35.73 33.80 33.66 36.05 36.63 35.51
43.16 43.06 42.59 42.67 42.78 43.23 41.30 34.42 41.88 43.74 41.32 33.74 28.36 38.65 37.15 39.57 40.13 38.27 37.92 37.99 35.72 33.62 30.74 29.65 33.23 36.83 33.53 29.56 28.48 33.95 35.09 34.45 32.64 30.06 34.39 32.87 33.85 33.87 35.83 33.23 32.28 32.28 31.95 33.57
42.49 42.88 42.51 42.25 42.68 42.75 37.06 35.95 39.82 42.71 42.69 32.97 27.56 31.60 37.40 38.75 38.34 37.01 35.46 36.89 35.67 34.08 32.13 31.60 33.39 35.00 35.37 31.17 26.85 32.31 32.56 32.85 33.64 33.08 32.65 31.69 30.61 30.11 32.62 35.35 34.45 33.89 33.43 32.79
42.21 42.42 42.18 42.38 42.30 41.23 38.10 41.29 42.33 42.63 37.41 35.93 27.56 29.79 33.55 38.97 33.68 32.70 35.92 32.26 33.87 33.71 34.50 35.04 33.42 35.51 34.66 28.52 32.33 31.80 30.65 32.15 30.48 31.39 31.22 29.82 31.08 32.14 31.26 33.07 34.78 31.98 30.99 30.45
42.25 42.31 42.03 40.83 38.58 35.51 38.22 42.27 41.29 41.70 36.37 30.95 29.75 28.30 28.62 37.10 34.80 35.83 34.33 34.31 28.70 35.86 31.86 32.08 34.13 31.14 28.04 29.77 29.92 28.89 28.24 26.53 26.72 30.55 29.45 29.08 27.34 28.40 28.96 29.09 29.92 30.15 29.86 28.86
41.77 40.91 34.97 31.31 36.38 41.65 42.79 38.48 34.66 34.22 34.15 33.57 28.30 35.57 31.09 35.88 34.14 33.42 34.41 33.57 31.16 28.09 32.17 35.59 30.99 29.42 28.57 27.92 28.21 28.26 27.48 27.13 27.92 26.06 24.47 24.43 23.85 25.02 25.47 25.36 26.07 27.34 27.60 27.69
37.97 33.08 32.62 39.86 42.14 38.87 35.00 31.01 30.25 30.76 28.77 31.24 32.05 33.59 31.52 37.90 31.44 30.76 35.56 32.60 32.17 26.93 30.09 29.50 28.85 27.11 24.98 27.26 27.02 28.39 27.51 27.24 26.00 25.75 24.81 24.87 23.23 22.98 23.93 24.28 24.46 24.46 25.26 25.10
37.44 38.35 40.00 38.36 35.84 32.99 29.91 28.52 30.17 28.78 27.46 33.04 29.65 30.88 33.54 36.66 39.11 34.39 33.95 29.63 31.50 25.31 33.98 29.12 26.03 23.06 25.06 25.86 25.51 26.04 26.26 25.34 24.20 23.77 22.50 22.55 21.00 21.35 21.96 21.43 20.97 21.34 21.66 22.80
39.90 36.81 32.81 32.07 32.26 26.80 25.08 22.27 26.51 28.25 32.49 32.96 31.63 29.89 33.73 35.83 36.16 33.59 32.44 28.96 28.57 34.54 28.98 26.36 22.94 24.47 25.28 25.03 25.26 24.36 24.61 23.38 22.31 21.31 21.06 20.28 18.82 18.08 17.99 17.78 18.56 20.07 19.68 20.17
32.40 29.49 27.28 28.45 25.63 27.91 28.87 29.96 32.41 33.26 34.23 33.42 33.97 31.94 31.52 33.79 32.44 33.05 28.31 30.93 31.39 26.70 23.74 20.59 24.09 24.07 24.06 24.23 24.20 22.84 20.19 19.10 18.31 17.34 17.20 16.24 16.14 15.54 15.48 15.40 17.25 16.90 17.01 17.06
30.38 31.01 25.85 26.93 29.71 30.19 30.77 32.31 31.95 31.87 34.61 35.01 33.61 33.27 33.08 32.70 30.74 32.64 30.99 28.01 22.14 22.48 20.82 21.41 24.62 24.47 23.64 22.64 22.12 20.80 19.32 17.71 17.15 16.74 14.87 13.41 13.83 14.24 13.79 14.45 15.61 15.91 15.19 15.88
27.84 25.42 26.30 28.75 28.79 27.99 29.18 30.46 29.25 30.05 32.19 35.09 34.03 31.56 29.61 29.50 30.84 27.64 22.43 23.46 21.35 21.05 23.06 23.78 24.24 22.69 22.10 21.73 21.29 20.17 19.29 18.71 17.63 17.12 16.39 14.59 12.84 12.90 13.62 13.97 14.07 14.27 14.73 14.58
22.82 23.85 24.63 25.88 27.56 27.19 26.52 27.66 26.62 28.49 30.40 31.21 32.13 28.59 26.16 29.90 26.13 21.38 22.92 22.69 22.82 23.26 23.30 24.36 23.37 22.30 20.87 20.88 20.99 19.74 19.28 18.28 17.65 16.31 15.72 15.14 15.34 15.35 15.36 14.34 14.63 15.58 15.21 14.84

GFSNW_sfc_wetblb_117.txt.gz
Wetbulb
45.48 44.90 44.84 44.84 44.61 44.56 41.95 44.45 37.10 46.43 47.81 38.49 39.85 35.85 34.31 33.16 35.89 37.86 35.91 35.80 34.65 32.85 33.13 31.64 31.99 31.51 34.49 39.11 38.20 32.35 34.99 31.65 27.34 29.42 38.27 41.33 41.38 37.15 37.16 31.58 30.79 34.32 33.91 34.87
45.54 44.91 44.71 45.24 45.08 44.82 45.31 39.86 40.78 46.10 44.65 33.58 33.84 35.48 33.98 35.36 34.81 35.00 34.51 33.91 35.69 36.76 33.39 29.50 33.38 34.42 38.76 39.18 37.26 33.75 34.59 30.25 24.17 30.22 33.52 36.73 35.69 39.08 37.74 37.74 37.68 33.27 30.95 33.92
45.07 44.98 45.36 44.87 45.17 45.03 43.55 41.19 34.47 38.66 40.39 41.17 35.70 31.48 32.25 32.10 36.33 34.70 35.86 35.35 36.72 34.93 32.63 35.31 32.36 33.64 37.60 39.09 38.20 37.97 37.57 32.07 27.63 23.66 28.57 32.25 30.13 34.82 38.48 37.27 33.89 34.03 34.93 37.24
44.99 45.48 45.16 45.02 45.26 45.06 43.10 40.68 36.00 39.15 31.10 34.13 35.29 34.96 33.14 30.98 30.24 35.38 36.85 33.94 34.67 33.06 29.16 31.15 31.58 34.81 35.86 37.65 38.08 37.42 35.88 28.21 31.03 31.93 33.66 34.14 34.47 35.09 35.83 35.89 36.41 33.79 37.37 38.17
45.59 45.51 45.63 45.34 45.46 45.08 41.99 36.20 36.49 37.86 38.08 36.76 34.83 31.92 31.59 31.15 32.56 32.71 32.04 32.20 34.16 34.67 30.68 31.91 30.54 33.95 33.82 32.57 37.10 35.28 37.13 29.43 31.85 29.67 34.86 34.99 34.07 36.41 36.29 36.53 37.12 38.30 38.85 37.86
45.42 45.46 45.99 45.75 46.06 44.46 40.32 42.49 42.87 39.16 34.70 34.30 33.01 33.21 32.48 31.53 33.40 34.45 35.29 34.51 33.61 32.03 34.10 37.27 38.02 38.05 37.54 37.19 35.24 33.49 33.40 32.05 30.33 26.07 33.03 31.92 30.39 34.56 36.68 37.51 39.43 39.06 36.36 41.72
45.60 45.52 45.77 45.80 46.05 44.28 43.22 42.89 42.13 36.72 31.95 33.25 32.51 32.00 32.72 32.39 33.75 32.03 34.85 35.82 33.27 36.66 40.84 40.27 39.78 39.86 39.47 39.76 38.73 39.29 33.34 31.85 31.53 26.88 30.37 22.75 33.87 40.28 40.05 38.82 40.10 41.36 40.81 41.50
44.12 45.56 45.46 45.44 45.55 45.15 42.94 44.22 40.60 37.26 31.54 33.96 32.82 32.52 32.69 34.34 35.19 33.30 33.87 36.22 38.54 41.06 37.62 32.88 31.05 32.37 33.88 35.58 37.72 37.55 38.62 33.94 29.47 25.96 26.30 30.98 33.39 37.08 36.86 36.27 37.37 43.70 42.50 45.10
45.11 45.55 45.22 45.15 45.24 45.08 43.21 42.59 43.52 39.37 33.51 32.96 35.21 33.27 34.14 31.95 32.94 33.62 35.09 39.02 41.27 39.50 35.21 31.81 25.09 23.83 28.62 28.12 31.68 38.14 37.79 37.40 31.92 29.14 23.66 21.39 32.84 38.52 42.05 41.90 33.83 41.58 42.85 44.14
45.39 45.41 45.01 44.87 44.81 44.80 43.00 41.86 45.05 39.19 33.68 36.78 35.65 32.91 33.09 36.39 34.42 32.71 34.57 35.30 35.81 39.12 32.91 28.33 26.91 26.25 30.74 26.03 26.43 28.24 30.76 32.10 29.05 29.35 27.30 30.77 38.26 39.99 43.13 31.31 32.25 41.56 38.96 43.00
45.25 45.08 45.05 44.87 44.84 44.93 44.10 42.86 45.30 40.19 34.80 37.86 37.64 37.91 35.00 35.36 35.13 31.24 35.34 33.96 35.32 34.25 29.90 29.47 30.01 28.87 30.81 29.43 31.38 29.53 28.01 27.93 29.12 30.45 27.00 24.51 39.86 38.74 32.71 37.46 42.27 40.07 40.83 42.56
44.94 44.81 44.82 44.65 44.75 44.86 44.74 41.06 44.66 44.74 38.39 36.69 42.34 41.91 42.05 40.22 39.39 36.11 37.28 34.36 32.12 35.68 32.24 33.46 32.29 29.12 31.54 30.02 25.75 35.16 28.25 31.02 29.31 30.05 30.35 37.33 38.00 36.50 40.39 40.39 39.25 38.77 43.04 45.37
44.57 44.72 44.89 44.70 44.14 44.36 44.33 43.01 43.23 42.17 38.41 36.58 37.03 36.39 41.83 43.93 42.76 43.50 33.60 36.10 36.73 36.48 39.48 35.51 33.37 27.74 32.49 27.10 27.93 30.75 33.61 37.06 31.93 31.69 34.98 33.80 33.22 34.51 36.63 38.17 37.52 38.47 40.42 43.01
44.60 44.44 44.39 44.19 44.41 44.81 44.15 41.95 43.92 41.08 38.29 32.11 35.24 42.75 40.36 43.89 44.09 42.83 42.01 40.04 41.34 40.18 38.73 34.61 32.71 29.87 35.52 30.62 32.39 29.95 33.18 34.88 31.56 31.95 34.32 34.08 34.34 33.63 34.62 35.20 35.81 37.27 36.71 40.60
43.82 44.15 44.20 44.10 44.07 44.39 45.22 45.84 44.57 44.16 37.69 32.12 33.89 40.11 41.76 42.97 42.72 41.54 41.88 40.25 37.81 34.98 32.86 32.16 30.06 34.89 34.14 34.94 33.52 30.63 34.68 30.95 29.14 28.21 33.00 31.84 32.63 34.29 35.33 33.33 33.60 34.26 36.03 36.72
43.38 43.70 43.82 43.82 43.82 44.20 42.33 34.89 43.24 44.78 43.31 35.25 30.16 40.09 39.33 41.35 42.08 40.52 39.56 39.51 37.19 35.56 33.59 31.52 33.42 37.72 34.47 30.06 28.94 33.81 34.41 34.89 33.65 31.01 34.19 34.92 33.88 35.99 34.36 34.65 34.01 34.56 33.65 35.08
43.14 43.51 43.45 43.48 43.72 44.12 38.60 37.41 42.41 44.10 43.63 35.94 30.03 32.62 39.17 40.34 40.84 38.98 37.35 38.29 37.77 35.77 34.32 32.35 33.63 35.36 36.41 32.18 28.36 34.10 33.32 33.60 34.20 34.62 34.72 33.08 31.93 30.35 33.41 35.29 36.61 36.09 34.93 34.35
43.24 43.41 43.03 43.11 43.10 42.46 39.44 43.76 43.51 44.47 39.40 37.77 29.22 31.03 34.92 40.14 33.72 31.80 37.15 34.62 35.91 35.19 34.67 35.85 33.83 36.38 35.95 29.81 34.17 34.18 33.67 33.41 32.59 33.70 34.47 31.64 32.94 33.78 33.09 33.65 34.08 34.15 33.05 32.61
42.98 42.81 42.54 42.11 39.22 36.85 39.77 41.39 41.00 41.91 37.59 31.39 30.96 29.21 29.29 39.10 35.71 36.91 35.00 35.24 30.42 36.79 32.61 33.23 34.71 32.69 29.14 31.51 31.96 31.12 30.82 30.48 28.97 32.64 33.09 32.24 31.19 31.24 31.66 31.21 30.49 30.53 30.78 31.39
42.42 41.45 35.05 31.66 38.28 42.90 42.13 39.00 35.26 35.82 36.24 35.68 30.14 36.01 32.07 37.26 35.00 33.99 33.99 34.50 31.53 29.57 32.91 37.08 32.37 31.50 31.99 30.94 30.77 31.10 30.43 30.79 30.26 28.50 27.74 27.01 26.94 27.35 28.64 28.76 28.57 28.24 28.49 29.09
38.84 35.24 35.00 40.92 43.26 39.96 36.14 30.75 29.33 31.33 28.33 32.94 33.65 34.54 33.60 39.73 32.79 31.82 36.78 33.23 33.84 27.89 32.04 31.09 30.11 29.21 27.01 30.27 29.80 30.24 30.72 30.23 29.09 28.92 27.44 26.09 24.71 24.86 25.85 26.58 26.51 25.96 25.49 24.91
39.10 39.85 41.26 40.71 36.06 32.32 29.10 28.18 30.43 29.16 27.86 34.50 31.85 33.24 36.18 37.13 39.90 35.01 35.63 30.75 32.16 26.11 36.10 30.31 27.85 25.10 27.72 28.27 27.61 28.40 28.67 27.97 27.19 26.65 25.44 24.73 22.60 21.68 23.54 22.82 21.84 22.12 22.71 23.34
41.47 37.66 33.76 32.56 31.20 25.18 24.48 23.37 26.34 28.70 34.05 35.92 34.82 31.42 35.94 37.28 37.36 34.84 32.82 27.51 28.35 36.34 30.27 28.39 25.16 25.93 27.17 27.42 27.56 26.39 26.83 25.79 24.48 23.83 23.64 22.65 21.15 20.13 18.93 19.13 20.31 21.12 21.38 21.28
33.86 30.26 25.85 28.78 26.80 28.97 30.36 30.68 32.50 36.14 37.24 36.19 33.81 32.27 33.88 35.56 32.93 33.77 29.42 31.86 32.10 27.96 26.37 24.10 26.04 26.46 25.98 26.02 26.11 24.75 21.80 20.95 20.65 19.35 19.16 18.20 18.56 17.87 17.96 17.79 19.36 18.89 18.78 19.58
31.86 30.20 26.86 28.32 32.11 32.69 33.14 35.06 34.56 34.46 37.15 36.04 34.79 35.83 34.22 32.54 31.31 32.51 31.71 28.98 26.38 25.14 23.45 23.37 25.52 25.80 25.34 24.65 24.20 22.96 20.80 19.51 19.78 19.53 17.17 16.05 16.14 17.31 16.87 17.49 18.30 18.56 18.02 18.43
30.67 28.64 28.46 30.95 30.56 29.17 31.67 32.38 30.87 35.47 35.31 38.03 38.48 31.93 29.78 29.55 31.34 28.90 26.71 25.87 24.42 24.65 25.69 26.40 26.01 24.60 24.43 23.82 23.23 22.10 21.53 21.18 20.30 19.78 19.28 17.81 15.96 16.03 17.12 17.31 17.56 17.04 17.50 17.35
26.53 26.58 28.93 29.21 29.86 29.88 29.37 31.34 30.26 33.41 33.41 32.26 32.47 28.43 27.13 33.53 28.40 25.85 28.30 25.09 25.35 25.28 25.50 26.02 26.05 24.20 22.86 22.92 22.77 21.73 21.45 20.52 20.03 18.81 18.44 18.23 18.65 18.41 18.74 17.81 17.79 18.81 18.60 18.39

GFSNW_sfc_wetblb_120.txt.gz
Wetbulb
45.96 45.24 44.90 44.79 44.55 44.39 41.77 43.60 37.67 46.36 48.08 38.29 39.47 35.79 36.40 34.17 37.23 38.70 36.35 36.10 34.40 33.06 33.46 31.65 31.68 31.21 34.40 38.86 38.39 32.48 36.09 31.50 24.82 28.85 35.35 38.41 37.23 32.79 34.18 29.14 27.50 32.31 31.96 31.91
45.96 45.18 44.94 45.08 44.55 44.88 43.83 39.07 40.44 45.84 45.39 33.64 34.68 37.43 35.76 36.30 35.85 36.00 35.37 34.51 36.04 36.53 33.11 29.52 32.69 33.56 38.26 38.90 36.83 34.14 34.83 28.70 23.14 25.97 31.87 34.94 32.32 34.69 35.57 35.65 35.84 30.95 28.31 32.03
45.45 45.70 44.94 45.30 44.66 44.99 42.98 40.81 34.87 38.57 39.06 39.69 36.12 35.42 33.97 33.29 37.17 35.98 36.42 35.23 36.70 34.23 32.89 35.28 31.51 32.43 36.75 38.87 37.95 37.81 37.93 31.34 26.96 21.96 26.23 31.54 28.82 32.51 34.48 35.07 29.43 31.56 33.03 35.36
45.81 45.38 44.96 45.54 44.80 44.88 41.92 40.85 36.15 39.34 32.53 34.33 35.80 36.89 34.83 32.71 31.92 35.90 36.58 34.26 34.16 33.01 29.93 31.35 30.48 33.43 34.62 37.13 38.90 37.14 36.06 28.00 30.42 31.48 32.67 33.15 33.01 33.64 35.15 34.21 35.48 30.65 34.89 35.98
46.32 45.20 45.45 45.58 45.08 45.07 40.95 37.03 36.30 38.59 36.11 37.54 35.32 33.57 33.33 32.85 34.16 34.13 32.46 32.25 34.30 34.59 31.16 31.90 29.23 32.24 32.58 31.92 35.12 34.16 36.55 28.45 31.61 29.47 33.13 34.13 31.44 34.67 35.77 36.11 36.55 35.77 37.20 37.19
46.07 45.84 46.09 46.04 45.61 44.60 39.05 41.98 42.14 38.61 36.28 35.45 33.78 33.79 33.58 33.45 35.36 35.50 36.16 34.71 33.13 31.97 33.97 36.25 36.41 37.12 36.38 35.39 33.39 33.28 33.78 31.19 29.15 25.26 31.86 31.76 29.05 32.23 33.62 34.60 38.37 38.70 34.81 39.53
46.16 45.74 46.01 46.12 46.10 44.82 43.04 42.60 41.31 35.68 31.15 33.75 33.46 34.78 35.69 34.51 34.31 32.60 35.63 36.38 33.47 36.49 40.43 39.46 38.33 37.53 37.20 37.87 37.63 38.87 33.86 32.42 31.22 26.70 29.67 21.62 32.49 38.64 37.76 36.38 35.95 38.69 39.07 41.77
45.92 45.66 45.80 46.09 46.05 46.40 42.12 43.69 40.44 37.25 31.91 35.05 34.47 34.79 34.11 34.92 35.54 33.62 34.10 36.03 38.64 40.85 37.26 31.23 28.94 30.30 32.21 34.52 36.98 37.40 37.90 34.18 28.62 24.91 25.38 29.76 32.41 35.83 34.93 33.47 34.37 37.76 38.32 40.16
45.72 45.08 45.70 45.93 46.07 45.61 43.43 43.59 44.24 39.34 33.49 33.15 36.80 34.47 34.78 31.61 32.23 33.29 35.39 39.82 41.11 39.35 33.47 30.18 23.96 22.55 27.52 27.57 31.28 38.19 37.09 37.04 30.61 28.70 23.03 21.15 30.59 36.77 40.75 41.23 31.03 38.43 39.22 38.81
45.67 44.87 44.91 45.82 45.79 45.06 43.32 42.65 45.58 40.01 34.52 36.87 37.05 33.35 33.24 36.48 34.21 31.87 35.23 36.21 35.73 38.93 31.55 27.15 25.44 25.11 31.39 25.19 25.59 27.46 29.67 30.83 27.68 27.84 25.94 30.06 33.47 37.75 41.14 26.02 28.81 38.72 36.47 38.38
45.74 45.20 45.10 45.49 45.44 44.80 43.63 42.37 45.75 40.56 35.51 36.85 39.02 38.46 35.44 36.07 35.16 31.33 35.34 34.07 35.05 33.25 28.94 28.25 28.68 27.72 29.86 28.61 30.65 29.32 27.91 26.43 26.29 27.37 25.79 23.04 34.57 35.64 29.61 34.58 37.61 37.24 35.39 39.57
45.68 44.64 45.27 45.34 45.15 44.94 44.70 40.85 44.93 44.98 38.86 36.88 41.86 42.05 42.70 40.78 39.56 35.96 36.60 34.44 33.80 34.82 30.77 32.20 31.43 28.50 30.71 29.07 24.13 34.10 27.36 31.02 29.63 30.18 28.61 34.22 34.15 32.63 34.51 36.28 35.64 35.78 34.60 40.99
45.19 44.96 45.36 45.32 45.34 44.98 43.99 43.10 44.71 41.97 37.40 36.26 36.64 36.42 41.64 43.19 42.22 43.49 33.71 36.26 37.39 36.93 39.37 34.12 32.36 27.77 32.07 26.34 27.95 29.79 33.10 35.97 30.74 30.24 33.12 32.39 32.71 33.20 33.99 34.48 34.25 36.79 35.96 38.93
44.54 44.64 44.96 45.03 44.86 44.82 44.29 42.77 44.67 41.79 38.01 31.32 34.82 43.09 40.48 43.72 43.64 41.87 41.35 38.94 40.53 40.19 38.95 33.91 31.74 28.91 35.02 30.07 31.56 30.81 34.06 34.58 30.74 31.10 33.03 33.15 34.23 33.03 33.46 34.04 34.36 34.29 36.89 36.76
44.80 44.87 44.77 44.89 44.63 44.80 44.71 45.77 45.49 44.43 37.72 31.86 33.13 40.06 42.51 42.73 42.19 40.78 41.13 39.60 37.46 35.81 33.47 31.99 29.28 33.59 33.31 34.32 34.46 32.97 35.37 32.03 28.63 27.08 32.78 31.18 32.39 34.51 33.92 34.61 33.41 33.87 34.19 35.13
44.55 43.90 44.58 44.65 44.49 44.49 43.01 35.28 43.46 45.23 43.48 35.37 29.45 39.51 39.44 41.37 41.35 40.00 39.02 39.09 37.94 36.44 33.89 32.41 34.09 36.72 33.11 29.07 28.42 33.78 35.21 34.52 34.58 32.66 33.75 34.22 34.11 35.10 33.63 33.86 34.76 34.56 33.49 34.36
43.16 43.02 43.87 44.15 43.99 44.20 38.62 36.94 41.93 44.53 44.64 35.69 30.22 31.61 38.37 40.83 40.30 39.32 38.52 39.79 38.19 36.51 34.40 32.56 32.80 33.46 35.32 31.79 27.70 35.02 34.55 34.69 34.29 35.61 35.17 32.61 31.85 29.96 33.24 33.90 34.34 36.99 34.63 34.14
42.82 43.25 43.44 43.51 43.67 43.18 39.13 44.03 44.11 45.37 39.69 37.61 29.22 30.29 34.27 40.25 35.53 33.90 39.14 35.52 36.21 35.75 33.90 35.12 32.75 34.76 34.69 28.82 33.42 34.66 34.70 33.94 33.96 33.95 35.64 33.88 34.67 34.54 33.81 33.28 32.54 32.64 31.41 31.50
42.88 43.15 43.21 41.49 39.40 36.83 39.15 42.56 44.43 45.00 38.83 30.95 31.32 27.66 28.73 39.01 35.84 36.36 35.01 35.72 30.45 36.07 32.26 31.99 33.77 31.27 28.36 33.22 32.91 32.68 32.09 31.60 30.98 32.74 34.62 32.50 31.12 30.42 30.97 30.69 29.19 28.67 28.52 29.49
42.69 40.91 34.86 31.49 37.12 42.40 41.89 38.93 35.74 35.17 36.05 35.32 29.90 34.97 30.41 36.43 35.28 33.39 33.95 34.08 30.43 28.53 31.54 35.76 31.59 29.97 32.63 32.63 32.11 32.09 31.96 31.69 30.95 28.02 26.38 26.46 26.08 26.53 27.43 28.01 27.49 26.70 26.01 26.16
38.21 34.83 34.42 40.90 43.22 39.55 35.75 30.52 29.54 30.95 28.00 32.70 32.74 32.94 32.32 39.68 32.51 32.38 35.96 31.91 32.51 27.20 31.39 30.58 29.57 28.48 27.99 31.06 30.07 31.19 31.28 30.82 29.02 29.16 27.47 26.16 24.10 23.22 24.71 24.48 24.19 23.93 23.52 22.98
39.27 40.14 41.40 40.36 35.74 32.67 28.88 27.18 29.56 28.52 26.04 33.52 31.99 33.74 35.87 37.26 39.71 34.67 35.29 30.53 31.52 24.95 35.79 30.45 26.51 25.39 28.53 28.59 28.26 28.69 28.71 28.12 27.21 26.57 24.74 23.74 21.65 21.04 22.18 21.51 20.77 20.81 21.93 21.68
42.39 37.19 33.00 31.91 31.14 24.33 22.98 21.53 25.49 27.23 33.32 35.57 35.29 32.23 35.65 37.62 37.94 35.28 33.48 27.83 27.31 35.66 30.30 26.85 24.49 26.07 27.52 27.81 27.52 26.24 26.59 25.59 24.20 22.95 22.68 21.76 20.57 19.59 18.94 18.86 20.12 20.90 20.46 20.49
33.41 30.15 24.54 26.63 25.00 27.10 28.59 30.42 31.24 36.60 37.90 36.93 35.90 33.02 33.40 36.12 33.12 32.99 27.33 31.26 31.90 27.25 25.15 22.65 25.39 26.31 26.41 26.53 26.12 24.07 20.76 20.14 20.61 19.15 18.73 17.88 18.75 18.24 18.33 18.35 19.71 18.96 18.46 19.66
32.28 30.71 25.04 27.60 32.47 33.29 34.03 36.83 35.95 36.96 39.37 37.07 34.94 34.23 34.03 32.03 31.06 31.97 30.78 28.21 25.85 25.51 21.91 24.34 26.14 26.87 26.02 24.94 24.31 22.95 21.03 20.79 20.64 19.88 17.40 16.12 16.31 18.05 17.22 17.93 18.38 18.33 18.67 18.45
31.22 29.46 27.27 31.94 31.31 30.43 32.76 32.58 32.40 35.94 37.00 38.55 37.00 32.45 29.45 29.07 30.91 28.36 26.82 26.00 23.62 24.05 25.12 25.97 26.15 25.06 24.37 23.85 23.16 22.18 21.89 22.02 20.78 20.04 19.87 18.21 17.17 17.03 17.81 17.85 18.46 17.26 17.46 17.18
27.89 28.85 29.93 29.56 30.91 29.49 28.92 31.54 30.71 33.37 33.47 32.16 32.95 27.59 27.69 32.73 28.57 26.53 26.93 23.84 24.84 25.92 26.15 26.61 25.72 23.98 23.09 23.50 22.72 21.89 22.43 21.14 20.76 19.56 19.05 18.62 19.45 19.63 19.62 18.29 18.24 19.20 19.03 18.90